<?xml version="1.0" encoding="UTF-8" standalone="no" ?>
<gpx xmlns="http://www.topografix.com/GPX/1/1" xmlns:xsi="http://www.w3.org/2001/XMLSchema-instance" xsi:schemaLocation="http://www.topografix.com/GPX/1/1 http://www.topografix.com/GPX/1/1/gpx.xsd" version="1.1" creator="VisuGPX - https://www.visugpx.com">
  <metadata>
    <name>Caranca Pic de l\'Enfer</name>
    <desc><![CDATA[Caranca Pic de l\'Enfer Descente par le vallon de Lori]]></desc>
  </metadata>
  <trk>
    <name><![CDATA[2015-06-05 17:24:09]]></name>
    <trkseg>
      <trkpt lat="42.46438" lon="2.22401">
        <ele>1803.57</ele>
        <time>2015-06-05T05:26:22Z</time>
      </trkpt>
      <trkpt lat="42.4646" lon="2.22323">
        <ele>1803.57</ele>
        <time>2015-06-05T05:26:48Z</time>
      </trkpt>
      <trkpt lat="42.46469" lon="2.2231">
        <ele>1803.57</ele>
        <time>2015-06-05T05:27:03Z</time>
      </trkpt>
      <trkpt lat="42.4647" lon="2.22317">
        <ele>1802.13</ele>
        <time>2015-06-05T05:27:08Z</time>
      </trkpt>
      <trkpt lat="42.4647" lon="2.22322">
        <ele>1805.49</ele>
        <time>2015-06-05T05:27:12Z</time>
      </trkpt>
      <trkpt lat="42.4647" lon="2.22323">
        <ele>1806.45</ele>
        <time>2015-06-05T05:27:13Z</time>
      </trkpt>
      <trkpt lat="42.46466" lon="2.22328">
        <ele>1809.34</ele>
        <time>2015-06-05T05:27:17Z</time>
      </trkpt>
      <trkpt lat="42.46462" lon="2.22333">
        <ele>1810.78</ele>
        <time>2015-06-05T05:27:21Z</time>
      </trkpt>
      <trkpt lat="42.46459" lon="2.22337">
        <ele>1814.15</ele>
        <time>2015-06-05T05:27:26Z</time>
      </trkpt>
      <trkpt lat="42.46458" lon="2.2234">
        <ele>1817.51</ele>
        <time>2015-06-05T05:27:31Z</time>
      </trkpt>
      <trkpt lat="42.46459" lon="2.2234">
        <ele>1820.87</ele>
        <time>2015-06-05T05:27:37Z</time>
      </trkpt>
      <trkpt lat="42.4646" lon="2.22346">
        <ele>1823.76</ele>
        <time>2015-06-05T05:27:45Z</time>
      </trkpt>
      <trkpt lat="42.46452" lon="2.22355">
        <ele>1826.64</ele>
        <time>2015-06-05T05:27:59Z</time>
      </trkpt>
      <trkpt lat="42.46443" lon="2.22367">
        <ele>1828.56</ele>
        <time>2015-06-05T05:28:13Z</time>
      </trkpt>
      <trkpt lat="42.46438" lon="2.22375">
        <ele>1830.49</ele>
        <time>2015-06-05T05:28:20Z</time>
      </trkpt>
      <trkpt lat="42.46436" lon="2.22386">
        <ele>1830.97</ele>
        <time>2015-06-05T05:28:35Z</time>
      </trkpt>
      <trkpt lat="42.46437" lon="2.22387">
        <ele>1830.97</ele>
        <time>2015-06-05T05:28:55Z</time>
      </trkpt>
      <trkpt lat="42.46438" lon="2.22396">
        <ele>1830.97</ele>
        <time>2015-06-05T05:29:18Z</time>
      </trkpt>
      <trkpt lat="42.46435" lon="2.22385">
        <ele>1830.49</ele>
        <time>2015-06-05T05:29:43Z</time>
      </trkpt>
      <trkpt lat="42.4643" lon="2.22384">
        <ele>1830.49</ele>
        <time>2015-06-05T05:29:59Z</time>
      </trkpt>
      <trkpt lat="42.46426" lon="2.22383">
        <ele>1830.49</ele>
        <time>2015-06-05T05:30:05Z</time>
      </trkpt>
      <trkpt lat="42.46425" lon="2.22384">
        <ele>1829.53</ele>
        <time>2015-06-05T05:30:07Z</time>
      </trkpt>
      <trkpt lat="42.46421" lon="2.22391">
        <ele>1827.6</ele>
        <time>2015-06-05T05:30:19Z</time>
      </trkpt>
      <trkpt lat="42.46418" lon="2.22399">
        <ele>1826.64</ele>
        <time>2015-06-05T05:30:37Z</time>
      </trkpt>
      <trkpt lat="42.4642" lon="2.22398">
        <ele>1827.12</ele>
        <time>2015-06-05T05:30:53Z</time>
      </trkpt>
      <trkpt lat="42.46422" lon="2.2239">
        <ele>1828.08</ele>
        <time>2015-06-05T05:31:04Z</time>
      </trkpt>
      <trkpt lat="42.46434" lon="2.22385">
        <ele>1830.97</ele>
        <time>2015-06-05T05:31:17Z</time>
      </trkpt>
      <trkpt lat="42.46434" lon="2.22384">
        <ele>1830.97</ele>
        <time>2015-06-05T05:31:18Z</time>
      </trkpt>
      <trkpt lat="42.46437" lon="2.22383">
        <ele>1830.97</ele>
        <time>2015-06-05T05:31:35Z</time>
      </trkpt>
      <trkpt lat="42.4643" lon="2.22388">
        <ele>1830.97</ele>
        <time>2015-06-05T05:32:04Z</time>
      </trkpt>
      <trkpt lat="42.46428" lon="2.22392">
        <ele>1830.97</ele>
        <time>2015-06-05T05:32:25Z</time>
      </trkpt>
      <trkpt lat="42.46435" lon="2.22392">
        <ele>1830.97</ele>
        <time>2015-06-05T05:32:43Z</time>
      </trkpt>
      <trkpt lat="42.46431" lon="2.22393">
        <ele>1830.97</ele>
        <time>2015-06-05T05:33:04Z</time>
      </trkpt>
      <trkpt lat="42.4643" lon="2.22384">
        <ele>1830.97</ele>
        <time>2015-06-05T05:33:27Z</time>
      </trkpt>
      <trkpt lat="42.46435" lon="2.22384">
        <ele>1830.97</ele>
        <time>2015-06-05T05:33:48Z</time>
      </trkpt>
      <trkpt lat="42.46435" lon="2.22388">
        <ele>1830.97</ele>
        <time>2015-06-05T05:34:04Z</time>
      </trkpt>
      <trkpt lat="42.4643" lon="2.22389">
        <ele>1830.97</ele>
        <time>2015-06-05T05:34:13Z</time>
      </trkpt>
      <trkpt lat="42.46431" lon="2.22369">
        <ele>1831.45</ele>
        <time>2015-06-05T05:34:27Z</time>
      </trkpt>
      <trkpt lat="42.46431" lon="2.22367">
        <ele>1831.45</ele>
        <time>2015-06-05T05:34:28Z</time>
      </trkpt>
      <trkpt lat="42.4643" lon="2.22364">
        <ele>1831.45</ele>
        <time>2015-06-05T05:34:30Z</time>
      </trkpt>
      <trkpt lat="42.46424" lon="2.22349">
        <ele>1831.45</ele>
        <time>2015-06-05T05:34:42Z</time>
      </trkpt>
      <trkpt lat="42.46424" lon="2.22349">
        <ele>1831.45</ele>
        <time>2015-06-05T05:34:43Z</time>
      </trkpt>
      <trkpt lat="42.46422" lon="2.22345">
        <ele>1831.45</ele>
        <time>2015-06-05T05:34:46Z</time>
      </trkpt>
      <trkpt lat="42.46421" lon="2.22338">
        <ele>1832.41</ele>
        <time>2015-06-05T05:35:00Z</time>
      </trkpt>
      <trkpt lat="42.46422" lon="2.22338">
        <ele>1832.41</ele>
        <time>2015-06-05T05:35:17Z</time>
      </trkpt>
      <trkpt lat="42.46421" lon="2.22335">
        <ele>1832.41</ele>
        <time>2015-06-05T05:35:30Z</time>
      </trkpt>
      <trkpt lat="42.46416" lon="2.22331">
        <ele>1832.41</ele>
        <time>2015-06-05T05:35:36Z</time>
      </trkpt>
      <trkpt lat="42.46413" lon="2.22322">
        <ele>1833.37</ele>
        <time>2015-06-05T05:35:43Z</time>
      </trkpt>
      <trkpt lat="42.46408" lon="2.22306">
        <ele>1833.85</ele>
        <time>2015-06-05T05:35:57Z</time>
      </trkpt>
      <trkpt lat="42.46407" lon="2.22301">
        <ele>1833.85</ele>
        <time>2015-06-05T05:36:00Z</time>
      </trkpt>
      <trkpt lat="42.46404" lon="2.22286">
        <ele>1835.29</ele>
        <time>2015-06-05T05:36:12Z</time>
      </trkpt>
      <trkpt lat="42.46402" lon="2.22278">
        <ele>1835.77</ele>
        <time>2015-06-05T05:36:18Z</time>
      </trkpt>
      <trkpt lat="42.46397" lon="2.22267">
        <ele>1836.74</ele>
        <time>2015-06-05T05:36:29Z</time>
      </trkpt>
      <trkpt lat="42.46396" lon="2.22265">
        <ele>1837.22</ele>
        <time>2015-06-05T05:36:31Z</time>
      </trkpt>
      <trkpt lat="42.46388" lon="2.22253">
        <ele>1838.66</ele>
        <time>2015-06-05T05:36:44Z</time>
      </trkpt>
      <trkpt lat="42.46387" lon="2.22249">
        <ele>1839.62</ele>
        <time>2015-06-05T05:36:49Z</time>
      </trkpt>
      <trkpt lat="42.46386" lon="2.22246">
        <ele>1839.62</ele>
        <time>2015-06-05T05:36:52Z</time>
      </trkpt>
      <trkpt lat="42.46383" lon="2.22234">
        <ele>1840.1</ele>
        <time>2015-06-05T05:37:01Z</time>
      </trkpt>
      <trkpt lat="42.46382" lon="2.22233">
        <ele>1840.1</ele>
        <time>2015-06-05T05:37:03Z</time>
      </trkpt>
      <trkpt lat="42.46374" lon="2.22219">
        <ele>1841.54</ele>
        <time>2015-06-05T05:37:17Z</time>
      </trkpt>
      <trkpt lat="42.46367" lon="2.22212">
        <ele>1842.5</ele>
        <time>2015-06-05T05:37:28Z</time>
      </trkpt>
      <trkpt lat="42.46356" lon="2.22203">
        <ele>1843.47</ele>
        <time>2015-06-05T05:37:42Z</time>
      </trkpt>
      <trkpt lat="42.46349" lon="2.22192">
        <ele>1844.91</ele>
        <time>2015-06-05T05:37:56Z</time>
      </trkpt>
      <trkpt lat="42.46345" lon="2.22187">
        <ele>1845.87</ele>
        <time>2015-06-05T05:38:07Z</time>
      </trkpt>
      <trkpt lat="42.46337" lon="2.22179">
        <ele>1847.31</ele>
        <time>2015-06-05T05:38:18Z</time>
      </trkpt>
      <trkpt lat="42.46331" lon="2.22171">
        <ele>1848.75</ele>
        <time>2015-06-05T05:38:30Z</time>
      </trkpt>
      <trkpt lat="42.46323" lon="2.22166">
        <ele>1849.71</ele>
        <time>2015-06-05T05:38:41Z</time>
      </trkpt>
      <trkpt lat="42.46322" lon="2.22165">
        <ele>1850.19</ele>
        <time>2015-06-05T05:38:43Z</time>
      </trkpt>
      <trkpt lat="42.4632" lon="2.22164">
        <ele>1850.19</ele>
        <time>2015-06-05T05:38:45Z</time>
      </trkpt>
      <trkpt lat="42.46314" lon="2.22163">
        <ele>1850.19</ele>
        <time>2015-06-05T05:38:52Z</time>
      </trkpt>
      <trkpt lat="42.46305" lon="2.22159">
        <ele>1851.16</ele>
        <time>2015-06-05T05:39:04Z</time>
      </trkpt>
      <trkpt lat="42.463" lon="2.22158">
        <ele>1852.6</ele>
        <time>2015-06-05T05:39:11Z</time>
      </trkpt>
      <trkpt lat="42.46289" lon="2.22153">
        <ele>1852.6</ele>
        <time>2015-06-05T05:39:23Z</time>
      </trkpt>
      <trkpt lat="42.46275" lon="2.22151">
        <ele>1853.08</ele>
        <time>2015-06-05T05:39:39Z</time>
      </trkpt>
      <trkpt lat="42.46269" lon="2.2215">
        <ele>1854.04</ele>
        <time>2015-06-05T05:39:47Z</time>
      </trkpt>
      <trkpt lat="42.46257" lon="2.2214">
        <ele>1854.52</ele>
        <time>2015-06-05T05:40:00Z</time>
      </trkpt>
      <trkpt lat="42.46247" lon="2.22136">
        <ele>1854.52</ele>
        <time>2015-06-05T05:40:12Z</time>
      </trkpt>
      <trkpt lat="42.46244" lon="2.22134">
        <ele>1855</ele>
        <time>2015-06-05T05:40:18Z</time>
      </trkpt>
      <trkpt lat="42.4624" lon="2.22133">
        <ele>1855.48</ele>
        <time>2015-06-05T05:40:22Z</time>
      </trkpt>
      <trkpt lat="42.46233" lon="2.22131">
        <ele>1856.44</ele>
        <time>2015-06-05T05:40:30Z</time>
      </trkpt>
      <trkpt lat="42.46223" lon="2.22126">
        <ele>1857.89</ele>
        <time>2015-06-05T05:40:43Z</time>
      </trkpt>
      <trkpt lat="42.46219" lon="2.22121">
        <ele>1858.85</ele>
        <time>2015-06-05T05:40:49Z</time>
      </trkpt>
      <trkpt lat="42.46214" lon="2.22119">
        <ele>1859.33</ele>
        <time>2015-06-05T05:40:56Z</time>
      </trkpt>
      <trkpt lat="42.46212" lon="2.22118">
        <ele>1859.33</ele>
        <time>2015-06-05T05:40:58Z</time>
      </trkpt>
      <trkpt lat="42.46201" lon="2.22115">
        <ele>1860.29</ele>
        <time>2015-06-05T05:41:11Z</time>
      </trkpt>
      <trkpt lat="42.46191" lon="2.22108">
        <ele>1861.25</ele>
        <time>2015-06-05T05:41:25Z</time>
      </trkpt>
      <trkpt lat="42.46184" lon="2.22099">
        <ele>1861.25</ele>
        <time>2015-06-05T05:41:36Z</time>
      </trkpt>
      <trkpt lat="42.46176" lon="2.22085">
        <ele>1862.21</ele>
        <time>2015-06-05T05:41:51Z</time>
      </trkpt>
      <trkpt lat="42.46171" lon="2.22075">
        <ele>1863.17</ele>
        <time>2015-06-05T05:42:03Z</time>
      </trkpt>
      <trkpt lat="42.46169" lon="2.22069">
        <ele>1864.13</ele>
        <time>2015-06-05T05:42:09Z</time>
      </trkpt>
      <trkpt lat="42.46169" lon="2.22065">
        <ele>1864.13</ele>
        <time>2015-06-05T05:42:12Z</time>
      </trkpt>
      <trkpt lat="42.46164" lon="2.22056">
        <ele>1865.09</ele>
        <time>2015-06-05T05:42:21Z</time>
      </trkpt>
      <trkpt lat="42.46159" lon="2.22046">
        <ele>1865.09</ele>
        <time>2015-06-05T05:42:30Z</time>
      </trkpt>
      <trkpt lat="42.46154" lon="2.22035">
        <ele>1865.09</ele>
        <time>2015-06-05T05:42:42Z</time>
      </trkpt>
      <trkpt lat="42.46149" lon="2.22024">
        <ele>1865.09</ele>
        <time>2015-06-05T05:42:53Z</time>
      </trkpt>
      <trkpt lat="42.46147" lon="2.22011">
        <ele>1865.09</ele>
        <time>2015-06-05T05:43:05Z</time>
      </trkpt>
      <trkpt lat="42.46144" lon="2.22005">
        <ele>1865.58</ele>
        <time>2015-06-05T05:43:11Z</time>
      </trkpt>
      <trkpt lat="42.46139" lon="2.21993">
        <ele>1866.06</ele>
        <time>2015-06-05T05:43:24Z</time>
      </trkpt>
      <trkpt lat="42.46137" lon="2.21989">
        <ele>1867.02</ele>
        <time>2015-06-05T05:43:36Z</time>
      </trkpt>
      <trkpt lat="42.46136" lon="2.21979">
        <ele>1867.98</ele>
        <time>2015-06-05T05:43:47Z</time>
      </trkpt>
      <trkpt lat="42.46136" lon="2.21967">
        <ele>1868.94</ele>
        <time>2015-06-05T05:43:58Z</time>
      </trkpt>
      <trkpt lat="42.46136" lon="2.21955">
        <ele>1869.9</ele>
        <time>2015-06-05T05:44:10Z</time>
      </trkpt>
      <trkpt lat="42.46135" lon="2.21943">
        <ele>1870.86</ele>
        <time>2015-06-05T05:44:22Z</time>
      </trkpt>
      <trkpt lat="42.46134" lon="2.21931">
        <ele>1871.82</ele>
        <time>2015-06-05T05:44:34Z</time>
      </trkpt>
      <trkpt lat="42.46134" lon="2.21918">
        <ele>1873.75</ele>
        <time>2015-06-05T05:44:46Z</time>
      </trkpt>
      <trkpt lat="42.46131" lon="2.21907">
        <ele>1875.67</ele>
        <time>2015-06-05T05:45:00Z</time>
      </trkpt>
      <trkpt lat="42.46127" lon="2.21899">
        <ele>1877.11</ele>
        <time>2015-06-05T05:45:12Z</time>
      </trkpt>
      <trkpt lat="42.46121" lon="2.21893">
        <ele>1877.11</ele>
        <time>2015-06-05T05:45:23Z</time>
      </trkpt>
      <trkpt lat="42.46117" lon="2.21889">
        <ele>1878.55</ele>
        <time>2015-06-05T05:45:36Z</time>
      </trkpt>
      <trkpt lat="42.46109" lon="2.21888">
        <ele>1878.55</ele>
        <time>2015-06-05T05:45:49Z</time>
      </trkpt>
      <trkpt lat="42.46101" lon="2.21888">
        <ele>1877.59</ele>
        <time>2015-06-05T05:46:01Z</time>
      </trkpt>
      <trkpt lat="42.46093" lon="2.21891">
        <ele>1876.15</ele>
        <time>2015-06-05T05:46:11Z</time>
      </trkpt>
      <trkpt lat="42.46091" lon="2.21892">
        <ele>1876.15</ele>
        <time>2015-06-05T05:46:15Z</time>
      </trkpt>
      <trkpt lat="42.46081" lon="2.21891">
        <ele>1877.59</ele>
        <time>2015-06-05T05:46:28Z</time>
      </trkpt>
      <trkpt lat="42.46071" lon="2.21885">
        <ele>1879.03</ele>
        <time>2015-06-05T05:46:43Z</time>
      </trkpt>
      <trkpt lat="42.46066" lon="2.21876">
        <ele>1880</ele>
        <time>2015-06-05T05:46:56Z</time>
      </trkpt>
      <trkpt lat="42.46063" lon="2.21865">
        <ele>1881.92</ele>
        <time>2015-06-05T05:47:10Z</time>
      </trkpt>
      <trkpt lat="42.46063" lon="2.21846">
        <ele>1883.36</ele>
        <time>2015-06-05T05:47:25Z</time>
      </trkpt>
      <trkpt lat="42.46062" lon="2.21836">
        <ele>1884.8</ele>
        <time>2015-06-05T05:47:40Z</time>
      </trkpt>
      <trkpt lat="42.46061" lon="2.2183">
        <ele>1885.76</ele>
        <time>2015-06-05T05:47:59Z</time>
      </trkpt>
      <trkpt lat="42.46057" lon="2.21823">
        <ele>1888.65</ele>
        <time>2015-06-05T05:48:14Z</time>
      </trkpt>
      <trkpt lat="42.46053" lon="2.21814">
        <ele>1890.57</ele>
        <time>2015-06-05T05:48:28Z</time>
      </trkpt>
      <trkpt lat="42.46052" lon="2.21807">
        <ele>1892.97</ele>
        <time>2015-06-05T05:48:43Z</time>
      </trkpt>
      <trkpt lat="42.4605" lon="2.218">
        <ele>1894.42</ele>
        <time>2015-06-05T05:49:00Z</time>
      </trkpt>
      <trkpt lat="42.4605" lon="2.21787">
        <ele>1897.3</ele>
        <time>2015-06-05T05:49:19Z</time>
      </trkpt>
      <trkpt lat="42.46046" lon="2.21784">
        <ele>1899.22</ele>
        <time>2015-06-05T05:49:37Z</time>
      </trkpt>
      <trkpt lat="42.46043" lon="2.21781">
        <ele>1901.14</ele>
        <time>2015-06-05T05:49:49Z</time>
      </trkpt>
      <trkpt lat="42.46038" lon="2.21775">
        <ele>1902.59</ele>
        <time>2015-06-05T05:50:02Z</time>
      </trkpt>
      <trkpt lat="42.46031" lon="2.21774">
        <ele>1904.03</ele>
        <time>2015-06-05T05:50:15Z</time>
      </trkpt>
      <trkpt lat="42.46027" lon="2.21769">
        <ele>1905.47</ele>
        <time>2015-06-05T05:50:28Z</time>
      </trkpt>
      <trkpt lat="42.46019" lon="2.21762">
        <ele>1907.39</ele>
        <time>2015-06-05T05:50:42Z</time>
      </trkpt>
      <trkpt lat="42.46012" lon="2.21756">
        <ele>1908.83</ele>
        <time>2015-06-05T05:50:56Z</time>
      </trkpt>
      <trkpt lat="42.46005" lon="2.21753">
        <ele>1909.8</ele>
        <time>2015-06-05T05:51:07Z</time>
      </trkpt>
      <trkpt lat="42.45996" lon="2.21753">
        <ele>1910.28</ele>
        <time>2015-06-05T05:51:20Z</time>
      </trkpt>
      <trkpt lat="42.45991" lon="2.21755">
        <ele>1910.76</ele>
        <time>2015-06-05T05:51:32Z</time>
      </trkpt>
      <trkpt lat="42.45986" lon="2.21753">
        <ele>1910.76</ele>
        <time>2015-06-05T05:51:44Z</time>
      </trkpt>
      <trkpt lat="42.45978" lon="2.21745">
        <ele>1910.76</ele>
        <time>2015-06-05T05:51:56Z</time>
      </trkpt>
      <trkpt lat="42.45972" lon="2.21735">
        <ele>1912.68</ele>
        <time>2015-06-05T05:52:09Z</time>
      </trkpt>
      <trkpt lat="42.45966" lon="2.21731">
        <ele>1913.16</ele>
        <time>2015-06-05T05:52:21Z</time>
      </trkpt>
      <trkpt lat="42.45958" lon="2.21728">
        <ele>1913.64</ele>
        <time>2015-06-05T05:52:34Z</time>
      </trkpt>
      <trkpt lat="42.4595" lon="2.2173">
        <ele>1913.64</ele>
        <time>2015-06-05T05:52:47Z</time>
      </trkpt>
      <trkpt lat="42.45947" lon="2.2173">
        <ele>1913.64</ele>
        <time>2015-06-05T05:52:54Z</time>
      </trkpt>
      <trkpt lat="42.45938" lon="2.2173">
        <ele>1914.12</ele>
        <time>2015-06-05T05:53:08Z</time>
      </trkpt>
      <trkpt lat="42.45933" lon="2.21724">
        <ele>1916.53</ele>
        <time>2015-06-05T05:53:24Z</time>
      </trkpt>
      <trkpt lat="42.45926" lon="2.21724">
        <ele>1917.97</ele>
        <time>2015-06-05T05:53:38Z</time>
      </trkpt>
      <trkpt lat="42.45919" lon="2.21719">
        <ele>1918.45</ele>
        <time>2015-06-05T05:53:50Z</time>
      </trkpt>
      <trkpt lat="42.45912" lon="2.21712">
        <ele>1919.41</ele>
        <time>2015-06-05T05:54:05Z</time>
      </trkpt>
      <trkpt lat="42.45904" lon="2.21706">
        <ele>1919.89</ele>
        <time>2015-06-05T05:54:18Z</time>
      </trkpt>
      <trkpt lat="42.459" lon="2.21697">
        <ele>1921.81</ele>
        <time>2015-06-05T05:54:31Z</time>
      </trkpt>
      <trkpt lat="42.45891" lon="2.21691">
        <ele>1923.74</ele>
        <time>2015-06-05T05:54:45Z</time>
      </trkpt>
      <trkpt lat="42.45885" lon="2.21681">
        <ele>1925.18</ele>
        <time>2015-06-05T05:54:58Z</time>
      </trkpt>
      <trkpt lat="42.4588" lon="2.21672">
        <ele>1926.62</ele>
        <time>2015-06-05T05:55:13Z</time>
      </trkpt>
      <trkpt lat="42.45878" lon="2.21671">
        <ele>1927.1</ele>
        <time>2015-06-05T05:55:16Z</time>
      </trkpt>
      <trkpt lat="42.45871" lon="2.21664">
        <ele>1928.54</ele>
        <time>2015-06-05T05:55:31Z</time>
      </trkpt>
      <trkpt lat="42.45865" lon="2.21656">
        <ele>1929.5</ele>
        <time>2015-06-05T05:55:42Z</time>
      </trkpt>
      <trkpt lat="42.45862" lon="2.21648">
        <ele>1929.98</ele>
        <time>2015-06-05T05:55:54Z</time>
      </trkpt>
      <trkpt lat="42.45858" lon="2.21637">
        <ele>1930.95</ele>
        <time>2015-06-05T05:56:08Z</time>
      </trkpt>
      <trkpt lat="42.45857" lon="2.21628">
        <ele>1931.43</ele>
        <time>2015-06-05T05:56:21Z</time>
      </trkpt>
      <trkpt lat="42.45854" lon="2.21619">
        <ele>1932.39</ele>
        <time>2015-06-05T05:56:37Z</time>
      </trkpt>
      <trkpt lat="42.45852" lon="2.21609">
        <ele>1934.31</ele>
        <time>2015-06-05T05:56:51Z</time>
      </trkpt>
      <trkpt lat="42.45848" lon="2.21603">
        <ele>1935.75</ele>
        <time>2015-06-05T05:57:05Z</time>
      </trkpt>
      <trkpt lat="42.45847" lon="2.21596">
        <ele>1937.19</ele>
        <time>2015-06-05T05:57:17Z</time>
      </trkpt>
      <trkpt lat="42.45841" lon="2.21589">
        <ele>1938.16</ele>
        <time>2015-06-05T05:57:32Z</time>
      </trkpt>
      <trkpt lat="42.45833" lon="2.21583">
        <ele>1938.64</ele>
        <time>2015-06-05T05:57:47Z</time>
      </trkpt>
      <trkpt lat="42.45828" lon="2.21578">
        <ele>1939.6</ele>
        <time>2015-06-05T05:58:06Z</time>
      </trkpt>
      <trkpt lat="42.45828" lon="2.21573">
        <ele>1939.6</ele>
        <time>2015-06-05T05:58:30Z</time>
      </trkpt>
      <trkpt lat="42.45826" lon="2.21574">
        <ele>1939.6</ele>
        <time>2015-06-05T05:58:54Z</time>
      </trkpt>
      <trkpt lat="42.45825" lon="2.21572">
        <ele>1940.08</ele>
        <time>2015-06-05T05:59:17Z</time>
      </trkpt>
      <trkpt lat="42.45827" lon="2.21573">
        <ele>1940.08</ele>
        <time>2015-06-05T05:59:39Z</time>
      </trkpt>
      <trkpt lat="42.45825" lon="2.21573">
        <ele>1940.08</ele>
        <time>2015-06-05T05:59:58Z</time>
      </trkpt>
      <trkpt lat="42.45823" lon="2.2157">
        <ele>1940.56</ele>
        <time>2015-06-05T06:00:21Z</time>
      </trkpt>
      <trkpt lat="42.45823" lon="2.21561">
        <ele>1942.48</ele>
        <time>2015-06-05T06:00:33Z</time>
      </trkpt>
      <trkpt lat="42.4582" lon="2.21554">
        <ele>1944.4</ele>
        <time>2015-06-05T06:00:48Z</time>
      </trkpt>
      <trkpt lat="42.45818" lon="2.21548">
        <ele>1946.33</ele>
        <time>2015-06-05T06:00:59Z</time>
      </trkpt>
      <trkpt lat="42.45816" lon="2.2154">
        <ele>1947.77</ele>
        <time>2015-06-05T06:01:14Z</time>
      </trkpt>
      <trkpt lat="42.45811" lon="2.21525">
        <ele>1950.17</ele>
        <time>2015-06-05T06:01:29Z</time>
      </trkpt>
      <trkpt lat="42.45813" lon="2.21514">
        <ele>1952.09</ele>
        <time>2015-06-05T06:01:44Z</time>
      </trkpt>
      <trkpt lat="42.45809" lon="2.21508">
        <ele>1954.5</ele>
        <time>2015-06-05T06:02:01Z</time>
      </trkpt>
      <trkpt lat="42.45811" lon="2.21498">
        <ele>1956.9</ele>
        <time>2015-06-05T06:02:19Z</time>
      </trkpt>
      <trkpt lat="42.45815" lon="2.21487">
        <ele>1958.82</ele>
        <time>2015-06-05T06:02:36Z</time>
      </trkpt>
      <trkpt lat="42.45814" lon="2.21482">
        <ele>1961.23</ele>
        <time>2015-06-05T06:02:52Z</time>
      </trkpt>
      <trkpt lat="42.45815" lon="2.21469">
        <ele>1963.15</ele>
        <time>2015-06-05T06:03:08Z</time>
      </trkpt>
      <trkpt lat="42.45817" lon="2.21459">
        <ele>1964.59</ele>
        <time>2015-06-05T06:03:23Z</time>
      </trkpt>
      <trkpt lat="42.45819" lon="2.21449">
        <ele>1966.99</ele>
        <time>2015-06-05T06:03:40Z</time>
      </trkpt>
      <trkpt lat="42.45815" lon="2.21441">
        <ele>1968.92</ele>
        <time>2015-06-05T06:03:57Z</time>
      </trkpt>
      <trkpt lat="42.45814" lon="2.21433">
        <ele>1970.84</ele>
        <time>2015-06-05T06:04:11Z</time>
      </trkpt>
      <trkpt lat="42.45813" lon="2.21426">
        <ele>1972.28</ele>
        <time>2015-06-05T06:04:24Z</time>
      </trkpt>
      <trkpt lat="42.45811" lon="2.21419">
        <ele>1973.72</ele>
        <time>2015-06-05T06:04:39Z</time>
      </trkpt>
      <trkpt lat="42.45809" lon="2.21408">
        <ele>1975.65</ele>
        <time>2015-06-05T06:04:53Z</time>
      </trkpt>
      <trkpt lat="42.45803" lon="2.21401">
        <ele>1977.57</ele>
        <time>2015-06-05T06:05:07Z</time>
      </trkpt>
      <trkpt lat="42.45801" lon="2.21395">
        <ele>1979.01</ele>
        <time>2015-06-05T06:05:21Z</time>
      </trkpt>
      <trkpt lat="42.45799" lon="2.21389">
        <ele>1980.93</ele>
        <time>2015-06-05T06:05:35Z</time>
      </trkpt>
      <trkpt lat="42.45798" lon="2.21379">
        <ele>1981.9</ele>
        <time>2015-06-05T06:05:48Z</time>
      </trkpt>
      <trkpt lat="42.45795" lon="2.21372">
        <ele>1983.34</ele>
        <time>2015-06-05T06:06:04Z</time>
      </trkpt>
      <trkpt lat="42.45791" lon="2.21364">
        <ele>1985.26</ele>
        <time>2015-06-05T06:06:20Z</time>
      </trkpt>
      <trkpt lat="42.45786" lon="2.21359">
        <ele>1986.22</ele>
        <time>2015-06-05T06:06:32Z</time>
      </trkpt>
      <trkpt lat="42.4578" lon="2.21353">
        <ele>1987.18</ele>
        <time>2015-06-05T06:06:46Z</time>
      </trkpt>
      <trkpt lat="42.45778" lon="2.21345">
        <ele>1988.62</ele>
        <time>2015-06-05T06:06:59Z</time>
      </trkpt>
      <trkpt lat="42.45776" lon="2.21336">
        <ele>1990.07</ele>
        <time>2015-06-05T06:07:10Z</time>
      </trkpt>
      <trkpt lat="42.45771" lon="2.21327">
        <ele>1991.99</ele>
        <time>2015-06-05T06:07:26Z</time>
      </trkpt>
      <trkpt lat="42.45768" lon="2.21317">
        <ele>1993.91</ele>
        <time>2015-06-05T06:07:41Z</time>
      </trkpt>
      <trkpt lat="42.45768" lon="2.21305">
        <ele>1997.76</ele>
        <time>2015-06-05T06:07:58Z</time>
      </trkpt>
      <trkpt lat="42.45767" lon="2.21295">
        <ele>1999.2</ele>
        <time>2015-06-05T06:08:12Z</time>
      </trkpt>
      <trkpt lat="42.45767" lon="2.21294">
        <ele>1999.2</ele>
        <time>2015-06-05T06:08:13Z</time>
      </trkpt>
      <trkpt lat="42.45765" lon="2.21289">
        <ele>1998.72</ele>
        <time>2015-06-05T06:08:27Z</time>
      </trkpt>
      <trkpt lat="42.4576" lon="2.21283">
        <ele>2001.12</ele>
        <time>2015-06-05T06:08:41Z</time>
      </trkpt>
      <trkpt lat="42.45755" lon="2.2128">
        <ele>2002.56</ele>
        <time>2015-06-05T06:08:52Z</time>
      </trkpt>
      <trkpt lat="42.45755" lon="2.21271">
        <ele>2004.49</ele>
        <time>2015-06-05T06:09:07Z</time>
      </trkpt>
      <trkpt lat="42.45756" lon="2.21267">
        <ele>2005.45</ele>
        <time>2015-06-05T06:09:19Z</time>
      </trkpt>
      <trkpt lat="42.45757" lon="2.21262">
        <ele>2007.37</ele>
        <time>2015-06-05T06:09:35Z</time>
      </trkpt>
      <trkpt lat="42.45758" lon="2.21256">
        <ele>2009.29</ele>
        <time>2015-06-05T06:09:51Z</time>
      </trkpt>
      <trkpt lat="42.45758" lon="2.21251">
        <ele>2011.22</ele>
        <time>2015-06-05T06:10:05Z</time>
      </trkpt>
      <trkpt lat="42.45755" lon="2.21244">
        <ele>2013.14</ele>
        <time>2015-06-05T06:10:20Z</time>
      </trkpt>
      <trkpt lat="42.45754" lon="2.2124">
        <ele>2014.58</ele>
        <time>2015-06-05T06:10:33Z</time>
      </trkpt>
      <trkpt lat="42.45751" lon="2.21237">
        <ele>2016.5</ele>
        <time>2015-06-05T06:10:46Z</time>
      </trkpt>
      <trkpt lat="42.45749" lon="2.21232">
        <ele>2017.94</ele>
        <time>2015-06-05T06:11:00Z</time>
      </trkpt>
      <trkpt lat="42.45749" lon="2.2123">
        <ele>2019.39</ele>
        <time>2015-06-05T06:11:12Z</time>
      </trkpt>
      <trkpt lat="42.45746" lon="2.21225">
        <ele>2020.83</ele>
        <time>2015-06-05T06:11:28Z</time>
      </trkpt>
      <trkpt lat="42.45747" lon="2.21219">
        <ele>2022.27</ele>
        <time>2015-06-05T06:11:41Z</time>
      </trkpt>
      <trkpt lat="42.45746" lon="2.21215">
        <ele>2024.19</ele>
        <time>2015-06-05T06:11:55Z</time>
      </trkpt>
      <trkpt lat="42.45744" lon="2.2121">
        <ele>2026.12</ele>
        <time>2015-06-05T06:12:10Z</time>
      </trkpt>
      <trkpt lat="42.4574" lon="2.21208">
        <ele>2028.04</ele>
        <time>2015-06-05T06:12:25Z</time>
      </trkpt>
      <trkpt lat="42.45737" lon="2.21199">
        <ele>2030.44</ele>
        <time>2015-06-05T06:12:43Z</time>
      </trkpt>
      <trkpt lat="42.4573" lon="2.21193">
        <ele>2031.88</ele>
        <time>2015-06-05T06:12:59Z</time>
      </trkpt>
      <trkpt lat="42.45726" lon="2.2119">
        <ele>2033.33</ele>
        <time>2015-06-05T06:13:12Z</time>
      </trkpt>
      <trkpt lat="42.4572" lon="2.2119">
        <ele>2034.77</ele>
        <time>2015-06-05T06:13:26Z</time>
      </trkpt>
      <trkpt lat="42.45713" lon="2.21192">
        <ele>2035.73</ele>
        <time>2015-06-05T06:13:39Z</time>
      </trkpt>
      <trkpt lat="42.45706" lon="2.2119">
        <ele>2037.17</ele>
        <time>2015-06-05T06:13:54Z</time>
      </trkpt>
      <trkpt lat="42.45701" lon="2.21184">
        <ele>2038.61</ele>
        <time>2015-06-05T06:14:07Z</time>
      </trkpt>
      <trkpt lat="42.45695" lon="2.21182">
        <ele>2040.05</ele>
        <time>2015-06-05T06:14:19Z</time>
      </trkpt>
      <trkpt lat="42.45689" lon="2.21183">
        <ele>2040.54</ele>
        <time>2015-06-05T06:14:30Z</time>
      </trkpt>
      <trkpt lat="42.45684" lon="2.21181">
        <ele>2041.98</ele>
        <time>2015-06-05T06:14:41Z</time>
      </trkpt>
      <trkpt lat="42.4568" lon="2.21179">
        <ele>2042.94</ele>
        <time>2015-06-05T06:14:53Z</time>
      </trkpt>
      <trkpt lat="42.4568" lon="2.21166">
        <ele>2045.34</ele>
        <time>2015-06-05T06:15:08Z</time>
      </trkpt>
      <trkpt lat="42.45678" lon="2.21157">
        <ele>2045.82</ele>
        <time>2015-06-05T06:15:19Z</time>
      </trkpt>
      <trkpt lat="42.45672" lon="2.21151">
        <ele>2046.3</ele>
        <time>2015-06-05T06:15:30Z</time>
      </trkpt>
      <trkpt lat="42.45665" lon="2.21144">
        <ele>2046.3</ele>
        <time>2015-06-05T06:15:45Z</time>
      </trkpt>
      <trkpt lat="42.45664" lon="2.21136">
        <ele>2046.3</ele>
        <time>2015-06-05T06:15:57Z</time>
      </trkpt>
      <trkpt lat="42.45659" lon="2.21122">
        <ele>2047.75</ele>
        <time>2015-06-05T06:16:12Z</time>
      </trkpt>
      <trkpt lat="42.45654" lon="2.21112">
        <ele>2047.75</ele>
        <time>2015-06-05T06:16:24Z</time>
      </trkpt>
      <trkpt lat="42.45655" lon="2.211">
        <ele>2048.71</ele>
        <time>2015-06-05T06:16:35Z</time>
      </trkpt>
      <trkpt lat="42.45657" lon="2.21087">
        <ele>2048.71</ele>
        <time>2015-06-05T06:16:49Z</time>
      </trkpt>
      <trkpt lat="42.45652" lon="2.21076">
        <ele>2048.71</ele>
        <time>2015-06-05T06:17:01Z</time>
      </trkpt>
      <trkpt lat="42.45647" lon="2.21063">
        <ele>2048.71</ele>
        <time>2015-06-05T06:17:13Z</time>
      </trkpt>
      <trkpt lat="42.45641" lon="2.21056">
        <ele>2048.71</ele>
        <time>2015-06-05T06:17:25Z</time>
      </trkpt>
      <trkpt lat="42.45636" lon="2.21046">
        <ele>2047.75</ele>
        <time>2015-06-05T06:17:38Z</time>
      </trkpt>
      <trkpt lat="42.45636" lon="2.21044">
        <ele>2049.19</ele>
        <time>2015-06-05T06:17:40Z</time>
      </trkpt>
      <trkpt lat="42.45628" lon="2.21041">
        <ele>2050.15</ele>
        <time>2015-06-05T06:17:54Z</time>
      </trkpt>
      <trkpt lat="42.45621" lon="2.21041">
        <ele>2050.15</ele>
        <time>2015-06-05T06:18:05Z</time>
      </trkpt>
      <trkpt lat="42.45618" lon="2.21033">
        <ele>2051.11</ele>
        <time>2015-06-05T06:18:20Z</time>
      </trkpt>
      <trkpt lat="42.45613" lon="2.2103">
        <ele>2050.15</ele>
        <time>2015-06-05T06:18:33Z</time>
      </trkpt>
      <trkpt lat="42.45605" lon="2.21026">
        <ele>2048.71</ele>
        <time>2015-06-05T06:18:45Z</time>
      </trkpt>
      <trkpt lat="42.45601" lon="2.21016">
        <ele>2048.71</ele>
        <time>2015-06-05T06:18:57Z</time>
      </trkpt>
      <trkpt lat="42.45595" lon="2.21012">
        <ele>2050.63</ele>
        <time>2015-06-05T06:19:08Z</time>
      </trkpt>
      <trkpt lat="42.45589" lon="2.21012">
        <ele>2052.55</ele>
        <time>2015-06-05T06:19:21Z</time>
      </trkpt>
      <trkpt lat="42.45584" lon="2.21006">
        <ele>2053.51</ele>
        <time>2015-06-05T06:19:34Z</time>
      </trkpt>
      <trkpt lat="42.45579" lon="2.21002">
        <ele>2053.51</ele>
        <time>2015-06-05T06:19:45Z</time>
      </trkpt>
      <trkpt lat="42.45575" lon="2.20995">
        <ele>2054.96</ele>
        <time>2015-06-05T06:19:57Z</time>
      </trkpt>
      <trkpt lat="42.45572" lon="2.20985">
        <ele>2055.92</ele>
        <time>2015-06-05T06:20:11Z</time>
      </trkpt>
      <trkpt lat="42.45571" lon="2.20976">
        <ele>2056.4</ele>
        <time>2015-06-05T06:20:22Z</time>
      </trkpt>
      <trkpt lat="42.45572" lon="2.20966">
        <ele>2056.88</ele>
        <time>2015-06-05T06:20:35Z</time>
      </trkpt>
      <trkpt lat="42.45571" lon="2.20963">
        <ele>2055.92</ele>
        <time>2015-06-05T06:20:39Z</time>
      </trkpt>
      <trkpt lat="42.45569" lon="2.20954">
        <ele>2054.96</ele>
        <time>2015-06-05T06:20:53Z</time>
      </trkpt>
      <trkpt lat="42.45567" lon="2.20952">
        <ele>2054.47</ele>
        <time>2015-06-05T06:21:09Z</time>
      </trkpt>
      <trkpt lat="42.45565" lon="2.20947">
        <ele>2053.99</ele>
        <time>2015-06-05T06:21:21Z</time>
      </trkpt>
      <trkpt lat="42.45567" lon="2.20938">
        <ele>2053.51</ele>
        <time>2015-06-05T06:21:32Z</time>
      </trkpt>
      <trkpt lat="42.45569" lon="2.20937">
        <ele>2053.51</ele>
        <time>2015-06-05T06:21:36Z</time>
      </trkpt>
      <trkpt lat="42.45571" lon="2.20935">
        <ele>2054.96</ele>
        <time>2015-06-05T06:21:40Z</time>
      </trkpt>
      <trkpt lat="42.4557" lon="2.20926">
        <ele>2055.92</ele>
        <time>2015-06-05T06:21:48Z</time>
      </trkpt>
      <trkpt lat="42.45567" lon="2.20914">
        <ele>2056.4</ele>
        <time>2015-06-05T06:22:01Z</time>
      </trkpt>
      <trkpt lat="42.4557" lon="2.20909">
        <ele>2057.36</ele>
        <time>2015-06-05T06:22:10Z</time>
      </trkpt>
      <trkpt lat="42.45571" lon="2.20903">
        <ele>2058.32</ele>
        <time>2015-06-05T06:22:16Z</time>
      </trkpt>
      <trkpt lat="42.45573" lon="2.20893">
        <ele>2059.76</ele>
        <time>2015-06-05T06:22:29Z</time>
      </trkpt>
      <trkpt lat="42.45577" lon="2.20883">
        <ele>2060.72</ele>
        <time>2015-06-05T06:22:40Z</time>
      </trkpt>
      <trkpt lat="42.45573" lon="2.20873">
        <ele>2062.17</ele>
        <time>2015-06-05T06:22:53Z</time>
      </trkpt>
      <trkpt lat="42.45568" lon="2.20858">
        <ele>2064.09</ele>
        <time>2015-06-05T06:23:07Z</time>
      </trkpt>
      <trkpt lat="42.45565" lon="2.2085">
        <ele>2065.53</ele>
        <time>2015-06-05T06:23:19Z</time>
      </trkpt>
      <trkpt lat="42.4556" lon="2.20849">
        <ele>2067.45</ele>
        <time>2015-06-05T06:23:33Z</time>
      </trkpt>
      <trkpt lat="42.45555" lon="2.20853">
        <ele>2069.38</ele>
        <time>2015-06-05T06:23:45Z</time>
      </trkpt>
      <trkpt lat="42.45549" lon="2.20856">
        <ele>2071.78</ele>
        <time>2015-06-05T06:23:59Z</time>
      </trkpt>
      <trkpt lat="42.45543" lon="2.20855">
        <ele>2074.18</ele>
        <time>2015-06-05T06:24:16Z</time>
      </trkpt>
      <trkpt lat="42.45538" lon="2.20845">
        <ele>2076.1</ele>
        <time>2015-06-05T06:24:31Z</time>
      </trkpt>
      <trkpt lat="42.45535" lon="2.20839">
        <ele>2077.55</ele>
        <time>2015-06-05T06:24:48Z</time>
      </trkpt>
      <trkpt lat="42.45533" lon="2.20836">
        <ele>2077.55</ele>
        <time>2015-06-05T06:25:05Z</time>
      </trkpt>
      <trkpt lat="42.45532" lon="2.20839">
        <ele>2077.55</ele>
        <time>2015-06-05T06:25:26Z</time>
      </trkpt>
      <trkpt lat="42.4553" lon="2.20837">
        <ele>2078.03</ele>
        <time>2015-06-05T06:25:35Z</time>
      </trkpt>
      <trkpt lat="42.45527" lon="2.20834">
        <ele>2078.51</ele>
        <time>2015-06-05T06:25:39Z</time>
      </trkpt>
      <trkpt lat="42.45518" lon="2.20827">
        <ele>2079.47</ele>
        <time>2015-06-05T06:25:53Z</time>
      </trkpt>
      <trkpt lat="42.45512" lon="2.20823">
        <ele>2079.95</ele>
        <time>2015-06-05T06:26:03Z</time>
      </trkpt>
      <trkpt lat="42.45509" lon="2.20819">
        <ele>2079.95</ele>
        <time>2015-06-05T06:26:08Z</time>
      </trkpt>
      <trkpt lat="42.45507" lon="2.20813">
        <ele>2079.95</ele>
        <time>2015-06-05T06:26:13Z</time>
      </trkpt>
      <trkpt lat="42.45497" lon="2.20801">
        <ele>2080.43</ele>
        <time>2015-06-05T06:26:27Z</time>
      </trkpt>
      <trkpt lat="42.45491" lon="2.2079">
        <ele>2081.39</ele>
        <time>2015-06-05T06:26:38Z</time>
      </trkpt>
      <trkpt lat="42.45485" lon="2.2078">
        <ele>2083.31</ele>
        <time>2015-06-05T06:26:52Z</time>
      </trkpt>
      <trkpt lat="42.4548" lon="2.20771">
        <ele>2084.76</ele>
        <time>2015-06-05T06:27:04Z</time>
      </trkpt>
      <trkpt lat="42.45472" lon="2.20764">
        <ele>2085.72</ele>
        <time>2015-06-05T06:27:15Z</time>
      </trkpt>
      <trkpt lat="42.45468" lon="2.20755">
        <ele>2086.68</ele>
        <time>2015-06-05T06:27:28Z</time>
      </trkpt>
      <trkpt lat="42.45462" lon="2.20743">
        <ele>2087.64</ele>
        <time>2015-06-05T06:27:42Z</time>
      </trkpt>
      <trkpt lat="42.45459" lon="2.20732">
        <ele>2088.12</ele>
        <time>2015-06-05T06:27:53Z</time>
      </trkpt>
      <trkpt lat="42.45454" lon="2.20718">
        <ele>2088.12</ele>
        <time>2015-06-05T06:28:06Z</time>
      </trkpt>
      <trkpt lat="42.45447" lon="2.20704">
        <ele>2088.6</ele>
        <time>2015-06-05T06:28:19Z</time>
      </trkpt>
      <trkpt lat="42.45441" lon="2.20684">
        <ele>2089.08</ele>
        <time>2015-06-05T06:28:37Z</time>
      </trkpt>
      <trkpt lat="42.45436" lon="2.20665">
        <ele>2088.12</ele>
        <time>2015-06-05T06:28:53Z</time>
      </trkpt>
      <trkpt lat="42.45435" lon="2.20647">
        <ele>2087.16</ele>
        <time>2015-06-05T06:29:08Z</time>
      </trkpt>
      <trkpt lat="42.45428" lon="2.20633">
        <ele>2085.24</ele>
        <time>2015-06-05T06:29:22Z</time>
      </trkpt>
      <trkpt lat="42.45426" lon="2.20629">
        <ele>2085.24</ele>
        <time>2015-06-05T06:29:25Z</time>
      </trkpt>
      <trkpt lat="42.45418" lon="2.20618">
        <ele>2084.76</ele>
        <time>2015-06-05T06:29:38Z</time>
      </trkpt>
      <trkpt lat="42.45414" lon="2.20618">
        <ele>2085.72</ele>
        <time>2015-06-05T06:29:43Z</time>
      </trkpt>
      <trkpt lat="42.45407" lon="2.20623">
        <ele>2086.68</ele>
        <time>2015-06-05T06:29:55Z</time>
      </trkpt>
      <trkpt lat="42.45405" lon="2.20623">
        <ele>2086.68</ele>
        <time>2015-06-05T06:29:58Z</time>
      </trkpt>
      <trkpt lat="42.454" lon="2.20623">
        <ele>2088.12</ele>
        <time>2015-06-05T06:30:10Z</time>
      </trkpt>
      <trkpt lat="42.454" lon="2.20629">
        <ele>2088.6</ele>
        <time>2015-06-05T06:30:16Z</time>
      </trkpt>
      <trkpt lat="42.45392" lon="2.20624">
        <ele>2089.08</ele>
        <time>2015-06-05T06:30:28Z</time>
      </trkpt>
      <trkpt lat="42.45388" lon="2.20625">
        <ele>2089.08</ele>
        <time>2015-06-05T06:30:35Z</time>
      </trkpt>
      <trkpt lat="42.45382" lon="2.20627">
        <ele>2089.08</ele>
        <time>2015-06-05T06:30:45Z</time>
      </trkpt>
      <trkpt lat="42.45376" lon="2.20623">
        <ele>2090.52</ele>
        <time>2015-06-05T06:30:59Z</time>
      </trkpt>
      <trkpt lat="42.45369" lon="2.20625">
        <ele>2091</ele>
        <time>2015-06-05T06:31:11Z</time>
      </trkpt>
      <trkpt lat="42.45364" lon="2.20629">
        <ele>2091.97</ele>
        <time>2015-06-05T06:31:24Z</time>
      </trkpt>
      <trkpt lat="42.4536" lon="2.20628">
        <ele>2092.93</ele>
        <time>2015-06-05T06:31:37Z</time>
      </trkpt>
      <trkpt lat="42.45356" lon="2.20628">
        <ele>2094.37</ele>
        <time>2015-06-05T06:31:50Z</time>
      </trkpt>
      <trkpt lat="42.45354" lon="2.20631">
        <ele>2094.37</ele>
        <time>2015-06-05T06:31:53Z</time>
      </trkpt>
      <trkpt lat="42.45348" lon="2.20632">
        <ele>2094.37</ele>
        <time>2015-06-05T06:32:01Z</time>
      </trkpt>
      <trkpt lat="42.45341" lon="2.20632">
        <ele>2095.33</ele>
        <time>2015-06-05T06:32:13Z</time>
      </trkpt>
      <trkpt lat="42.45336" lon="2.20638">
        <ele>2096.29</ele>
        <time>2015-06-05T06:32:27Z</time>
      </trkpt>
      <trkpt lat="42.45333" lon="2.20633">
        <ele>2098.21</ele>
        <time>2015-06-05T06:32:38Z</time>
      </trkpt>
      <trkpt lat="42.45331" lon="2.20627">
        <ele>2099.18</ele>
        <time>2015-06-05T06:32:52Z</time>
      </trkpt>
      <trkpt lat="42.4533" lon="2.20625">
        <ele>2100.14</ele>
        <time>2015-06-05T06:33:03Z</time>
      </trkpt>
      <trkpt lat="42.45323" lon="2.20631">
        <ele>2101.58</ele>
        <time>2015-06-05T06:33:14Z</time>
      </trkpt>
      <trkpt lat="42.45316" lon="2.20631">
        <ele>2101.58</ele>
        <time>2015-06-05T06:33:24Z</time>
      </trkpt>
      <trkpt lat="42.45311" lon="2.20625">
        <ele>2103.02</ele>
        <time>2015-06-05T06:33:35Z</time>
      </trkpt>
      <trkpt lat="42.45305" lon="2.2062">
        <ele>2103.98</ele>
        <time>2015-06-05T06:33:48Z</time>
      </trkpt>
      <trkpt lat="42.45298" lon="2.20611">
        <ele>2104.94</ele>
        <time>2015-06-05T06:34:00Z</time>
      </trkpt>
      <trkpt lat="42.45294" lon="2.20605">
        <ele>2105.91</ele>
        <time>2015-06-05T06:34:12Z</time>
      </trkpt>
      <trkpt lat="42.45294" lon="2.20593">
        <ele>2106.87</ele>
        <time>2015-06-05T06:34:22Z</time>
      </trkpt>
      <trkpt lat="42.45291" lon="2.20583">
        <ele>2107.83</ele>
        <time>2015-06-05T06:34:36Z</time>
      </trkpt>
      <trkpt lat="42.45288" lon="2.20569">
        <ele>2108.31</ele>
        <time>2015-06-05T06:34:47Z</time>
      </trkpt>
      <trkpt lat="42.45289" lon="2.2055">
        <ele>2108.79</ele>
        <time>2015-06-05T06:35:03Z</time>
      </trkpt>
      <trkpt lat="42.4529" lon="2.2054">
        <ele>2109.27</ele>
        <time>2015-06-05T06:35:15Z</time>
      </trkpt>
      <trkpt lat="42.45287" lon="2.20528">
        <ele>2110.23</ele>
        <time>2015-06-05T06:35:29Z</time>
      </trkpt>
      <trkpt lat="42.45285" lon="2.20522">
        <ele>2110.23</ele>
        <time>2015-06-05T06:35:43Z</time>
      </trkpt>
      <trkpt lat="42.45285" lon="2.20514">
        <ele>2110.71</ele>
        <time>2015-06-05T06:35:57Z</time>
      </trkpt>
      <trkpt lat="42.45285" lon="2.20516">
        <ele>2111.19</ele>
        <time>2015-06-05T06:36:14Z</time>
      </trkpt>
      <trkpt lat="42.45283" lon="2.2051">
        <ele>2111.19</ele>
        <time>2015-06-05T06:36:32Z</time>
      </trkpt>
      <trkpt lat="42.45282" lon="2.20501">
        <ele>2109.75</ele>
        <time>2015-06-05T06:36:44Z</time>
      </trkpt>
      <trkpt lat="42.45281" lon="2.20492">
        <ele>2108.79</ele>
        <time>2015-06-05T06:36:55Z</time>
      </trkpt>
      <trkpt lat="42.4528" lon="2.20485">
        <ele>2108.79</ele>
        <time>2015-06-05T06:37:05Z</time>
      </trkpt>
      <trkpt lat="42.45277" lon="2.20478">
        <ele>2108.79</ele>
        <time>2015-06-05T06:37:16Z</time>
      </trkpt>
      <trkpt lat="42.45277" lon="2.20478">
        <ele>2108.79</ele>
        <time>2015-06-05T06:37:17Z</time>
      </trkpt>
      <trkpt lat="42.4527" lon="2.20473">
        <ele>2108.79</ele>
        <time>2015-06-05T06:37:30Z</time>
      </trkpt>
      <trkpt lat="42.45269" lon="2.20472">
        <ele>2108.79</ele>
        <time>2015-06-05T06:37:32Z</time>
      </trkpt>
      <trkpt lat="42.45267" lon="2.20467">
        <ele>2108.79</ele>
        <time>2015-06-05T06:37:38Z</time>
      </trkpt>
      <trkpt lat="42.45257" lon="2.20461">
        <ele>2108.79</ele>
        <time>2015-06-05T06:37:48Z</time>
      </trkpt>
      <trkpt lat="42.45254" lon="2.20457">
        <ele>2108.79</ele>
        <time>2015-06-05T06:37:53Z</time>
      </trkpt>
      <trkpt lat="42.45247" lon="2.20453">
        <ele>2109.27</ele>
        <time>2015-06-05T06:38:01Z</time>
      </trkpt>
      <trkpt lat="42.45242" lon="2.20453">
        <ele>2110.23</ele>
        <time>2015-06-05T06:38:05Z</time>
      </trkpt>
      <trkpt lat="42.45241" lon="2.20453">
        <ele>2110.23</ele>
        <time>2015-06-05T06:38:07Z</time>
      </trkpt>
      <trkpt lat="42.45231" lon="2.20445">
        <ele>2111.67</ele>
        <time>2015-06-05T06:38:19Z</time>
      </trkpt>
      <trkpt lat="42.45229" lon="2.20444">
        <ele>2111.67</ele>
        <time>2015-06-05T06:38:21Z</time>
      </trkpt>
      <trkpt lat="42.45219" lon="2.20439">
        <ele>2113.12</ele>
        <time>2015-06-05T06:38:33Z</time>
      </trkpt>
      <trkpt lat="42.45218" lon="2.20439">
        <ele>2113.12</ele>
        <time>2015-06-05T06:38:34Z</time>
      </trkpt>
      <trkpt lat="42.45213" lon="2.20438">
        <ele>2113.6</ele>
        <time>2015-06-05T06:38:40Z</time>
      </trkpt>
      <trkpt lat="42.45203" lon="2.20436">
        <ele>2114.56</ele>
        <time>2015-06-05T06:38:52Z</time>
      </trkpt>
      <trkpt lat="42.45202" lon="2.20435">
        <ele>2114.56</ele>
        <time>2015-06-05T06:38:54Z</time>
      </trkpt>
      <trkpt lat="42.45197" lon="2.20433">
        <ele>2114.56</ele>
        <time>2015-06-05T06:38:59Z</time>
      </trkpt>
      <trkpt lat="42.45185" lon="2.20424">
        <ele>2116</ele>
        <time>2015-06-05T06:39:13Z</time>
      </trkpt>
      <trkpt lat="42.4518" lon="2.20424">
        <ele>2116.48</ele>
        <time>2015-06-05T06:39:19Z</time>
      </trkpt>
      <trkpt lat="42.45172" lon="2.20416">
        <ele>2117.44</ele>
        <time>2015-06-05T06:39:31Z</time>
      </trkpt>
      <trkpt lat="42.45167" lon="2.20413">
        <ele>2118.4</ele>
        <time>2015-06-05T06:39:39Z</time>
      </trkpt>
      <trkpt lat="42.4516" lon="2.20406">
        <ele>2119.84</ele>
        <time>2015-06-05T06:39:53Z</time>
      </trkpt>
      <trkpt lat="42.45154" lon="2.20403">
        <ele>2121.29</ele>
        <time>2015-06-05T06:40:13Z</time>
      </trkpt>
      <trkpt lat="42.45146" lon="2.20396">
        <ele>2122.73</ele>
        <time>2015-06-05T06:40:25Z</time>
      </trkpt>
      <trkpt lat="42.45139" lon="2.20382">
        <ele>2124.65</ele>
        <time>2015-06-05T06:40:40Z</time>
      </trkpt>
      <trkpt lat="42.45132" lon="2.20373">
        <ele>2126.09</ele>
        <time>2015-06-05T06:40:53Z</time>
      </trkpt>
      <trkpt lat="42.45122" lon="2.20364">
        <ele>2127.05</ele>
        <time>2015-06-05T06:41:08Z</time>
      </trkpt>
      <trkpt lat="42.45113" lon="2.20359">
        <ele>2128.98</ele>
        <time>2015-06-05T06:41:20Z</time>
      </trkpt>
      <trkpt lat="42.45105" lon="2.20352">
        <ele>2129.94</ele>
        <time>2015-06-05T06:41:32Z</time>
      </trkpt>
      <trkpt lat="42.45095" lon="2.20344">
        <ele>2131.86</ele>
        <time>2015-06-05T06:41:46Z</time>
      </trkpt>
      <trkpt lat="42.45086" lon="2.20337">
        <ele>2132.82</ele>
        <time>2015-06-05T06:41:58Z</time>
      </trkpt>
      <trkpt lat="42.4508" lon="2.20331">
        <ele>2134.74</ele>
        <time>2015-06-05T06:42:11Z</time>
      </trkpt>
      <trkpt lat="42.45079" lon="2.2033">
        <ele>2134.74</ele>
        <time>2015-06-05T06:42:12Z</time>
      </trkpt>
      <trkpt lat="42.45073" lon="2.20326">
        <ele>2136.19</ele>
        <time>2015-06-05T06:42:25Z</time>
      </trkpt>
      <trkpt lat="42.45066" lon="2.2032">
        <ele>2138.11</ele>
        <time>2015-06-05T06:42:38Z</time>
      </trkpt>
      <trkpt lat="42.45058" lon="2.20317">
        <ele>2140.51</ele>
        <time>2015-06-05T06:42:50Z</time>
      </trkpt>
      <trkpt lat="42.45053" lon="2.20309">
        <ele>2142.44</ele>
        <time>2015-06-05T06:43:03Z</time>
      </trkpt>
      <trkpt lat="42.45049" lon="2.20305">
        <ele>2144.36</ele>
        <time>2015-06-05T06:43:15Z</time>
      </trkpt>
      <trkpt lat="42.45041" lon="2.20303">
        <ele>2145.32</ele>
        <time>2015-06-05T06:43:27Z</time>
      </trkpt>
      <trkpt lat="42.45035" lon="2.20298">
        <ele>2146.76</ele>
        <time>2015-06-05T06:43:40Z</time>
      </trkpt>
      <trkpt lat="42.45036" lon="2.20299">
        <ele>2146.76</ele>
        <time>2015-06-05T06:43:59Z</time>
      </trkpt>
      <trkpt lat="42.4503" lon="2.20288">
        <ele>2147.24</ele>
        <time>2015-06-05T06:44:12Z</time>
      </trkpt>
      <trkpt lat="42.45028" lon="2.20287">
        <ele>2148.2</ele>
        <time>2015-06-05T06:44:17Z</time>
      </trkpt>
      <trkpt lat="42.45019" lon="2.20281">
        <ele>2148.68</ele>
        <time>2015-06-05T06:44:28Z</time>
      </trkpt>
      <trkpt lat="42.45012" lon="2.20273">
        <ele>2150.61</ele>
        <time>2015-06-05T06:44:41Z</time>
      </trkpt>
      <trkpt lat="42.45005" lon="2.2027">
        <ele>2152.05</ele>
        <time>2015-06-05T06:44:53Z</time>
      </trkpt>
      <trkpt lat="42.45001" lon="2.20264">
        <ele>2153.01</ele>
        <time>2015-06-05T06:45:04Z</time>
      </trkpt>
      <trkpt lat="42.44994" lon="2.20257">
        <ele>2154.93</ele>
        <time>2015-06-05T06:45:14Z</time>
      </trkpt>
      <trkpt lat="42.44989" lon="2.20255">
        <ele>2154.93</ele>
        <time>2015-06-05T06:45:20Z</time>
      </trkpt>
      <trkpt lat="42.44988" lon="2.20255">
        <ele>2154.93</ele>
        <time>2015-06-05T06:45:22Z</time>
      </trkpt>
      <trkpt lat="42.44985" lon="2.20253">
        <ele>2155.89</ele>
        <time>2015-06-05T06:45:24Z</time>
      </trkpt>
      <trkpt lat="42.44978" lon="2.20248">
        <ele>2156.37</ele>
        <time>2015-06-05T06:45:37Z</time>
      </trkpt>
      <trkpt lat="42.44969" lon="2.20249">
        <ele>2156.86</ele>
        <time>2015-06-05T06:45:48Z</time>
      </trkpt>
      <trkpt lat="42.44967" lon="2.2025">
        <ele>2156.86</ele>
        <time>2015-06-05T06:45:50Z</time>
      </trkpt>
      <trkpt lat="42.44954" lon="2.20245">
        <ele>2156.86</ele>
        <time>2015-06-05T06:46:04Z</time>
      </trkpt>
      <trkpt lat="42.44944" lon="2.20231">
        <ele>2157.82</ele>
        <time>2015-06-05T06:46:17Z</time>
      </trkpt>
      <trkpt lat="42.44939" lon="2.2023">
        <ele>2157.82</ele>
        <time>2015-06-05T06:46:22Z</time>
      </trkpt>
      <trkpt lat="42.4493" lon="2.20224">
        <ele>2158.3</ele>
        <time>2015-06-05T06:46:34Z</time>
      </trkpt>
      <trkpt lat="42.44929" lon="2.20223">
        <ele>2158.3</ele>
        <time>2015-06-05T06:46:35Z</time>
      </trkpt>
      <trkpt lat="42.44923" lon="2.2022">
        <ele>2158.3</ele>
        <time>2015-06-05T06:46:41Z</time>
      </trkpt>
      <trkpt lat="42.44921" lon="2.20216">
        <ele>2158.3</ele>
        <time>2015-06-05T06:46:45Z</time>
      </trkpt>
      <trkpt lat="42.44914" lon="2.20208">
        <ele>2159.26</ele>
        <time>2015-06-05T06:46:57Z</time>
      </trkpt>
      <trkpt lat="42.44909" lon="2.20201">
        <ele>2160.7</ele>
        <time>2015-06-05T06:47:07Z</time>
      </trkpt>
      <trkpt lat="42.44905" lon="2.20193">
        <ele>2162.62</ele>
        <time>2015-06-05T06:47:18Z</time>
      </trkpt>
      <trkpt lat="42.449" lon="2.20189">
        <ele>2163.58</ele>
        <time>2015-06-05T06:47:31Z</time>
      </trkpt>
      <trkpt lat="42.44901" lon="2.20181">
        <ele>2165.51</ele>
        <time>2015-06-05T06:47:43Z</time>
      </trkpt>
      <trkpt lat="42.449" lon="2.20173">
        <ele>2166.47</ele>
        <time>2015-06-05T06:47:56Z</time>
      </trkpt>
      <trkpt lat="42.44895" lon="2.20167">
        <ele>2167.43</ele>
        <time>2015-06-05T06:48:08Z</time>
      </trkpt>
      <trkpt lat="42.44889" lon="2.2016">
        <ele>2168.39</ele>
        <time>2015-06-05T06:48:21Z</time>
      </trkpt>
      <trkpt lat="42.4488" lon="2.20149">
        <ele>2169.35</ele>
        <time>2015-06-05T06:48:36Z</time>
      </trkpt>
      <trkpt lat="42.44873" lon="2.2014">
        <ele>2169.35</ele>
        <time>2015-06-05T06:48:49Z</time>
      </trkpt>
      <trkpt lat="42.44868" lon="2.20133">
        <ele>2168.39</ele>
        <time>2015-06-05T06:49:01Z</time>
      </trkpt>
      <trkpt lat="42.44866" lon="2.20127">
        <ele>2167.43</ele>
        <time>2015-06-05T06:49:16Z</time>
      </trkpt>
      <trkpt lat="42.44865" lon="2.2012">
        <ele>2167.43</ele>
        <time>2015-06-05T06:49:38Z</time>
      </trkpt>
      <trkpt lat="42.44865" lon="2.20119">
        <ele>2167.43</ele>
        <time>2015-06-05T06:50:03Z</time>
      </trkpt>
      <trkpt lat="42.44864" lon="2.20122">
        <ele>2167.43</ele>
        <time>2015-06-05T06:50:22Z</time>
      </trkpt>
      <trkpt lat="42.44867" lon="2.20131">
        <ele>2167.43</ele>
        <time>2015-06-05T06:50:43Z</time>
      </trkpt>
      <trkpt lat="42.44866" lon="2.20132">
        <ele>2167.43</ele>
        <time>2015-06-05T06:50:55Z</time>
      </trkpt>
      <trkpt lat="42.44866" lon="2.20128">
        <ele>2167.43</ele>
        <time>2015-06-05T06:51:14Z</time>
      </trkpt>
      <trkpt lat="42.44866" lon="2.20127">
        <ele>2167.43</ele>
        <time>2015-06-05T06:51:37Z</time>
      </trkpt>
      <trkpt lat="42.44866" lon="2.20127">
        <ele>2167.43</ele>
        <time>2015-06-05T06:52:01Z</time>
      </trkpt>
      <trkpt lat="42.44863" lon="2.20126">
        <ele>2167.43</ele>
        <time>2015-06-05T06:52:23Z</time>
      </trkpt>
      <trkpt lat="42.44865" lon="2.20131">
        <ele>2166.95</ele>
        <time>2015-06-05T06:52:55Z</time>
      </trkpt>
      <trkpt lat="42.44864" lon="2.20129">
        <ele>2166.95</ele>
        <time>2015-06-05T06:53:23Z</time>
      </trkpt>
      <trkpt lat="42.44863" lon="2.20127">
        <ele>2166.95</ele>
        <time>2015-06-05T06:53:53Z</time>
      </trkpt>
      <trkpt lat="42.44864" lon="2.20124">
        <ele>2166.95</ele>
        <time>2015-06-05T06:54:15Z</time>
      </trkpt>
      <trkpt lat="42.44867" lon="2.20129">
        <ele>2166.95</ele>
        <time>2015-06-05T06:54:40Z</time>
      </trkpt>
      <trkpt lat="42.44866" lon="2.20131">
        <ele>2167.43</ele>
        <time>2015-06-05T06:54:54Z</time>
      </trkpt>
      <trkpt lat="42.44865" lon="2.20126">
        <ele>2167.43</ele>
        <time>2015-06-05T06:55:13Z</time>
      </trkpt>
      <trkpt lat="42.44858" lon="2.20125">
        <ele>2167.43</ele>
        <time>2015-06-05T06:55:27Z</time>
      </trkpt>
      <trkpt lat="42.44853" lon="2.20125">
        <ele>2168.39</ele>
        <time>2015-06-05T06:55:38Z</time>
      </trkpt>
      <trkpt lat="42.44846" lon="2.20125">
        <ele>2168.87</ele>
        <time>2015-06-05T06:55:51Z</time>
      </trkpt>
      <trkpt lat="42.4484" lon="2.20126">
        <ele>2168.87</ele>
        <time>2015-06-05T06:56:04Z</time>
      </trkpt>
      <trkpt lat="42.44832" lon="2.20123">
        <ele>2169.35</ele>
        <time>2015-06-05T06:56:17Z</time>
      </trkpt>
      <trkpt lat="42.44829" lon="2.20123">
        <ele>2169.83</ele>
        <time>2015-06-05T06:56:22Z</time>
      </trkpt>
      <trkpt lat="42.44824" lon="2.20124">
        <ele>2169.83</ele>
        <time>2015-06-05T06:56:33Z</time>
      </trkpt>
      <trkpt lat="42.44813" lon="2.20123">
        <ele>2170.31</ele>
        <time>2015-06-05T06:56:50Z</time>
      </trkpt>
      <trkpt lat="42.44808" lon="2.20123">
        <ele>2168.39</ele>
        <time>2015-06-05T06:56:59Z</time>
      </trkpt>
      <trkpt lat="42.44803" lon="2.20122">
        <ele>2167.43</ele>
        <time>2015-06-05T06:57:12Z</time>
      </trkpt>
      <trkpt lat="42.44797" lon="2.20123">
        <ele>2165.51</ele>
        <time>2015-06-05T06:57:25Z</time>
      </trkpt>
      <trkpt lat="42.44792" lon="2.20123">
        <ele>2163.58</ele>
        <time>2015-06-05T06:57:37Z</time>
      </trkpt>
      <trkpt lat="42.44791" lon="2.20122">
        <ele>2163.58</ele>
        <time>2015-06-05T06:57:53Z</time>
      </trkpt>
      <trkpt lat="42.44789" lon="2.20122">
        <ele>2163.1</ele>
        <time>2015-06-05T06:57:59Z</time>
      </trkpt>
      <trkpt lat="42.4478" lon="2.20118">
        <ele>2162.62</ele>
        <time>2015-06-05T06:58:11Z</time>
      </trkpt>
      <trkpt lat="42.44776" lon="2.20119">
        <ele>2162.14</ele>
        <time>2015-06-05T06:58:18Z</time>
      </trkpt>
      <trkpt lat="42.44769" lon="2.20113">
        <ele>2160.7</ele>
        <time>2015-06-05T06:58:29Z</time>
      </trkpt>
      <trkpt lat="42.44764" lon="2.20105">
        <ele>2160.7</ele>
        <time>2015-06-05T06:58:37Z</time>
      </trkpt>
      <trkpt lat="42.44756" lon="2.20097">
        <ele>2160.7</ele>
        <time>2015-06-05T06:58:49Z</time>
      </trkpt>
      <trkpt lat="42.44748" lon="2.20091">
        <ele>2160.7</ele>
        <time>2015-06-05T06:59:01Z</time>
      </trkpt>
      <trkpt lat="42.44745" lon="2.20086">
        <ele>2160.7</ele>
        <time>2015-06-05T06:59:05Z</time>
      </trkpt>
      <trkpt lat="42.44739" lon="2.20079">
        <ele>2160.7</ele>
        <time>2015-06-05T06:59:14Z</time>
      </trkpt>
      <trkpt lat="42.44735" lon="2.20079">
        <ele>2160.7</ele>
        <time>2015-06-05T06:59:16Z</time>
      </trkpt>
      <trkpt lat="42.44725" lon="2.20066">
        <ele>2160.7</ele>
        <time>2015-06-05T06:59:28Z</time>
      </trkpt>
      <trkpt lat="42.44712" lon="2.20058">
        <ele>2160.7</ele>
        <time>2015-06-05T06:59:42Z</time>
      </trkpt>
      <trkpt lat="42.44708" lon="2.20047">
        <ele>2162.14</ele>
        <time>2015-06-05T06:59:50Z</time>
      </trkpt>
      <trkpt lat="42.44699" lon="2.20033">
        <ele>2163.1</ele>
        <time>2015-06-05T07:00:02Z</time>
      </trkpt>
      <trkpt lat="42.44696" lon="2.20033">
        <ele>2163.1</ele>
        <time>2015-06-05T07:00:06Z</time>
      </trkpt>
      <trkpt lat="42.44694" lon="2.2003">
        <ele>2163.58</ele>
        <time>2015-06-05T07:00:09Z</time>
      </trkpt>
      <trkpt lat="42.44685" lon="2.20017">
        <ele>2163.58</ele>
        <time>2015-06-05T07:00:24Z</time>
      </trkpt>
      <trkpt lat="42.4468" lon="2.20011">
        <ele>2163.58</ele>
        <time>2015-06-05T07:00:30Z</time>
      </trkpt>
      <trkpt lat="42.44677" lon="2.20008">
        <ele>2163.58</ele>
        <time>2015-06-05T07:00:34Z</time>
      </trkpt>
      <trkpt lat="42.44666" lon="2.19996">
        <ele>2162.14</ele>
        <time>2015-06-05T07:00:47Z</time>
      </trkpt>
      <trkpt lat="42.44661" lon="2.19986">
        <ele>2162.14</ele>
        <time>2015-06-05T07:00:59Z</time>
      </trkpt>
      <trkpt lat="42.44659" lon="2.19984">
        <ele>2162.14</ele>
        <time>2015-06-05T07:01:01Z</time>
      </trkpt>
      <trkpt lat="42.44656" lon="2.1998">
        <ele>2162.14</ele>
        <time>2015-06-05T07:01:06Z</time>
      </trkpt>
      <trkpt lat="42.44651" lon="2.1997">
        <ele>2161.66</ele>
        <time>2015-06-05T07:01:17Z</time>
      </trkpt>
      <trkpt lat="42.44649" lon="2.19969">
        <ele>2161.66</ele>
        <time>2015-06-05T07:01:21Z</time>
      </trkpt>
      <trkpt lat="42.44645" lon="2.19967">
        <ele>2161.18</ele>
        <time>2015-06-05T07:01:26Z</time>
      </trkpt>
      <trkpt lat="42.44643" lon="2.19968">
        <ele>2161.18</ele>
        <time>2015-06-05T07:01:29Z</time>
      </trkpt>
      <trkpt lat="42.44635" lon="2.19964">
        <ele>2161.18</ele>
        <time>2015-06-05T07:01:37Z</time>
      </trkpt>
      <trkpt lat="42.4463" lon="2.19962">
        <ele>2160.7</ele>
        <time>2015-06-05T07:01:45Z</time>
      </trkpt>
      <trkpt lat="42.44624" lon="2.19957">
        <ele>2160.7</ele>
        <time>2015-06-05T07:01:55Z</time>
      </trkpt>
      <trkpt lat="42.44614" lon="2.19952">
        <ele>2160.7</ele>
        <time>2015-06-05T07:02:09Z</time>
      </trkpt>
      <trkpt lat="42.44611" lon="2.19952">
        <ele>2162.14</ele>
        <time>2015-06-05T07:02:14Z</time>
      </trkpt>
      <trkpt lat="42.44599" lon="2.19951">
        <ele>2162.62</ele>
        <time>2015-06-05T07:02:27Z</time>
      </trkpt>
      <trkpt lat="42.44592" lon="2.19941">
        <ele>2162.62</ele>
        <time>2015-06-05T07:02:39Z</time>
      </trkpt>
      <trkpt lat="42.44583" lon="2.19934">
        <ele>2163.1</ele>
        <time>2015-06-05T07:02:52Z</time>
      </trkpt>
      <trkpt lat="42.44575" lon="2.19938">
        <ele>2163.1</ele>
        <time>2015-06-05T07:03:03Z</time>
      </trkpt>
      <trkpt lat="42.44569" lon="2.19941">
        <ele>2163.58</ele>
        <time>2015-06-05T07:03:14Z</time>
      </trkpt>
      <trkpt lat="42.44568" lon="2.19942">
        <ele>2163.58</ele>
        <time>2015-06-05T07:03:15Z</time>
      </trkpt>
      <trkpt lat="42.44564" lon="2.19943">
        <ele>2163.58</ele>
        <time>2015-06-05T07:03:20Z</time>
      </trkpt>
      <trkpt lat="42.44561" lon="2.19943">
        <ele>2163.58</ele>
        <time>2015-06-05T07:03:24Z</time>
      </trkpt>
      <trkpt lat="42.44558" lon="2.19946">
        <ele>2163.58</ele>
        <time>2015-06-05T07:03:27Z</time>
      </trkpt>
      <trkpt lat="42.44556" lon="2.19947">
        <ele>2163.58</ele>
        <time>2015-06-05T07:03:29Z</time>
      </trkpt>
      <trkpt lat="42.44547" lon="2.19948">
        <ele>2163.58</ele>
        <time>2015-06-05T07:03:38Z</time>
      </trkpt>
      <trkpt lat="42.44544" lon="2.19946">
        <ele>2163.58</ele>
        <time>2015-06-05T07:03:40Z</time>
      </trkpt>
      <trkpt lat="42.44538" lon="2.19947">
        <ele>2163.58</ele>
        <time>2015-06-05T07:03:47Z</time>
      </trkpt>
      <trkpt lat="42.4453" lon="2.19947">
        <ele>2164.06</ele>
        <time>2015-06-05T07:03:55Z</time>
      </trkpt>
      <trkpt lat="42.44527" lon="2.19945">
        <ele>2164.06</ele>
        <time>2015-06-05T07:03:58Z</time>
      </trkpt>
      <trkpt lat="42.44525" lon="2.19945">
        <ele>2164.06</ele>
        <time>2015-06-05T07:04:00Z</time>
      </trkpt>
      <trkpt lat="42.44515" lon="2.19941">
        <ele>2165.03</ele>
        <time>2015-06-05T07:04:12Z</time>
      </trkpt>
      <trkpt lat="42.44514" lon="2.19941">
        <ele>2165.03</ele>
        <time>2015-06-05T07:04:13Z</time>
      </trkpt>
      <trkpt lat="42.44511" lon="2.1994">
        <ele>2165.03</ele>
        <time>2015-06-05T07:04:16Z</time>
      </trkpt>
      <trkpt lat="42.44503" lon="2.19938">
        <ele>2165.03</ele>
        <time>2015-06-05T07:04:25Z</time>
      </trkpt>
      <trkpt lat="42.44499" lon="2.19936">
        <ele>2165.51</ele>
        <time>2015-06-05T07:04:30Z</time>
      </trkpt>
      <trkpt lat="42.44491" lon="2.19937">
        <ele>2165.99</ele>
        <time>2015-06-05T07:04:41Z</time>
      </trkpt>
      <trkpt lat="42.44488" lon="2.19939">
        <ele>2166.47</ele>
        <time>2015-06-05T07:04:45Z</time>
      </trkpt>
      <trkpt lat="42.44485" lon="2.1994">
        <ele>2166.47</ele>
        <time>2015-06-05T07:04:48Z</time>
      </trkpt>
      <trkpt lat="42.44475" lon="2.19941">
        <ele>2166.95</ele>
        <time>2015-06-05T07:04:58Z</time>
      </trkpt>
      <trkpt lat="42.4447" lon="2.19941">
        <ele>2167.43</ele>
        <time>2015-06-05T07:05:03Z</time>
      </trkpt>
      <trkpt lat="42.44465" lon="2.19941">
        <ele>2167.91</ele>
        <time>2015-06-05T07:05:10Z</time>
      </trkpt>
      <trkpt lat="42.44458" lon="2.19942">
        <ele>2169.35</ele>
        <time>2015-06-05T07:05:20Z</time>
      </trkpt>
      <trkpt lat="42.44454" lon="2.19945">
        <ele>2170.79</ele>
        <time>2015-06-05T07:05:29Z</time>
      </trkpt>
      <trkpt lat="42.44449" lon="2.19944">
        <ele>2172.24</ele>
        <time>2015-06-05T07:05:40Z</time>
      </trkpt>
      <trkpt lat="42.44442" lon="2.19946">
        <ele>2173.68</ele>
        <time>2015-06-05T07:05:52Z</time>
      </trkpt>
      <trkpt lat="42.44437" lon="2.19944">
        <ele>2175.6</ele>
        <time>2015-06-05T07:06:04Z</time>
      </trkpt>
      <trkpt lat="42.44432" lon="2.1994">
        <ele>2177.04</ele>
        <time>2015-06-05T07:06:18Z</time>
      </trkpt>
      <trkpt lat="42.44426" lon="2.19938">
        <ele>2178.48</ele>
        <time>2015-06-05T07:06:29Z</time>
      </trkpt>
      <trkpt lat="42.44418" lon="2.19942">
        <ele>2180.41</ele>
        <time>2015-06-05T07:06:41Z</time>
      </trkpt>
      <trkpt lat="42.44413" lon="2.19938">
        <ele>2181.37</ele>
        <time>2015-06-05T07:06:53Z</time>
      </trkpt>
      <trkpt lat="42.44406" lon="2.19932">
        <ele>2182.81</ele>
        <time>2015-06-05T07:07:06Z</time>
      </trkpt>
      <trkpt lat="42.444" lon="2.19928">
        <ele>2184.25</ele>
        <time>2015-06-05T07:07:19Z</time>
      </trkpt>
      <trkpt lat="42.44394" lon="2.19926">
        <ele>2185.21</ele>
        <time>2015-06-05T07:07:29Z</time>
      </trkpt>
      <trkpt lat="42.44389" lon="2.19925">
        <ele>2185.69</ele>
        <time>2015-06-05T07:07:34Z</time>
      </trkpt>
      <trkpt lat="42.44384" lon="2.19922">
        <ele>2186.18</ele>
        <time>2015-06-05T07:07:40Z</time>
      </trkpt>
      <trkpt lat="42.44381" lon="2.1992">
        <ele>2186.18</ele>
        <time>2015-06-05T07:07:44Z</time>
      </trkpt>
      <trkpt lat="42.44371" lon="2.19915">
        <ele>2186.18</ele>
        <time>2015-06-05T07:07:56Z</time>
      </trkpt>
      <trkpt lat="42.44368" lon="2.19915">
        <ele>2186.18</ele>
        <time>2015-06-05T07:07:59Z</time>
      </trkpt>
      <trkpt lat="42.44358" lon="2.19904">
        <ele>2186.66</ele>
        <time>2015-06-05T07:08:12Z</time>
      </trkpt>
      <trkpt lat="42.44357" lon="2.19902">
        <ele>2187.14</ele>
        <time>2015-06-05T07:08:15Z</time>
      </trkpt>
      <trkpt lat="42.44353" lon="2.19899">
        <ele>2187.14</ele>
        <time>2015-06-05T07:08:20Z</time>
      </trkpt>
      <trkpt lat="42.44337" lon="2.19894">
        <ele>2187.62</ele>
        <time>2015-06-05T07:08:36Z</time>
      </trkpt>
      <trkpt lat="42.44329" lon="2.19887">
        <ele>2187.62</ele>
        <time>2015-06-05T07:08:46Z</time>
      </trkpt>
      <trkpt lat="42.44322" lon="2.19887">
        <ele>2187.62</ele>
        <time>2015-06-05T07:08:52Z</time>
      </trkpt>
      <trkpt lat="42.44314" lon="2.19889">
        <ele>2187.62</ele>
        <time>2015-06-05T07:09:00Z</time>
      </trkpt>
      <trkpt lat="42.44313" lon="2.19889">
        <ele>2187.62</ele>
        <time>2015-06-05T07:09:02Z</time>
      </trkpt>
      <trkpt lat="42.44311" lon="2.1989">
        <ele>2187.62</ele>
        <time>2015-06-05T07:09:04Z</time>
      </trkpt>
      <trkpt lat="42.44307" lon="2.19891">
        <ele>2188.1</ele>
        <time>2015-06-05T07:09:08Z</time>
      </trkpt>
      <trkpt lat="42.44304" lon="2.19892">
        <ele>2188.1</ele>
        <time>2015-06-05T07:09:11Z</time>
      </trkpt>
      <trkpt lat="42.44302" lon="2.19892">
        <ele>2188.1</ele>
        <time>2015-06-05T07:09:13Z</time>
      </trkpt>
      <trkpt lat="42.44296" lon="2.19893">
        <ele>2188.58</ele>
        <time>2015-06-05T07:09:19Z</time>
      </trkpt>
      <trkpt lat="42.44293" lon="2.19893">
        <ele>2188.58</ele>
        <time>2015-06-05T07:09:22Z</time>
      </trkpt>
      <trkpt lat="42.44291" lon="2.19893">
        <ele>2189.06</ele>
        <time>2015-06-05T07:09:24Z</time>
      </trkpt>
      <trkpt lat="42.44288" lon="2.19892">
        <ele>2189.54</ele>
        <time>2015-06-05T07:09:27Z</time>
      </trkpt>
      <trkpt lat="42.44284" lon="2.19894">
        <ele>2190.02</ele>
        <time>2015-06-05T07:09:31Z</time>
      </trkpt>
      <trkpt lat="42.4428" lon="2.19891">
        <ele>2190.02</ele>
        <time>2015-06-05T07:09:37Z</time>
      </trkpt>
      <trkpt lat="42.44277" lon="2.19889">
        <ele>2190.02</ele>
        <time>2015-06-05T07:09:40Z</time>
      </trkpt>
      <trkpt lat="42.44275" lon="2.19887">
        <ele>2190.5</ele>
        <time>2015-06-05T07:09:42Z</time>
      </trkpt>
      <trkpt lat="42.44273" lon="2.19885">
        <ele>2190.5</ele>
        <time>2015-06-05T07:09:45Z</time>
      </trkpt>
      <trkpt lat="42.44272" lon="2.19884">
        <ele>2190.98</ele>
        <time>2015-06-05T07:09:47Z</time>
      </trkpt>
      <trkpt lat="42.44263" lon="2.19881">
        <ele>2191.46</ele>
        <time>2015-06-05T07:09:59Z</time>
      </trkpt>
      <trkpt lat="42.4426" lon="2.19873">
        <ele>2192.9</ele>
        <time>2015-06-05T07:10:09Z</time>
      </trkpt>
      <trkpt lat="42.44257" lon="2.19868">
        <ele>2193.87</ele>
        <time>2015-06-05T07:10:23Z</time>
      </trkpt>
      <trkpt lat="42.44249" lon="2.19869">
        <ele>2194.83</ele>
        <time>2015-06-05T07:10:37Z</time>
      </trkpt>
      <trkpt lat="42.4424" lon="2.1987">
        <ele>2196.27</ele>
        <time>2015-06-05T07:10:49Z</time>
      </trkpt>
      <trkpt lat="42.44233" lon="2.19866">
        <ele>2197.23</ele>
        <time>2015-06-05T07:11:01Z</time>
      </trkpt>
      <trkpt lat="42.44227" lon="2.19862">
        <ele>2198.67</ele>
        <time>2015-06-05T07:11:13Z</time>
      </trkpt>
      <trkpt lat="42.4422" lon="2.19856">
        <ele>2199.63</ele>
        <time>2015-06-05T07:11:26Z</time>
      </trkpt>
      <trkpt lat="42.44215" lon="2.19849">
        <ele>2200.59</ele>
        <time>2015-06-05T07:11:38Z</time>
      </trkpt>
      <trkpt lat="42.44208" lon="2.19848">
        <ele>2202.52</ele>
        <time>2015-06-05T07:11:50Z</time>
      </trkpt>
      <trkpt lat="42.442" lon="2.19845">
        <ele>2203.48</ele>
        <time>2015-06-05T07:12:06Z</time>
      </trkpt>
      <trkpt lat="42.44194" lon="2.19845">
        <ele>2204.92</ele>
        <time>2015-06-05T07:12:18Z</time>
      </trkpt>
      <trkpt lat="42.4419" lon="2.19847">
        <ele>2205.88</ele>
        <time>2015-06-05T07:12:29Z</time>
      </trkpt>
      <trkpt lat="42.44182" lon="2.19847">
        <ele>2205.88</ele>
        <time>2015-06-05T07:12:39Z</time>
      </trkpt>
      <trkpt lat="42.44176" lon="2.19849">
        <ele>2207.32</ele>
        <time>2015-06-05T07:12:52Z</time>
      </trkpt>
      <trkpt lat="42.44169" lon="2.19851">
        <ele>2207.81</ele>
        <time>2015-06-05T07:13:04Z</time>
      </trkpt>
      <trkpt lat="42.4416" lon="2.19852">
        <ele>2208.77</ele>
        <time>2015-06-05T07:13:16Z</time>
      </trkpt>
      <trkpt lat="42.44157" lon="2.19855">
        <ele>2209.25</ele>
        <time>2015-06-05T07:13:21Z</time>
      </trkpt>
      <trkpt lat="42.44156" lon="2.19857">
        <ele>2209.25</ele>
        <time>2015-06-05T07:13:23Z</time>
      </trkpt>
      <trkpt lat="42.44147" lon="2.19863">
        <ele>2209.73</ele>
        <time>2015-06-05T07:13:38Z</time>
      </trkpt>
      <trkpt lat="42.44139" lon="2.19866">
        <ele>2210.21</ele>
        <time>2015-06-05T07:13:49Z</time>
      </trkpt>
      <trkpt lat="42.44132" lon="2.19868">
        <ele>2210.69</ele>
        <time>2015-06-05T07:13:59Z</time>
      </trkpt>
      <trkpt lat="42.44125" lon="2.19867">
        <ele>2211.65</ele>
        <time>2015-06-05T07:14:11Z</time>
      </trkpt>
      <trkpt lat="42.44128" lon="2.19867">
        <ele>2211.65</ele>
        <time>2015-06-05T07:14:30Z</time>
      </trkpt>
      <trkpt lat="42.44131" lon="2.1987">
        <ele>2211.65</ele>
        <time>2015-06-05T07:14:44Z</time>
      </trkpt>
      <trkpt lat="42.44131" lon="2.19869">
        <ele>2212.13</ele>
        <time>2015-06-05T07:15:03Z</time>
      </trkpt>
      <trkpt lat="42.4413" lon="2.19865">
        <ele>2212.13</ele>
        <time>2015-06-05T07:15:26Z</time>
      </trkpt>
      <trkpt lat="42.44133" lon="2.1987">
        <ele>2212.13</ele>
        <time>2015-06-05T07:15:37Z</time>
      </trkpt>
      <trkpt lat="42.44133" lon="2.19873">
        <ele>2211.17</ele>
        <time>2015-06-05T07:15:50Z</time>
      </trkpt>
      <trkpt lat="42.44135" lon="2.19878">
        <ele>2211.17</ele>
        <time>2015-06-05T07:16:03Z</time>
      </trkpt>
      <trkpt lat="42.44133" lon="2.19883">
        <ele>2211.17</ele>
        <time>2015-06-05T07:16:17Z</time>
      </trkpt>
      <trkpt lat="42.44134" lon="2.19883">
        <ele>2211.17</ele>
        <time>2015-06-05T07:16:19Z</time>
      </trkpt>
      <trkpt lat="42.44135" lon="2.19895">
        <ele>2211.17</ele>
        <time>2015-06-05T07:16:32Z</time>
      </trkpt>
      <trkpt lat="42.44135" lon="2.19904">
        <ele>2211.17</ele>
        <time>2015-06-05T07:16:43Z</time>
      </trkpt>
      <trkpt lat="42.44132" lon="2.19912">
        <ele>2212.13</ele>
        <time>2015-06-05T07:16:54Z</time>
      </trkpt>
      <trkpt lat="42.4413" lon="2.19922">
        <ele>2212.61</ele>
        <time>2015-06-05T07:17:07Z</time>
      </trkpt>
      <trkpt lat="42.44127" lon="2.1993">
        <ele>2212.61</ele>
        <time>2015-06-05T07:17:18Z</time>
      </trkpt>
      <trkpt lat="42.44129" lon="2.1994">
        <ele>2214.05</ele>
        <time>2015-06-05T07:17:31Z</time>
      </trkpt>
      <trkpt lat="42.44127" lon="2.19948">
        <ele>2215.01</ele>
        <time>2015-06-05T07:17:43Z</time>
      </trkpt>
      <trkpt lat="42.44123" lon="2.1996">
        <ele>2215.98</ele>
        <time>2015-06-05T07:17:56Z</time>
      </trkpt>
      <trkpt lat="42.44114" lon="2.19969">
        <ele>2215.98</ele>
        <time>2015-06-05T07:18:09Z</time>
      </trkpt>
      <trkpt lat="42.44113" lon="2.19971">
        <ele>2215.98</ele>
        <time>2015-06-05T07:18:11Z</time>
      </trkpt>
      <trkpt lat="42.4411" lon="2.19974">
        <ele>2215.98</ele>
        <time>2015-06-05T07:18:16Z</time>
      </trkpt>
      <trkpt lat="42.44107" lon="2.19976">
        <ele>2216.46</ele>
        <time>2015-06-05T07:18:19Z</time>
      </trkpt>
      <trkpt lat="42.44103" lon="2.19975">
        <ele>2216.46</ele>
        <time>2015-06-05T07:18:23Z</time>
      </trkpt>
      <trkpt lat="42.44101" lon="2.19974">
        <ele>2216.46</ele>
        <time>2015-06-05T07:18:25Z</time>
      </trkpt>
      <trkpt lat="42.44093" lon="2.1997">
        <ele>2216.94</ele>
        <time>2015-06-05T07:18:37Z</time>
      </trkpt>
      <trkpt lat="42.44082" lon="2.1997">
        <ele>2217.9</ele>
        <time>2015-06-05T07:18:49Z</time>
      </trkpt>
      <trkpt lat="42.44075" lon="2.1997">
        <ele>2218.86</ele>
        <time>2015-06-05T07:19:00Z</time>
      </trkpt>
      <trkpt lat="42.44071" lon="2.19966">
        <ele>2219.34</ele>
        <time>2015-06-05T07:19:09Z</time>
      </trkpt>
      <trkpt lat="42.44066" lon="2.19969">
        <ele>2221.26</ele>
        <time>2015-06-05T07:19:20Z</time>
      </trkpt>
      <trkpt lat="42.4406" lon="2.19972">
        <ele>2221.26</ele>
        <time>2015-06-05T07:19:31Z</time>
      </trkpt>
      <trkpt lat="42.44055" lon="2.19971">
        <ele>2221.26</ele>
        <time>2015-06-05T07:19:51Z</time>
      </trkpt>
      <trkpt lat="42.44051" lon="2.1997">
        <ele>2222.71</ele>
        <time>2015-06-05T07:20:04Z</time>
      </trkpt>
      <trkpt lat="42.44047" lon="2.19969">
        <ele>2223.67</ele>
        <time>2015-06-05T07:20:16Z</time>
      </trkpt>
      <trkpt lat="42.44042" lon="2.19969">
        <ele>2224.63</ele>
        <time>2015-06-05T07:20:30Z</time>
      </trkpt>
      <trkpt lat="42.44034" lon="2.19972">
        <ele>2224.63</ele>
        <time>2015-06-05T07:20:41Z</time>
      </trkpt>
      <trkpt lat="42.44021" lon="2.19972">
        <ele>2225.11</ele>
        <time>2015-06-05T07:20:56Z</time>
      </trkpt>
      <trkpt lat="42.44014" lon="2.19975">
        <ele>2227.03</ele>
        <time>2015-06-05T07:21:09Z</time>
      </trkpt>
      <trkpt lat="42.44009" lon="2.19975">
        <ele>2227.99</ele>
        <time>2015-06-05T07:21:21Z</time>
      </trkpt>
      <trkpt lat="42.44004" lon="2.19971">
        <ele>2228.95</ele>
        <time>2015-06-05T07:21:31Z</time>
      </trkpt>
      <trkpt lat="42.44003" lon="2.19971">
        <ele>2228.95</ele>
        <time>2015-06-05T07:21:33Z</time>
      </trkpt>
      <trkpt lat="42.44" lon="2.19971">
        <ele>2229.92</ele>
        <time>2015-06-05T07:21:37Z</time>
      </trkpt>
      <trkpt lat="42.43997" lon="2.19972">
        <ele>2231.36</ele>
        <time>2015-06-05T07:21:51Z</time>
      </trkpt>
      <trkpt lat="42.43993" lon="2.19975">
        <ele>2232.8</ele>
        <time>2015-06-05T07:22:02Z</time>
      </trkpt>
      <trkpt lat="42.43986" lon="2.19977">
        <ele>2233.28</ele>
        <time>2015-06-05T07:22:14Z</time>
      </trkpt>
      <trkpt lat="42.4398" lon="2.19982">
        <ele>2234.24</ele>
        <time>2015-06-05T07:22:26Z</time>
      </trkpt>
      <trkpt lat="42.43974" lon="2.19988">
        <ele>2234.24</ele>
        <time>2015-06-05T07:22:37Z</time>
      </trkpt>
      <trkpt lat="42.43965" lon="2.19989">
        <ele>2235.2</ele>
        <time>2015-06-05T07:22:50Z</time>
      </trkpt>
      <trkpt lat="42.43955" lon="2.19989">
        <ele>2236.64</ele>
        <time>2015-06-05T07:23:03Z</time>
      </trkpt>
      <trkpt lat="42.43948" lon="2.19986">
        <ele>2237.13</ele>
        <time>2015-06-05T07:23:14Z</time>
      </trkpt>
      <trkpt lat="42.43943" lon="2.19984">
        <ele>2237.61</ele>
        <time>2015-06-05T07:23:26Z</time>
      </trkpt>
      <trkpt lat="42.43941" lon="2.19985">
        <ele>2237.61</ele>
        <time>2015-06-05T07:23:29Z</time>
      </trkpt>
      <trkpt lat="42.43935" lon="2.19994">
        <ele>2237.61</ele>
        <time>2015-06-05T07:23:42Z</time>
      </trkpt>
      <trkpt lat="42.43932" lon="2.19999">
        <ele>2238.57</ele>
        <time>2015-06-05T07:23:56Z</time>
      </trkpt>
      <trkpt lat="42.43931" lon="2.20005">
        <ele>2239.05</ele>
        <time>2015-06-05T07:24:12Z</time>
      </trkpt>
      <trkpt lat="42.43924" lon="2.20016">
        <ele>2239.53</ele>
        <time>2015-06-05T07:24:23Z</time>
      </trkpt>
      <trkpt lat="42.43918" lon="2.20025">
        <ele>2240.01</ele>
        <time>2015-06-05T07:24:36Z</time>
      </trkpt>
      <trkpt lat="42.43911" lon="2.20027">
        <ele>2240.01</ele>
        <time>2015-06-05T07:24:47Z</time>
      </trkpt>
      <trkpt lat="42.43903" lon="2.20026">
        <ele>2240.01</ele>
        <time>2015-06-05T07:25:01Z</time>
      </trkpt>
      <trkpt lat="42.43901" lon="2.20023">
        <ele>2240.01</ele>
        <time>2015-06-05T07:25:06Z</time>
      </trkpt>
      <trkpt lat="42.43897" lon="2.20023">
        <ele>2238.57</ele>
        <time>2015-06-05T07:25:10Z</time>
      </trkpt>
      <trkpt lat="42.43889" lon="2.20024">
        <ele>2238.57</ele>
        <time>2015-06-05T07:25:22Z</time>
      </trkpt>
      <trkpt lat="42.43879" lon="2.2002">
        <ele>2238.57</ele>
        <time>2015-06-05T07:25:35Z</time>
      </trkpt>
      <trkpt lat="42.43875" lon="2.20017">
        <ele>2238.09</ele>
        <time>2015-06-05T07:25:47Z</time>
      </trkpt>
      <trkpt lat="42.43874" lon="2.20013">
        <ele>2238.09</ele>
        <time>2015-06-05T07:25:57Z</time>
      </trkpt>
      <trkpt lat="42.43871" lon="2.20007">
        <ele>2237.61</ele>
        <time>2015-06-05T07:26:08Z</time>
      </trkpt>
      <trkpt lat="42.43864" lon="2.20002">
        <ele>2237.61</ele>
        <time>2015-06-05T07:26:23Z</time>
      </trkpt>
      <trkpt lat="42.4386" lon="2.19996">
        <ele>2237.61</ele>
        <time>2015-06-05T07:26:35Z</time>
      </trkpt>
      <trkpt lat="42.43855" lon="2.19991">
        <ele>2237.61</ele>
        <time>2015-06-05T07:26:49Z</time>
      </trkpt>
      <trkpt lat="42.43852" lon="2.19987">
        <ele>2237.61</ele>
        <time>2015-06-05T07:26:55Z</time>
      </trkpt>
      <trkpt lat="42.43845" lon="2.19985">
        <ele>2237.61</ele>
        <time>2015-06-05T07:27:07Z</time>
      </trkpt>
      <trkpt lat="42.43842" lon="2.19984">
        <ele>2237.61</ele>
        <time>2015-06-05T07:27:13Z</time>
      </trkpt>
      <trkpt lat="42.43835" lon="2.19985">
        <ele>2237.61</ele>
        <time>2015-06-05T07:27:19Z</time>
      </trkpt>
      <trkpt lat="42.43832" lon="2.19986">
        <ele>2239.05</ele>
        <time>2015-06-05T07:27:22Z</time>
      </trkpt>
      <trkpt lat="42.43827" lon="2.19985">
        <ele>2239.53</ele>
        <time>2015-06-05T07:27:29Z</time>
      </trkpt>
      <trkpt lat="42.43819" lon="2.19982">
        <ele>2240.01</ele>
        <time>2015-06-05T07:27:39Z</time>
      </trkpt>
      <trkpt lat="42.43816" lon="2.1998">
        <ele>2240.49</ele>
        <time>2015-06-05T07:27:44Z</time>
      </trkpt>
      <trkpt lat="42.43814" lon="2.19978">
        <ele>2240.97</ele>
        <time>2015-06-05T07:27:47Z</time>
      </trkpt>
      <trkpt lat="42.4381" lon="2.19974">
        <ele>2241.45</ele>
        <time>2015-06-05T07:27:55Z</time>
      </trkpt>
      <trkpt lat="42.43808" lon="2.19973">
        <ele>2241.93</ele>
        <time>2015-06-05T07:27:57Z</time>
      </trkpt>
      <trkpt lat="42.43804" lon="2.19965">
        <ele>2242.89</ele>
        <time>2015-06-05T07:28:09Z</time>
      </trkpt>
      <trkpt lat="42.43798" lon="2.19959">
        <ele>2244.33</ele>
        <time>2015-06-05T07:28:23Z</time>
      </trkpt>
      <trkpt lat="42.43792" lon="2.19958">
        <ele>2245.78</ele>
        <time>2015-06-05T07:28:33Z</time>
      </trkpt>
      <trkpt lat="42.43787" lon="2.19954">
        <ele>2246.26</ele>
        <time>2015-06-05T07:28:42Z</time>
      </trkpt>
      <trkpt lat="42.43778" lon="2.19947">
        <ele>2246.74</ele>
        <time>2015-06-05T07:28:55Z</time>
      </trkpt>
      <trkpt lat="42.43769" lon="2.19943">
        <ele>2246.74</ele>
        <time>2015-06-05T07:29:08Z</time>
      </trkpt>
      <trkpt lat="42.43768" lon="2.19943">
        <ele>2246.74</ele>
        <time>2015-06-05T07:29:10Z</time>
      </trkpt>
      <trkpt lat="42.4376" lon="2.19946">
        <ele>2246.74</ele>
        <time>2015-06-05T07:29:23Z</time>
      </trkpt>
      <trkpt lat="42.43757" lon="2.19946">
        <ele>2245.78</ele>
        <time>2015-06-05T07:29:28Z</time>
      </trkpt>
      <trkpt lat="42.43747" lon="2.19949">
        <ele>2244.33</ele>
        <time>2015-06-05T07:29:42Z</time>
      </trkpt>
      <trkpt lat="42.43739" lon="2.19951">
        <ele>2244.33</ele>
        <time>2015-06-05T07:29:53Z</time>
      </trkpt>
      <trkpt lat="42.43732" lon="2.19953">
        <ele>2244.33</ele>
        <time>2015-06-05T07:30:03Z</time>
      </trkpt>
      <trkpt lat="42.43722" lon="2.19954">
        <ele>2244.33</ele>
        <time>2015-06-05T07:30:16Z</time>
      </trkpt>
      <trkpt lat="42.43714" lon="2.19957">
        <ele>2243.85</ele>
        <time>2015-06-05T07:30:28Z</time>
      </trkpt>
      <trkpt lat="42.43706" lon="2.19966">
        <ele>2243.85</ele>
        <time>2015-06-05T07:30:41Z</time>
      </trkpt>
      <trkpt lat="42.43701" lon="2.19969">
        <ele>2243.85</ele>
        <time>2015-06-05T07:30:47Z</time>
      </trkpt>
      <trkpt lat="42.43695" lon="2.19978">
        <ele>2243.85</ele>
        <time>2015-06-05T07:30:58Z</time>
      </trkpt>
      <trkpt lat="42.43691" lon="2.19979">
        <ele>2243.85</ele>
        <time>2015-06-05T07:31:02Z</time>
      </trkpt>
      <trkpt lat="42.43679" lon="2.19988">
        <ele>2244.82</ele>
        <time>2015-06-05T07:31:17Z</time>
      </trkpt>
      <trkpt lat="42.43671" lon="2.19989">
        <ele>2245.3</ele>
        <time>2015-06-05T07:31:29Z</time>
      </trkpt>
      <trkpt lat="42.4366" lon="2.19986">
        <ele>2245.3</ele>
        <time>2015-06-05T07:31:42Z</time>
      </trkpt>
      <trkpt lat="42.43654" lon="2.19987">
        <ele>2245.3</ele>
        <time>2015-06-05T07:31:55Z</time>
      </trkpt>
      <trkpt lat="42.43653" lon="2.19994">
        <ele>2245.78</ele>
        <time>2015-06-05T07:32:07Z</time>
      </trkpt>
      <trkpt lat="42.43649" lon="2.19993">
        <ele>2245.78</ele>
        <time>2015-06-05T07:32:28Z</time>
      </trkpt>
      <trkpt lat="42.4365" lon="2.19991">
        <ele>2246.26</ele>
        <time>2015-06-05T07:32:48Z</time>
      </trkpt>
      <trkpt lat="42.43647" lon="2.19997">
        <ele>2246.26</ele>
        <time>2015-06-05T07:33:07Z</time>
      </trkpt>
      <trkpt lat="42.43647" lon="2.2">
        <ele>2246.26</ele>
        <time>2015-06-05T07:33:14Z</time>
      </trkpt>
      <trkpt lat="42.43646" lon="2.2001">
        <ele>2246.26</ele>
        <time>2015-06-05T07:33:25Z</time>
      </trkpt>
      <trkpt lat="42.43644" lon="2.20015">
        <ele>2246.74</ele>
        <time>2015-06-05T07:33:31Z</time>
      </trkpt>
      <trkpt lat="42.43639" lon="2.20023">
        <ele>2247.22</ele>
        <time>2015-06-05T07:33:42Z</time>
      </trkpt>
      <trkpt lat="42.43632" lon="2.20024">
        <ele>2247.7</ele>
        <time>2015-06-05T07:33:55Z</time>
      </trkpt>
      <trkpt lat="42.43625" lon="2.20028">
        <ele>2248.18</ele>
        <time>2015-06-05T07:34:08Z</time>
      </trkpt>
      <trkpt lat="42.43617" lon="2.20029">
        <ele>2248.18</ele>
        <time>2015-06-05T07:34:17Z</time>
      </trkpt>
      <trkpt lat="42.43609" lon="2.20032">
        <ele>2248.18</ele>
        <time>2015-06-05T07:34:28Z</time>
      </trkpt>
      <trkpt lat="42.43609" lon="2.20032">
        <ele>2248.18</ele>
        <time>2015-06-05T07:34:29Z</time>
      </trkpt>
      <trkpt lat="42.43599" lon="2.20034">
        <ele>2248.66</ele>
        <time>2015-06-05T07:34:41Z</time>
      </trkpt>
      <trkpt lat="42.43596" lon="2.20033">
        <ele>2248.66</ele>
        <time>2015-06-05T07:34:45Z</time>
      </trkpt>
      <trkpt lat="42.43591" lon="2.2003">
        <ele>2248.66</ele>
        <time>2015-06-05T07:34:57Z</time>
      </trkpt>
      <trkpt lat="42.4359" lon="2.20026">
        <ele>2248.66</ele>
        <time>2015-06-05T07:35:01Z</time>
      </trkpt>
      <trkpt lat="42.43583" lon="2.20027">
        <ele>2249.14</ele>
        <time>2015-06-05T07:35:14Z</time>
      </trkpt>
      <trkpt lat="42.43579" lon="2.20028">
        <ele>2250.1</ele>
        <time>2015-06-05T07:35:25Z</time>
      </trkpt>
      <trkpt lat="42.43571" lon="2.20026">
        <ele>2251.06</ele>
        <time>2015-06-05T07:35:39Z</time>
      </trkpt>
      <trkpt lat="42.4357" lon="2.20027">
        <ele>2251.54</ele>
        <time>2015-06-05T07:35:41Z</time>
      </trkpt>
      <trkpt lat="42.43564" lon="2.20028">
        <ele>2252.99</ele>
        <time>2015-06-05T07:35:54Z</time>
      </trkpt>
      <trkpt lat="42.43557" lon="2.20025">
        <ele>2253.95</ele>
        <time>2015-06-05T07:36:05Z</time>
      </trkpt>
      <trkpt lat="42.43553" lon="2.20022">
        <ele>2254.91</ele>
        <time>2015-06-05T07:36:14Z</time>
      </trkpt>
      <trkpt lat="42.43547" lon="2.20019">
        <ele>2255.39</ele>
        <time>2015-06-05T07:36:23Z</time>
      </trkpt>
      <trkpt lat="42.4354" lon="2.20017">
        <ele>2255.39</ele>
        <time>2015-06-05T07:36:33Z</time>
      </trkpt>
      <trkpt lat="42.43536" lon="2.20013">
        <ele>2255.39</ele>
        <time>2015-06-05T07:36:41Z</time>
      </trkpt>
      <trkpt lat="42.4353" lon="2.20011">
        <ele>2255.39</ele>
        <time>2015-06-05T07:36:49Z</time>
      </trkpt>
      <trkpt lat="42.43524" lon="2.20007">
        <ele>2255.39</ele>
        <time>2015-06-05T07:37:02Z</time>
      </trkpt>
      <trkpt lat="42.4352" lon="2.20004">
        <ele>2254.43</ele>
        <time>2015-06-05T07:37:06Z</time>
      </trkpt>
      <trkpt lat="42.43514" lon="2.19999">
        <ele>2254.43</ele>
        <time>2015-06-05T07:37:17Z</time>
      </trkpt>
      <trkpt lat="42.43509" lon="2.19996">
        <ele>2253.95</ele>
        <time>2015-06-05T07:37:22Z</time>
      </trkpt>
      <trkpt lat="42.43507" lon="2.19992">
        <ele>2253.95</ele>
        <time>2015-06-05T07:37:26Z</time>
      </trkpt>
      <trkpt lat="42.43504" lon="2.19991">
        <ele>2253.95</ele>
        <time>2015-06-05T07:37:29Z</time>
      </trkpt>
      <trkpt lat="42.43497" lon="2.19984">
        <ele>2253.95</ele>
        <time>2015-06-05T07:37:41Z</time>
      </trkpt>
      <trkpt lat="42.43491" lon="2.19976">
        <ele>2253.95</ele>
        <time>2015-06-05T07:37:52Z</time>
      </trkpt>
      <trkpt lat="42.43485" lon="2.19971">
        <ele>2255.39</ele>
        <time>2015-06-05T07:38:03Z</time>
      </trkpt>
      <trkpt lat="42.4348" lon="2.19962">
        <ele>2255.39</ele>
        <time>2015-06-05T07:38:16Z</time>
      </trkpt>
      <trkpt lat="42.43474" lon="2.19962">
        <ele>2257.31</ele>
        <time>2015-06-05T07:38:28Z</time>
      </trkpt>
      <trkpt lat="42.43464" lon="2.19958">
        <ele>2257.31</ele>
        <time>2015-06-05T07:38:41Z</time>
      </trkpt>
      <trkpt lat="42.43459" lon="2.19956">
        <ele>2257.79</ele>
        <time>2015-06-05T07:38:48Z</time>
      </trkpt>
      <trkpt lat="42.43451" lon="2.19951">
        <ele>2258.27</ele>
        <time>2015-06-05T07:38:59Z</time>
      </trkpt>
      <trkpt lat="42.4344" lon="2.19948">
        <ele>2258.27</ele>
        <time>2015-06-05T07:39:12Z</time>
      </trkpt>
      <trkpt lat="42.4343" lon="2.19947">
        <ele>2258.75</ele>
        <time>2015-06-05T07:39:25Z</time>
      </trkpt>
      <trkpt lat="42.43429" lon="2.19947">
        <ele>2259.24</ele>
        <time>2015-06-05T07:39:39Z</time>
      </trkpt>
      <trkpt lat="42.43434" lon="2.19945">
        <ele>2259.24</ele>
        <time>2015-06-05T07:39:59Z</time>
      </trkpt>
      <trkpt lat="42.43431" lon="2.19937">
        <ele>2259.24</ele>
        <time>2015-06-05T07:40:12Z</time>
      </trkpt>
      <trkpt lat="42.43431" lon="2.19935">
        <ele>2259.24</ele>
        <time>2015-06-05T07:40:23Z</time>
      </trkpt>
      <trkpt lat="42.4343" lon="2.19933">
        <ele>2259.24</ele>
        <time>2015-06-05T07:40:26Z</time>
      </trkpt>
      <trkpt lat="42.43426" lon="2.19932">
        <ele>2259.24</ele>
        <time>2015-06-05T07:40:39Z</time>
      </trkpt>
      <trkpt lat="42.43426" lon="2.19929">
        <ele>2259.24</ele>
        <time>2015-06-05T07:40:54Z</time>
      </trkpt>
      <trkpt lat="42.43425" lon="2.19926">
        <ele>2259.24</ele>
        <time>2015-06-05T07:41:00Z</time>
      </trkpt>
      <trkpt lat="42.4342" lon="2.19917">
        <ele>2260.68</ele>
        <time>2015-06-05T07:41:12Z</time>
      </trkpt>
      <trkpt lat="42.43418" lon="2.19909">
        <ele>2260.68</ele>
        <time>2015-06-05T07:41:24Z</time>
      </trkpt>
      <trkpt lat="42.43417" lon="2.19908">
        <ele>2260.68</ele>
        <time>2015-06-05T07:41:26Z</time>
      </trkpt>
      <trkpt lat="42.43414" lon="2.19906">
        <ele>2260.68</ele>
        <time>2015-06-05T07:41:29Z</time>
      </trkpt>
      <trkpt lat="42.43411" lon="2.19896">
        <ele>2259.72</ele>
        <time>2015-06-05T07:41:37Z</time>
      </trkpt>
      <trkpt lat="42.43411" lon="2.1989">
        <ele>2259.24</ele>
        <time>2015-06-05T07:41:41Z</time>
      </trkpt>
      <trkpt lat="42.43411" lon="2.19886">
        <ele>2259.24</ele>
        <time>2015-06-05T07:41:44Z</time>
      </trkpt>
      <trkpt lat="42.43413" lon="2.19879">
        <ele>2259.24</ele>
        <time>2015-06-05T07:41:49Z</time>
      </trkpt>
      <trkpt lat="42.43414" lon="2.19868">
        <ele>2261.16</ele>
        <time>2015-06-05T07:42:00Z</time>
      </trkpt>
      <trkpt lat="42.4341" lon="2.19859">
        <ele>2261.16</ele>
        <time>2015-06-05T07:42:09Z</time>
      </trkpt>
      <trkpt lat="42.43407" lon="2.19848">
        <ele>2261.16</ele>
        <time>2015-06-05T07:42:19Z</time>
      </trkpt>
      <trkpt lat="42.43402" lon="2.1984">
        <ele>2261.64</ele>
        <time>2015-06-05T07:42:29Z</time>
      </trkpt>
      <trkpt lat="42.43394" lon="2.19833">
        <ele>2261.64</ele>
        <time>2015-06-05T07:42:40Z</time>
      </trkpt>
      <trkpt lat="42.43382" lon="2.19826">
        <ele>2261.64</ele>
        <time>2015-06-05T07:42:54Z</time>
      </trkpt>
      <trkpt lat="42.43378" lon="2.19822">
        <ele>2260.68</ele>
        <time>2015-06-05T07:43:00Z</time>
      </trkpt>
      <trkpt lat="42.43376" lon="2.19821">
        <ele>2260.2</ele>
        <time>2015-06-05T07:43:02Z</time>
      </trkpt>
      <trkpt lat="42.43373" lon="2.19814">
        <ele>2259.72</ele>
        <time>2015-06-05T07:43:09Z</time>
      </trkpt>
      <trkpt lat="42.43368" lon="2.19801">
        <ele>2259.24</ele>
        <time>2015-06-05T07:43:23Z</time>
      </trkpt>
      <trkpt lat="42.43365" lon="2.19795">
        <ele>2259.24</ele>
        <time>2015-06-05T07:43:32Z</time>
      </trkpt>
      <trkpt lat="42.4336" lon="2.19785">
        <ele>2259.24</ele>
        <time>2015-06-05T07:43:44Z</time>
      </trkpt>
      <trkpt lat="42.43355" lon="2.19778">
        <ele>2259.24</ele>
        <time>2015-06-05T07:43:55Z</time>
      </trkpt>
      <trkpt lat="42.43347" lon="2.19769">
        <ele>2259.24</ele>
        <time>2015-06-05T07:44:07Z</time>
      </trkpt>
      <trkpt lat="42.4334" lon="2.19762">
        <ele>2259.24</ele>
        <time>2015-06-05T07:44:19Z</time>
      </trkpt>
      <trkpt lat="42.43333" lon="2.19757">
        <ele>2259.24</ele>
        <time>2015-06-05T07:44:30Z</time>
      </trkpt>
      <trkpt lat="42.43328" lon="2.19752">
        <ele>2259.24</ele>
        <time>2015-06-05T07:44:39Z</time>
      </trkpt>
      <trkpt lat="42.43324" lon="2.19747">
        <ele>2259.24</ele>
        <time>2015-06-05T07:44:52Z</time>
      </trkpt>
      <trkpt lat="42.43323" lon="2.19746">
        <ele>2260.68</ele>
        <time>2015-06-05T07:44:55Z</time>
      </trkpt>
      <trkpt lat="42.43321" lon="2.19748">
        <ele>2260.68</ele>
        <time>2015-06-05T07:45:07Z</time>
      </trkpt>
      <trkpt lat="42.4332" lon="2.19745">
        <ele>2261.16</ele>
        <time>2015-06-05T07:45:21Z</time>
      </trkpt>
      <trkpt lat="42.43317" lon="2.19747">
        <ele>2261.16</ele>
        <time>2015-06-05T07:45:36Z</time>
      </trkpt>
      <trkpt lat="42.43314" lon="2.19745">
        <ele>2261.16</ele>
        <time>2015-06-05T07:45:53Z</time>
      </trkpt>
      <trkpt lat="42.43313" lon="2.19739">
        <ele>2261.16</ele>
        <time>2015-06-05T07:45:58Z</time>
      </trkpt>
      <trkpt lat="42.43309" lon="2.19733">
        <ele>2261.64</ele>
        <time>2015-06-05T07:46:03Z</time>
      </trkpt>
      <trkpt lat="42.43306" lon="2.19731">
        <ele>2262.12</ele>
        <time>2015-06-05T07:46:07Z</time>
      </trkpt>
      <trkpt lat="42.43304" lon="2.19728">
        <ele>2262.12</ele>
        <time>2015-06-05T07:46:10Z</time>
      </trkpt>
      <trkpt lat="42.43297" lon="2.19722">
        <ele>2262.6</ele>
        <time>2015-06-05T07:46:19Z</time>
      </trkpt>
      <trkpt lat="42.43294" lon="2.19718">
        <ele>2262.6</ele>
        <time>2015-06-05T07:46:23Z</time>
      </trkpt>
      <trkpt lat="42.43284" lon="2.19717">
        <ele>2264.04</ele>
        <time>2015-06-05T07:46:34Z</time>
      </trkpt>
      <trkpt lat="42.43276" lon="2.19718">
        <ele>2264.52</ele>
        <time>2015-06-05T07:46:45Z</time>
      </trkpt>
      <trkpt lat="42.4327" lon="2.1972">
        <ele>2264.52</ele>
        <time>2015-06-05T07:46:55Z</time>
      </trkpt>
      <trkpt lat="42.43263" lon="2.19713">
        <ele>2264.52</ele>
        <time>2015-06-05T07:47:05Z</time>
      </trkpt>
      <trkpt lat="42.4326" lon="2.19711">
        <ele>2265</ele>
        <time>2015-06-05T07:47:09Z</time>
      </trkpt>
      <trkpt lat="42.43254" lon="2.19708">
        <ele>2265.48</ele>
        <time>2015-06-05T07:47:17Z</time>
      </trkpt>
      <trkpt lat="42.4325" lon="2.19703">
        <ele>2265.96</ele>
        <time>2015-06-05T07:47:23Z</time>
      </trkpt>
      <trkpt lat="42.43244" lon="2.19697">
        <ele>2266.93</ele>
        <time>2015-06-05T07:47:36Z</time>
      </trkpt>
      <trkpt lat="42.43238" lon="2.19692">
        <ele>2267.89</ele>
        <time>2015-06-05T07:47:48Z</time>
      </trkpt>
      <trkpt lat="42.43233" lon="2.19689">
        <ele>2269.81</ele>
        <time>2015-06-05T07:48:03Z</time>
      </trkpt>
      <trkpt lat="42.43225" lon="2.19685">
        <ele>2271.25</ele>
        <time>2015-06-05T07:48:17Z</time>
      </trkpt>
      <trkpt lat="42.43221" lon="2.19687">
        <ele>2272.21</ele>
        <time>2015-06-05T07:48:29Z</time>
      </trkpt>
      <trkpt lat="42.43213" lon="2.19688">
        <ele>2274.14</ele>
        <time>2015-06-05T07:48:42Z</time>
      </trkpt>
      <trkpt lat="42.4321" lon="2.19685">
        <ele>2275.1</ele>
        <time>2015-06-05T07:48:54Z</time>
      </trkpt>
      <trkpt lat="42.43204" lon="2.19686">
        <ele>2276.54</ele>
        <time>2015-06-05T07:49:05Z</time>
      </trkpt>
      <trkpt lat="42.432" lon="2.19686">
        <ele>2277.02</ele>
        <time>2015-06-05T07:49:17Z</time>
      </trkpt>
      <trkpt lat="42.43195" lon="2.19685">
        <ele>2278.46</ele>
        <time>2015-06-05T07:49:30Z</time>
      </trkpt>
      <trkpt lat="42.4319" lon="2.19685">
        <ele>2279.42</ele>
        <time>2015-06-05T07:49:42Z</time>
      </trkpt>
      <trkpt lat="42.43183" lon="2.19691">
        <ele>2280.87</ele>
        <time>2015-06-05T07:49:56Z</time>
      </trkpt>
      <trkpt lat="42.43178" lon="2.19691">
        <ele>2282.79</ele>
        <time>2015-06-05T07:50:11Z</time>
      </trkpt>
      <trkpt lat="42.4317" lon="2.19697">
        <ele>2283.75</ele>
        <time>2015-06-05T07:50:25Z</time>
      </trkpt>
      <trkpt lat="42.43163" lon="2.19701">
        <ele>2284.71</ele>
        <time>2015-06-05T07:50:39Z</time>
      </trkpt>
      <trkpt lat="42.43158" lon="2.19704">
        <ele>2284.71</ele>
        <time>2015-06-05T07:50:51Z</time>
      </trkpt>
      <trkpt lat="42.43156" lon="2.19707">
        <ele>2284.71</ele>
        <time>2015-06-05T07:50:55Z</time>
      </trkpt>
      <trkpt lat="42.43154" lon="2.19709">
        <ele>2284.71</ele>
        <time>2015-06-05T07:50:58Z</time>
      </trkpt>
      <trkpt lat="42.4315" lon="2.19708">
        <ele>2285.67</ele>
        <time>2015-06-05T07:51:09Z</time>
      </trkpt>
      <trkpt lat="42.43141" lon="2.19711">
        <ele>2286.15</ele>
        <time>2015-06-05T07:51:20Z</time>
      </trkpt>
      <trkpt lat="42.43134" lon="2.19713">
        <ele>2286.63</ele>
        <time>2015-06-05T07:51:32Z</time>
      </trkpt>
      <trkpt lat="42.43128" lon="2.19717">
        <ele>2287.11</ele>
        <time>2015-06-05T07:51:46Z</time>
      </trkpt>
      <trkpt lat="42.4312" lon="2.19718">
        <ele>2287.11</ele>
        <time>2015-06-05T07:51:59Z</time>
      </trkpt>
      <trkpt lat="42.43112" lon="2.19712">
        <ele>2288.08</ele>
        <time>2015-06-05T07:52:12Z</time>
      </trkpt>
      <trkpt lat="42.43109" lon="2.19713">
        <ele>2288.08</ele>
        <time>2015-06-05T07:52:15Z</time>
      </trkpt>
      <trkpt lat="42.43099" lon="2.19708">
        <ele>2288.08</ele>
        <time>2015-06-05T07:52:28Z</time>
      </trkpt>
      <trkpt lat="42.43092" lon="2.19707">
        <ele>2288.08</ele>
        <time>2015-06-05T07:52:36Z</time>
      </trkpt>
      <trkpt lat="42.43085" lon="2.19699">
        <ele>2288.56</ele>
        <time>2015-06-05T07:52:47Z</time>
      </trkpt>
      <trkpt lat="42.43074" lon="2.19696">
        <ele>2289.52</ele>
        <time>2015-06-05T07:52:59Z</time>
      </trkpt>
      <trkpt lat="42.4307" lon="2.19692">
        <ele>2289.52</ele>
        <time>2015-06-05T07:53:11Z</time>
      </trkpt>
      <trkpt lat="42.43069" lon="2.19689">
        <ele>2289.52</ele>
        <time>2015-06-05T07:53:14Z</time>
      </trkpt>
      <trkpt lat="42.43068" lon="2.19682">
        <ele>2289.52</ele>
        <time>2015-06-05T07:53:19Z</time>
      </trkpt>
      <trkpt lat="42.43064" lon="2.19673">
        <ele>2290</ele>
        <time>2015-06-05T07:53:27Z</time>
      </trkpt>
      <trkpt lat="42.43063" lon="2.1967">
        <ele>2290.48</ele>
        <time>2015-06-05T07:53:39Z</time>
      </trkpt>
      <trkpt lat="42.43065" lon="2.1967">
        <ele>2290.48</ele>
        <time>2015-06-05T07:54:01Z</time>
      </trkpt>
      <trkpt lat="42.43061" lon="2.19667">
        <ele>2290.48</ele>
        <time>2015-06-05T07:54:15Z</time>
      </trkpt>
      <trkpt lat="42.4306" lon="2.19666">
        <ele>2290.96</ele>
        <time>2015-06-05T07:54:17Z</time>
      </trkpt>
      <trkpt lat="42.43051" lon="2.19662">
        <ele>2291.44</ele>
        <time>2015-06-05T07:54:27Z</time>
      </trkpt>
      <trkpt lat="42.43049" lon="2.19661">
        <ele>2291.44</ele>
        <time>2015-06-05T07:54:29Z</time>
      </trkpt>
      <trkpt lat="42.43041" lon="2.19656">
        <ele>2291.92</ele>
        <time>2015-06-05T07:54:41Z</time>
      </trkpt>
      <trkpt lat="42.43037" lon="2.19653">
        <ele>2292.88</ele>
        <time>2015-06-05T07:54:47Z</time>
      </trkpt>
      <trkpt lat="42.43031" lon="2.19651">
        <ele>2294.32</ele>
        <time>2015-06-05T07:54:58Z</time>
      </trkpt>
      <trkpt lat="42.43024" lon="2.1965">
        <ele>2294.8</ele>
        <time>2015-06-05T07:55:08Z</time>
      </trkpt>
      <trkpt lat="42.43016" lon="2.19645">
        <ele>2295.77</ele>
        <time>2015-06-05T07:55:20Z</time>
      </trkpt>
      <trkpt lat="42.43008" lon="2.19644">
        <ele>2296.73</ele>
        <time>2015-06-05T07:55:32Z</time>
      </trkpt>
      <trkpt lat="42.43008" lon="2.19645">
        <ele>2296.73</ele>
        <time>2015-06-05T07:55:33Z</time>
      </trkpt>
      <trkpt lat="42.43" lon="2.19642">
        <ele>2297.21</ele>
        <time>2015-06-05T07:55:45Z</time>
      </trkpt>
      <trkpt lat="42.42998" lon="2.19642">
        <ele>2297.69</ele>
        <time>2015-06-05T07:55:56Z</time>
      </trkpt>
      <trkpt lat="42.42998" lon="2.19645">
        <ele>2297.69</ele>
        <time>2015-06-05T07:56:13Z</time>
      </trkpt>
      <trkpt lat="42.42995" lon="2.19645">
        <ele>2299.13</ele>
        <time>2015-06-05T07:56:25Z</time>
      </trkpt>
      <trkpt lat="42.42995" lon="2.19644">
        <ele>2299.61</ele>
        <time>2015-06-05T07:56:32Z</time>
      </trkpt>
      <trkpt lat="42.42988" lon="2.19642">
        <ele>2301.05</ele>
        <time>2015-06-05T07:56:44Z</time>
      </trkpt>
      <trkpt lat="42.42984" lon="2.1964">
        <ele>2302.49</ele>
        <time>2015-06-05T07:56:56Z</time>
      </trkpt>
      <trkpt lat="42.42976" lon="2.19637">
        <ele>2304.42</ele>
        <time>2015-06-05T07:57:09Z</time>
      </trkpt>
      <trkpt lat="42.4297" lon="2.19639">
        <ele>2306.34</ele>
        <time>2015-06-05T07:57:23Z</time>
      </trkpt>
      <trkpt lat="42.42964" lon="2.19633">
        <ele>2307.78</ele>
        <time>2015-06-05T07:57:35Z</time>
      </trkpt>
      <trkpt lat="42.42963" lon="2.19632">
        <ele>2307.78</ele>
        <time>2015-06-05T07:57:37Z</time>
      </trkpt>
      <trkpt lat="42.42957" lon="2.19628">
        <ele>2310.19</ele>
        <time>2015-06-05T07:57:47Z</time>
      </trkpt>
      <trkpt lat="42.42956" lon="2.19628">
        <ele>2310.19</ele>
        <time>2015-06-05T07:57:48Z</time>
      </trkpt>
      <trkpt lat="42.42951" lon="2.19626">
        <ele>2311.63</ele>
        <time>2015-06-05T07:58:01Z</time>
      </trkpt>
      <trkpt lat="42.42944" lon="2.19619">
        <ele>2311.15</ele>
        <time>2015-06-05T07:58:14Z</time>
      </trkpt>
      <trkpt lat="42.42938" lon="2.19612">
        <ele>2311.15</ele>
        <time>2015-06-05T07:58:25Z</time>
      </trkpt>
      <trkpt lat="42.42937" lon="2.19599">
        <ele>2312.11</ele>
        <time>2015-06-05T07:58:36Z</time>
      </trkpt>
      <trkpt lat="42.42931" lon="2.19591">
        <ele>2313.07</ele>
        <time>2015-06-05T07:58:49Z</time>
      </trkpt>
      <trkpt lat="42.42925" lon="2.19588">
        <ele>2314.51</ele>
        <time>2015-06-05T07:59:02Z</time>
      </trkpt>
      <trkpt lat="42.42922" lon="2.19589">
        <ele>2316.43</ele>
        <time>2015-06-05T07:59:12Z</time>
      </trkpt>
      <trkpt lat="42.42919" lon="2.19592">
        <ele>2318.36</ele>
        <time>2015-06-05T07:59:23Z</time>
      </trkpt>
      <trkpt lat="42.42916" lon="2.19589">
        <ele>2320.28</ele>
        <time>2015-06-05T07:59:37Z</time>
      </trkpt>
      <trkpt lat="42.42911" lon="2.19585">
        <ele>2321.24</ele>
        <time>2015-06-05T07:59:51Z</time>
      </trkpt>
      <trkpt lat="42.42908" lon="2.19584">
        <ele>2321.72</ele>
        <time>2015-06-05T07:59:56Z</time>
      </trkpt>
      <trkpt lat="42.42902" lon="2.19584">
        <ele>2321.72</ele>
        <time>2015-06-05T08:00:03Z</time>
      </trkpt>
      <trkpt lat="42.42898" lon="2.1957">
        <ele>2321.72</ele>
        <time>2015-06-05T08:00:15Z</time>
      </trkpt>
      <trkpt lat="42.42898" lon="2.19566">
        <ele>2321.72</ele>
        <time>2015-06-05T08:00:19Z</time>
      </trkpt>
      <trkpt lat="42.42894" lon="2.19559">
        <ele>2322.2</ele>
        <time>2015-06-05T08:00:30Z</time>
      </trkpt>
      <trkpt lat="42.42889" lon="2.19553">
        <ele>2324.12</ele>
        <time>2015-06-05T08:00:43Z</time>
      </trkpt>
      <trkpt lat="42.42882" lon="2.19553">
        <ele>2325.09</ele>
        <time>2015-06-05T08:00:58Z</time>
      </trkpt>
      <trkpt lat="42.42879" lon="2.19553">
        <ele>2326.53</ele>
        <time>2015-06-05T08:01:11Z</time>
      </trkpt>
      <trkpt lat="42.42874" lon="2.19555">
        <ele>2327.97</ele>
        <time>2015-06-05T08:01:24Z</time>
      </trkpt>
      <trkpt lat="42.42867" lon="2.19548">
        <ele>2328.45</ele>
        <time>2015-06-05T08:01:40Z</time>
      </trkpt>
      <trkpt lat="42.42862" lon="2.19545">
        <ele>2329.89</ele>
        <time>2015-06-05T08:01:54Z</time>
      </trkpt>
      <trkpt lat="42.42858" lon="2.19543">
        <ele>2330.37</ele>
        <time>2015-06-05T08:02:06Z</time>
      </trkpt>
      <trkpt lat="42.42849" lon="2.19541">
        <ele>2330.85</ele>
        <time>2015-06-05T08:02:19Z</time>
      </trkpt>
      <trkpt lat="42.42847" lon="2.19542">
        <ele>2330.85</ele>
        <time>2015-06-05T08:02:22Z</time>
      </trkpt>
      <trkpt lat="42.42845" lon="2.19542">
        <ele>2330.85</ele>
        <time>2015-06-05T08:02:25Z</time>
      </trkpt>
      <trkpt lat="42.42841" lon="2.1954">
        <ele>2330.85</ele>
        <time>2015-06-05T08:02:29Z</time>
      </trkpt>
      <trkpt lat="42.42835" lon="2.1954">
        <ele>2330.85</ele>
        <time>2015-06-05T08:02:40Z</time>
      </trkpt>
      <trkpt lat="42.42836" lon="2.19534">
        <ele>2330.85</ele>
        <time>2015-06-05T08:02:51Z</time>
      </trkpt>
      <trkpt lat="42.42829" lon="2.19528">
        <ele>2331.33</ele>
        <time>2015-06-05T08:03:01Z</time>
      </trkpt>
      <trkpt lat="42.42825" lon="2.19523">
        <ele>2331.81</ele>
        <time>2015-06-05T08:03:13Z</time>
      </trkpt>
      <trkpt lat="42.42829" lon="2.1952">
        <ele>2331.81</ele>
        <time>2015-06-05T08:03:30Z</time>
      </trkpt>
      <trkpt lat="42.42831" lon="2.19517">
        <ele>2332.3</ele>
        <time>2015-06-05T08:04:03Z</time>
      </trkpt>
      <trkpt lat="42.42831" lon="2.1952">
        <ele>2332.3</ele>
        <time>2015-06-05T08:04:39Z</time>
      </trkpt>
      <trkpt lat="42.42831" lon="2.19517">
        <ele>2332.78</ele>
        <time>2015-06-05T08:05:03Z</time>
      </trkpt>
      <trkpt lat="42.4283" lon="2.19516">
        <ele>2332.78</ele>
        <time>2015-06-05T08:05:19Z</time>
      </trkpt>
      <trkpt lat="42.42828" lon="2.19516">
        <ele>2332.78</ele>
        <time>2015-06-05T08:05:42Z</time>
      </trkpt>
      <trkpt lat="42.42826" lon="2.19524">
        <ele>2332.78</ele>
        <time>2015-06-05T08:06:07Z</time>
      </trkpt>
      <trkpt lat="42.42825" lon="2.1952">
        <ele>2332.78</ele>
        <time>2015-06-05T08:06:28Z</time>
      </trkpt>
      <trkpt lat="42.42826" lon="2.19518">
        <ele>2332.78</ele>
        <time>2015-06-05T08:06:43Z</time>
      </trkpt>
      <trkpt lat="42.42828" lon="2.19516">
        <ele>2332.78</ele>
        <time>2015-06-05T08:07:02Z</time>
      </trkpt>
      <trkpt lat="42.42827" lon="2.19515">
        <ele>2332.78</ele>
        <time>2015-06-05T08:07:26Z</time>
      </trkpt>
      <trkpt lat="42.42828" lon="2.19519">
        <ele>2332.78</ele>
        <time>2015-06-05T08:07:51Z</time>
      </trkpt>
      <trkpt lat="42.4283" lon="2.19514">
        <ele>2332.78</ele>
        <time>2015-06-05T08:08:23Z</time>
      </trkpt>
      <trkpt lat="42.42831" lon="2.19516">
        <ele>2332.78</ele>
        <time>2015-06-05T08:09:02Z</time>
      </trkpt>
      <trkpt lat="42.42826" lon="2.19517">
        <ele>2332.78</ele>
        <time>2015-06-05T08:09:19Z</time>
      </trkpt>
      <trkpt lat="42.42826" lon="2.19514">
        <ele>2333.26</ele>
        <time>2015-06-05T08:09:36Z</time>
      </trkpt>
      <trkpt lat="42.42829" lon="2.19514">
        <ele>2333.26</ele>
        <time>2015-06-05T08:10:05Z</time>
      </trkpt>
      <trkpt lat="42.42826" lon="2.19523">
        <ele>2331.81</ele>
        <time>2015-06-05T08:10:21Z</time>
      </trkpt>
      <trkpt lat="42.42829" lon="2.19527">
        <ele>2332.3</ele>
        <time>2015-06-05T08:10:49Z</time>
      </trkpt>
      <trkpt lat="42.42823" lon="2.1953">
        <ele>2332.3</ele>
        <time>2015-06-05T08:11:16Z</time>
      </trkpt>
      <trkpt lat="42.42823" lon="2.19528">
        <ele>2332.3</ele>
        <time>2015-06-05T08:11:31Z</time>
      </trkpt>
      <trkpt lat="42.42826" lon="2.19523">
        <ele>2333.74</ele>
        <time>2015-06-05T08:11:43Z</time>
      </trkpt>
      <trkpt lat="42.42826" lon="2.1952">
        <ele>2332.78</ele>
        <time>2015-06-05T08:12:01Z</time>
      </trkpt>
      <trkpt lat="42.42826" lon="2.19519">
        <ele>2332.78</ele>
        <time>2015-06-05T08:12:21Z</time>
      </trkpt>
      <trkpt lat="42.42825" lon="2.19521">
        <ele>2332.78</ele>
        <time>2015-06-05T08:12:34Z</time>
      </trkpt>
      <trkpt lat="42.42825" lon="2.19523">
        <ele>2333.26</ele>
        <time>2015-06-05T08:13:04Z</time>
      </trkpt>
      <trkpt lat="42.42825" lon="2.19528">
        <ele>2333.26</ele>
        <time>2015-06-05T08:13:29Z</time>
      </trkpt>
      <trkpt lat="42.42825" lon="2.19522">
        <ele>2333.26</ele>
        <time>2015-06-05T08:13:57Z</time>
      </trkpt>
      <trkpt lat="42.42824" lon="2.19519">
        <ele>2333.26</ele>
        <time>2015-06-05T08:14:19Z</time>
      </trkpt>
      <trkpt lat="42.42824" lon="2.19527">
        <ele>2333.26</ele>
        <time>2015-06-05T08:14:37Z</time>
      </trkpt>
      <trkpt lat="42.42819" lon="2.19527">
        <ele>2333.26</ele>
        <time>2015-06-05T08:14:55Z</time>
      </trkpt>
      <trkpt lat="42.42813" lon="2.19528">
        <ele>2333.26</ele>
        <time>2015-06-05T08:15:08Z</time>
      </trkpt>
      <trkpt lat="42.42806" lon="2.19523">
        <ele>2335.18</ele>
        <time>2015-06-05T08:15:20Z</time>
      </trkpt>
      <trkpt lat="42.42797" lon="2.19519">
        <ele>2336.62</ele>
        <time>2015-06-05T08:15:34Z</time>
      </trkpt>
      <trkpt lat="42.42793" lon="2.19514">
        <ele>2338.06</ele>
        <time>2015-06-05T08:15:46Z</time>
      </trkpt>
      <trkpt lat="42.42788" lon="2.19509">
        <ele>2339.51</ele>
        <time>2015-06-05T08:15:58Z</time>
      </trkpt>
      <trkpt lat="42.42782" lon="2.19514">
        <ele>2340.95</ele>
        <time>2015-06-05T08:16:11Z</time>
      </trkpt>
      <trkpt lat="42.42779" lon="2.19511">
        <ele>2342.39</ele>
        <time>2015-06-05T08:16:22Z</time>
      </trkpt>
      <trkpt lat="42.42774" lon="2.1952">
        <ele>2343.83</ele>
        <time>2015-06-05T08:16:35Z</time>
      </trkpt>
      <trkpt lat="42.42773" lon="2.19528">
        <ele>2344.79</ele>
        <time>2015-06-05T08:16:47Z</time>
      </trkpt>
      <trkpt lat="42.42772" lon="2.19531">
        <ele>2344.79</ele>
        <time>2015-06-05T08:16:50Z</time>
      </trkpt>
      <trkpt lat="42.42766" lon="2.19538">
        <ele>2345.27</ele>
        <time>2015-06-05T08:17:03Z</time>
      </trkpt>
      <trkpt lat="42.42761" lon="2.19548">
        <ele>2347.2</ele>
        <time>2015-06-05T08:17:17Z</time>
      </trkpt>
      <trkpt lat="42.42759" lon="2.19554">
        <ele>2349.12</ele>
        <time>2015-06-05T08:17:31Z</time>
      </trkpt>
      <trkpt lat="42.42751" lon="2.19561">
        <ele>2351.52</ele>
        <time>2015-06-05T08:17:47Z</time>
      </trkpt>
      <trkpt lat="42.42748" lon="2.1956">
        <ele>2353.93</ele>
        <time>2015-06-05T08:18:02Z</time>
      </trkpt>
      <trkpt lat="42.42744" lon="2.19565">
        <ele>2355.37</ele>
        <time>2015-06-05T08:18:17Z</time>
      </trkpt>
      <trkpt lat="42.4274" lon="2.19572">
        <ele>2356.81</ele>
        <time>2015-06-05T08:18:30Z</time>
      </trkpt>
      <trkpt lat="42.42739" lon="2.19574">
        <ele>2356.81</ele>
        <time>2015-06-05T08:18:32Z</time>
      </trkpt>
      <trkpt lat="42.42732" lon="2.19574">
        <ele>2358.25</ele>
        <time>2015-06-05T08:18:45Z</time>
      </trkpt>
      <trkpt lat="42.42725" lon="2.19581">
        <ele>2359.21</ele>
        <time>2015-06-05T08:19:00Z</time>
      </trkpt>
      <trkpt lat="42.4272" lon="2.19585">
        <ele>2361.14</ele>
        <time>2015-06-05T08:19:14Z</time>
      </trkpt>
      <trkpt lat="42.42715" lon="2.19588">
        <ele>2362.1</ele>
        <time>2015-06-05T08:19:29Z</time>
      </trkpt>
      <trkpt lat="42.42713" lon="2.19589">
        <ele>2362.1</ele>
        <time>2015-06-05T08:19:33Z</time>
      </trkpt>
      <trkpt lat="42.42703" lon="2.19593">
        <ele>2364.02</ele>
        <time>2015-06-05T08:19:49Z</time>
      </trkpt>
      <trkpt lat="42.42693" lon="2.19591">
        <ele>2364.5</ele>
        <time>2015-06-05T08:20:03Z</time>
      </trkpt>
      <trkpt lat="42.42682" lon="2.19593">
        <ele>2364.98</ele>
        <time>2015-06-05T08:20:15Z</time>
      </trkpt>
      <trkpt lat="42.42679" lon="2.19592">
        <ele>2364.98</ele>
        <time>2015-06-05T08:20:18Z</time>
      </trkpt>
      <trkpt lat="42.42677" lon="2.1959">
        <ele>2365.46</ele>
        <time>2015-06-05T08:20:22Z</time>
      </trkpt>
      <trkpt lat="42.42674" lon="2.1959">
        <ele>2365.46</ele>
        <time>2015-06-05T08:20:25Z</time>
      </trkpt>
      <trkpt lat="42.42663" lon="2.19587">
        <ele>2365.94</ele>
        <time>2015-06-05T08:20:38Z</time>
      </trkpt>
      <trkpt lat="42.42654" lon="2.19586">
        <ele>2366.42</ele>
        <time>2015-06-05T08:20:52Z</time>
      </trkpt>
      <trkpt lat="42.42647" lon="2.19589">
        <ele>2366.42</ele>
        <time>2015-06-05T08:21:05Z</time>
      </trkpt>
      <trkpt lat="42.4264" lon="2.19593">
        <ele>2367.86</ele>
        <time>2015-06-05T08:21:21Z</time>
      </trkpt>
      <trkpt lat="42.42635" lon="2.19601">
        <ele>2368.83</ele>
        <time>2015-06-05T08:21:35Z</time>
      </trkpt>
      <trkpt lat="42.42628" lon="2.19601">
        <ele>2369.79</ele>
        <time>2015-06-05T08:21:48Z</time>
      </trkpt>
      <trkpt lat="42.42626" lon="2.19601">
        <ele>2370.27</ele>
        <time>2015-06-05T08:21:51Z</time>
      </trkpt>
      <trkpt lat="42.42616" lon="2.19607">
        <ele>2371.23</ele>
        <time>2015-06-05T08:22:06Z</time>
      </trkpt>
      <trkpt lat="42.42606" lon="2.19611">
        <ele>2372.19</ele>
        <time>2015-06-05T08:22:19Z</time>
      </trkpt>
      <trkpt lat="42.42598" lon="2.19612">
        <ele>2373.15</ele>
        <time>2015-06-05T08:22:32Z</time>
      </trkpt>
      <trkpt lat="42.42597" lon="2.19613">
        <ele>2373.15</ele>
        <time>2015-06-05T08:22:34Z</time>
      </trkpt>
      <trkpt lat="42.42591" lon="2.1962">
        <ele>2373.63</ele>
        <time>2015-06-05T08:22:47Z</time>
      </trkpt>
      <trkpt lat="42.4259" lon="2.19624">
        <ele>2374.11</ele>
        <time>2015-06-05T08:22:52Z</time>
      </trkpt>
      <trkpt lat="42.42584" lon="2.19634">
        <ele>2376.04</ele>
        <time>2015-06-05T08:23:05Z</time>
      </trkpt>
      <trkpt lat="42.4258" lon="2.19642">
        <ele>2377.48</ele>
        <time>2015-06-05T08:23:19Z</time>
      </trkpt>
      <trkpt lat="42.42581" lon="2.19648">
        <ele>2378.44</ele>
        <time>2015-06-05T08:23:31Z</time>
      </trkpt>
      <trkpt lat="42.42581" lon="2.19654">
        <ele>2379.88</ele>
        <time>2015-06-05T08:23:45Z</time>
      </trkpt>
      <trkpt lat="42.42577" lon="2.19657">
        <ele>2380.36</ele>
        <time>2015-06-05T08:23:55Z</time>
      </trkpt>
      <trkpt lat="42.42577" lon="2.19667">
        <ele>2381.8</ele>
        <time>2015-06-05T08:24:08Z</time>
      </trkpt>
      <trkpt lat="42.42572" lon="2.19673">
        <ele>2382.76</ele>
        <time>2015-06-05T08:24:19Z</time>
      </trkpt>
      <trkpt lat="42.4257" lon="2.19675">
        <ele>2383.25</ele>
        <time>2015-06-05T08:24:24Z</time>
      </trkpt>
      <trkpt lat="42.42567" lon="2.1968">
        <ele>2383.73</ele>
        <time>2015-06-05T08:24:30Z</time>
      </trkpt>
      <trkpt lat="42.42562" lon="2.19687">
        <ele>2384.69</ele>
        <time>2015-06-05T08:24:41Z</time>
      </trkpt>
      <trkpt lat="42.42561" lon="2.19694">
        <ele>2385.65</ele>
        <time>2015-06-05T08:24:54Z</time>
      </trkpt>
      <trkpt lat="42.42558" lon="2.19702">
        <ele>2386.61</ele>
        <time>2015-06-05T08:25:06Z</time>
      </trkpt>
      <trkpt lat="42.42554" lon="2.19705">
        <ele>2387.09</ele>
        <time>2015-06-05T08:25:16Z</time>
      </trkpt>
      <trkpt lat="42.42551" lon="2.19713">
        <ele>2388.05</ele>
        <time>2015-06-05T08:25:26Z</time>
      </trkpt>
      <trkpt lat="42.42549" lon="2.19722">
        <ele>2389.49</ele>
        <time>2015-06-05T08:25:40Z</time>
      </trkpt>
      <trkpt lat="42.4254" lon="2.19732">
        <ele>2390.46</ele>
        <time>2015-06-05T08:25:55Z</time>
      </trkpt>
      <trkpt lat="42.42539" lon="2.19737">
        <ele>2391.42</ele>
        <time>2015-06-05T08:26:10Z</time>
      </trkpt>
      <trkpt lat="42.42537" lon="2.19744">
        <ele>2393.34</ele>
        <time>2015-06-05T08:26:23Z</time>
      </trkpt>
      <trkpt lat="42.42535" lon="2.19757">
        <ele>2394.3</ele>
        <time>2015-06-05T08:26:36Z</time>
      </trkpt>
      <trkpt lat="42.42535" lon="2.19759">
        <ele>2394.3</ele>
        <time>2015-06-05T08:26:38Z</time>
      </trkpt>
      <trkpt lat="42.42534" lon="2.19765">
        <ele>2394.78</ele>
        <time>2015-06-05T08:26:43Z</time>
      </trkpt>
      <trkpt lat="42.42532" lon="2.19776">
        <ele>2395.74</ele>
        <time>2015-06-05T08:26:56Z</time>
      </trkpt>
      <trkpt lat="42.42528" lon="2.19784">
        <ele>2397.18</ele>
        <time>2015-06-05T08:27:10Z</time>
      </trkpt>
      <trkpt lat="42.42527" lon="2.19788">
        <ele>2398.15</ele>
        <time>2015-06-05T08:27:14Z</time>
      </trkpt>
      <trkpt lat="42.42525" lon="2.19793">
        <ele>2398.15</ele>
        <time>2015-06-05T08:27:19Z</time>
      </trkpt>
      <trkpt lat="42.42519" lon="2.19799">
        <ele>2398.15</ele>
        <time>2015-06-05T08:27:26Z</time>
      </trkpt>
      <trkpt lat="42.42517" lon="2.19809">
        <ele>2399.11</ele>
        <time>2015-06-05T08:27:41Z</time>
      </trkpt>
      <trkpt lat="42.42517" lon="2.19809">
        <ele>2399.11</ele>
        <time>2015-06-05T08:27:45Z</time>
      </trkpt>
      <trkpt lat="42.42512" lon="2.19816">
        <ele>2399.59</ele>
        <time>2015-06-05T08:27:57Z</time>
      </trkpt>
      <trkpt lat="42.42509" lon="2.1982">
        <ele>2400.07</ele>
        <time>2015-06-05T08:28:02Z</time>
      </trkpt>
      <trkpt lat="42.42502" lon="2.19827">
        <ele>2401.51</ele>
        <time>2015-06-05T08:28:15Z</time>
      </trkpt>
      <trkpt lat="42.42493" lon="2.19834">
        <ele>2403.43</ele>
        <time>2015-06-05T08:28:30Z</time>
      </trkpt>
      <trkpt lat="42.42489" lon="2.1984">
        <ele>2405.84</ele>
        <time>2015-06-05T08:28:44Z</time>
      </trkpt>
      <trkpt lat="42.42483" lon="2.19846">
        <ele>2407.28</ele>
        <time>2015-06-05T08:28:57Z</time>
      </trkpt>
      <trkpt lat="42.42475" lon="2.19851">
        <ele>2408.24</ele>
        <time>2015-06-05T08:29:11Z</time>
      </trkpt>
      <trkpt lat="42.42471" lon="2.19859">
        <ele>2409.68</ele>
        <time>2015-06-05T08:29:22Z</time>
      </trkpt>
      <trkpt lat="42.42467" lon="2.19871">
        <ele>2411.12</ele>
        <time>2015-06-05T08:29:36Z</time>
      </trkpt>
      <trkpt lat="42.42463" lon="2.19881">
        <ele>2412.57</ele>
        <time>2015-06-05T08:29:50Z</time>
      </trkpt>
      <trkpt lat="42.42458" lon="2.19888">
        <ele>2413.05</ele>
        <time>2015-06-05T08:30:02Z</time>
      </trkpt>
      <trkpt lat="42.42452" lon="2.19896">
        <ele>2414.01</ele>
        <time>2015-06-05T08:30:14Z</time>
      </trkpt>
      <trkpt lat="42.42444" lon="2.19902">
        <ele>2414.49</ele>
        <time>2015-06-05T08:30:27Z</time>
      </trkpt>
      <trkpt lat="42.42437" lon="2.19911">
        <ele>2415.45</ele>
        <time>2015-06-05T08:30:40Z</time>
      </trkpt>
      <trkpt lat="42.42432" lon="2.19923">
        <ele>2415.93</ele>
        <time>2015-06-05T08:30:55Z</time>
      </trkpt>
      <trkpt lat="42.42426" lon="2.19932">
        <ele>2416.89</ele>
        <time>2015-06-05T08:31:09Z</time>
      </trkpt>
      <trkpt lat="42.42424" lon="2.19943">
        <ele>2417.85</ele>
        <time>2015-06-05T08:31:23Z</time>
      </trkpt>
      <trkpt lat="42.42424" lon="2.19952">
        <ele>2418.33</ele>
        <time>2015-06-05T08:31:33Z</time>
      </trkpt>
      <trkpt lat="42.42426" lon="2.19958">
        <ele>2419.78</ele>
        <time>2015-06-05T08:31:44Z</time>
      </trkpt>
      <trkpt lat="42.42427" lon="2.19968">
        <ele>2421.7</ele>
        <time>2015-06-05T08:31:58Z</time>
      </trkpt>
      <trkpt lat="42.42428" lon="2.19974">
        <ele>2423.14</ele>
        <time>2015-06-05T08:32:12Z</time>
      </trkpt>
      <trkpt lat="42.42426" lon="2.19984">
        <ele>2425.06</ele>
        <time>2015-06-05T08:32:26Z</time>
      </trkpt>
      <trkpt lat="42.42425" lon="2.19991">
        <ele>2426.99</ele>
        <time>2015-06-05T08:32:39Z</time>
      </trkpt>
      <trkpt lat="42.42423" lon="2.19999">
        <ele>2427.95</ele>
        <time>2015-06-05T08:32:53Z</time>
      </trkpt>
      <trkpt lat="42.42426" lon="2.19997">
        <ele>2429.87</ele>
        <time>2015-06-05T08:33:05Z</time>
      </trkpt>
      <trkpt lat="42.42429" lon="2.19998">
        <ele>2431.79</ele>
        <time>2015-06-05T08:33:19Z</time>
      </trkpt>
      <trkpt lat="42.42429" lon="2.20005">
        <ele>2434.2</ele>
        <time>2015-06-05T08:33:33Z</time>
      </trkpt>
      <trkpt lat="42.42427" lon="2.20011">
        <ele>2435.16</ele>
        <time>2015-06-05T08:33:48Z</time>
      </trkpt>
      <trkpt lat="42.42425" lon="2.20017">
        <ele>2436.12</ele>
        <time>2015-06-05T08:34:00Z</time>
      </trkpt>
      <trkpt lat="42.42423" lon="2.20027">
        <ele>2437.56</ele>
        <time>2015-06-05T08:34:15Z</time>
      </trkpt>
      <trkpt lat="42.42423" lon="2.20034">
        <ele>2440.44</ele>
        <time>2015-06-05T08:34:30Z</time>
      </trkpt>
      <trkpt lat="42.42423" lon="2.2004">
        <ele>2442.37</ele>
        <time>2015-06-05T08:34:46Z</time>
      </trkpt>
      <trkpt lat="42.42425" lon="2.20049">
        <ele>2444.29</ele>
        <time>2015-06-05T08:35:01Z</time>
      </trkpt>
      <trkpt lat="42.42425" lon="2.20056">
        <ele>2446.21</ele>
        <time>2015-06-05T08:35:17Z</time>
      </trkpt>
      <trkpt lat="42.42424" lon="2.20063">
        <ele>2448.13</ele>
        <time>2015-06-05T08:35:33Z</time>
      </trkpt>
      <trkpt lat="42.42424" lon="2.20065">
        <ele>2449.1</ele>
        <time>2015-06-05T08:35:48Z</time>
      </trkpt>
      <trkpt lat="42.42424" lon="2.2007">
        <ele>2450.54</ele>
        <time>2015-06-05T08:36:04Z</time>
      </trkpt>
      <trkpt lat="42.42422" lon="2.20074">
        <ele>2451.98</ele>
        <time>2015-06-05T08:36:16Z</time>
      </trkpt>
      <trkpt lat="42.42419" lon="2.20085">
        <ele>2453.42</ele>
        <time>2015-06-05T08:36:30Z</time>
      </trkpt>
      <trkpt lat="42.42413" lon="2.20092">
        <ele>2451.98</ele>
        <time>2015-06-05T08:36:40Z</time>
      </trkpt>
      <trkpt lat="42.42407" lon="2.20095">
        <ele>2451.98</ele>
        <time>2015-06-05T08:36:48Z</time>
      </trkpt>
      <trkpt lat="42.42398" lon="2.20094">
        <ele>2451.98</ele>
        <time>2015-06-05T08:37:00Z</time>
      </trkpt>
      <trkpt lat="42.42391" lon="2.20097">
        <ele>2452.46</ele>
        <time>2015-06-05T08:37:13Z</time>
      </trkpt>
      <trkpt lat="42.42386" lon="2.20098">
        <ele>2452.94</ele>
        <time>2015-06-05T08:37:27Z</time>
      </trkpt>
      <trkpt lat="42.42379" lon="2.20099">
        <ele>2452.94</ele>
        <time>2015-06-05T08:37:40Z</time>
      </trkpt>
      <trkpt lat="42.42377" lon="2.201">
        <ele>2453.42</ele>
        <time>2015-06-05T08:37:44Z</time>
      </trkpt>
      <trkpt lat="42.42369" lon="2.20098">
        <ele>2454.38</ele>
        <time>2015-06-05T08:37:55Z</time>
      </trkpt>
      <trkpt lat="42.4236" lon="2.20107">
        <ele>2456.31</ele>
        <time>2015-06-05T08:38:10Z</time>
      </trkpt>
      <trkpt lat="42.42354" lon="2.20112">
        <ele>2457.75</ele>
        <time>2015-06-05T08:38:22Z</time>
      </trkpt>
      <trkpt lat="42.42352" lon="2.2012">
        <ele>2458.23</ele>
        <time>2015-06-05T08:38:35Z</time>
      </trkpt>
      <trkpt lat="42.4235" lon="2.20127">
        <ele>2459.19</ele>
        <time>2015-06-05T08:38:47Z</time>
      </trkpt>
      <trkpt lat="42.4235" lon="2.20135">
        <ele>2461.59</ele>
        <time>2015-06-05T08:38:59Z</time>
      </trkpt>
      <trkpt lat="42.4235" lon="2.20142">
        <ele>2463.04</ele>
        <time>2015-06-05T08:39:12Z</time>
      </trkpt>
      <trkpt lat="42.42349" lon="2.2015">
        <ele>2464.48</ele>
        <time>2015-06-05T08:39:26Z</time>
      </trkpt>
      <trkpt lat="42.42348" lon="2.2016">
        <ele>2465.92</ele>
        <time>2015-06-05T08:39:40Z</time>
      </trkpt>
      <trkpt lat="42.42346" lon="2.20168">
        <ele>2467.84</ele>
        <time>2015-06-05T08:39:53Z</time>
      </trkpt>
      <trkpt lat="42.42347" lon="2.20175">
        <ele>2469.28</ele>
        <time>2015-06-05T08:40:07Z</time>
      </trkpt>
      <trkpt lat="42.42346" lon="2.20182">
        <ele>2471.69</ele>
        <time>2015-06-05T08:40:21Z</time>
      </trkpt>
      <trkpt lat="42.42349" lon="2.20189">
        <ele>2473.61</ele>
        <time>2015-06-05T08:40:36Z</time>
      </trkpt>
      <trkpt lat="42.4235" lon="2.20195">
        <ele>2475.05</ele>
        <time>2015-06-05T08:40:48Z</time>
      </trkpt>
      <trkpt lat="42.42352" lon="2.20199">
        <ele>2476.01</ele>
        <time>2015-06-05T08:41:01Z</time>
      </trkpt>
      <trkpt lat="42.42354" lon="2.20203">
        <ele>2476.97</ele>
        <time>2015-06-05T08:41:14Z</time>
      </trkpt>
      <trkpt lat="42.42354" lon="2.20206">
        <ele>2477.45</ele>
        <time>2015-06-05T08:41:27Z</time>
      </trkpt>
      <trkpt lat="42.42352" lon="2.20211">
        <ele>2479.38</ele>
        <time>2015-06-05T08:41:41Z</time>
      </trkpt>
      <trkpt lat="42.4235" lon="2.20214">
        <ele>2481.3</ele>
        <time>2015-06-05T08:41:55Z</time>
      </trkpt>
      <trkpt lat="42.42343" lon="2.20215">
        <ele>2482.74</ele>
        <time>2015-06-05T08:42:10Z</time>
      </trkpt>
      <trkpt lat="42.42338" lon="2.20216">
        <ele>2484.18</ele>
        <time>2015-06-05T08:42:22Z</time>
      </trkpt>
      <trkpt lat="42.42333" lon="2.20215">
        <ele>2485.63</ele>
        <time>2015-06-05T08:42:34Z</time>
      </trkpt>
      <trkpt lat="42.42331" lon="2.20215">
        <ele>2486.11</ele>
        <time>2015-06-05T08:42:48Z</time>
      </trkpt>
      <trkpt lat="42.42327" lon="2.20221">
        <ele>2488.51</ele>
        <time>2015-06-05T08:43:04Z</time>
      </trkpt>
      <trkpt lat="42.42323" lon="2.20226">
        <ele>2490.43</ele>
        <time>2015-06-05T08:43:19Z</time>
      </trkpt>
      <trkpt lat="42.42321" lon="2.20234">
        <ele>2492.36</ele>
        <time>2015-06-05T08:43:34Z</time>
      </trkpt>
      <trkpt lat="42.4232" lon="2.20239">
        <ele>2494.28</ele>
        <time>2015-06-05T08:43:49Z</time>
      </trkpt>
      <trkpt lat="42.42318" lon="2.20244">
        <ele>2496.2</ele>
        <time>2015-06-05T08:44:03Z</time>
      </trkpt>
      <trkpt lat="42.42321" lon="2.20254">
        <ele>2498.6</ele>
        <time>2015-06-05T08:44:19Z</time>
      </trkpt>
      <trkpt lat="42.42324" lon="2.20261">
        <ele>2500.53</ele>
        <time>2015-06-05T08:44:33Z</time>
      </trkpt>
      <trkpt lat="42.42321" lon="2.20265">
        <ele>2501.97</ele>
        <time>2015-06-05T08:44:46Z</time>
      </trkpt>
      <trkpt lat="42.4232" lon="2.20271">
        <ele>2503.41</ele>
        <time>2015-06-05T08:45:00Z</time>
      </trkpt>
      <trkpt lat="42.42319" lon="2.2028">
        <ele>2504.37</ele>
        <time>2015-06-05T08:45:13Z</time>
      </trkpt>
      <trkpt lat="42.4232" lon="2.20288">
        <ele>2505.81</ele>
        <time>2015-06-05T08:45:30Z</time>
      </trkpt>
      <trkpt lat="42.42323" lon="2.20293">
        <ele>2505.81</ele>
        <time>2015-06-05T08:45:45Z</time>
      </trkpt>
      <trkpt lat="42.42321" lon="2.20293">
        <ele>2505.81</ele>
        <time>2015-06-05T08:46:06Z</time>
      </trkpt>
      <trkpt lat="42.42322" lon="2.20293">
        <ele>2506.29</ele>
        <time>2015-06-05T08:46:32Z</time>
      </trkpt>
      <trkpt lat="42.4232" lon="2.20288">
        <ele>2506.29</ele>
        <time>2015-06-05T08:46:46Z</time>
      </trkpt>
      <trkpt lat="42.42316" lon="2.20288">
        <ele>2506.29</ele>
        <time>2015-06-05T08:47:06Z</time>
      </trkpt>
      <trkpt lat="42.42309" lon="2.20291">
        <ele>2507.74</ele>
        <time>2015-06-05T08:47:18Z</time>
      </trkpt>
      <trkpt lat="42.42306" lon="2.20293">
        <ele>2507.74</ele>
        <time>2015-06-05T08:47:22Z</time>
      </trkpt>
      <trkpt lat="42.42296" lon="2.20298">
        <ele>2508.7</ele>
        <time>2015-06-05T08:47:38Z</time>
      </trkpt>
      <trkpt lat="42.42287" lon="2.20302">
        <ele>2508.7</ele>
        <time>2015-06-05T08:47:51Z</time>
      </trkpt>
      <trkpt lat="42.42278" lon="2.20304">
        <ele>2510.14</ele>
        <time>2015-06-05T08:48:04Z</time>
      </trkpt>
      <trkpt lat="42.42271" lon="2.20305">
        <ele>2510.62</ele>
        <time>2015-06-05T08:48:17Z</time>
      </trkpt>
      <trkpt lat="42.42271" lon="2.20306">
        <ele>2510.62</ele>
        <time>2015-06-05T08:48:32Z</time>
      </trkpt>
      <trkpt lat="42.4227" lon="2.20305">
        <ele>2510.62</ele>
        <time>2015-06-05T08:48:50Z</time>
      </trkpt>
      <trkpt lat="42.42269" lon="2.20304">
        <ele>2510.62</ele>
        <time>2015-06-05T08:49:09Z</time>
      </trkpt>
      <trkpt lat="42.42268" lon="2.20304">
        <ele>2510.62</ele>
        <time>2015-06-05T08:49:32Z</time>
      </trkpt>
      <trkpt lat="42.42264" lon="2.20302">
        <ele>2511.1</ele>
        <time>2015-06-05T08:50:10Z</time>
      </trkpt>
      <trkpt lat="42.42269" lon="2.20304">
        <ele>2511.1</ele>
        <time>2015-06-05T08:50:37Z</time>
      </trkpt>
      <trkpt lat="42.42268" lon="2.20302">
        <ele>2511.58</ele>
        <time>2015-06-05T08:51:11Z</time>
      </trkpt>
      <trkpt lat="42.4227" lon="2.20304">
        <ele>2511.58</ele>
        <time>2015-06-05T08:51:38Z</time>
      </trkpt>
      <trkpt lat="42.42269" lon="2.20305">
        <ele>2512.06</ele>
        <time>2015-06-05T08:52:01Z</time>
      </trkpt>
      <trkpt lat="42.42269" lon="2.20307">
        <ele>2512.06</ele>
        <time>2015-06-05T08:52:16Z</time>
      </trkpt>
      <trkpt lat="42.42263" lon="2.20309">
        <ele>2512.06</ele>
        <time>2015-06-05T08:52:33Z</time>
      </trkpt>
      <trkpt lat="42.42254" lon="2.20315">
        <ele>2510.14</ele>
        <time>2015-06-05T08:52:46Z</time>
      </trkpt>
      <trkpt lat="42.4225" lon="2.20317">
        <ele>2509.18</ele>
        <time>2015-06-05T08:52:53Z</time>
      </trkpt>
      <trkpt lat="42.42245" lon="2.20322">
        <ele>2507.74</ele>
        <time>2015-06-05T08:53:03Z</time>
      </trkpt>
      <trkpt lat="42.42244" lon="2.20326">
        <ele>2507.26</ele>
        <time>2015-06-05T08:53:06Z</time>
      </trkpt>
      <trkpt lat="42.42242" lon="2.20328">
        <ele>2506.77</ele>
        <time>2015-06-05T08:53:09Z</time>
      </trkpt>
      <trkpt lat="42.42237" lon="2.2034">
        <ele>2506.29</ele>
        <time>2015-06-05T08:53:24Z</time>
      </trkpt>
      <trkpt lat="42.42234" lon="2.20347">
        <ele>2503.89</ele>
        <time>2015-06-05T08:53:36Z</time>
      </trkpt>
      <trkpt lat="42.42239" lon="2.20364">
        <ele>2501.97</ele>
        <time>2015-06-05T08:53:52Z</time>
      </trkpt>
      <trkpt lat="42.42239" lon="2.20378">
        <ele>2501.49</ele>
        <time>2015-06-05T08:54:06Z</time>
      </trkpt>
      <trkpt lat="42.42239" lon="2.20388">
        <ele>2501.49</ele>
        <time>2015-06-05T08:54:18Z</time>
      </trkpt>
      <trkpt lat="42.42241" lon="2.20403">
        <ele>2501.49</ele>
        <time>2015-06-05T08:54:32Z</time>
      </trkpt>
      <trkpt lat="42.42243" lon="2.20415">
        <ele>2501.01</ele>
        <time>2015-06-05T08:54:45Z</time>
      </trkpt>
      <trkpt lat="42.42248" lon="2.20425">
        <ele>2500.53</ele>
        <time>2015-06-05T08:54:58Z</time>
      </trkpt>
      <trkpt lat="42.42253" lon="2.20434">
        <ele>2500.05</ele>
        <time>2015-06-05T08:55:10Z</time>
      </trkpt>
      <trkpt lat="42.42257" lon="2.2044">
        <ele>2500.05</ele>
        <time>2015-06-05T08:55:20Z</time>
      </trkpt>
      <trkpt lat="42.4226" lon="2.20452">
        <ele>2500.05</ele>
        <time>2015-06-05T08:55:33Z</time>
      </trkpt>
      <trkpt lat="42.42261" lon="2.2046">
        <ele>2502.45</ele>
        <time>2015-06-05T08:55:47Z</time>
      </trkpt>
      <trkpt lat="42.42261" lon="2.20468">
        <ele>2503.89</ele>
        <time>2015-06-05T08:56:00Z</time>
      </trkpt>
      <trkpt lat="42.42261" lon="2.20475">
        <ele>2505.33</ele>
        <time>2015-06-05T08:56:12Z</time>
      </trkpt>
      <trkpt lat="42.42262" lon="2.20482">
        <ele>2506.77</ele>
        <time>2015-06-05T08:56:26Z</time>
      </trkpt>
      <trkpt lat="42.42263" lon="2.2049">
        <ele>2508.7</ele>
        <time>2015-06-05T08:56:41Z</time>
      </trkpt>
      <trkpt lat="42.42262" lon="2.205">
        <ele>2509.66</ele>
        <time>2015-06-05T08:56:55Z</time>
      </trkpt>
      <trkpt lat="42.42262" lon="2.20509">
        <ele>2510.14</ele>
        <time>2015-06-05T08:57:09Z</time>
      </trkpt>
      <trkpt lat="42.42262" lon="2.20518">
        <ele>2511.58</ele>
        <time>2015-06-05T08:57:23Z</time>
      </trkpt>
      <trkpt lat="42.4226" lon="2.20526">
        <ele>2512.54</ele>
        <time>2015-06-05T08:57:34Z</time>
      </trkpt>
      <trkpt lat="42.42261" lon="2.20535">
        <ele>2513.98</ele>
        <time>2015-06-05T08:57:45Z</time>
      </trkpt>
      <trkpt lat="42.4226" lon="2.20542">
        <ele>2514.95</ele>
        <time>2015-06-05T08:58:00Z</time>
      </trkpt>
      <trkpt lat="42.42262" lon="2.2055">
        <ele>2514.47</ele>
        <time>2015-06-05T08:58:11Z</time>
      </trkpt>
      <trkpt lat="42.42263" lon="2.20559">
        <ele>2515.91</ele>
        <time>2015-06-05T08:58:24Z</time>
      </trkpt>
      <trkpt lat="42.42264" lon="2.20566">
        <ele>2516.39</ele>
        <time>2015-06-05T08:58:34Z</time>
      </trkpt>
      <trkpt lat="42.42263" lon="2.20575">
        <ele>2516.87</ele>
        <time>2015-06-05T08:58:46Z</time>
      </trkpt>
      <trkpt lat="42.42266" lon="2.20578">
        <ele>2517.35</ele>
        <time>2015-06-05T08:59:00Z</time>
      </trkpt>
      <trkpt lat="42.42266" lon="2.20586">
        <ele>2518.31</ele>
        <time>2015-06-05T08:59:20Z</time>
      </trkpt>
      <trkpt lat="42.42264" lon="2.20594">
        <ele>2519.27</ele>
        <time>2015-06-05T08:59:34Z</time>
      </trkpt>
      <trkpt lat="42.42263" lon="2.20598">
        <ele>2520.23</ele>
        <time>2015-06-05T08:59:48Z</time>
      </trkpt>
      <trkpt lat="42.42263" lon="2.20607">
        <ele>2521.19</ele>
        <time>2015-06-05T09:00:04Z</time>
      </trkpt>
      <trkpt lat="42.42263" lon="2.20612">
        <ele>2522.16</ele>
        <time>2015-06-05T09:00:16Z</time>
      </trkpt>
      <trkpt lat="42.42264" lon="2.20619">
        <ele>2523.12</ele>
        <time>2015-06-05T09:00:29Z</time>
      </trkpt>
      <trkpt lat="42.42264" lon="2.20625">
        <ele>2524.08</ele>
        <time>2015-06-05T09:00:44Z</time>
      </trkpt>
      <trkpt lat="42.42266" lon="2.20632">
        <ele>2525.04</ele>
        <time>2015-06-05T09:01:03Z</time>
      </trkpt>
      <trkpt lat="42.42268" lon="2.20639">
        <ele>2526</ele>
        <time>2015-06-05T09:01:18Z</time>
      </trkpt>
      <trkpt lat="42.42268" lon="2.20645">
        <ele>2526.48</ele>
        <time>2015-06-05T09:01:29Z</time>
      </trkpt>
      <trkpt lat="42.42271" lon="2.20656">
        <ele>2526.96</ele>
        <time>2015-06-05T09:01:47Z</time>
      </trkpt>
      <trkpt lat="42.42272" lon="2.20665">
        <ele>2528.4</ele>
        <time>2015-06-05T09:02:01Z</time>
      </trkpt>
      <trkpt lat="42.42274" lon="2.20672">
        <ele>2529.37</ele>
        <time>2015-06-05T09:02:15Z</time>
      </trkpt>
      <trkpt lat="42.42275" lon="2.2068">
        <ele>2531.29</ele>
        <time>2015-06-05T09:02:29Z</time>
      </trkpt>
      <trkpt lat="42.42277" lon="2.20687">
        <ele>2532.25</ele>
        <time>2015-06-05T09:02:42Z</time>
      </trkpt>
      <trkpt lat="42.42272" lon="2.20695">
        <ele>2534.65</ele>
        <time>2015-06-05T09:02:58Z</time>
      </trkpt>
      <trkpt lat="42.42271" lon="2.207">
        <ele>2536.1</ele>
        <time>2015-06-05T09:03:12Z</time>
      </trkpt>
      <trkpt lat="42.42273" lon="2.20703">
        <ele>2538.02</ele>
        <time>2015-06-05T09:03:28Z</time>
      </trkpt>
      <trkpt lat="42.42273" lon="2.20706">
        <ele>2538.98</ele>
        <time>2015-06-05T09:03:48Z</time>
      </trkpt>
      <trkpt lat="42.42274" lon="2.20711">
        <ele>2540.9</ele>
        <time>2015-06-05T09:04:01Z</time>
      </trkpt>
      <trkpt lat="42.42276" lon="2.20714">
        <ele>2542.34</ele>
        <time>2015-06-05T09:04:16Z</time>
      </trkpt>
      <trkpt lat="42.42277" lon="2.2072">
        <ele>2544.75</ele>
        <time>2015-06-05T09:04:32Z</time>
      </trkpt>
      <trkpt lat="42.42281" lon="2.20727">
        <ele>2546.19</ele>
        <time>2015-06-05T09:04:47Z</time>
      </trkpt>
      <trkpt lat="42.42282" lon="2.20735">
        <ele>2547.63</ele>
        <time>2015-06-05T09:05:00Z</time>
      </trkpt>
      <trkpt lat="42.42283" lon="2.20736">
        <ele>2548.59</ele>
        <time>2015-06-05T09:05:17Z</time>
      </trkpt>
      <trkpt lat="42.42283" lon="2.20741">
        <ele>2549.07</ele>
        <time>2015-06-05T09:05:31Z</time>
      </trkpt>
      <trkpt lat="42.42283" lon="2.20742">
        <ele>2549.55</ele>
        <time>2015-06-05T09:05:58Z</time>
      </trkpt>
      <trkpt lat="42.42282" lon="2.20743">
        <ele>2549.55</ele>
        <time>2015-06-05T09:06:18Z</time>
      </trkpt>
      <trkpt lat="42.42281" lon="2.2074">
        <ele>2550.03</ele>
        <time>2015-06-05T09:06:47Z</time>
      </trkpt>
      <trkpt lat="42.42283" lon="2.20742">
        <ele>2550.03</ele>
        <time>2015-06-05T09:07:10Z</time>
      </trkpt>
      <trkpt lat="42.42284" lon="2.20742">
        <ele>2550.03</ele>
        <time>2015-06-05T09:07:33Z</time>
      </trkpt>
      <trkpt lat="42.42285" lon="2.2074">
        <ele>2550.03</ele>
        <time>2015-06-05T09:07:53Z</time>
      </trkpt>
      <trkpt lat="42.42285" lon="2.20739">
        <ele>2550.51</ele>
        <time>2015-06-05T09:08:16Z</time>
      </trkpt>
      <trkpt lat="42.4228" lon="2.20742">
        <ele>2550.51</ele>
        <time>2015-06-05T09:08:35Z</time>
      </trkpt>
      <trkpt lat="42.42273" lon="2.20749">
        <ele>2551.48</ele>
        <time>2015-06-05T09:08:47Z</time>
      </trkpt>
      <trkpt lat="42.42267" lon="2.20759">
        <ele>2552.44</ele>
        <time>2015-06-05T09:08:59Z</time>
      </trkpt>
      <trkpt lat="42.42268" lon="2.20764">
        <ele>2553.4</ele>
        <time>2015-06-05T09:09:16Z</time>
      </trkpt>
      <trkpt lat="42.42266" lon="2.2077">
        <ele>2554.84</ele>
        <time>2015-06-05T09:09:29Z</time>
      </trkpt>
      <trkpt lat="42.42262" lon="2.20777">
        <ele>2556.76</ele>
        <time>2015-06-05T09:09:43Z</time>
      </trkpt>
      <trkpt lat="42.42259" lon="2.2078">
        <ele>2557.73</ele>
        <time>2015-06-05T09:10:01Z</time>
      </trkpt>
      <trkpt lat="42.4226" lon="2.20782">
        <ele>2557.73</ele>
        <time>2015-06-05T09:10:25Z</time>
      </trkpt>
      <trkpt lat="42.42255" lon="2.20785">
        <ele>2559.65</ele>
        <time>2015-06-05T09:10:44Z</time>
      </trkpt>
      <trkpt lat="42.4225" lon="2.20789">
        <ele>2561.09</ele>
        <time>2015-06-05T09:10:58Z</time>
      </trkpt>
      <trkpt lat="42.42246" lon="2.20791">
        <ele>2563.01</ele>
        <time>2015-06-05T09:11:11Z</time>
      </trkpt>
      <trkpt lat="42.42242" lon="2.20794">
        <ele>2564.93</ele>
        <time>2015-06-05T09:11:24Z</time>
      </trkpt>
      <trkpt lat="42.42238" lon="2.20795">
        <ele>2566.38</ele>
        <time>2015-06-05T09:11:38Z</time>
      </trkpt>
      <trkpt lat="42.42233" lon="2.20799">
        <ele>2567.82</ele>
        <time>2015-06-05T09:11:52Z</time>
      </trkpt>
      <trkpt lat="42.4223" lon="2.208">
        <ele>2569.26</ele>
        <time>2015-06-05T09:12:05Z</time>
      </trkpt>
      <trkpt lat="42.42228" lon="2.20805">
        <ele>2571.66</ele>
        <time>2015-06-05T09:12:19Z</time>
      </trkpt>
      <trkpt lat="42.42226" lon="2.20808">
        <ele>2573.11</ele>
        <time>2015-06-05T09:12:32Z</time>
      </trkpt>
      <trkpt lat="42.42222" lon="2.20812">
        <ele>2575.51</ele>
        <time>2015-06-05T09:12:45Z</time>
      </trkpt>
      <trkpt lat="42.4222" lon="2.20819">
        <ele>2576.95</ele>
        <time>2015-06-05T09:13:00Z</time>
      </trkpt>
      <trkpt lat="42.42219" lon="2.20827">
        <ele>2578.39</ele>
        <time>2015-06-05T09:13:13Z</time>
      </trkpt>
      <trkpt lat="42.42217" lon="2.20829">
        <ele>2578.87</ele>
        <time>2015-06-05T09:13:26Z</time>
      </trkpt>
      <trkpt lat="42.42218" lon="2.20832">
        <ele>2578.87</ele>
        <time>2015-06-05T09:13:50Z</time>
      </trkpt>
      <trkpt lat="42.42215" lon="2.20832">
        <ele>2578.87</ele>
        <time>2015-06-05T09:14:04Z</time>
      </trkpt>
      <trkpt lat="42.4221" lon="2.20834">
        <ele>2579.35</ele>
        <time>2015-06-05T09:14:16Z</time>
      </trkpt>
      <trkpt lat="42.42207" lon="2.20833">
        <ele>2579.84</ele>
        <time>2015-06-05T09:14:21Z</time>
      </trkpt>
      <trkpt lat="42.42202" lon="2.20837">
        <ele>2581.28</ele>
        <time>2015-06-05T09:14:36Z</time>
      </trkpt>
      <trkpt lat="42.42198" lon="2.20846">
        <ele>2582.24</ele>
        <time>2015-06-05T09:14:54Z</time>
      </trkpt>
      <trkpt lat="42.42193" lon="2.20851">
        <ele>2583.68</ele>
        <time>2015-06-05T09:15:07Z</time>
      </trkpt>
      <trkpt lat="42.4219" lon="2.20854">
        <ele>2585.6</ele>
        <time>2015-06-05T09:15:22Z</time>
      </trkpt>
      <trkpt lat="42.42188" lon="2.20855">
        <ele>2586.08</ele>
        <time>2015-06-05T09:15:34Z</time>
      </trkpt>
      <trkpt lat="42.42185" lon="2.20857">
        <ele>2587.53</ele>
        <time>2015-06-05T09:15:47Z</time>
      </trkpt>
      <trkpt lat="42.4218" lon="2.20859">
        <ele>2588.97</ele>
        <time>2015-06-05T09:16:02Z</time>
      </trkpt>
      <trkpt lat="42.42174" lon="2.20865">
        <ele>2590.89</ele>
        <time>2015-06-05T09:16:17Z</time>
      </trkpt>
      <trkpt lat="42.42173" lon="2.20867">
        <ele>2592.81</ele>
        <time>2015-06-05T09:16:34Z</time>
      </trkpt>
      <trkpt lat="42.42171" lon="2.20868">
        <ele>2593.77</ele>
        <time>2015-06-05T09:16:47Z</time>
      </trkpt>
      <trkpt lat="42.42169" lon="2.20871">
        <ele>2595.7</ele>
        <time>2015-06-05T09:17:03Z</time>
      </trkpt>
      <trkpt lat="42.42166" lon="2.20879">
        <ele>2596.18</ele>
        <time>2015-06-05T09:17:17Z</time>
      </trkpt>
      <trkpt lat="42.42163" lon="2.20884">
        <ele>2598.1</ele>
        <time>2015-06-05T09:17:33Z</time>
      </trkpt>
      <trkpt lat="42.4216" lon="2.20889">
        <ele>2599.54</ele>
        <time>2015-06-05T09:17:52Z</time>
      </trkpt>
      <trkpt lat="42.42159" lon="2.2089">
        <ele>2600.5</ele>
        <time>2015-06-05T09:18:04Z</time>
      </trkpt>
      <trkpt lat="42.42157" lon="2.20891">
        <ele>2601.95</ele>
        <time>2015-06-05T09:18:18Z</time>
      </trkpt>
      <trkpt lat="42.42156" lon="2.20895">
        <ele>2602.91</ele>
        <time>2015-06-05T09:18:31Z</time>
      </trkpt>
      <trkpt lat="42.42154" lon="2.20897">
        <ele>2604.83</ele>
        <time>2015-06-05T09:18:44Z</time>
      </trkpt>
      <trkpt lat="42.42152" lon="2.20896">
        <ele>2606.27</ele>
        <time>2015-06-05T09:19:01Z</time>
      </trkpt>
      <trkpt lat="42.42149" lon="2.20895">
        <ele>2607.71</ele>
        <time>2015-06-05T09:19:16Z</time>
      </trkpt>
      <trkpt lat="42.42145" lon="2.20898">
        <ele>2609.16</ele>
        <time>2015-06-05T09:19:29Z</time>
      </trkpt>
      <trkpt lat="42.42141" lon="2.20899">
        <ele>2611.08</ele>
        <time>2015-06-05T09:19:42Z</time>
      </trkpt>
      <trkpt lat="42.42136" lon="2.20899">
        <ele>2613</ele>
        <time>2015-06-05T09:19:57Z</time>
      </trkpt>
      <trkpt lat="42.42136" lon="2.20899">
        <ele>2613.96</ele>
        <time>2015-06-05T09:20:10Z</time>
      </trkpt>
      <trkpt lat="42.42134" lon="2.20899">
        <ele>2615.4</ele>
        <time>2015-06-05T09:20:26Z</time>
      </trkpt>
      <trkpt lat="42.42135" lon="2.209">
        <ele>2615.88</ele>
        <time>2015-06-05T09:20:50Z</time>
      </trkpt>
      <trkpt lat="42.42135" lon="2.20898">
        <ele>2615.88</ele>
        <time>2015-06-05T09:21:15Z</time>
      </trkpt>
      <trkpt lat="42.42136" lon="2.20899">
        <ele>2615.88</ele>
        <time>2015-06-05T09:21:40Z</time>
      </trkpt>
      <trkpt lat="42.42134" lon="2.209">
        <ele>2615.88</ele>
        <time>2015-06-05T09:22:06Z</time>
      </trkpt>
      <trkpt lat="42.42133" lon="2.20902">
        <ele>2615.88</ele>
        <time>2015-06-05T09:22:20Z</time>
      </trkpt>
      <trkpt lat="42.42131" lon="2.20905">
        <ele>2616.85</ele>
        <time>2015-06-05T09:22:31Z</time>
      </trkpt>
      <trkpt lat="42.42129" lon="2.20908">
        <ele>2617.81</ele>
        <time>2015-06-05T09:22:43Z</time>
      </trkpt>
      <trkpt lat="42.42127" lon="2.20916">
        <ele>2619.73</ele>
        <time>2015-06-05T09:22:57Z</time>
      </trkpt>
      <trkpt lat="42.42125" lon="2.2092">
        <ele>2620.69</ele>
        <time>2015-06-05T09:23:10Z</time>
      </trkpt>
      <trkpt lat="42.42124" lon="2.20921">
        <ele>2621.17</ele>
        <time>2015-06-05T09:23:32Z</time>
      </trkpt>
      <trkpt lat="42.4212" lon="2.20925">
        <ele>2622.61</ele>
        <time>2015-06-05T09:23:50Z</time>
      </trkpt>
      <trkpt lat="42.42116" lon="2.20925">
        <ele>2624.54</ele>
        <time>2015-06-05T09:24:05Z</time>
      </trkpt>
      <trkpt lat="42.42114" lon="2.20925">
        <ele>2625.5</ele>
        <time>2015-06-05T09:24:17Z</time>
      </trkpt>
      <trkpt lat="42.42112" lon="2.20927">
        <ele>2626.46</ele>
        <time>2015-06-05T09:24:33Z</time>
      </trkpt>
      <trkpt lat="42.4211" lon="2.20929">
        <ele>2626.94</ele>
        <time>2015-06-05T09:24:50Z</time>
      </trkpt>
      <trkpt lat="42.42107" lon="2.20927">
        <ele>2628.38</ele>
        <time>2015-06-05T09:25:04Z</time>
      </trkpt>
      <trkpt lat="42.42105" lon="2.20928">
        <ele>2629.82</ele>
        <time>2015-06-05T09:25:18Z</time>
      </trkpt>
      <trkpt lat="42.42102" lon="2.20929">
        <ele>2631.27</ele>
        <time>2015-06-05T09:25:32Z</time>
      </trkpt>
      <trkpt lat="42.42099" lon="2.20931">
        <ele>2632.71</ele>
        <time>2015-06-05T09:25:47Z</time>
      </trkpt>
      <trkpt lat="42.42098" lon="2.20932">
        <ele>2633.67</ele>
        <time>2015-06-05T09:25:59Z</time>
      </trkpt>
      <trkpt lat="42.42096" lon="2.20933">
        <ele>2635.11</ele>
        <time>2015-06-05T09:26:13Z</time>
      </trkpt>
      <trkpt lat="42.42097" lon="2.20931">
        <ele>2635.59</ele>
        <time>2015-06-05T09:26:39Z</time>
      </trkpt>
      <trkpt lat="42.42095" lon="2.20934">
        <ele>2637.03</ele>
        <time>2015-06-05T09:26:51Z</time>
      </trkpt>
      <trkpt lat="42.42092" lon="2.20934">
        <ele>2637.99</ele>
        <time>2015-06-05T09:27:02Z</time>
      </trkpt>
      <trkpt lat="42.4209" lon="2.20934">
        <ele>2639.44</ele>
        <time>2015-06-05T09:27:16Z</time>
      </trkpt>
      <trkpt lat="42.42087" lon="2.20937">
        <ele>2640.88</ele>
        <time>2015-06-05T09:27:32Z</time>
      </trkpt>
      <trkpt lat="42.42083" lon="2.20937">
        <ele>2642.32</ele>
        <time>2015-06-05T09:27:45Z</time>
      </trkpt>
      <trkpt lat="42.42081" lon="2.20936">
        <ele>2643.76</ele>
        <time>2015-06-05T09:27:58Z</time>
      </trkpt>
      <trkpt lat="42.42081" lon="2.20934">
        <ele>2644.24</ele>
        <time>2015-06-05T09:28:23Z</time>
      </trkpt>
      <trkpt lat="42.42077" lon="2.20936">
        <ele>2644.72</ele>
        <time>2015-06-05T09:28:37Z</time>
      </trkpt>
      <trkpt lat="42.42074" lon="2.20936">
        <ele>2646.17</ele>
        <time>2015-06-05T09:28:52Z</time>
      </trkpt>
      <trkpt lat="42.42075" lon="2.20938">
        <ele>2647.13</ele>
        <time>2015-06-05T09:29:18Z</time>
      </trkpt>
      <trkpt lat="42.42072" lon="2.2094">
        <ele>2649.05</ele>
        <time>2015-06-05T09:29:32Z</time>
      </trkpt>
      <trkpt lat="42.42069" lon="2.20943">
        <ele>2650.01</ele>
        <time>2015-06-05T09:29:45Z</time>
      </trkpt>
      <trkpt lat="42.42065" lon="2.20941">
        <ele>2651.93</ele>
        <time>2015-06-05T09:30:00Z</time>
      </trkpt>
      <trkpt lat="42.42064" lon="2.20943">
        <ele>2653.38</ele>
        <time>2015-06-05T09:30:15Z</time>
      </trkpt>
      <trkpt lat="42.42064" lon="2.20942">
        <ele>2653.86</ele>
        <time>2015-06-05T09:30:33Z</time>
      </trkpt>
      <trkpt lat="42.42063" lon="2.20943">
        <ele>2654.34</ele>
        <time>2015-06-05T09:30:51Z</time>
      </trkpt>
      <trkpt lat="42.42062" lon="2.20943">
        <ele>2655.78</ele>
        <time>2015-06-05T09:31:05Z</time>
      </trkpt>
      <trkpt lat="42.42061" lon="2.20942">
        <ele>2656.74</ele>
        <time>2015-06-05T09:31:17Z</time>
      </trkpt>
      <trkpt lat="42.4206" lon="2.20944">
        <ele>2656.74</ele>
        <time>2015-06-05T09:31:32Z</time>
      </trkpt>
      <trkpt lat="42.4206" lon="2.20944">
        <ele>2658.18</ele>
        <time>2015-06-05T09:31:50Z</time>
      </trkpt>
      <trkpt lat="42.4206" lon="2.20948">
        <ele>2658.66</ele>
        <time>2015-06-05T09:32:09Z</time>
      </trkpt>
      <trkpt lat="42.42058" lon="2.20945">
        <ele>2659.62</ele>
        <time>2015-06-05T09:32:30Z</time>
      </trkpt>
      <trkpt lat="42.42056" lon="2.20946">
        <ele>2661.55</ele>
        <time>2015-06-05T09:32:46Z</time>
      </trkpt>
      <trkpt lat="42.42053" lon="2.20941">
        <ele>2663.47</ele>
        <time>2015-06-05T09:33:00Z</time>
      </trkpt>
      <trkpt lat="42.42055" lon="2.20945">
        <ele>2663.95</ele>
        <time>2015-06-05T09:33:20Z</time>
      </trkpt>
      <trkpt lat="42.42057" lon="2.20944">
        <ele>2664.43</ele>
        <time>2015-06-05T09:33:48Z</time>
      </trkpt>
      <trkpt lat="42.42056" lon="2.20945">
        <ele>2664.91</ele>
        <time>2015-06-05T09:34:06Z</time>
      </trkpt>
      <trkpt lat="42.42053" lon="2.20945">
        <ele>2666.83</ele>
        <time>2015-06-05T09:34:18Z</time>
      </trkpt>
      <trkpt lat="42.42052" lon="2.20949">
        <ele>2668.76</ele>
        <time>2015-06-05T09:34:33Z</time>
      </trkpt>
      <trkpt lat="42.42051" lon="2.2095">
        <ele>2669.24</ele>
        <time>2015-06-05T09:34:48Z</time>
      </trkpt>
      <trkpt lat="42.42048" lon="2.2095">
        <ele>2670.68</ele>
        <time>2015-06-05T09:35:04Z</time>
      </trkpt>
      <trkpt lat="42.42047" lon="2.20952">
        <ele>2671.64</ele>
        <time>2015-06-05T09:35:19Z</time>
      </trkpt>
      <trkpt lat="42.42046" lon="2.20952">
        <ele>2672.6</ele>
        <time>2015-06-05T09:35:35Z</time>
      </trkpt>
      <trkpt lat="42.42045" lon="2.20955">
        <ele>2673.08</ele>
        <time>2015-06-05T09:35:49Z</time>
      </trkpt>
      <trkpt lat="42.42044" lon="2.20956">
        <ele>2675.01</ele>
        <time>2015-06-05T09:36:03Z</time>
      </trkpt>
      <trkpt lat="42.42043" lon="2.20956">
        <ele>2675.01</ele>
        <time>2015-06-05T09:36:20Z</time>
      </trkpt>
      <trkpt lat="42.42041" lon="2.20955">
        <ele>2676.45</ele>
        <time>2015-06-05T09:36:32Z</time>
      </trkpt>
      <trkpt lat="42.42041" lon="2.20954">
        <ele>2677.41</ele>
        <time>2015-06-05T09:36:51Z</time>
      </trkpt>
      <trkpt lat="42.4204" lon="2.20958">
        <ele>2677.41</ele>
        <time>2015-06-05T09:37:03Z</time>
      </trkpt>
      <trkpt lat="42.42038" lon="2.2096">
        <ele>2679.33</ele>
        <time>2015-06-05T09:37:17Z</time>
      </trkpt>
      <trkpt lat="42.42038" lon="2.20959">
        <ele>2679.33</ele>
        <time>2015-06-05T09:37:36Z</time>
      </trkpt>
      <trkpt lat="42.42034" lon="2.20957">
        <ele>2680.29</ele>
        <time>2015-06-05T09:37:47Z</time>
      </trkpt>
      <trkpt lat="42.42033" lon="2.20952">
        <ele>2681.73</ele>
        <time>2015-06-05T09:38:02Z</time>
      </trkpt>
      <trkpt lat="42.42033" lon="2.20952">
        <ele>2682.7</ele>
        <time>2015-06-05T09:38:16Z</time>
      </trkpt>
      <trkpt lat="42.42032" lon="2.20955">
        <ele>2684.62</ele>
        <time>2015-06-05T09:38:28Z</time>
      </trkpt>
      <trkpt lat="42.42032" lon="2.20956">
        <ele>2685.1</ele>
        <time>2015-06-05T09:38:43Z</time>
      </trkpt>
      <trkpt lat="42.42033" lon="2.20956">
        <ele>2685.58</ele>
        <time>2015-06-05T09:38:57Z</time>
      </trkpt>
      <trkpt lat="42.42033" lon="2.20955">
        <ele>2686.06</ele>
        <time>2015-06-05T09:39:14Z</time>
      </trkpt>
      <trkpt lat="42.42032" lon="2.20956">
        <ele>2687.02</ele>
        <time>2015-06-05T09:39:28Z</time>
      </trkpt>
      <trkpt lat="42.42031" lon="2.20959">
        <ele>2688.46</ele>
        <time>2015-06-05T09:39:50Z</time>
      </trkpt>
      <trkpt lat="42.4203" lon="2.20959">
        <ele>2689.43</ele>
        <time>2015-06-05T09:40:03Z</time>
      </trkpt>
      <trkpt lat="42.42029" lon="2.20959">
        <ele>2690.87</ele>
        <time>2015-06-05T09:40:18Z</time>
      </trkpt>
      <trkpt lat="42.42028" lon="2.20961">
        <ele>2691.35</ele>
        <time>2015-06-05T09:40:34Z</time>
      </trkpt>
      <trkpt lat="42.42027" lon="2.20963">
        <ele>2692.31</ele>
        <time>2015-06-05T09:40:47Z</time>
      </trkpt>
      <trkpt lat="42.42026" lon="2.20963">
        <ele>2693.27</ele>
        <time>2015-06-05T09:41:02Z</time>
      </trkpt>
      <trkpt lat="42.42026" lon="2.20965">
        <ele>2694.71</ele>
        <time>2015-06-05T09:41:15Z</time>
      </trkpt>
      <trkpt lat="42.42025" lon="2.20967">
        <ele>2695.19</ele>
        <time>2015-06-05T09:41:27Z</time>
      </trkpt>
      <trkpt lat="42.42023" lon="2.20968">
        <ele>2696.15</ele>
        <time>2015-06-05T09:41:40Z</time>
      </trkpt>
      <trkpt lat="42.42023" lon="2.20967">
        <ele>2698.08</ele>
        <time>2015-06-05T09:41:58Z</time>
      </trkpt>
      <trkpt lat="42.42019" lon="2.20968">
        <ele>2699.04</ele>
        <time>2015-06-05T09:42:13Z</time>
      </trkpt>
      <trkpt lat="42.42019" lon="2.20966">
        <ele>2699.52</ele>
        <time>2015-06-05T09:42:28Z</time>
      </trkpt>
      <trkpt lat="42.42019" lon="2.20964">
        <ele>2700.96</ele>
        <time>2015-06-05T09:42:44Z</time>
      </trkpt>
      <trkpt lat="42.42017" lon="2.20962">
        <ele>2702.4</ele>
        <time>2015-06-05T09:42:57Z</time>
      </trkpt>
      <trkpt lat="42.42016" lon="2.20958">
        <ele>2703.85</ele>
        <time>2015-06-05T09:43:09Z</time>
      </trkpt>
      <trkpt lat="42.42016" lon="2.20956">
        <ele>2705.77</ele>
        <time>2015-06-05T09:43:24Z</time>
      </trkpt>
      <trkpt lat="42.42015" lon="2.20957">
        <ele>2705.77</ele>
        <time>2015-06-05T09:43:48Z</time>
      </trkpt>
      <trkpt lat="42.42013" lon="2.20955">
        <ele>2706.25</ele>
        <time>2015-06-05T09:44:05Z</time>
      </trkpt>
      <trkpt lat="42.42011" lon="2.20953">
        <ele>2707.21</ele>
        <time>2015-06-05T09:44:18Z</time>
      </trkpt>
      <trkpt lat="42.42008" lon="2.20956">
        <ele>2708.65</ele>
        <time>2015-06-05T09:44:31Z</time>
      </trkpt>
      <trkpt lat="42.42007" lon="2.20956">
        <ele>2709.61</ele>
        <time>2015-06-05T09:44:49Z</time>
      </trkpt>
      <trkpt lat="42.42009" lon="2.20956">
        <ele>2710.09</ele>
        <time>2015-06-05T09:45:03Z</time>
      </trkpt>
      <trkpt lat="42.42009" lon="2.20959">
        <ele>2711.06</ele>
        <time>2015-06-05T09:45:15Z</time>
      </trkpt>
      <trkpt lat="42.42008" lon="2.20959">
        <ele>2712.02</ele>
        <time>2015-06-05T09:45:27Z</time>
      </trkpt>
      <trkpt lat="42.42009" lon="2.2096">
        <ele>2712.98</ele>
        <time>2015-06-05T09:45:48Z</time>
      </trkpt>
      <trkpt lat="42.42008" lon="2.20964">
        <ele>2713.46</ele>
        <time>2015-06-05T09:46:07Z</time>
      </trkpt>
      <trkpt lat="42.42008" lon="2.20966">
        <ele>2714.9</ele>
        <time>2015-06-05T09:46:26Z</time>
      </trkpt>
      <trkpt lat="42.42007" lon="2.20969">
        <ele>2716.34</ele>
        <time>2015-06-05T09:46:37Z</time>
      </trkpt>
      <trkpt lat="42.42005" lon="2.2097">
        <ele>2717.78</ele>
        <time>2015-06-05T09:46:50Z</time>
      </trkpt>
      <trkpt lat="42.42005" lon="2.20971">
        <ele>2719.23</ele>
        <time>2015-06-05T09:47:04Z</time>
      </trkpt>
      <trkpt lat="42.42003" lon="2.20974">
        <ele>2720.67</ele>
        <time>2015-06-05T09:47:16Z</time>
      </trkpt>
      <trkpt lat="42.42002" lon="2.20975">
        <ele>2721.63</ele>
        <time>2015-06-05T09:47:31Z</time>
      </trkpt>
      <trkpt lat="42.42003" lon="2.20975">
        <ele>2722.59</ele>
        <time>2015-06-05T09:47:44Z</time>
      </trkpt>
      <trkpt lat="42.42" lon="2.20977">
        <ele>2724.03</ele>
        <time>2015-06-05T09:47:57Z</time>
      </trkpt>
      <trkpt lat="42.41998" lon="2.20977">
        <ele>2725.48</ele>
        <time>2015-06-05T09:48:13Z</time>
      </trkpt>
      <trkpt lat="42.42" lon="2.20979">
        <ele>2726.92</ele>
        <time>2015-06-05T09:48:26Z</time>
      </trkpt>
      <trkpt lat="42.42" lon="2.20982">
        <ele>2728.36</ele>
        <time>2015-06-05T09:48:41Z</time>
      </trkpt>
      <trkpt lat="42.42" lon="2.20983">
        <ele>2729.32</ele>
        <time>2015-06-05T09:48:56Z</time>
      </trkpt>
      <trkpt lat="42.41998" lon="2.20984">
        <ele>2730.28</ele>
        <time>2015-06-05T09:49:18Z</time>
      </trkpt>
      <trkpt lat="42.42" lon="2.20988">
        <ele>2730.28</ele>
        <time>2015-06-05T09:49:37Z</time>
      </trkpt>
      <trkpt lat="42.42" lon="2.20988">
        <ele>2730.28</ele>
        <time>2015-06-05T09:49:56Z</time>
      </trkpt>
      <trkpt lat="42.41999" lon="2.20987">
        <ele>2730.28</ele>
        <time>2015-06-05T09:50:20Z</time>
      </trkpt>
      <trkpt lat="42.41998" lon="2.20985">
        <ele>2731.24</ele>
        <time>2015-06-05T09:50:39Z</time>
      </trkpt>
      <trkpt lat="42.41998" lon="2.20986">
        <ele>2731.24</ele>
        <time>2015-06-05T09:51:00Z</time>
      </trkpt>
      <trkpt lat="42.41999" lon="2.20986">
        <ele>2731.24</ele>
        <time>2015-06-05T09:51:16Z</time>
      </trkpt>
      <trkpt lat="42.41997" lon="2.20985">
        <ele>2731.24</ele>
        <time>2015-06-05T09:51:36Z</time>
      </trkpt>
      <trkpt lat="42.41998" lon="2.20985">
        <ele>2731.24</ele>
        <time>2015-06-05T09:51:54Z</time>
      </trkpt>
      <trkpt lat="42.41996" lon="2.20983">
        <ele>2731.24</ele>
        <time>2015-06-05T09:52:06Z</time>
      </trkpt>
      <trkpt lat="42.41995" lon="2.20979">
        <ele>2731.72</ele>
        <time>2015-06-05T09:52:26Z</time>
      </trkpt>
      <trkpt lat="42.41995" lon="2.20976">
        <ele>2730.28</ele>
        <time>2015-06-05T09:52:32Z</time>
      </trkpt>
      <trkpt lat="42.41995" lon="2.20972">
        <ele>2729.8</ele>
        <time>2015-06-05T09:52:50Z</time>
      </trkpt>
      <trkpt lat="42.41995" lon="2.20973">
        <ele>2730.28</ele>
        <time>2015-06-05T09:53:05Z</time>
      </trkpt>
      <trkpt lat="42.41995" lon="2.20977">
        <ele>2730.28</ele>
        <time>2015-06-05T09:53:20Z</time>
      </trkpt>
      <trkpt lat="42.41998" lon="2.20982">
        <ele>2731.72</ele>
        <time>2015-06-05T09:53:28Z</time>
      </trkpt>
      <trkpt lat="42.41999" lon="2.20988">
        <ele>2731.72</ele>
        <time>2015-06-05T09:53:42Z</time>
      </trkpt>
      <trkpt lat="42.41997" lon="2.20997">
        <ele>2730.28</ele>
        <time>2015-06-05T09:53:54Z</time>
      </trkpt>
      <trkpt lat="42.41997" lon="2.21011">
        <ele>2729.8</ele>
        <time>2015-06-05T09:54:09Z</time>
      </trkpt>
      <trkpt lat="42.41997" lon="2.21026">
        <ele>2730.28</ele>
        <time>2015-06-05T09:54:24Z</time>
      </trkpt>
      <trkpt lat="42.42002" lon="2.21038">
        <ele>2731.72</ele>
        <time>2015-06-05T09:54:38Z</time>
      </trkpt>
      <trkpt lat="42.42006" lon="2.21046">
        <ele>2734.13</ele>
        <time>2015-06-05T09:54:52Z</time>
      </trkpt>
      <trkpt lat="42.42008" lon="2.21056">
        <ele>2736.53</ele>
        <time>2015-06-05T09:55:04Z</time>
      </trkpt>
      <trkpt lat="42.42011" lon="2.21062">
        <ele>2738.45</ele>
        <time>2015-06-05T09:55:17Z</time>
      </trkpt>
      <trkpt lat="42.42014" lon="2.21067">
        <ele>2740.86</ele>
        <time>2015-06-05T09:55:29Z</time>
      </trkpt>
      <trkpt lat="42.4202" lon="2.21072">
        <ele>2742.78</ele>
        <time>2015-06-05T09:55:44Z</time>
      </trkpt>
      <trkpt lat="42.42024" lon="2.21081">
        <ele>2745.66</ele>
        <time>2015-06-05T09:56:01Z</time>
      </trkpt>
      <trkpt lat="42.42026" lon="2.2109">
        <ele>2746.62</ele>
        <time>2015-06-05T09:56:15Z</time>
      </trkpt>
      <trkpt lat="42.42029" lon="2.21102">
        <ele>2748.07</ele>
        <time>2015-06-05T09:56:29Z</time>
      </trkpt>
      <trkpt lat="42.42032" lon="2.21113">
        <ele>2749.51</ele>
        <time>2015-06-05T09:56:43Z</time>
      </trkpt>
      <trkpt lat="42.42038" lon="2.21118">
        <ele>2752.39</ele>
        <time>2015-06-05T09:56:57Z</time>
      </trkpt>
      <trkpt lat="42.42042" lon="2.21127">
        <ele>2754.31</ele>
        <time>2015-06-05T09:57:12Z</time>
      </trkpt>
      <trkpt lat="42.42046" lon="2.2113">
        <ele>2755.76</ele>
        <time>2015-06-05T09:57:21Z</time>
      </trkpt>
      <trkpt lat="42.42049" lon="2.21138">
        <ele>2758.16</ele>
        <time>2015-06-05T09:57:35Z</time>
      </trkpt>
      <trkpt lat="42.42055" lon="2.21137">
        <ele>2760.08</ele>
        <time>2015-06-05T09:57:51Z</time>
      </trkpt>
      <trkpt lat="42.4206" lon="2.21141">
        <ele>2762.97</ele>
        <time>2015-06-05T09:58:06Z</time>
      </trkpt>
      <trkpt lat="42.42062" lon="2.21153">
        <ele>2764.89</ele>
        <time>2015-06-05T09:58:22Z</time>
      </trkpt>
      <trkpt lat="42.42063" lon="2.21168">
        <ele>2767.77</ele>
        <time>2015-06-05T09:58:40Z</time>
      </trkpt>
      <trkpt lat="42.42067" lon="2.21178">
        <ele>2770.18</ele>
        <time>2015-06-05T09:58:56Z</time>
      </trkpt>
      <trkpt lat="42.42069" lon="2.21184">
        <ele>2772.1</ele>
        <time>2015-06-05T09:59:05Z</time>
      </trkpt>
      <trkpt lat="42.42072" lon="2.21197">
        <ele>2773.54</ele>
        <time>2015-06-05T09:59:20Z</time>
      </trkpt>
      <trkpt lat="42.42076" lon="2.21206">
        <ele>2775.46</ele>
        <time>2015-06-05T09:59:34Z</time>
      </trkpt>
      <trkpt lat="42.42077" lon="2.21213">
        <ele>2777.39</ele>
        <time>2015-06-05T09:59:50Z</time>
      </trkpt>
      <trkpt lat="42.42078" lon="2.21219">
        <ele>2778.35</ele>
        <time>2015-06-05T10:00:04Z</time>
      </trkpt>
      <trkpt lat="42.42082" lon="2.21227">
        <ele>2779.31</ele>
        <time>2015-06-05T10:00:18Z</time>
      </trkpt>
      <trkpt lat="42.42087" lon="2.2123">
        <ele>2782.19</ele>
        <time>2015-06-05T10:00:32Z</time>
      </trkpt>
      <trkpt lat="42.42089" lon="2.21231">
        <ele>2783.15</ele>
        <time>2015-06-05T10:00:50Z</time>
      </trkpt>
      <trkpt lat="42.42095" lon="2.21232">
        <ele>2786.04</ele>
        <time>2015-06-05T10:01:06Z</time>
      </trkpt>
      <trkpt lat="42.42102" lon="2.21231">
        <ele>2784.12</ele>
        <time>2015-06-05T10:01:21Z</time>
      </trkpt>
      <trkpt lat="42.42108" lon="2.21235">
        <ele>2782.67</ele>
        <time>2015-06-05T10:01:35Z</time>
      </trkpt>
      <trkpt lat="42.42108" lon="2.21237">
        <ele>2784.12</ele>
        <time>2015-06-05T10:01:38Z</time>
      </trkpt>
      <trkpt lat="42.42109" lon="2.21241">
        <ele>2785.56</ele>
        <time>2015-06-05T10:01:54Z</time>
      </trkpt>
      <trkpt lat="42.4211" lon="2.21248">
        <ele>2785.56</ele>
        <time>2015-06-05T10:02:09Z</time>
      </trkpt>
      <trkpt lat="42.42114" lon="2.21252">
        <ele>2784.12</ele>
        <time>2015-06-05T10:02:22Z</time>
      </trkpt>
      <trkpt lat="42.4212" lon="2.21254">
        <ele>2781.23</ele>
        <time>2015-06-05T10:02:35Z</time>
      </trkpt>
      <trkpt lat="42.42124" lon="2.21259">
        <ele>2780.75</ele>
        <time>2015-06-05T10:02:48Z</time>
      </trkpt>
      <trkpt lat="42.42126" lon="2.21259">
        <ele>2782.19</ele>
        <time>2015-06-05T10:02:50Z</time>
      </trkpt>
      <trkpt lat="42.42129" lon="2.21268">
        <ele>2785.56</ele>
        <time>2015-06-05T10:03:08Z</time>
      </trkpt>
      <trkpt lat="42.42129" lon="2.21273">
        <ele>2787</ele>
        <time>2015-06-05T10:03:23Z</time>
      </trkpt>
      <trkpt lat="42.42129" lon="2.21274">
        <ele>2788.44</ele>
        <time>2015-06-05T10:03:28Z</time>
      </trkpt>
      <trkpt lat="42.42132" lon="2.21276">
        <ele>2789.88</ele>
        <time>2015-06-05T10:03:45Z</time>
      </trkpt>
      <trkpt lat="42.42132" lon="2.21274">
        <ele>2789.88</ele>
        <time>2015-06-05T10:04:03Z</time>
      </trkpt>
      <trkpt lat="42.4213" lon="2.21272">
        <ele>2788.92</ele>
        <time>2015-06-05T10:04:19Z</time>
      </trkpt>
      <trkpt lat="42.42131" lon="2.21273">
        <ele>2787.96</ele>
        <time>2015-06-05T10:04:38Z</time>
      </trkpt>
      <trkpt lat="42.42132" lon="2.21274">
        <ele>2787</ele>
        <time>2015-06-05T10:04:52Z</time>
      </trkpt>
      <trkpt lat="42.42138" lon="2.2128">
        <ele>2787</ele>
        <time>2015-06-05T10:05:06Z</time>
      </trkpt>
      <trkpt lat="42.42141" lon="2.21284">
        <ele>2788.44</ele>
        <time>2015-06-05T10:05:14Z</time>
      </trkpt>
      <trkpt lat="42.42141" lon="2.21289">
        <ele>2789.4</ele>
        <time>2015-06-05T10:05:30Z</time>
      </trkpt>
      <trkpt lat="42.42141" lon="2.21295">
        <ele>2790.36</ele>
        <time>2015-06-05T10:05:44Z</time>
      </trkpt>
      <trkpt lat="42.42148" lon="2.213">
        <ele>2790.84</ele>
        <time>2015-06-05T10:05:58Z</time>
      </trkpt>
      <trkpt lat="42.42153" lon="2.21302">
        <ele>2790.84</ele>
        <time>2015-06-05T10:06:08Z</time>
      </trkpt>
      <trkpt lat="42.42161" lon="2.21315">
        <ele>2790.84</ele>
        <time>2015-06-05T10:06:22Z</time>
      </trkpt>
      <trkpt lat="42.42168" lon="2.21323">
        <ele>2792.77</ele>
        <time>2015-06-05T10:06:38Z</time>
      </trkpt>
      <trkpt lat="42.42171" lon="2.21328">
        <ele>2795.65</ele>
        <time>2015-06-05T10:06:51Z</time>
      </trkpt>
      <trkpt lat="42.42177" lon="2.21334">
        <ele>2797.09</ele>
        <time>2015-06-05T10:07:05Z</time>
      </trkpt>
      <trkpt lat="42.42184" lon="2.2134">
        <ele>2798.05</ele>
        <time>2015-06-05T10:07:19Z</time>
      </trkpt>
      <trkpt lat="42.42188" lon="2.21348">
        <ele>2800.46</ele>
        <time>2015-06-05T10:07:33Z</time>
      </trkpt>
      <trkpt lat="42.42191" lon="2.21354">
        <ele>2802.38</ele>
        <time>2015-06-05T10:07:47Z</time>
      </trkpt>
      <trkpt lat="42.42194" lon="2.21359">
        <ele>2804.78</ele>
        <time>2015-06-05T10:08:01Z</time>
      </trkpt>
      <trkpt lat="42.42198" lon="2.21367">
        <ele>2807.67</ele>
        <time>2015-06-05T10:08:16Z</time>
      </trkpt>
      <trkpt lat="42.42206" lon="2.21374">
        <ele>2809.11</ele>
        <time>2015-06-05T10:08:31Z</time>
      </trkpt>
      <trkpt lat="42.42212" lon="2.21382">
        <ele>2811.03</ele>
        <time>2015-06-05T10:08:47Z</time>
      </trkpt>
      <trkpt lat="42.42216" lon="2.2139">
        <ele>2813.92</ele>
        <time>2015-06-05T10:09:02Z</time>
      </trkpt>
      <trkpt lat="42.42219" lon="2.21391">
        <ele>2814.4</ele>
        <time>2015-06-05T10:09:07Z</time>
      </trkpt>
      <trkpt lat="42.42229" lon="2.21397">
        <ele>2815.36</ele>
        <time>2015-06-05T10:09:23Z</time>
      </trkpt>
      <trkpt lat="42.42237" lon="2.21405">
        <ele>2817.28</ele>
        <time>2015-06-05T10:09:40Z</time>
      </trkpt>
      <trkpt lat="42.42244" lon="2.21411">
        <ele>2820.16</ele>
        <time>2015-06-05T10:09:55Z</time>
      </trkpt>
      <trkpt lat="42.42249" lon="2.21416">
        <ele>2822.09</ele>
        <time>2015-06-05T10:10:11Z</time>
      </trkpt>
      <trkpt lat="42.42256" lon="2.21423">
        <ele>2824.01</ele>
        <time>2015-06-05T10:10:26Z</time>
      </trkpt>
      <trkpt lat="42.42265" lon="2.21431">
        <ele>2825.93</ele>
        <time>2015-06-05T10:10:41Z</time>
      </trkpt>
      <trkpt lat="42.42273" lon="2.21433">
        <ele>2826.41</ele>
        <time>2015-06-05T10:10:51Z</time>
      </trkpt>
      <trkpt lat="42.42285" lon="2.21439">
        <ele>2827.37</ele>
        <time>2015-06-05T10:11:07Z</time>
      </trkpt>
      <trkpt lat="42.42295" lon="2.21446">
        <ele>2828.34</ele>
        <time>2015-06-05T10:11:22Z</time>
      </trkpt>
      <trkpt lat="42.423" lon="2.21451">
        <ele>2830.26</ele>
        <time>2015-06-05T10:11:35Z</time>
      </trkpt>
      <trkpt lat="42.42307" lon="2.21456">
        <ele>2830.74</ele>
        <time>2015-06-05T10:11:47Z</time>
      </trkpt>
      <trkpt lat="42.42313" lon="2.21459">
        <ele>2832.18</ele>
        <time>2015-06-05T10:11:59Z</time>
      </trkpt>
      <trkpt lat="42.42321" lon="2.21463">
        <ele>2833.14</ele>
        <time>2015-06-05T10:12:12Z</time>
      </trkpt>
      <trkpt lat="42.42332" lon="2.2146">
        <ele>2834.58</ele>
        <time>2015-06-05T10:12:28Z</time>
      </trkpt>
      <trkpt lat="42.42343" lon="2.21456">
        <ele>2836.51</ele>
        <time>2015-06-05T10:12:44Z</time>
      </trkpt>
      <trkpt lat="42.4235" lon="2.21448">
        <ele>2837.47</ele>
        <time>2015-06-05T10:12:58Z</time>
      </trkpt>
      <trkpt lat="42.42353" lon="2.21446">
        <ele>2838.91</ele>
        <time>2015-06-05T10:13:11Z</time>
      </trkpt>
      <trkpt lat="42.42353" lon="2.21446">
        <ele>2838.91</ele>
        <time>2015-06-05T10:13:26Z</time>
      </trkpt>
      <trkpt lat="42.42357" lon="2.21441">
        <ele>2840.35</ele>
        <time>2015-06-05T10:13:53Z</time>
      </trkpt>
      <trkpt lat="42.4236" lon="2.21433">
        <ele>2841.31</ele>
        <time>2015-06-05T10:14:07Z</time>
      </trkpt>
      <trkpt lat="42.42364" lon="2.21424">
        <ele>2842.76</ele>
        <time>2015-06-05T10:14:22Z</time>
      </trkpt>
      <trkpt lat="42.42368" lon="2.21418">
        <ele>2844.68</ele>
        <time>2015-06-05T10:14:36Z</time>
      </trkpt>
      <trkpt lat="42.4237" lon="2.21411">
        <ele>2846.6</ele>
        <time>2015-06-05T10:14:51Z</time>
      </trkpt>
      <trkpt lat="42.42374" lon="2.21405">
        <ele>2848.52</ele>
        <time>2015-06-05T10:15:07Z</time>
      </trkpt>
      <trkpt lat="42.42377" lon="2.21397">
        <ele>2850.45</ele>
        <time>2015-06-05T10:15:22Z</time>
      </trkpt>
      <trkpt lat="42.42381" lon="2.21391">
        <ele>2853.33</ele>
        <time>2015-06-05T10:15:38Z</time>
      </trkpt>
      <trkpt lat="42.42384" lon="2.21384">
        <ele>2855.25</ele>
        <time>2015-06-05T10:15:52Z</time>
      </trkpt>
      <trkpt lat="42.42387" lon="2.2138">
        <ele>2857.18</ele>
        <time>2015-06-05T10:16:08Z</time>
      </trkpt>
      <trkpt lat="42.42389" lon="2.21382">
        <ele>2858.62</ele>
        <time>2015-06-05T10:16:23Z</time>
      </trkpt>
      <trkpt lat="42.42391" lon="2.21383">
        <ele>2859.58</ele>
        <time>2015-06-05T10:16:39Z</time>
      </trkpt>
      <trkpt lat="42.42392" lon="2.21381">
        <ele>2861.02</ele>
        <time>2015-06-05T10:16:52Z</time>
      </trkpt>
      <trkpt lat="42.42393" lon="2.2138">
        <ele>2861.5</ele>
        <time>2015-06-05T10:17:18Z</time>
      </trkpt>
      <trkpt lat="42.42393" lon="2.21381">
        <ele>2861.5</ele>
        <time>2015-06-05T10:17:34Z</time>
      </trkpt>
      <trkpt lat="42.42395" lon="2.21384">
        <ele>2861.5</ele>
        <time>2015-06-05T10:17:44Z</time>
      </trkpt>
      <trkpt lat="42.42396" lon="2.21383">
        <ele>2861.5</ele>
        <time>2015-06-05T10:18:08Z</time>
      </trkpt>
      <trkpt lat="42.42396" lon="2.21383">
        <ele>2861.5</ele>
        <time>2015-06-05T10:18:31Z</time>
      </trkpt>
      <trkpt lat="42.42398" lon="2.21383">
        <ele>2862.46</ele>
        <time>2015-06-05T10:18:59Z</time>
      </trkpt>
      <trkpt lat="42.42398" lon="2.21382">
        <ele>2862.94</ele>
        <time>2015-06-05T10:19:19Z</time>
      </trkpt>
      <trkpt lat="42.42397" lon="2.2138">
        <ele>2862.94</ele>
        <time>2015-06-05T10:19:36Z</time>
      </trkpt>
      <trkpt lat="42.42395" lon="2.21377">
        <ele>2862.94</ele>
        <time>2015-06-05T10:19:50Z</time>
      </trkpt>
      <trkpt lat="42.42395" lon="2.21375">
        <ele>2863.42</ele>
        <time>2015-06-05T10:20:13Z</time>
      </trkpt>
      <trkpt lat="42.42394" lon="2.21375">
        <ele>2863.42</ele>
        <time>2015-06-05T10:20:30Z</time>
      </trkpt>
      <trkpt lat="42.42395" lon="2.21374">
        <ele>2863.42</ele>
        <time>2015-06-05T10:20:53Z</time>
      </trkpt>
      <trkpt lat="42.42396" lon="2.21375">
        <ele>2863.42</ele>
        <time>2015-06-05T10:21:07Z</time>
      </trkpt>
      <trkpt lat="42.42397" lon="2.21375">
        <ele>2863.42</ele>
        <time>2015-06-05T10:21:25Z</time>
      </trkpt>
      <trkpt lat="42.42397" lon="2.21376">
        <ele>2862.46</ele>
        <time>2015-06-05T10:21:47Z</time>
      </trkpt>
      <trkpt lat="42.42398" lon="2.21376">
        <ele>2862.46</ele>
        <time>2015-06-05T10:22:17Z</time>
      </trkpt>
      <trkpt lat="42.42394" lon="2.21376">
        <ele>2862.94</ele>
        <time>2015-06-05T10:22:31Z</time>
      </trkpt>
      <trkpt lat="42.42391" lon="2.21372">
        <ele>2861.5</ele>
        <time>2015-06-05T10:22:43Z</time>
      </trkpt>
      <trkpt lat="42.42389" lon="2.21378">
        <ele>2858.62</ele>
        <time>2015-06-05T10:22:57Z</time>
      </trkpt>
      <trkpt lat="42.42385" lon="2.21387">
        <ele>2856.21</ele>
        <time>2015-06-05T10:23:12Z</time>
      </trkpt>
      <trkpt lat="42.42381" lon="2.21395">
        <ele>2853.81</ele>
        <time>2015-06-05T10:23:26Z</time>
      </trkpt>
      <trkpt lat="42.42377" lon="2.21403">
        <ele>2851.89</ele>
        <time>2015-06-05T10:23:42Z</time>
      </trkpt>
      <trkpt lat="42.42373" lon="2.21408">
        <ele>2849.48</ele>
        <time>2015-06-05T10:23:57Z</time>
      </trkpt>
      <trkpt lat="42.42369" lon="2.21414">
        <ele>2847.08</ele>
        <time>2015-06-05T10:24:12Z</time>
      </trkpt>
      <trkpt lat="42.42369" lon="2.21417">
        <ele>2847.08</ele>
        <time>2015-06-05T10:24:15Z</time>
      </trkpt>
      <trkpt lat="42.42363" lon="2.21427">
        <ele>2845.16</ele>
        <time>2015-06-05T10:24:30Z</time>
      </trkpt>
      <trkpt lat="42.42359" lon="2.21433">
        <ele>2843.24</ele>
        <time>2015-06-05T10:24:43Z</time>
      </trkpt>
      <trkpt lat="42.42353" lon="2.21447">
        <ele>2841.31</ele>
        <time>2015-06-05T10:24:57Z</time>
      </trkpt>
      <trkpt lat="42.42344" lon="2.21456">
        <ele>2839.39</ele>
        <time>2015-06-05T10:25:11Z</time>
      </trkpt>
      <trkpt lat="42.42328" lon="2.21461">
        <ele>2836.99</ele>
        <time>2015-06-05T10:25:27Z</time>
      </trkpt>
      <trkpt lat="42.4232" lon="2.2146">
        <ele>2836.51</ele>
        <time>2015-06-05T10:25:35Z</time>
      </trkpt>
      <trkpt lat="42.42309" lon="2.21456">
        <ele>2834.1</ele>
        <time>2015-06-05T10:25:50Z</time>
      </trkpt>
      <trkpt lat="42.42306" lon="2.21454">
        <ele>2833.62</ele>
        <time>2015-06-05T10:25:54Z</time>
      </trkpt>
      <trkpt lat="42.42304" lon="2.21453">
        <ele>2833.14</ele>
        <time>2015-06-05T10:25:57Z</time>
      </trkpt>
      <trkpt lat="42.42291" lon="2.21441">
        <ele>2831.7</ele>
        <time>2015-06-05T10:26:14Z</time>
      </trkpt>
      <trkpt lat="42.42283" lon="2.21436">
        <ele>2831.22</ele>
        <time>2015-06-05T10:26:23Z</time>
      </trkpt>
      <trkpt lat="42.42277" lon="2.21435">
        <ele>2830.74</ele>
        <time>2015-06-05T10:26:30Z</time>
      </trkpt>
      <trkpt lat="42.42264" lon="2.21427">
        <ele>2829.3</ele>
        <time>2015-06-05T10:26:45Z</time>
      </trkpt>
      <trkpt lat="42.42259" lon="2.21423">
        <ele>2828.34</ele>
        <time>2015-06-05T10:27:02Z</time>
      </trkpt>
      <trkpt lat="42.42254" lon="2.21419">
        <ele>2827.85</ele>
        <time>2015-06-05T10:27:09Z</time>
      </trkpt>
      <trkpt lat="42.42248" lon="2.21412">
        <ele>2825.45</ele>
        <time>2015-06-05T10:27:24Z</time>
      </trkpt>
      <trkpt lat="42.4224" lon="2.21405">
        <ele>2823.05</ele>
        <time>2015-06-05T10:27:38Z</time>
      </trkpt>
      <trkpt lat="42.42236" lon="2.21399">
        <ele>2820.65</ele>
        <time>2015-06-05T10:27:52Z</time>
      </trkpt>
      <trkpt lat="42.42228" lon="2.21393">
        <ele>2818.72</ele>
        <time>2015-06-05T10:28:07Z</time>
      </trkpt>
      <trkpt lat="42.42218" lon="2.21387">
        <ele>2818.24</ele>
        <time>2015-06-05T10:28:22Z</time>
      </trkpt>
      <trkpt lat="42.42212" lon="2.21376">
        <ele>2815.84</ele>
        <time>2015-06-05T10:28:36Z</time>
      </trkpt>
      <trkpt lat="42.42201" lon="2.21367">
        <ele>2812.47</ele>
        <time>2015-06-05T10:28:54Z</time>
      </trkpt>
      <trkpt lat="42.42194" lon="2.21356">
        <ele>2809.59</ele>
        <time>2015-06-05T10:29:09Z</time>
      </trkpt>
      <trkpt lat="42.42191" lon="2.21349">
        <ele>2806.23</ele>
        <time>2015-06-05T10:29:23Z</time>
      </trkpt>
      <trkpt lat="42.42186" lon="2.21338">
        <ele>2803.34</ele>
        <time>2015-06-05T10:29:38Z</time>
      </trkpt>
      <trkpt lat="42.42178" lon="2.21332">
        <ele>2802.38</ele>
        <time>2015-06-05T10:29:56Z</time>
      </trkpt>
      <trkpt lat="42.42171" lon="2.21325">
        <ele>2800.46</ele>
        <time>2015-06-05T10:30:12Z</time>
      </trkpt>
      <trkpt lat="42.42169" lon="2.21319">
        <ele>2798.05</ele>
        <time>2015-06-05T10:30:25Z</time>
      </trkpt>
      <trkpt lat="42.42166" lon="2.21314">
        <ele>2797.09</ele>
        <time>2015-06-05T10:30:42Z</time>
      </trkpt>
      <trkpt lat="42.4216" lon="2.21308">
        <ele>2796.13</ele>
        <time>2015-06-05T10:30:56Z</time>
      </trkpt>
      <trkpt lat="42.42157" lon="2.21305">
        <ele>2796.13</ele>
        <time>2015-06-05T10:31:00Z</time>
      </trkpt>
      <trkpt lat="42.42155" lon="2.21303">
        <ele>2795.65</ele>
        <time>2015-06-05T10:31:16Z</time>
      </trkpt>
      <trkpt lat="42.42156" lon="2.21307">
        <ele>2795.65</ele>
        <time>2015-06-05T10:31:38Z</time>
      </trkpt>
      <trkpt lat="42.42153" lon="2.21304">
        <ele>2795.17</ele>
        <time>2015-06-05T10:31:57Z</time>
      </trkpt>
      <trkpt lat="42.4215" lon="2.213">
        <ele>2794.69</ele>
        <time>2015-06-05T10:32:13Z</time>
      </trkpt>
      <trkpt lat="42.42146" lon="2.21296">
        <ele>2794.21</ele>
        <time>2015-06-05T10:32:28Z</time>
      </trkpt>
      <trkpt lat="42.42142" lon="2.21295">
        <ele>2794.21</ele>
        <time>2015-06-05T10:32:41Z</time>
      </trkpt>
      <trkpt lat="42.42139" lon="2.21291">
        <ele>2795.17</ele>
        <time>2015-06-05T10:32:57Z</time>
      </trkpt>
      <trkpt lat="42.42135" lon="2.21289">
        <ele>2797.09</ele>
        <time>2015-06-05T10:33:12Z</time>
      </trkpt>
      <trkpt lat="42.42135" lon="2.21286">
        <ele>2797.57</ele>
        <time>2015-06-05T10:33:33Z</time>
      </trkpt>
      <trkpt lat="42.42135" lon="2.21283">
        <ele>2795.65</ele>
        <time>2015-06-05T10:33:50Z</time>
      </trkpt>
      <trkpt lat="42.42134" lon="2.21279">
        <ele>2795.65</ele>
        <time>2015-06-05T10:34:08Z</time>
      </trkpt>
      <trkpt lat="42.42134" lon="2.21278">
        <ele>2794.21</ele>
        <time>2015-06-05T10:34:33Z</time>
      </trkpt>
      <trkpt lat="42.42135" lon="2.21275">
        <ele>2793.25</ele>
        <time>2015-06-05T10:34:50Z</time>
      </trkpt>
      <trkpt lat="42.42134" lon="2.21276">
        <ele>2792.77</ele>
        <time>2015-06-05T10:35:12Z</time>
      </trkpt>
      <trkpt lat="42.42134" lon="2.21273">
        <ele>2792.77</ele>
        <time>2015-06-05T10:35:39Z</time>
      </trkpt>
      <trkpt lat="42.42135" lon="2.21271">
        <ele>2790.84</ele>
        <time>2015-06-05T10:35:58Z</time>
      </trkpt>
      <trkpt lat="42.42137" lon="2.21269">
        <ele>2789.88</ele>
        <time>2015-06-05T10:36:18Z</time>
      </trkpt>
      <trkpt lat="42.42136" lon="2.21268">
        <ele>2789.4</ele>
        <time>2015-06-05T10:36:32Z</time>
      </trkpt>
      <trkpt lat="42.42134" lon="2.21265">
        <ele>2788.92</ele>
        <time>2015-06-05T10:36:47Z</time>
      </trkpt>
      <trkpt lat="42.42136" lon="2.21263">
        <ele>2787</ele>
        <time>2015-06-05T10:37:05Z</time>
      </trkpt>
      <trkpt lat="42.42136" lon="2.21264">
        <ele>2785.56</ele>
        <time>2015-06-05T10:37:19Z</time>
      </trkpt>
      <trkpt lat="42.42136" lon="2.21261">
        <ele>2783.63</ele>
        <time>2015-06-05T10:37:37Z</time>
      </trkpt>
      <trkpt lat="42.42133" lon="2.21258">
        <ele>2783.63</ele>
        <time>2015-06-05T10:37:52Z</time>
      </trkpt>
      <trkpt lat="42.42129" lon="2.21256">
        <ele>2782.67</ele>
        <time>2015-06-05T10:38:06Z</time>
      </trkpt>
      <trkpt lat="42.42131" lon="2.21253">
        <ele>2782.19</ele>
        <time>2015-06-05T10:38:33Z</time>
      </trkpt>
      <trkpt lat="42.42129" lon="2.21252">
        <ele>2782.19</ele>
        <time>2015-06-05T10:38:54Z</time>
      </trkpt>
      <trkpt lat="42.42128" lon="2.21247">
        <ele>2780.75</ele>
        <time>2015-06-05T10:39:10Z</time>
      </trkpt>
      <trkpt lat="42.42125" lon="2.21244">
        <ele>2782.19</ele>
        <time>2015-06-05T10:39:22Z</time>
      </trkpt>
      <trkpt lat="42.42123" lon="2.21249">
        <ele>2785.08</ele>
        <time>2015-06-05T10:39:39Z</time>
      </trkpt>
      <trkpt lat="42.42121" lon="2.21254">
        <ele>2787.96</ele>
        <time>2015-06-05T10:39:55Z</time>
      </trkpt>
      <trkpt lat="42.42117" lon="2.21254">
        <ele>2790.36</ele>
        <time>2015-06-05T10:40:11Z</time>
      </trkpt>
      <trkpt lat="42.42111" lon="2.21252">
        <ele>2792.29</ele>
        <time>2015-06-05T10:40:28Z</time>
      </trkpt>
      <trkpt lat="42.42108" lon="2.21244">
        <ele>2792.77</ele>
        <time>2015-06-05T10:40:42Z</time>
      </trkpt>
      <trkpt lat="42.42107" lon="2.21237">
        <ele>2793.25</ele>
        <time>2015-06-05T10:40:55Z</time>
      </trkpt>
      <trkpt lat="42.42106" lon="2.21236">
        <ele>2792.29</ele>
        <time>2015-06-05T10:41:00Z</time>
      </trkpt>
      <trkpt lat="42.421" lon="2.21233">
        <ele>2792.29</ele>
        <time>2015-06-05T10:41:14Z</time>
      </trkpt>
      <trkpt lat="42.42097" lon="2.21232">
        <ele>2793.73</ele>
        <time>2015-06-05T10:41:29Z</time>
      </trkpt>
      <trkpt lat="42.42093" lon="2.21231">
        <ele>2793.25</ele>
        <time>2015-06-05T10:41:42Z</time>
      </trkpt>
      <trkpt lat="42.42086" lon="2.21229">
        <ele>2789.88</ele>
        <time>2015-06-05T10:41:58Z</time>
      </trkpt>
      <trkpt lat="42.42079" lon="2.21223">
        <ele>2786.52</ele>
        <time>2015-06-05T10:42:09Z</time>
      </trkpt>
      <trkpt lat="42.42077" lon="2.21208">
        <ele>2785.08</ele>
        <time>2015-06-05T10:42:26Z</time>
      </trkpt>
      <trkpt lat="42.42072" lon="2.21194">
        <ele>2781.71</ele>
        <time>2015-06-05T10:42:41Z</time>
      </trkpt>
      <trkpt lat="42.4207" lon="2.21191">
        <ele>2781.23</ele>
        <time>2015-06-05T10:42:45Z</time>
      </trkpt>
      <trkpt lat="42.42068" lon="2.21177">
        <ele>2779.31</ele>
        <time>2015-06-05T10:42:59Z</time>
      </trkpt>
      <trkpt lat="42.42068" lon="2.21172">
        <ele>2779.31</ele>
        <time>2015-06-05T10:43:04Z</time>
      </trkpt>
      <trkpt lat="42.42066" lon="2.21159">
        <ele>2776.42</ele>
        <time>2015-06-05T10:43:19Z</time>
      </trkpt>
      <trkpt lat="42.42064" lon="2.21157">
        <ele>2774.98</ele>
        <time>2015-06-05T10:43:23Z</time>
      </trkpt>
      <trkpt lat="42.42061" lon="2.21145">
        <ele>2772.58</ele>
        <time>2015-06-05T10:43:36Z</time>
      </trkpt>
      <trkpt lat="42.42059" lon="2.21135">
        <ele>2770.18</ele>
        <time>2015-06-05T10:43:48Z</time>
      </trkpt>
      <trkpt lat="42.42054" lon="2.21137">
        <ele>2768.73</ele>
        <time>2015-06-05T10:43:53Z</time>
      </trkpt>
      <trkpt lat="42.42048" lon="2.21137">
        <ele>2766.81</ele>
        <time>2015-06-05T10:43:58Z</time>
      </trkpt>
      <trkpt lat="42.42043" lon="2.21127">
        <ele>2762.97</ele>
        <time>2015-06-05T10:44:14Z</time>
      </trkpt>
      <trkpt lat="42.4204" lon="2.21118">
        <ele>2762</ele>
        <time>2015-06-05T10:44:28Z</time>
      </trkpt>
      <trkpt lat="42.42032" lon="2.21112">
        <ele>2758.64</ele>
        <time>2015-06-05T10:44:43Z</time>
      </trkpt>
      <trkpt lat="42.4203" lon="2.21111">
        <ele>2758.16</ele>
        <time>2015-06-05T10:44:46Z</time>
      </trkpt>
      <trkpt lat="42.42027" lon="2.21094">
        <ele>2756.72</ele>
        <time>2015-06-05T10:44:59Z</time>
      </trkpt>
      <trkpt lat="42.42025" lon="2.21081">
        <ele>2754.8</ele>
        <time>2015-06-05T10:45:12Z</time>
      </trkpt>
      <trkpt lat="42.4202" lon="2.21069">
        <ele>2751.91</ele>
        <time>2015-06-05T10:45:26Z</time>
      </trkpt>
      <trkpt lat="42.42013" lon="2.21065">
        <ele>2749.51</ele>
        <time>2015-06-05T10:45:40Z</time>
      </trkpt>
      <trkpt lat="42.42012" lon="2.21057">
        <ele>2747.59</ele>
        <time>2015-06-05T10:45:57Z</time>
      </trkpt>
      <trkpt lat="42.42009" lon="2.21051">
        <ele>2744.7</ele>
        <time>2015-06-05T10:46:12Z</time>
      </trkpt>
      <trkpt lat="42.42008" lon="2.21045">
        <ele>2743.74</ele>
        <time>2015-06-05T10:46:25Z</time>
      </trkpt>
      <trkpt lat="42.42008" lon="2.21044">
        <ele>2743.74</ele>
        <time>2015-06-05T10:46:47Z</time>
      </trkpt>
      <trkpt lat="42.42005" lon="2.21046">
        <ele>2742.3</ele>
        <time>2015-06-05T10:47:07Z</time>
      </trkpt>
      <trkpt lat="42.42002" lon="2.21033">
        <ele>2740.38</ele>
        <time>2015-06-05T10:47:24Z</time>
      </trkpt>
      <trkpt lat="42.42" lon="2.21023">
        <ele>2739.41</ele>
        <time>2015-06-05T10:47:36Z</time>
      </trkpt>
      <trkpt lat="42.42" lon="2.21019">
        <ele>2739.41</ele>
        <time>2015-06-05T10:47:40Z</time>
      </trkpt>
      <trkpt lat="42.41998" lon="2.21005">
        <ele>2739.41</ele>
        <time>2015-06-05T10:47:54Z</time>
      </trkpt>
      <trkpt lat="42.41998" lon="2.20993">
        <ele>2740.38</ele>
        <time>2015-06-05T10:48:08Z</time>
      </trkpt>
      <trkpt lat="42.41999" lon="2.20991">
        <ele>2740.38</ele>
        <time>2015-06-05T10:48:09Z</time>
      </trkpt>
      <trkpt lat="42.42001" lon="2.20981">
        <ele>2741.82</ele>
        <time>2015-06-05T10:48:21Z</time>
      </trkpt>
      <trkpt lat="42.41998" lon="2.20978">
        <ele>2740.86</ele>
        <time>2015-06-05T10:48:29Z</time>
      </trkpt>
      <trkpt lat="42.41998" lon="2.20974">
        <ele>2740.86</ele>
        <time>2015-06-05T10:48:45Z</time>
      </trkpt>
      <trkpt lat="42.41997" lon="2.20974">
        <ele>2740.86</ele>
        <time>2015-06-05T10:49:05Z</time>
      </trkpt>
      <trkpt lat="42.41995" lon="2.20973">
        <ele>2740.38</ele>
        <time>2015-06-05T10:49:25Z</time>
      </trkpt>
      <trkpt lat="42.41996" lon="2.2097">
        <ele>2740.38</ele>
        <time>2015-06-05T10:49:38Z</time>
      </trkpt>
      <trkpt lat="42.41994" lon="2.20967">
        <ele>2739.89</ele>
        <time>2015-06-05T10:49:52Z</time>
      </trkpt>
      <trkpt lat="42.41995" lon="2.20965">
        <ele>2740.86</ele>
        <time>2015-06-05T10:50:05Z</time>
      </trkpt>
      <trkpt lat="42.41995" lon="2.20965">
        <ele>2739.89</ele>
        <time>2015-06-05T10:50:16Z</time>
      </trkpt>
      <trkpt lat="42.41995" lon="2.20965">
        <ele>2739.89</ele>
        <time>2015-06-05T10:50:45Z</time>
      </trkpt>
      <trkpt lat="42.41995" lon="2.20966">
        <ele>2739.89</ele>
        <time>2015-06-05T10:51:10Z</time>
      </trkpt>
      <trkpt lat="42.41997" lon="2.20966">
        <ele>2738.93</ele>
        <time>2015-06-05T10:51:34Z</time>
      </trkpt>
      <trkpt lat="42.41995" lon="2.20966">
        <ele>2738.93</ele>
        <time>2015-06-05T10:52:01Z</time>
      </trkpt>
      <trkpt lat="42.41995" lon="2.20967">
        <ele>2738.93</ele>
        <time>2015-06-05T10:52:34Z</time>
      </trkpt>
      <trkpt lat="42.41994" lon="2.20967">
        <ele>2738.93</ele>
        <time>2015-06-05T10:53:09Z</time>
      </trkpt>
      <trkpt lat="42.41994" lon="2.20967">
        <ele>2738.93</ele>
        <time>2015-06-05T10:53:30Z</time>
      </trkpt>
      <trkpt lat="42.41995" lon="2.20966">
        <ele>2738.93</ele>
        <time>2015-06-05T10:54:08Z</time>
      </trkpt>
      <trkpt lat="42.41995" lon="2.20965">
        <ele>2738.93</ele>
        <time>2015-06-05T10:54:47Z</time>
      </trkpt>
      <trkpt lat="42.41993" lon="2.20967">
        <ele>2738.93</ele>
        <time>2015-06-05T10:55:12Z</time>
      </trkpt>
      <trkpt lat="42.41994" lon="2.20966">
        <ele>2738.93</ele>
        <time>2015-06-05T10:55:55Z</time>
      </trkpt>
      <trkpt lat="42.41994" lon="2.20967">
        <ele>2738.93</ele>
        <time>2015-06-05T10:56:36Z</time>
      </trkpt>
      <trkpt lat="42.41995" lon="2.20966">
        <ele>2738.93</ele>
        <time>2015-06-05T10:57:16Z</time>
      </trkpt>
      <trkpt lat="42.41995" lon="2.20966">
        <ele>2738.93</ele>
        <time>2015-06-05T10:57:43Z</time>
      </trkpt>
      <trkpt lat="42.41995" lon="2.20966">
        <ele>2738.93</ele>
        <time>2015-06-05T10:58:27Z</time>
      </trkpt>
      <trkpt lat="42.41993" lon="2.20968">
        <ele>2738.93</ele>
        <time>2015-06-05T10:59:04Z</time>
      </trkpt>
      <trkpt lat="42.41993" lon="2.20969">
        <ele>2738.93</ele>
        <time>2015-06-05T10:59:37Z</time>
      </trkpt>
      <trkpt lat="42.41994" lon="2.20968">
        <ele>2738.93</ele>
        <time>2015-06-05T11:00:20Z</time>
      </trkpt>
      <trkpt lat="42.41993" lon="2.20968">
        <ele>2738.93</ele>
        <time>2015-06-05T11:01:05Z</time>
      </trkpt>
      <trkpt lat="42.41995" lon="2.20967">
        <ele>2738.93</ele>
        <time>2015-06-05T11:01:37Z</time>
      </trkpt>
      <trkpt lat="42.41994" lon="2.20964">
        <ele>2738.93</ele>
        <time>2015-06-05T11:01:58Z</time>
      </trkpt>
      <trkpt lat="42.41994" lon="2.20964">
        <ele>2738.93</ele>
        <time>2015-06-05T11:02:30Z</time>
      </trkpt>
      <trkpt lat="42.41997" lon="2.20967">
        <ele>2739.41</ele>
        <time>2015-06-05T11:02:58Z</time>
      </trkpt>
      <trkpt lat="42.41994" lon="2.20968">
        <ele>2739.89</ele>
        <time>2015-06-05T11:03:38Z</time>
      </trkpt>
      <trkpt lat="42.41993" lon="2.20969">
        <ele>2739.89</ele>
        <time>2015-06-05T11:04:06Z</time>
      </trkpt>
      <trkpt lat="42.41993" lon="2.20968">
        <ele>2739.89</ele>
        <time>2015-06-05T11:04:41Z</time>
      </trkpt>
      <trkpt lat="42.41996" lon="2.20966">
        <ele>2739.89</ele>
        <time>2015-06-05T11:05:14Z</time>
      </trkpt>
      <trkpt lat="42.41994" lon="2.20969">
        <ele>2739.41</ele>
        <time>2015-06-05T11:06:01Z</time>
      </trkpt>
      <trkpt lat="42.41992" lon="2.20968">
        <ele>2739.41</ele>
        <time>2015-06-05T11:06:41Z</time>
      </trkpt>
      <trkpt lat="42.41992" lon="2.20968">
        <ele>2738.45</ele>
        <time>2015-06-05T11:07:19Z</time>
      </trkpt>
      <trkpt lat="42.41994" lon="2.20967">
        <ele>2738.45</ele>
        <time>2015-06-05T11:07:53Z</time>
      </trkpt>
      <trkpt lat="42.41994" lon="2.20967">
        <ele>2738.45</ele>
        <time>2015-06-05T11:08:19Z</time>
      </trkpt>
      <trkpt lat="42.41995" lon="2.20967">
        <ele>2738.45</ele>
        <time>2015-06-05T11:09:01Z</time>
      </trkpt>
      <trkpt lat="42.41994" lon="2.20966">
        <ele>2738.45</ele>
        <time>2015-06-05T11:09:40Z</time>
      </trkpt>
      <trkpt lat="42.41994" lon="2.20967">
        <ele>2738.45</ele>
        <time>2015-06-05T11:10:20Z</time>
      </trkpt>
      <trkpt lat="42.41994" lon="2.20967">
        <ele>2738.45</ele>
        <time>2015-06-05T11:10:57Z</time>
      </trkpt>
      <trkpt lat="42.41994" lon="2.20968">
        <ele>2738.45</ele>
        <time>2015-06-05T11:11:26Z</time>
      </trkpt>
      <trkpt lat="42.41995" lon="2.20967">
        <ele>2739.89</ele>
        <time>2015-06-05T11:11:37Z</time>
      </trkpt>
      <trkpt lat="42.41994" lon="2.20965">
        <ele>2740.86</ele>
        <time>2015-06-05T11:11:59Z</time>
      </trkpt>
      <trkpt lat="42.41999" lon="2.20961">
        <ele>2739.41</ele>
        <time>2015-06-05T11:12:22Z</time>
      </trkpt>
      <trkpt lat="42.42003" lon="2.20959">
        <ele>2739.41</ele>
        <time>2015-06-05T11:12:50Z</time>
      </trkpt>
      <trkpt lat="42.42008" lon="2.20952">
        <ele>2739.41</ele>
        <time>2015-06-05T11:13:14Z</time>
      </trkpt>
      <trkpt lat="42.41996" lon="2.20964">
        <ele>2739.41</ele>
        <time>2015-06-05T11:13:38Z</time>
      </trkpt>
      <trkpt lat="42.41996" lon="2.20964">
        <ele>2739.41</ele>
        <time>2015-06-05T11:13:57Z</time>
      </trkpt>
      <trkpt lat="42.41993" lon="2.2096">
        <ele>2738.45</ele>
        <time>2015-06-05T11:14:14Z</time>
      </trkpt>
      <trkpt lat="42.41991" lon="2.20946">
        <ele>2738.45</ele>
        <time>2015-06-05T11:14:27Z</time>
      </trkpt>
      <trkpt lat="42.41982" lon="2.20929">
        <ele>2737.97</ele>
        <time>2015-06-05T11:14:44Z</time>
      </trkpt>
      <trkpt lat="42.4198" lon="2.20923">
        <ele>2739.89</ele>
        <time>2015-06-05T11:14:50Z</time>
      </trkpt>
      <trkpt lat="42.41979" lon="2.20913">
        <ele>2741.34</ele>
        <time>2015-06-05T11:15:04Z</time>
      </trkpt>
      <trkpt lat="42.41981" lon="2.20905">
        <ele>2744.22</ele>
        <time>2015-06-05T11:15:18Z</time>
      </trkpt>
      <trkpt lat="42.41983" lon="2.20892">
        <ele>2745.18</ele>
        <time>2015-06-05T11:15:32Z</time>
      </trkpt>
      <trkpt lat="42.41984" lon="2.20887">
        <ele>2748.07</ele>
        <time>2015-06-05T11:15:50Z</time>
      </trkpt>
      <trkpt lat="42.41987" lon="2.20881">
        <ele>2750.47</ele>
        <time>2015-06-05T11:16:06Z</time>
      </trkpt>
      <trkpt lat="42.41985" lon="2.20878">
        <ele>2752.39</ele>
        <time>2015-06-05T11:16:22Z</time>
      </trkpt>
      <trkpt lat="42.41984" lon="2.20875">
        <ele>2753.83</ele>
        <time>2015-06-05T11:16:36Z</time>
      </trkpt>
      <trkpt lat="42.41985" lon="2.20866">
        <ele>2755.28</ele>
        <time>2015-06-05T11:16:52Z</time>
      </trkpt>
      <trkpt lat="42.41987" lon="2.2086">
        <ele>2757.2</ele>
        <time>2015-06-05T11:17:07Z</time>
      </trkpt>
      <trkpt lat="42.41984" lon="2.20855">
        <ele>2759.12</ele>
        <time>2015-06-05T11:17:22Z</time>
      </trkpt>
      <trkpt lat="42.41982" lon="2.2085">
        <ele>2761.52</ele>
        <time>2015-06-05T11:17:39Z</time>
      </trkpt>
      <trkpt lat="42.41976" lon="2.20848">
        <ele>2763.45</ele>
        <time>2015-06-05T11:17:57Z</time>
      </trkpt>
      <trkpt lat="42.41976" lon="2.20843">
        <ele>2764.89</ele>
        <time>2015-06-05T11:18:11Z</time>
      </trkpt>
      <trkpt lat="42.41976" lon="2.20839">
        <ele>2766.81</ele>
        <time>2015-06-05T11:18:24Z</time>
      </trkpt>
      <trkpt lat="42.41978" lon="2.20834">
        <ele>2769.21</ele>
        <time>2015-06-05T11:18:41Z</time>
      </trkpt>
      <trkpt lat="42.41979" lon="2.20824">
        <ele>2770.66</ele>
        <time>2015-06-05T11:18:55Z</time>
      </trkpt>
      <trkpt lat="42.41974" lon="2.20818">
        <ele>2770.66</ele>
        <time>2015-06-05T11:19:07Z</time>
      </trkpt>
      <trkpt lat="42.41971" lon="2.20808">
        <ele>2770.66</ele>
        <time>2015-06-05T11:19:22Z</time>
      </trkpt>
      <trkpt lat="42.41969" lon="2.20798">
        <ele>2772.58</ele>
        <time>2015-06-05T11:19:37Z</time>
      </trkpt>
      <trkpt lat="42.41966" lon="2.20788">
        <ele>2774.02</ele>
        <time>2015-06-05T11:19:54Z</time>
      </trkpt>
      <trkpt lat="42.41961" lon="2.2078">
        <ele>2775.94</ele>
        <time>2015-06-05T11:20:06Z</time>
      </trkpt>
      <trkpt lat="42.41958" lon="2.20771">
        <ele>2777.39</ele>
        <time>2015-06-05T11:20:19Z</time>
      </trkpt>
      <trkpt lat="42.41954" lon="2.20762">
        <ele>2779.79</ele>
        <time>2015-06-05T11:20:36Z</time>
      </trkpt>
      <trkpt lat="42.41952" lon="2.20749">
        <ele>2781.71</ele>
        <time>2015-06-05T11:20:53Z</time>
      </trkpt>
      <trkpt lat="42.41948" lon="2.20735">
        <ele>2782.67</ele>
        <time>2015-06-05T11:21:11Z</time>
      </trkpt>
      <trkpt lat="42.41942" lon="2.20727">
        <ele>2783.63</ele>
        <time>2015-06-05T11:21:25Z</time>
      </trkpt>
      <trkpt lat="42.41936" lon="2.20717">
        <ele>2785.56</ele>
        <time>2015-06-05T11:21:42Z</time>
      </trkpt>
      <trkpt lat="42.41928" lon="2.20712">
        <ele>2787</ele>
        <time>2015-06-05T11:21:57Z</time>
      </trkpt>
      <trkpt lat="42.41919" lon="2.20712">
        <ele>2788.44</ele>
        <time>2015-06-05T11:22:13Z</time>
      </trkpt>
      <trkpt lat="42.4191" lon="2.20705">
        <ele>2789.4</ele>
        <time>2015-06-05T11:22:28Z</time>
      </trkpt>
      <trkpt lat="42.41901" lon="2.20696">
        <ele>2790.36</ele>
        <time>2015-06-05T11:22:43Z</time>
      </trkpt>
      <trkpt lat="42.41891" lon="2.2069">
        <ele>2792.77</ele>
        <time>2015-06-05T11:23:02Z</time>
      </trkpt>
      <trkpt lat="42.41886" lon="2.20687">
        <ele>2795.65</ele>
        <time>2015-06-05T11:23:17Z</time>
      </trkpt>
      <trkpt lat="42.41873" lon="2.20684">
        <ele>2796.13</ele>
        <time>2015-06-05T11:23:33Z</time>
      </trkpt>
      <trkpt lat="42.41867" lon="2.2068">
        <ele>2794.69</ele>
        <time>2015-06-05T11:23:47Z</time>
      </trkpt>
      <trkpt lat="42.41867" lon="2.20681">
        <ele>2796.13</ele>
        <time>2015-06-05T11:23:59Z</time>
      </trkpt>
      <trkpt lat="42.41867" lon="2.20681">
        <ele>2796.13</ele>
        <time>2015-06-05T11:24:19Z</time>
      </trkpt>
      <trkpt lat="42.41867" lon="2.20682">
        <ele>2796.61</ele>
        <time>2015-06-05T11:24:47Z</time>
      </trkpt>
      <trkpt lat="42.41861" lon="2.20679">
        <ele>2797.57</ele>
        <time>2015-06-05T11:25:00Z</time>
      </trkpt>
      <trkpt lat="42.41849" lon="2.2067">
        <ele>2799.98</ele>
        <time>2015-06-05T11:25:18Z</time>
      </trkpt>
      <trkpt lat="42.41841" lon="2.20665">
        <ele>2802.38</ele>
        <time>2015-06-05T11:25:35Z</time>
      </trkpt>
      <trkpt lat="42.41832" lon="2.20665">
        <ele>2803.34</ele>
        <time>2015-06-05T11:25:51Z</time>
      </trkpt>
      <trkpt lat="42.41821" lon="2.20662">
        <ele>2806.23</ele>
        <time>2015-06-05T11:26:12Z</time>
      </trkpt>
      <trkpt lat="42.41813" lon="2.20664">
        <ele>2807.67</ele>
        <time>2015-06-05T11:26:22Z</time>
      </trkpt>
      <trkpt lat="42.41804" lon="2.20662">
        <ele>2807.67</ele>
        <time>2015-06-05T11:26:36Z</time>
      </trkpt>
      <trkpt lat="42.41794" lon="2.20661">
        <ele>2808.63</ele>
        <time>2015-06-05T11:26:50Z</time>
      </trkpt>
      <trkpt lat="42.41783" lon="2.20662">
        <ele>2811.03</ele>
        <time>2015-06-05T11:27:04Z</time>
      </trkpt>
      <trkpt lat="42.41773" lon="2.20662">
        <ele>2812.47</ele>
        <time>2015-06-05T11:27:18Z</time>
      </trkpt>
      <trkpt lat="42.41765" lon="2.20664">
        <ele>2814.4</ele>
        <time>2015-06-05T11:27:32Z</time>
      </trkpt>
      <trkpt lat="42.41756" lon="2.20661">
        <ele>2815.84</ele>
        <time>2015-06-05T11:27:48Z</time>
      </trkpt>
      <trkpt lat="42.4175" lon="2.20651">
        <ele>2816.8</ele>
        <time>2015-06-05T11:28:03Z</time>
      </trkpt>
      <trkpt lat="42.41742" lon="2.20642">
        <ele>2817.28</ele>
        <time>2015-06-05T11:28:17Z</time>
      </trkpt>
      <trkpt lat="42.41739" lon="2.2064">
        <ele>2816.32</ele>
        <time>2015-06-05T11:28:20Z</time>
      </trkpt>
      <trkpt lat="42.41739" lon="2.20639">
        <ele>2817.28</ele>
        <time>2015-06-05T11:28:40Z</time>
      </trkpt>
      <trkpt lat="42.41739" lon="2.2064">
        <ele>2817.28</ele>
        <time>2015-06-05T11:28:59Z</time>
      </trkpt>
      <trkpt lat="42.41739" lon="2.20641">
        <ele>2816.32</ele>
        <time>2015-06-05T11:29:13Z</time>
      </trkpt>
      <trkpt lat="42.41739" lon="2.2064">
        <ele>2816.32</ele>
        <time>2015-06-05T11:29:36Z</time>
      </trkpt>
      <trkpt lat="42.4174" lon="2.2064">
        <ele>2816.32</ele>
        <time>2015-06-05T11:29:40Z</time>
      </trkpt>
      <trkpt lat="42.41738" lon="2.20635">
        <ele>2816.32</ele>
        <time>2015-06-05T11:29:46Z</time>
      </trkpt>
      <trkpt lat="42.4174" lon="2.20625">
        <ele>2815.84</ele>
        <time>2015-06-05T11:29:54Z</time>
      </trkpt>
      <trkpt lat="42.4174" lon="2.20614">
        <ele>2815.36</ele>
        <time>2015-06-05T11:30:02Z</time>
      </trkpt>
      <trkpt lat="42.41739" lon="2.20594">
        <ele>2813.92</ele>
        <time>2015-06-05T11:30:19Z</time>
      </trkpt>
      <trkpt lat="42.41742" lon="2.20588">
        <ele>2813.44</ele>
        <time>2015-06-05T11:30:32Z</time>
      </trkpt>
      <trkpt lat="42.41741" lon="2.20585">
        <ele>2812.96</ele>
        <time>2015-06-05T11:30:35Z</time>
      </trkpt>
      <trkpt lat="42.41733" lon="2.20565">
        <ele>2811.51</ele>
        <time>2015-06-05T11:30:52Z</time>
      </trkpt>
      <trkpt lat="42.4173" lon="2.20543">
        <ele>2809.59</ele>
        <time>2015-06-05T11:31:08Z</time>
      </trkpt>
      <trkpt lat="42.41729" lon="2.20536">
        <ele>2810.55</ele>
        <time>2015-06-05T11:31:15Z</time>
      </trkpt>
      <trkpt lat="42.41729" lon="2.20528">
        <ele>2810.55</ele>
        <time>2015-06-05T11:31:22Z</time>
      </trkpt>
      <trkpt lat="42.4173" lon="2.20524">
        <ele>2811.03</ele>
        <time>2015-06-05T11:31:25Z</time>
      </trkpt>
      <trkpt lat="42.41729" lon="2.20513">
        <ele>2809.59</ele>
        <time>2015-06-05T11:31:33Z</time>
      </trkpt>
      <trkpt lat="42.41727" lon="2.2049">
        <ele>2808.15</ele>
        <time>2015-06-05T11:31:52Z</time>
      </trkpt>
      <trkpt lat="42.41725" lon="2.20482">
        <ele>2807.19</ele>
        <time>2015-06-05T11:31:58Z</time>
      </trkpt>
      <trkpt lat="42.4172" lon="2.20459">
        <ele>2804.78</ele>
        <time>2015-06-05T11:32:17Z</time>
      </trkpt>
      <trkpt lat="42.41717" lon="2.20448">
        <ele>2801.42</ele>
        <time>2015-06-05T11:32:29Z</time>
      </trkpt>
      <trkpt lat="42.41714" lon="2.20429">
        <ele>2798.54</ele>
        <time>2015-06-05T11:32:45Z</time>
      </trkpt>
      <trkpt lat="42.4171" lon="2.20409">
        <ele>2798.05</ele>
        <time>2015-06-05T11:33:02Z</time>
      </trkpt>
      <trkpt lat="42.41705" lon="2.2039">
        <ele>2796.13</ele>
        <time>2015-06-05T11:33:17Z</time>
      </trkpt>
      <trkpt lat="42.41694" lon="2.20368">
        <ele>2792.77</ele>
        <time>2015-06-05T11:33:36Z</time>
      </trkpt>
      <trkpt lat="42.41692" lon="2.20366">
        <ele>2792.77</ele>
        <time>2015-06-05T11:33:39Z</time>
      </trkpt>
      <trkpt lat="42.41687" lon="2.20348">
        <ele>2794.21</ele>
        <time>2015-06-05T11:33:55Z</time>
      </trkpt>
      <trkpt lat="42.41686" lon="2.20345">
        <ele>2794.69</ele>
        <time>2015-06-05T11:34:00Z</time>
      </trkpt>
      <trkpt lat="42.41687" lon="2.20341">
        <ele>2795.17</ele>
        <time>2015-06-05T11:34:13Z</time>
      </trkpt>
      <trkpt lat="42.41682" lon="2.20339">
        <ele>2794.21</ele>
        <time>2015-06-05T11:34:35Z</time>
      </trkpt>
      <trkpt lat="42.41679" lon="2.20319">
        <ele>2794.21</ele>
        <time>2015-06-05T11:34:49Z</time>
      </trkpt>
      <trkpt lat="42.41674" lon="2.20303">
        <ele>2796.13</ele>
        <time>2015-06-05T11:35:02Z</time>
      </trkpt>
      <trkpt lat="42.41672" lon="2.20299">
        <ele>2796.13</ele>
        <time>2015-06-05T11:35:06Z</time>
      </trkpt>
      <trkpt lat="42.41668" lon="2.20294">
        <ele>2796.13</ele>
        <time>2015-06-05T11:35:11Z</time>
      </trkpt>
      <trkpt lat="42.41666" lon="2.2029">
        <ele>2797.09</ele>
        <time>2015-06-05T11:35:15Z</time>
      </trkpt>
      <trkpt lat="42.41656" lon="2.20265">
        <ele>2797.57</ele>
        <time>2015-06-05T11:35:34Z</time>
      </trkpt>
      <trkpt lat="42.41655" lon="2.20261">
        <ele>2797.57</ele>
        <time>2015-06-05T11:35:37Z</time>
      </trkpt>
      <trkpt lat="42.41649" lon="2.20242">
        <ele>2799.02</ele>
        <time>2015-06-05T11:35:53Z</time>
      </trkpt>
      <trkpt lat="42.41648" lon="2.20228">
        <ele>2800.46</ele>
        <time>2015-06-05T11:36:06Z</time>
      </trkpt>
      <trkpt lat="42.41647" lon="2.20215">
        <ele>2802.38</ele>
        <time>2015-06-05T11:36:21Z</time>
      </trkpt>
      <trkpt lat="42.41643" lon="2.20201">
        <ele>2805.26</ele>
        <time>2015-06-05T11:36:36Z</time>
      </trkpt>
      <trkpt lat="42.41638" lon="2.20189">
        <ele>2807.19</ele>
        <time>2015-06-05T11:36:52Z</time>
      </trkpt>
      <trkpt lat="42.41633" lon="2.20181">
        <ele>2809.11</ele>
        <time>2015-06-05T11:37:07Z</time>
      </trkpt>
      <trkpt lat="42.41627" lon="2.20166">
        <ele>2810.55</ele>
        <time>2015-06-05T11:37:24Z</time>
      </trkpt>
      <trkpt lat="42.41623" lon="2.20152">
        <ele>2811.03</ele>
        <time>2015-06-05T11:37:40Z</time>
      </trkpt>
      <trkpt lat="42.41623" lon="2.20149">
        <ele>2809.59</ele>
        <time>2015-06-05T11:37:44Z</time>
      </trkpt>
      <trkpt lat="42.41624" lon="2.20139">
        <ele>2808.63</ele>
        <time>2015-06-05T11:37:58Z</time>
      </trkpt>
      <trkpt lat="42.41625" lon="2.20122">
        <ele>2808.63</ele>
        <time>2015-06-05T11:38:12Z</time>
      </trkpt>
      <trkpt lat="42.41627" lon="2.20117">
        <ele>2808.63</ele>
        <time>2015-06-05T11:38:17Z</time>
      </trkpt>
      <trkpt lat="42.4163" lon="2.20108">
        <ele>2810.07</ele>
        <time>2015-06-05T11:38:27Z</time>
      </trkpt>
      <trkpt lat="42.41636" lon="2.20094">
        <ele>2810.07</ele>
        <time>2015-06-05T11:38:42Z</time>
      </trkpt>
      <trkpt lat="42.41642" lon="2.20077">
        <ele>2810.07</ele>
        <time>2015-06-05T11:38:58Z</time>
      </trkpt>
      <trkpt lat="42.41643" lon="2.2007">
        <ele>2808.63</ele>
        <time>2015-06-05T11:39:05Z</time>
      </trkpt>
      <trkpt lat="42.41648" lon="2.20053">
        <ele>2807.19</ele>
        <time>2015-06-05T11:39:22Z</time>
      </trkpt>
      <trkpt lat="42.41649" lon="2.20037">
        <ele>2806.71</ele>
        <time>2015-06-05T11:39:38Z</time>
      </trkpt>
      <trkpt lat="42.41653" lon="2.2002">
        <ele>2808.63</ele>
        <time>2015-06-05T11:39:54Z</time>
      </trkpt>
      <trkpt lat="42.41651" lon="2.19997">
        <ele>2809.11</ele>
        <time>2015-06-05T11:40:10Z</time>
      </trkpt>
      <trkpt lat="42.41649" lon="2.19978">
        <ele>2810.55</ele>
        <time>2015-06-05T11:40:27Z</time>
      </trkpt>
      <trkpt lat="42.41652" lon="2.19969">
        <ele>2807.67</ele>
        <time>2015-06-05T11:40:40Z</time>
      </trkpt>
      <trkpt lat="42.41656" lon="2.19954">
        <ele>2804.78</ele>
        <time>2015-06-05T11:40:55Z</time>
      </trkpt>
      <trkpt lat="42.41659" lon="2.19944">
        <ele>2801.9</ele>
        <time>2015-06-05T11:41:07Z</time>
      </trkpt>
      <trkpt lat="42.4166" lon="2.19935">
        <ele>2799.02</ele>
        <time>2015-06-05T11:41:19Z</time>
      </trkpt>
      <trkpt lat="42.41666" lon="2.19921">
        <ele>2797.09</ele>
        <time>2015-06-05T11:41:32Z</time>
      </trkpt>
      <trkpt lat="42.41674" lon="2.19914">
        <ele>2794.69</ele>
        <time>2015-06-05T11:41:45Z</time>
      </trkpt>
      <trkpt lat="42.41679" lon="2.19904">
        <ele>2791.81</ele>
        <time>2015-06-05T11:41:59Z</time>
      </trkpt>
      <trkpt lat="42.41687" lon="2.19895">
        <ele>2788.44</ele>
        <time>2015-06-05T11:42:12Z</time>
      </trkpt>
      <trkpt lat="42.41693" lon="2.19884">
        <ele>2785.08</ele>
        <time>2015-06-05T11:42:25Z</time>
      </trkpt>
      <trkpt lat="42.41696" lon="2.19875">
        <ele>2783.15</ele>
        <time>2015-06-05T11:42:34Z</time>
      </trkpt>
      <trkpt lat="42.417" lon="2.19859">
        <ele>2779.79</ele>
        <time>2015-06-05T11:42:50Z</time>
      </trkpt>
      <trkpt lat="42.417" lon="2.19858">
        <ele>2779.31</ele>
        <time>2015-06-05T11:42:51Z</time>
      </trkpt>
      <trkpt lat="42.41702" lon="2.19856">
        <ele>2778.83</ele>
        <time>2015-06-05T11:42:53Z</time>
      </trkpt>
      <trkpt lat="42.41705" lon="2.19851">
        <ele>2778.35</ele>
        <time>2015-06-05T11:42:58Z</time>
      </trkpt>
      <trkpt lat="42.41715" lon="2.19842">
        <ele>2775.94</ele>
        <time>2015-06-05T11:43:11Z</time>
      </trkpt>
      <trkpt lat="42.41721" lon="2.19836">
        <ele>2773.06</ele>
        <time>2015-06-05T11:43:21Z</time>
      </trkpt>
      <trkpt lat="42.41729" lon="2.19826">
        <ele>2769.21</ele>
        <time>2015-06-05T11:43:34Z</time>
      </trkpt>
      <trkpt lat="42.41734" lon="2.19811">
        <ele>2765.85</ele>
        <time>2015-06-05T11:43:50Z</time>
      </trkpt>
      <trkpt lat="42.41731" lon="2.19811">
        <ele>2765.85</ele>
        <time>2015-06-05T11:44:08Z</time>
      </trkpt>
      <trkpt lat="42.41733" lon="2.19806">
        <ele>2765.37</ele>
        <time>2015-06-05T11:44:19Z</time>
      </trkpt>
      <trkpt lat="42.41745" lon="2.19795">
        <ele>2762</ele>
        <time>2015-06-05T11:44:32Z</time>
      </trkpt>
      <trkpt lat="42.41746" lon="2.19785">
        <ele>2759.6</ele>
        <time>2015-06-05T11:44:40Z</time>
      </trkpt>
      <trkpt lat="42.41748" lon="2.19782">
        <ele>2759.12</ele>
        <time>2015-06-05T11:44:44Z</time>
      </trkpt>
      <trkpt lat="42.41749" lon="2.19777">
        <ele>2758.16</ele>
        <time>2015-06-05T11:44:48Z</time>
      </trkpt>
      <trkpt lat="42.41754" lon="2.19762">
        <ele>2755.28</ele>
        <time>2015-06-05T11:44:59Z</time>
      </trkpt>
      <trkpt lat="42.41755" lon="2.19754">
        <ele>2754.31</ele>
        <time>2015-06-05T11:45:03Z</time>
      </trkpt>
      <trkpt lat="42.41755" lon="2.19753">
        <ele>2754.31</ele>
        <time>2015-06-05T11:45:04Z</time>
      </trkpt>
      <trkpt lat="42.41758" lon="2.19747">
        <ele>2754.31</ele>
        <time>2015-06-05T11:45:08Z</time>
      </trkpt>
      <trkpt lat="42.41761" lon="2.19726">
        <ele>2751.43</ele>
        <time>2015-06-05T11:45:22Z</time>
      </trkpt>
      <trkpt lat="42.41766" lon="2.19705">
        <ele>2749.99</ele>
        <time>2015-06-05T11:45:38Z</time>
      </trkpt>
      <trkpt lat="42.41774" lon="2.19686">
        <ele>2746.62</ele>
        <time>2015-06-05T11:45:53Z</time>
      </trkpt>
      <trkpt lat="42.41775" lon="2.1968">
        <ele>2746.14</ele>
        <time>2015-06-05T11:45:58Z</time>
      </trkpt>
      <trkpt lat="42.41783" lon="2.19661">
        <ele>2744.22</ele>
        <time>2015-06-05T11:46:11Z</time>
      </trkpt>
      <trkpt lat="42.41784" lon="2.19655">
        <ele>2743.26</ele>
        <time>2015-06-05T11:46:15Z</time>
      </trkpt>
      <trkpt lat="42.41792" lon="2.19633">
        <ele>2740.86</ele>
        <time>2015-06-05T11:46:33Z</time>
      </trkpt>
      <trkpt lat="42.41798" lon="2.19622">
        <ele>2737.97</ele>
        <time>2015-06-05T11:46:42Z</time>
      </trkpt>
      <trkpt lat="42.41802" lon="2.19602">
        <ele>2734.61</ele>
        <time>2015-06-05T11:46:59Z</time>
      </trkpt>
      <trkpt lat="42.41809" lon="2.19589">
        <ele>2732.2</ele>
        <time>2015-06-05T11:47:15Z</time>
      </trkpt>
      <trkpt lat="42.4181" lon="2.19587">
        <ele>2732.2</ele>
        <time>2015-06-05T11:47:17Z</time>
      </trkpt>
      <trkpt lat="42.41816" lon="2.19569">
        <ele>2729.8</ele>
        <time>2015-06-05T11:47:34Z</time>
      </trkpt>
      <trkpt lat="42.41816" lon="2.19566">
        <ele>2729.8</ele>
        <time>2015-06-05T11:47:38Z</time>
      </trkpt>
      <trkpt lat="42.41819" lon="2.19547">
        <ele>2728.36</ele>
        <time>2015-06-05T11:47:52Z</time>
      </trkpt>
      <trkpt lat="42.41824" lon="2.19524">
        <ele>2727.4</ele>
        <time>2015-06-05T11:48:07Z</time>
      </trkpt>
      <trkpt lat="42.41828" lon="2.19519">
        <ele>2727.4</ele>
        <time>2015-06-05T11:48:12Z</time>
      </trkpt>
      <trkpt lat="42.41829" lon="2.19516">
        <ele>2727.4</ele>
        <time>2015-06-05T11:48:16Z</time>
      </trkpt>
      <trkpt lat="42.41834" lon="2.19506">
        <ele>2731.24</ele>
        <time>2015-06-05T11:48:25Z</time>
      </trkpt>
      <trkpt lat="42.41834" lon="2.19504">
        <ele>2732.2</ele>
        <time>2015-06-05T11:48:27Z</time>
      </trkpt>
      <trkpt lat="42.41839" lon="2.1949">
        <ele>2731.72</ele>
        <time>2015-06-05T11:48:41Z</time>
      </trkpt>
      <trkpt lat="42.41843" lon="2.19478">
        <ele>2733.17</ele>
        <time>2015-06-05T11:48:54Z</time>
      </trkpt>
      <trkpt lat="42.41845" lon="2.19465">
        <ele>2734.61</ele>
        <time>2015-06-05T11:49:09Z</time>
      </trkpt>
      <trkpt lat="42.41849" lon="2.19454">
        <ele>2736.05</ele>
        <time>2015-06-05T11:49:21Z</time>
      </trkpt>
      <trkpt lat="42.41851" lon="2.19448">
        <ele>2736.05</ele>
        <time>2015-06-05T11:49:28Z</time>
      </trkpt>
      <trkpt lat="42.41851" lon="2.19434">
        <ele>2738.45</ele>
        <time>2015-06-05T11:49:43Z</time>
      </trkpt>
      <trkpt lat="42.41848" lon="2.19421">
        <ele>2740.38</ele>
        <time>2015-06-05T11:49:59Z</time>
      </trkpt>
      <trkpt lat="42.41844" lon="2.19411">
        <ele>2741.82</ele>
        <time>2015-06-05T11:50:14Z</time>
      </trkpt>
      <trkpt lat="42.41846" lon="2.19398">
        <ele>2743.74</ele>
        <time>2015-06-05T11:50:30Z</time>
      </trkpt>
      <trkpt lat="42.41845" lon="2.19385">
        <ele>2745.18</ele>
        <time>2015-06-05T11:50:46Z</time>
      </trkpt>
      <trkpt lat="42.41844" lon="2.1937">
        <ele>2746.62</ele>
        <time>2015-06-05T11:51:03Z</time>
      </trkpt>
      <trkpt lat="42.41843" lon="2.19359">
        <ele>2747.59</ele>
        <time>2015-06-05T11:51:17Z</time>
      </trkpt>
      <trkpt lat="42.41842" lon="2.19348">
        <ele>2749.51</ele>
        <time>2015-06-05T11:51:32Z</time>
      </trkpt>
      <trkpt lat="42.41839" lon="2.19338">
        <ele>2750.95</ele>
        <time>2015-06-05T11:51:43Z</time>
      </trkpt>
      <trkpt lat="42.4184" lon="2.19324">
        <ele>2752.39</ele>
        <time>2015-06-05T11:51:58Z</time>
      </trkpt>
      <trkpt lat="42.4184" lon="2.19313">
        <ele>2753.83</ele>
        <time>2015-06-05T11:52:12Z</time>
      </trkpt>
      <trkpt lat="42.41841" lon="2.19304">
        <ele>2756.24</ele>
        <time>2015-06-05T11:52:25Z</time>
      </trkpt>
      <trkpt lat="42.41842" lon="2.19295">
        <ele>2757.2</ele>
        <time>2015-06-05T11:52:39Z</time>
      </trkpt>
      <trkpt lat="42.41839" lon="2.19287">
        <ele>2758.64</ele>
        <time>2015-06-05T11:52:52Z</time>
      </trkpt>
      <trkpt lat="42.41839" lon="2.19277">
        <ele>2760.56</ele>
        <time>2015-06-05T11:53:09Z</time>
      </trkpt>
      <trkpt lat="42.41838" lon="2.19272">
        <ele>2762.97</ele>
        <time>2015-06-05T11:53:17Z</time>
      </trkpt>
      <trkpt lat="42.41839" lon="2.19263">
        <ele>2764.89</ele>
        <time>2015-06-05T11:53:34Z</time>
      </trkpt>
      <trkpt lat="42.41837" lon="2.19252">
        <ele>2766.33</ele>
        <time>2015-06-05T11:53:51Z</time>
      </trkpt>
      <trkpt lat="42.41837" lon="2.19244">
        <ele>2767.77</ele>
        <time>2015-06-05T11:54:04Z</time>
      </trkpt>
      <trkpt lat="42.4184" lon="2.19238">
        <ele>2767.77</ele>
        <time>2015-06-05T11:54:25Z</time>
      </trkpt>
      <trkpt lat="42.41837" lon="2.19227">
        <ele>2769.21</ele>
        <time>2015-06-05T11:54:39Z</time>
      </trkpt>
      <trkpt lat="42.41836" lon="2.19217">
        <ele>2772.1</ele>
        <time>2015-06-05T11:54:54Z</time>
      </trkpt>
      <trkpt lat="42.41836" lon="2.19208">
        <ele>2773.54</ele>
        <time>2015-06-05T11:55:08Z</time>
      </trkpt>
      <trkpt lat="42.41834" lon="2.192">
        <ele>2774.98</ele>
        <time>2015-06-05T11:55:20Z</time>
      </trkpt>
      <trkpt lat="42.41831" lon="2.19191">
        <ele>2776.91</ele>
        <time>2015-06-05T11:55:34Z</time>
      </trkpt>
      <trkpt lat="42.4183" lon="2.19179">
        <ele>2778.35</ele>
        <time>2015-06-05T11:55:49Z</time>
      </trkpt>
      <trkpt lat="42.41829" lon="2.1917">
        <ele>2780.27</ele>
        <time>2015-06-05T11:56:02Z</time>
      </trkpt>
      <trkpt lat="42.4183" lon="2.1916">
        <ele>2781.23</ele>
        <time>2015-06-05T11:56:16Z</time>
      </trkpt>
      <trkpt lat="42.41827" lon="2.19149">
        <ele>2783.63</ele>
        <time>2015-06-05T11:56:31Z</time>
      </trkpt>
      <trkpt lat="42.41824" lon="2.1914">
        <ele>2785.08</ele>
        <time>2015-06-05T11:56:45Z</time>
      </trkpt>
      <trkpt lat="42.41821" lon="2.19132">
        <ele>2787</ele>
        <time>2015-06-05T11:56:59Z</time>
      </trkpt>
      <trkpt lat="42.41817" lon="2.19123">
        <ele>2788.92</ele>
        <time>2015-06-05T11:57:13Z</time>
      </trkpt>
      <trkpt lat="42.41814" lon="2.19113">
        <ele>2791.33</ele>
        <time>2015-06-05T11:57:29Z</time>
      </trkpt>
      <trkpt lat="42.41813" lon="2.19104">
        <ele>2792.29</ele>
        <time>2015-06-05T11:57:43Z</time>
      </trkpt>
      <trkpt lat="42.41812" lon="2.19102">
        <ele>2793.73</ele>
        <time>2015-06-05T11:57:59Z</time>
      </trkpt>
      <trkpt lat="42.41806" lon="2.19092">
        <ele>2794.69</ele>
        <time>2015-06-05T11:58:14Z</time>
      </trkpt>
      <trkpt lat="42.418" lon="2.19083">
        <ele>2795.65</ele>
        <time>2015-06-05T11:58:30Z</time>
      </trkpt>
      <trkpt lat="42.41798" lon="2.1908">
        <ele>2795.65</ele>
        <time>2015-06-05T11:58:45Z</time>
      </trkpt>
      <trkpt lat="42.41789" lon="2.19072">
        <ele>2795.17</ele>
        <time>2015-06-05T11:59:04Z</time>
      </trkpt>
      <trkpt lat="42.41789" lon="2.19068">
        <ele>2794.69</ele>
        <time>2015-06-05T11:59:12Z</time>
      </trkpt>
      <trkpt lat="42.4178" lon="2.19054">
        <ele>2792.77</ele>
        <time>2015-06-05T11:59:27Z</time>
      </trkpt>
      <trkpt lat="42.41771" lon="2.19038">
        <ele>2794.21</ele>
        <time>2015-06-05T11:59:47Z</time>
      </trkpt>
      <trkpt lat="42.4176" lon="2.19026">
        <ele>2794.69</ele>
        <time>2015-06-05T12:00:05Z</time>
      </trkpt>
      <trkpt lat="42.41753" lon="2.19008">
        <ele>2795.17</ele>
        <time>2015-06-05T12:00:22Z</time>
      </trkpt>
      <trkpt lat="42.41752" lon="2.18992">
        <ele>2795.17</ele>
        <time>2015-06-05T12:00:38Z</time>
      </trkpt>
      <trkpt lat="42.41749" lon="2.18981">
        <ele>2795.65</ele>
        <time>2015-06-05T12:00:51Z</time>
      </trkpt>
      <trkpt lat="42.41749" lon="2.18973">
        <ele>2796.13</ele>
        <time>2015-06-05T12:00:58Z</time>
      </trkpt>
      <trkpt lat="42.41754" lon="2.18962">
        <ele>2796.13</ele>
        <time>2015-06-05T12:01:14Z</time>
      </trkpt>
      <trkpt lat="42.41758" lon="2.18949">
        <ele>2796.61</ele>
        <time>2015-06-05T12:01:29Z</time>
      </trkpt>
      <trkpt lat="42.41761" lon="2.18935">
        <ele>2798.05</ele>
        <time>2015-06-05T12:01:42Z</time>
      </trkpt>
      <trkpt lat="42.41759" lon="2.18931">
        <ele>2796.61</ele>
        <time>2015-06-05T12:01:48Z</time>
      </trkpt>
      <trkpt lat="42.41755" lon="2.18918">
        <ele>2793.25</ele>
        <time>2015-06-05T12:02:04Z</time>
      </trkpt>
      <trkpt lat="42.41755" lon="2.18917">
        <ele>2793.25</ele>
        <time>2015-06-05T12:02:05Z</time>
      </trkpt>
      <trkpt lat="42.41755" lon="2.18901">
        <ele>2792.29</ele>
        <time>2015-06-05T12:02:19Z</time>
      </trkpt>
      <trkpt lat="42.41759" lon="2.18883">
        <ele>2789.4</ele>
        <time>2015-06-05T12:02:33Z</time>
      </trkpt>
      <trkpt lat="42.41761" lon="2.1887">
        <ele>2786.04</ele>
        <time>2015-06-05T12:02:48Z</time>
      </trkpt>
      <trkpt lat="42.41761" lon="2.18869">
        <ele>2785.56</ele>
        <time>2015-06-05T12:02:50Z</time>
      </trkpt>
      <trkpt lat="42.41762" lon="2.18861">
        <ele>2784.6</ele>
        <time>2015-06-05T12:02:58Z</time>
      </trkpt>
      <trkpt lat="42.41764" lon="2.18848">
        <ele>2781.71</ele>
        <time>2015-06-05T12:03:09Z</time>
      </trkpt>
      <trkpt lat="42.41769" lon="2.1884">
        <ele>2781.23</ele>
        <time>2015-06-05T12:03:17Z</time>
      </trkpt>
      <trkpt lat="42.41771" lon="2.18831">
        <ele>2779.79</ele>
        <time>2015-06-05T12:03:31Z</time>
      </trkpt>
      <trkpt lat="42.41771" lon="2.18822">
        <ele>2778.35</ele>
        <time>2015-06-05T12:03:46Z</time>
      </trkpt>
      <trkpt lat="42.4177" lon="2.1881">
        <ele>2776.42</ele>
        <time>2015-06-05T12:03:58Z</time>
      </trkpt>
      <trkpt lat="42.41774" lon="2.18788">
        <ele>2775.46</ele>
        <time>2015-06-05T12:04:14Z</time>
      </trkpt>
      <trkpt lat="42.41774" lon="2.1876">
        <ele>2775.46</ele>
        <time>2015-06-05T12:04:33Z</time>
      </trkpt>
      <trkpt lat="42.41776" lon="2.1874">
        <ele>2777.39</ele>
        <time>2015-06-05T12:04:49Z</time>
      </trkpt>
      <trkpt lat="42.41777" lon="2.18728">
        <ele>2777.39</ele>
        <time>2015-06-05T12:04:58Z</time>
      </trkpt>
      <trkpt lat="42.41775" lon="2.18718">
        <ele>2777.39</ele>
        <time>2015-06-05T12:05:05Z</time>
      </trkpt>
      <trkpt lat="42.41775" lon="2.18713">
        <ele>2777.87</ele>
        <time>2015-06-05T12:05:09Z</time>
      </trkpt>
      <trkpt lat="42.41781" lon="2.18698">
        <ele>2778.35</ele>
        <time>2015-06-05T12:05:23Z</time>
      </trkpt>
      <trkpt lat="42.41781" lon="2.18687">
        <ele>2779.31</ele>
        <time>2015-06-05T12:05:34Z</time>
      </trkpt>
      <trkpt lat="42.41788" lon="2.18678">
        <ele>2778.35</ele>
        <time>2015-06-05T12:05:48Z</time>
      </trkpt>
      <trkpt lat="42.41788" lon="2.18669">
        <ele>2779.79</ele>
        <time>2015-06-05T12:06:00Z</time>
      </trkpt>
      <trkpt lat="42.41791" lon="2.1866">
        <ele>2780.75</ele>
        <time>2015-06-05T12:06:15Z</time>
      </trkpt>
      <trkpt lat="42.41793" lon="2.18656">
        <ele>2781.23</ele>
        <time>2015-06-05T12:06:32Z</time>
      </trkpt>
      <trkpt lat="42.41794" lon="2.1865">
        <ele>2781.23</ele>
        <time>2015-06-05T12:06:50Z</time>
      </trkpt>
      <trkpt lat="42.41791" lon="2.18629">
        <ele>2781.71</ele>
        <time>2015-06-05T12:07:05Z</time>
      </trkpt>
      <trkpt lat="42.41794" lon="2.18622">
        <ele>2781.71</ele>
        <time>2015-06-05T12:07:11Z</time>
      </trkpt>
      <trkpt lat="42.41804" lon="2.18605">
        <ele>2782.67</ele>
        <time>2015-06-05T12:07:27Z</time>
      </trkpt>
      <trkpt lat="42.41811" lon="2.18587">
        <ele>2781.23</ele>
        <time>2015-06-05T12:07:41Z</time>
      </trkpt>
      <trkpt lat="42.41816" lon="2.18577">
        <ele>2781.23</ele>
        <time>2015-06-05T12:07:50Z</time>
      </trkpt>
      <trkpt lat="42.41828" lon="2.18567">
        <ele>2781.23</ele>
        <time>2015-06-05T12:08:06Z</time>
      </trkpt>
      <trkpt lat="42.41838" lon="2.1856">
        <ele>2781.23</ele>
        <time>2015-06-05T12:08:19Z</time>
      </trkpt>
      <trkpt lat="42.4184" lon="2.18556">
        <ele>2781.23</ele>
        <time>2015-06-05T12:08:23Z</time>
      </trkpt>
      <trkpt lat="42.41849" lon="2.18541">
        <ele>2780.75</ele>
        <time>2015-06-05T12:08:38Z</time>
      </trkpt>
      <trkpt lat="42.41851" lon="2.18523">
        <ele>2778.35</ele>
        <time>2015-06-05T12:08:53Z</time>
      </trkpt>
      <trkpt lat="42.41855" lon="2.1851">
        <ele>2778.83</ele>
        <time>2015-06-05T12:09:02Z</time>
      </trkpt>
      <trkpt lat="42.41857" lon="2.18508">
        <ele>2778.83</ele>
        <time>2015-06-05T12:09:04Z</time>
      </trkpt>
      <trkpt lat="42.41859" lon="2.18504">
        <ele>2778.83</ele>
        <time>2015-06-05T12:09:07Z</time>
      </trkpt>
      <trkpt lat="42.41861" lon="2.18497">
        <ele>2780.27</ele>
        <time>2015-06-05T12:09:13Z</time>
      </trkpt>
      <trkpt lat="42.41863" lon="2.18491">
        <ele>2780.27</ele>
        <time>2015-06-05T12:09:18Z</time>
      </trkpt>
      <trkpt lat="42.41865" lon="2.18483">
        <ele>2780.75</ele>
        <time>2015-06-05T12:09:24Z</time>
      </trkpt>
      <trkpt lat="42.41869" lon="2.18473">
        <ele>2780.75</ele>
        <time>2015-06-05T12:09:32Z</time>
      </trkpt>
      <trkpt lat="42.4187" lon="2.18465">
        <ele>2780.75</ele>
        <time>2015-06-05T12:09:38Z</time>
      </trkpt>
      <trkpt lat="42.41872" lon="2.18444">
        <ele>2780.75</ele>
        <time>2015-06-05T12:09:54Z</time>
      </trkpt>
      <trkpt lat="42.41873" lon="2.18438">
        <ele>2780.75</ele>
        <time>2015-06-05T12:09:59Z</time>
      </trkpt>
      <trkpt lat="42.41874" lon="2.18423">
        <ele>2781.23</ele>
        <time>2015-06-05T12:10:13Z</time>
      </trkpt>
      <trkpt lat="42.41875" lon="2.18415">
        <ele>2781.23</ele>
        <time>2015-06-05T12:10:19Z</time>
      </trkpt>
      <trkpt lat="42.41873" lon="2.18391">
        <ele>2782.67</ele>
        <time>2015-06-05T12:10:36Z</time>
      </trkpt>
      <trkpt lat="42.41876" lon="2.18376">
        <ele>2784.6</ele>
        <time>2015-06-05T12:10:51Z</time>
      </trkpt>
      <trkpt lat="42.41875" lon="2.18362">
        <ele>2785.56</ele>
        <time>2015-06-05T12:11:05Z</time>
      </trkpt>
      <trkpt lat="42.41872" lon="2.18343">
        <ele>2786.52</ele>
        <time>2015-06-05T12:11:21Z</time>
      </trkpt>
      <trkpt lat="42.4187" lon="2.18325">
        <ele>2787</ele>
        <time>2015-06-05T12:11:37Z</time>
      </trkpt>
      <trkpt lat="42.4187" lon="2.18324">
        <ele>2787.96</ele>
        <time>2015-06-05T12:11:53Z</time>
      </trkpt>
      <trkpt lat="42.4187" lon="2.18323">
        <ele>2787.96</ele>
        <time>2015-06-05T12:12:13Z</time>
      </trkpt>
      <trkpt lat="42.41869" lon="2.1831">
        <ele>2787</ele>
        <time>2015-06-05T12:12:30Z</time>
      </trkpt>
      <trkpt lat="42.41869" lon="2.18293">
        <ele>2787.96</ele>
        <time>2015-06-05T12:12:45Z</time>
      </trkpt>
      <trkpt lat="42.41867" lon="2.18272">
        <ele>2788.92</ele>
        <time>2015-06-05T12:13:00Z</time>
      </trkpt>
      <trkpt lat="42.41861" lon="2.18257">
        <ele>2790.84</ele>
        <time>2015-06-05T12:13:15Z</time>
      </trkpt>
      <trkpt lat="42.41855" lon="2.18242">
        <ele>2792.29</ele>
        <time>2015-06-05T12:13:29Z</time>
      </trkpt>
      <trkpt lat="42.41848" lon="2.18229">
        <ele>2793.73</ele>
        <time>2015-06-05T12:13:44Z</time>
      </trkpt>
      <trkpt lat="42.41841" lon="2.1821">
        <ele>2794.21</ele>
        <time>2015-06-05T12:13:59Z</time>
      </trkpt>
      <trkpt lat="42.41839" lon="2.18202">
        <ele>2792.77</ele>
        <time>2015-06-05T12:14:05Z</time>
      </trkpt>
      <trkpt lat="42.41836" lon="2.18184">
        <ele>2793.25</ele>
        <time>2015-06-05T12:14:20Z</time>
      </trkpt>
      <trkpt lat="42.41834" lon="2.18167">
        <ele>2794.69</ele>
        <time>2015-06-05T12:14:35Z</time>
      </trkpt>
      <trkpt lat="42.41834" lon="2.18164">
        <ele>2794.69</ele>
        <time>2015-06-05T12:14:38Z</time>
      </trkpt>
      <trkpt lat="42.41834" lon="2.18159">
        <ele>2794.69</ele>
        <time>2015-06-05T12:14:42Z</time>
      </trkpt>
      <trkpt lat="42.41835" lon="2.18136">
        <ele>2793.73</ele>
        <time>2015-06-05T12:15:00Z</time>
      </trkpt>
      <trkpt lat="42.41836" lon="2.18121">
        <ele>2793.73</ele>
        <time>2015-06-05T12:15:14Z</time>
      </trkpt>
      <trkpt lat="42.41837" lon="2.18117">
        <ele>2798.54</ele>
        <time>2015-06-05T12:15:18Z</time>
      </trkpt>
      <trkpt lat="42.41838" lon="2.18116">
        <ele>2795.17</ele>
        <time>2015-06-05T12:15:23Z</time>
      </trkpt>
      <trkpt lat="42.41838" lon="2.18116">
        <ele>2793.73</ele>
        <time>2015-06-05T12:15:26Z</time>
      </trkpt>
      <trkpt lat="42.4184" lon="2.18114">
        <ele>2793.25</ele>
        <time>2015-06-05T12:15:54Z</time>
      </trkpt>
      <trkpt lat="42.41839" lon="2.18111">
        <ele>2793.25</ele>
        <time>2015-06-05T12:16:05Z</time>
      </trkpt>
      <trkpt lat="42.41834" lon="2.18102">
        <ele>2796.13</ele>
        <time>2015-06-05T12:16:13Z</time>
      </trkpt>
      <trkpt lat="42.41833" lon="2.181">
        <ele>2794.21</ele>
        <time>2015-06-05T12:16:15Z</time>
      </trkpt>
      <trkpt lat="42.41829" lon="2.1808">
        <ele>2793.73</ele>
        <time>2015-06-05T12:16:31Z</time>
      </trkpt>
      <trkpt lat="42.4183" lon="2.18072">
        <ele>2793.73</ele>
        <time>2015-06-05T12:16:47Z</time>
      </trkpt>
      <trkpt lat="42.41829" lon="2.18063">
        <ele>2795.17</ele>
        <time>2015-06-05T12:16:54Z</time>
      </trkpt>
      <trkpt lat="42.4183" lon="2.18041">
        <ele>2796.61</ele>
        <time>2015-06-05T12:17:11Z</time>
      </trkpt>
      <trkpt lat="42.4183" lon="2.18039">
        <ele>2796.61</ele>
        <time>2015-06-05T12:17:13Z</time>
      </trkpt>
      <trkpt lat="42.41835" lon="2.18016">
        <ele>2796.61</ele>
        <time>2015-06-05T12:17:31Z</time>
      </trkpt>
      <trkpt lat="42.41843" lon="2.18">
        <ele>2795.17</ele>
        <time>2015-06-05T12:17:46Z</time>
      </trkpt>
      <trkpt lat="42.41847" lon="2.17991">
        <ele>2794.21</ele>
        <time>2015-06-05T12:17:54Z</time>
      </trkpt>
      <trkpt lat="42.41851" lon="2.17977">
        <ele>2790.36</ele>
        <time>2015-06-05T12:18:12Z</time>
      </trkpt>
      <trkpt lat="42.41856" lon="2.17971">
        <ele>2788.92</ele>
        <time>2015-06-05T12:18:26Z</time>
      </trkpt>
      <trkpt lat="42.41856" lon="2.17971">
        <ele>2787.48</ele>
        <time>2015-06-05T12:18:44Z</time>
      </trkpt>
      <trkpt lat="42.41858" lon="2.1797">
        <ele>2787.48</ele>
        <time>2015-06-05T12:18:50Z</time>
      </trkpt>
      <trkpt lat="42.41861" lon="2.1797">
        <ele>2786.52</ele>
        <time>2015-06-05T12:18:55Z</time>
      </trkpt>
      <trkpt lat="42.41865" lon="2.17969">
        <ele>2785.08</ele>
        <time>2015-06-05T12:18:59Z</time>
      </trkpt>
      <trkpt lat="42.41871" lon="2.17963">
        <ele>2782.67</ele>
        <time>2015-06-05T12:19:11Z</time>
      </trkpt>
      <trkpt lat="42.41878" lon="2.17962">
        <ele>2780.75</ele>
        <time>2015-06-05T12:19:24Z</time>
      </trkpt>
      <trkpt lat="42.41881" lon="2.17952">
        <ele>2777.87</ele>
        <time>2015-06-05T12:19:39Z</time>
      </trkpt>
      <trkpt lat="42.41882" lon="2.17946">
        <ele>2774.5</ele>
        <time>2015-06-05T12:19:49Z</time>
      </trkpt>
      <trkpt lat="42.41883" lon="2.17941">
        <ele>2773.06</ele>
        <time>2015-06-05T12:20:01Z</time>
      </trkpt>
      <trkpt lat="42.41886" lon="2.17934">
        <ele>2770.18</ele>
        <time>2015-06-05T12:20:12Z</time>
      </trkpt>
      <trkpt lat="42.41891" lon="2.17926">
        <ele>2767.77</ele>
        <time>2015-06-05T12:20:26Z</time>
      </trkpt>
      <trkpt lat="42.41896" lon="2.17921">
        <ele>2765.85</ele>
        <time>2015-06-05T12:20:36Z</time>
      </trkpt>
      <trkpt lat="42.41895" lon="2.17915">
        <ele>2762.49</ele>
        <time>2015-06-05T12:20:50Z</time>
      </trkpt>
      <trkpt lat="42.41899" lon="2.17907">
        <ele>2760.08</ele>
        <time>2015-06-05T12:21:03Z</time>
      </trkpt>
      <trkpt lat="42.41907" lon="2.17905">
        <ele>2757.2</ele>
        <time>2015-06-05T12:21:16Z</time>
      </trkpt>
      <trkpt lat="42.41912" lon="2.17905">
        <ele>2753.83</ele>
        <time>2015-06-05T12:21:28Z</time>
      </trkpt>
      <trkpt lat="42.41914" lon="2.17905">
        <ele>2752.39</ele>
        <time>2015-06-05T12:21:34Z</time>
      </trkpt>
      <trkpt lat="42.41917" lon="2.17905">
        <ele>2751.43</ele>
        <time>2015-06-05T12:21:52Z</time>
      </trkpt>
      <trkpt lat="42.41923" lon="2.17904">
        <ele>2749.51</ele>
        <time>2015-06-05T12:22:07Z</time>
      </trkpt>
      <trkpt lat="42.41931" lon="2.17901">
        <ele>2746.14</ele>
        <time>2015-06-05T12:22:21Z</time>
      </trkpt>
      <trkpt lat="42.41937" lon="2.17899">
        <ele>2742.78</ele>
        <time>2015-06-05T12:22:32Z</time>
      </trkpt>
      <trkpt lat="42.4194" lon="2.17894">
        <ele>2741.82</ele>
        <time>2015-06-05T12:22:39Z</time>
      </trkpt>
      <trkpt lat="42.41937" lon="2.17887">
        <ele>2739.41</ele>
        <time>2015-06-05T12:22:50Z</time>
      </trkpt>
      <trkpt lat="42.4194" lon="2.1788">
        <ele>2736.05</ele>
        <time>2015-06-05T12:23:03Z</time>
      </trkpt>
      <trkpt lat="42.41948" lon="2.17875">
        <ele>2732.68</ele>
        <time>2015-06-05T12:23:17Z</time>
      </trkpt>
      <trkpt lat="42.41955" lon="2.1787">
        <ele>2730.76</ele>
        <time>2015-06-05T12:23:28Z</time>
      </trkpt>
      <trkpt lat="42.41961" lon="2.17867">
        <ele>2727.88</ele>
        <time>2015-06-05T12:23:42Z</time>
      </trkpt>
      <trkpt lat="42.41967" lon="2.17863">
        <ele>2724.51</ele>
        <time>2015-06-05T12:23:53Z</time>
      </trkpt>
      <trkpt lat="42.4197" lon="2.17855">
        <ele>2721.63</ele>
        <time>2015-06-05T12:24:06Z</time>
      </trkpt>
      <trkpt lat="42.41979" lon="2.17849">
        <ele>2718.75</ele>
        <time>2015-06-05T12:24:21Z</time>
      </trkpt>
      <trkpt lat="42.41987" lon="2.17844">
        <ele>2715.86</ele>
        <time>2015-06-05T12:24:34Z</time>
      </trkpt>
      <trkpt lat="42.4199" lon="2.17833">
        <ele>2712.5</ele>
        <time>2015-06-05T12:24:45Z</time>
      </trkpt>
      <trkpt lat="42.41988" lon="2.17821">
        <ele>2710.57</ele>
        <time>2015-06-05T12:24:58Z</time>
      </trkpt>
      <trkpt lat="42.41987" lon="2.17814">
        <ele>2707.69</ele>
        <time>2015-06-05T12:25:10Z</time>
      </trkpt>
      <trkpt lat="42.41992" lon="2.17805">
        <ele>2704.33</ele>
        <time>2015-06-05T12:25:23Z</time>
      </trkpt>
      <trkpt lat="42.41997" lon="2.17797">
        <ele>2701.44</ele>
        <time>2015-06-05T12:25:39Z</time>
      </trkpt>
      <trkpt lat="42.41993" lon="2.17795">
        <ele>2699.52</ele>
        <time>2015-06-05T12:25:50Z</time>
      </trkpt>
      <trkpt lat="42.4199" lon="2.17789">
        <ele>2696.15</ele>
        <time>2015-06-05T12:26:04Z</time>
      </trkpt>
      <trkpt lat="42.41991" lon="2.17784">
        <ele>2693.27</ele>
        <time>2015-06-05T12:26:16Z</time>
      </trkpt>
      <trkpt lat="42.41995" lon="2.17778">
        <ele>2690.39</ele>
        <time>2015-06-05T12:26:26Z</time>
      </trkpt>
      <trkpt lat="42.41996" lon="2.17778">
        <ele>2690.39</ele>
        <time>2015-06-05T12:26:27Z</time>
      </trkpt>
      <trkpt lat="42.42002" lon="2.17766">
        <ele>2687.5</ele>
        <time>2015-06-05T12:26:42Z</time>
      </trkpt>
      <trkpt lat="42.42006" lon="2.1776">
        <ele>2684.62</ele>
        <time>2015-06-05T12:26:55Z</time>
      </trkpt>
      <trkpt lat="42.4201" lon="2.17754">
        <ele>2681.73</ele>
        <time>2015-06-05T12:27:06Z</time>
      </trkpt>
      <trkpt lat="42.42014" lon="2.17746">
        <ele>2679.33</ele>
        <time>2015-06-05T12:27:19Z</time>
      </trkpt>
      <trkpt lat="42.42016" lon="2.17742">
        <ele>2678.37</ele>
        <time>2015-06-05T12:27:25Z</time>
      </trkpt>
      <trkpt lat="42.42018" lon="2.17733">
        <ele>2675.97</ele>
        <time>2015-06-05T12:27:38Z</time>
      </trkpt>
      <trkpt lat="42.42022" lon="2.17731">
        <ele>2674.04</ele>
        <time>2015-06-05T12:27:44Z</time>
      </trkpt>
      <trkpt lat="42.42025" lon="2.17722">
        <ele>2670.2</ele>
        <time>2015-06-05T12:27:56Z</time>
      </trkpt>
      <trkpt lat="42.42025" lon="2.17722">
        <ele>2669.72</ele>
        <time>2015-06-05T12:27:57Z</time>
      </trkpt>
      <trkpt lat="42.42035" lon="2.17713">
        <ele>2669.24</ele>
        <time>2015-06-05T12:28:13Z</time>
      </trkpt>
      <trkpt lat="42.42035" lon="2.17712">
        <ele>2668.76</ele>
        <time>2015-06-05T12:28:14Z</time>
      </trkpt>
      <trkpt lat="42.42043" lon="2.17704">
        <ele>2665.87</ele>
        <time>2015-06-05T12:28:23Z</time>
      </trkpt>
      <trkpt lat="42.42054" lon="2.17696">
        <ele>2664.43</ele>
        <time>2015-06-05T12:28:36Z</time>
      </trkpt>
      <trkpt lat="42.42055" lon="2.17695">
        <ele>2664.43</ele>
        <time>2015-06-05T12:28:37Z</time>
      </trkpt>
      <trkpt lat="42.42058" lon="2.17695">
        <ele>2665.87</ele>
        <time>2015-06-05T12:28:41Z</time>
      </trkpt>
      <trkpt lat="42.42065" lon="2.17687">
        <ele>2664.43</ele>
        <time>2015-06-05T12:28:51Z</time>
      </trkpt>
      <trkpt lat="42.42066" lon="2.17686">
        <ele>2663.95</ele>
        <time>2015-06-05T12:28:52Z</time>
      </trkpt>
      <trkpt lat="42.42077" lon="2.17674">
        <ele>2662.03</ele>
        <time>2015-06-05T12:29:06Z</time>
      </trkpt>
      <trkpt lat="42.4208" lon="2.17668">
        <ele>2660.59</ele>
        <time>2015-06-05T12:29:12Z</time>
      </trkpt>
      <trkpt lat="42.42085" lon="2.17656">
        <ele>2659.62</ele>
        <time>2015-06-05T12:29:23Z</time>
      </trkpt>
      <trkpt lat="42.42099" lon="2.17639">
        <ele>2657.7</ele>
        <time>2015-06-05T12:29:43Z</time>
      </trkpt>
      <trkpt lat="42.4211" lon="2.1763">
        <ele>2654.82</ele>
        <time>2015-06-05T12:30:01Z</time>
      </trkpt>
      <trkpt lat="42.42117" lon="2.17622">
        <ele>2653.86</ele>
        <time>2015-06-05T12:30:12Z</time>
      </trkpt>
      <trkpt lat="42.42121" lon="2.17621">
        <ele>2652.9</ele>
        <time>2015-06-05T12:30:26Z</time>
      </trkpt>
      <trkpt lat="42.42122" lon="2.17623">
        <ele>2652.9</ele>
        <time>2015-06-05T12:30:44Z</time>
      </trkpt>
      <trkpt lat="42.42125" lon="2.17616">
        <ele>2652.9</ele>
        <time>2015-06-05T12:31:12Z</time>
      </trkpt>
      <trkpt lat="42.42126" lon="2.17615">
        <ele>2652.9</ele>
        <time>2015-06-05T12:31:29Z</time>
      </trkpt>
      <trkpt lat="42.42135" lon="2.17607">
        <ele>2650.97</ele>
        <time>2015-06-05T12:31:40Z</time>
      </trkpt>
      <trkpt lat="42.42138" lon="2.17606">
        <ele>2650.97</ele>
        <time>2015-06-05T12:31:43Z</time>
      </trkpt>
      <trkpt lat="42.42153" lon="2.17594">
        <ele>2649.53</ele>
        <time>2015-06-05T12:32:01Z</time>
      </trkpt>
      <trkpt lat="42.42166" lon="2.17581">
        <ele>2647.13</ele>
        <time>2015-06-05T12:32:16Z</time>
      </trkpt>
      <trkpt lat="42.42178" lon="2.17569">
        <ele>2646.65</ele>
        <time>2015-06-05T12:32:30Z</time>
      </trkpt>
      <trkpt lat="42.42183" lon="2.17564">
        <ele>2646.65</ele>
        <time>2015-06-05T12:32:35Z</time>
      </trkpt>
      <trkpt lat="42.42185" lon="2.17562">
        <ele>2646.65</ele>
        <time>2015-06-05T12:32:38Z</time>
      </trkpt>
      <trkpt lat="42.42196" lon="2.17553">
        <ele>2645.69</ele>
        <time>2015-06-05T12:32:51Z</time>
      </trkpt>
      <trkpt lat="42.42203" lon="2.17548">
        <ele>2645.21</ele>
        <time>2015-06-05T12:32:58Z</time>
      </trkpt>
      <trkpt lat="42.42213" lon="2.17532">
        <ele>2644.24</ele>
        <time>2015-06-05T12:33:16Z</time>
      </trkpt>
      <trkpt lat="42.42213" lon="2.1753">
        <ele>2644.24</ele>
        <time>2015-06-05T12:33:37Z</time>
      </trkpt>
      <trkpt lat="42.42211" lon="2.17528">
        <ele>2644.24</ele>
        <time>2015-06-05T12:33:54Z</time>
      </trkpt>
      <trkpt lat="42.42217" lon="2.17522">
        <ele>2643.76</ele>
        <time>2015-06-05T12:34:17Z</time>
      </trkpt>
      <trkpt lat="42.42218" lon="2.17521">
        <ele>2643.76</ele>
        <time>2015-06-05T12:34:18Z</time>
      </trkpt>
      <trkpt lat="42.42221" lon="2.17518">
        <ele>2643.76</ele>
        <time>2015-06-05T12:34:21Z</time>
      </trkpt>
      <trkpt lat="42.42231" lon="2.17508">
        <ele>2641.84</ele>
        <time>2015-06-05T12:34:33Z</time>
      </trkpt>
      <trkpt lat="42.42235" lon="2.17505">
        <ele>2641.36</ele>
        <time>2015-06-05T12:34:37Z</time>
      </trkpt>
      <trkpt lat="42.42248" lon="2.17491">
        <ele>2639.92</ele>
        <time>2015-06-05T12:34:53Z</time>
      </trkpt>
      <trkpt lat="42.42259" lon="2.1748">
        <ele>2638.48</ele>
        <time>2015-06-05T12:35:08Z</time>
      </trkpt>
      <trkpt lat="42.4227" lon="2.17472">
        <ele>2637.51</ele>
        <time>2015-06-05T12:35:20Z</time>
      </trkpt>
      <trkpt lat="42.42276" lon="2.17465">
        <ele>2636.07</ele>
        <time>2015-06-05T12:35:28Z</time>
      </trkpt>
      <trkpt lat="42.42284" lon="2.17454">
        <ele>2635.11</ele>
        <time>2015-06-05T12:35:39Z</time>
      </trkpt>
      <trkpt lat="42.42289" lon="2.17449">
        <ele>2634.63</ele>
        <time>2015-06-05T12:35:46Z</time>
      </trkpt>
      <trkpt lat="42.42297" lon="2.17432">
        <ele>2635.59</ele>
        <time>2015-06-05T12:35:59Z</time>
      </trkpt>
      <trkpt lat="42.42301" lon="2.17429">
        <ele>2634.15</ele>
        <time>2015-06-05T12:36:03Z</time>
      </trkpt>
      <trkpt lat="42.42304" lon="2.17425">
        <ele>2634.15</ele>
        <time>2015-06-05T12:36:07Z</time>
      </trkpt>
      <trkpt lat="42.42309" lon="2.17419">
        <ele>2632.23</ele>
        <time>2015-06-05T12:36:14Z</time>
      </trkpt>
      <trkpt lat="42.42312" lon="2.17417">
        <ele>2631.27</ele>
        <time>2015-06-05T12:36:18Z</time>
      </trkpt>
      <trkpt lat="42.42316" lon="2.17414">
        <ele>2630.79</ele>
        <time>2015-06-05T12:36:22Z</time>
      </trkpt>
      <trkpt lat="42.42326" lon="2.17395">
        <ele>2630.3</ele>
        <time>2015-06-05T12:36:38Z</time>
      </trkpt>
      <trkpt lat="42.42333" lon="2.17387">
        <ele>2628.38</ele>
        <time>2015-06-05T12:36:49Z</time>
      </trkpt>
      <trkpt lat="42.42346" lon="2.1737">
        <ele>2627.42</ele>
        <time>2015-06-05T12:37:05Z</time>
      </trkpt>
      <trkpt lat="42.42356" lon="2.17359">
        <ele>2625.98</ele>
        <time>2015-06-05T12:37:19Z</time>
      </trkpt>
      <trkpt lat="42.42361" lon="2.17354">
        <ele>2624.06</ele>
        <time>2015-06-05T12:37:26Z</time>
      </trkpt>
      <trkpt lat="42.42372" lon="2.17338">
        <ele>2623.58</ele>
        <time>2015-06-05T12:37:42Z</time>
      </trkpt>
      <trkpt lat="42.42374" lon="2.17332">
        <ele>2624.54</ele>
        <time>2015-06-05T12:37:47Z</time>
      </trkpt>
      <trkpt lat="42.42384" lon="2.17318">
        <ele>2624.54</ele>
        <time>2015-06-05T12:38:02Z</time>
      </trkpt>
      <trkpt lat="42.42393" lon="2.17309">
        <ele>2623.09</ele>
        <time>2015-06-05T12:38:15Z</time>
      </trkpt>
      <trkpt lat="42.42402" lon="2.17299">
        <ele>2623.09</ele>
        <time>2015-06-05T12:38:30Z</time>
      </trkpt>
      <trkpt lat="42.42404" lon="2.17298">
        <ele>2624.54</ele>
        <time>2015-06-05T12:38:32Z</time>
      </trkpt>
      <trkpt lat="42.42416" lon="2.17289">
        <ele>2625.02</ele>
        <time>2015-06-05T12:38:47Z</time>
      </trkpt>
      <trkpt lat="42.42426" lon="2.17285">
        <ele>2623.58</ele>
        <time>2015-06-05T12:38:57Z</time>
      </trkpt>
      <trkpt lat="42.42438" lon="2.17281">
        <ele>2622.13</ele>
        <time>2015-06-05T12:39:12Z</time>
      </trkpt>
      <trkpt lat="42.42448" lon="2.17265">
        <ele>2623.09</ele>
        <time>2015-06-05T12:39:27Z</time>
      </trkpt>
      <trkpt lat="42.42458" lon="2.17252">
        <ele>2625.02</ele>
        <time>2015-06-05T12:39:43Z</time>
      </trkpt>
      <trkpt lat="42.42467" lon="2.17245">
        <ele>2625.02</ele>
        <time>2015-06-05T12:39:58Z</time>
      </trkpt>
      <trkpt lat="42.42471" lon="2.17236">
        <ele>2626.94</ele>
        <time>2015-06-05T12:40:10Z</time>
      </trkpt>
      <trkpt lat="42.42479" lon="2.17228">
        <ele>2628.86</ele>
        <time>2015-06-05T12:40:24Z</time>
      </trkpt>
      <trkpt lat="42.42491" lon="2.17224">
        <ele>2626.94</ele>
        <time>2015-06-05T12:40:41Z</time>
      </trkpt>
      <trkpt lat="42.42505" lon="2.17216">
        <ele>2626.94</ele>
        <time>2015-06-05T12:40:58Z</time>
      </trkpt>
      <trkpt lat="42.42511" lon="2.17209">
        <ele>2628.38</ele>
        <time>2015-06-05T12:41:08Z</time>
      </trkpt>
      <trkpt lat="42.42515" lon="2.17201">
        <ele>2630.3</ele>
        <time>2015-06-05T12:41:22Z</time>
      </trkpt>
      <trkpt lat="42.42527" lon="2.17193">
        <ele>2631.27</ele>
        <time>2015-06-05T12:41:40Z</time>
      </trkpt>
      <trkpt lat="42.42537" lon="2.17191">
        <ele>2632.71</ele>
        <time>2015-06-05T12:41:56Z</time>
      </trkpt>
      <trkpt lat="42.42548" lon="2.17184">
        <ele>2633.19</ele>
        <time>2015-06-05T12:42:12Z</time>
      </trkpt>
      <trkpt lat="42.42561" lon="2.17179">
        <ele>2633.19</ele>
        <time>2015-06-05T12:42:28Z</time>
      </trkpt>
      <trkpt lat="42.42573" lon="2.17173">
        <ele>2634.15</ele>
        <time>2015-06-05T12:42:45Z</time>
      </trkpt>
      <trkpt lat="42.42586" lon="2.1717">
        <ele>2635.11</ele>
        <time>2015-06-05T12:43:01Z</time>
      </trkpt>
      <trkpt lat="42.42594" lon="2.17167">
        <ele>2637.51</ele>
        <time>2015-06-05T12:43:16Z</time>
      </trkpt>
      <trkpt lat="42.42602" lon="2.17168">
        <ele>2639.92</ele>
        <time>2015-06-05T12:43:32Z</time>
      </trkpt>
      <trkpt lat="42.42611" lon="2.17167">
        <ele>2641.84</ele>
        <time>2015-06-05T12:43:47Z</time>
      </trkpt>
      <trkpt lat="42.42618" lon="2.17163">
        <ele>2643.28</ele>
        <time>2015-06-05T12:44:01Z</time>
      </trkpt>
      <trkpt lat="42.42625" lon="2.1716">
        <ele>2645.21</ele>
        <time>2015-06-05T12:44:16Z</time>
      </trkpt>
      <trkpt lat="42.42634" lon="2.1716">
        <ele>2646.65</ele>
        <time>2015-06-05T12:44:30Z</time>
      </trkpt>
      <trkpt lat="42.42641" lon="2.17157">
        <ele>2647.13</ele>
        <time>2015-06-05T12:44:42Z</time>
      </trkpt>
      <trkpt lat="42.42649" lon="2.17156">
        <ele>2650.01</ele>
        <time>2015-06-05T12:44:58Z</time>
      </trkpt>
      <trkpt lat="42.42659" lon="2.17153">
        <ele>2652.42</ele>
        <time>2015-06-05T12:45:14Z</time>
      </trkpt>
      <trkpt lat="42.4267" lon="2.17154">
        <ele>2653.86</ele>
        <time>2015-06-05T12:45:31Z</time>
      </trkpt>
      <trkpt lat="42.4268" lon="2.17154">
        <ele>2655.78</ele>
        <time>2015-06-05T12:45:46Z</time>
      </trkpt>
      <trkpt lat="42.4269" lon="2.17159">
        <ele>2657.22</ele>
        <time>2015-06-05T12:46:00Z</time>
      </trkpt>
      <trkpt lat="42.42692" lon="2.1716">
        <ele>2657.7</ele>
        <time>2015-06-05T12:46:03Z</time>
      </trkpt>
      <trkpt lat="42.42703" lon="2.17165">
        <ele>2658.66</ele>
        <time>2015-06-05T12:46:16Z</time>
      </trkpt>
      <trkpt lat="42.42713" lon="2.17169">
        <ele>2659.62</ele>
        <time>2015-06-05T12:46:31Z</time>
      </trkpt>
      <trkpt lat="42.42725" lon="2.17173">
        <ele>2660.59</ele>
        <time>2015-06-05T12:46:46Z</time>
      </trkpt>
      <trkpt lat="42.42731" lon="2.17173">
        <ele>2659.14</ele>
        <time>2015-06-05T12:46:53Z</time>
      </trkpt>
      <trkpt lat="42.42739" lon="2.17178">
        <ele>2655.78</ele>
        <time>2015-06-05T12:47:03Z</time>
      </trkpt>
      <trkpt lat="42.42753" lon="2.17183">
        <ele>2652.42</ele>
        <time>2015-06-05T12:47:15Z</time>
      </trkpt>
      <trkpt lat="42.42766" lon="2.17183">
        <ele>2651.45</ele>
        <time>2015-06-05T12:47:26Z</time>
      </trkpt>
      <trkpt lat="42.42771" lon="2.17187">
        <ele>2649.53</ele>
        <time>2015-06-05T12:47:32Z</time>
      </trkpt>
      <trkpt lat="42.42783" lon="2.17196">
        <ele>2647.61</ele>
        <time>2015-06-05T12:47:46Z</time>
      </trkpt>
      <trkpt lat="42.42794" lon="2.17204">
        <ele>2645.69</ele>
        <time>2015-06-05T12:48:00Z</time>
      </trkpt>
      <trkpt lat="42.42803" lon="2.17209">
        <ele>2643.76</ele>
        <time>2015-06-05T12:48:13Z</time>
      </trkpt>
      <trkpt lat="42.42819" lon="2.17215">
        <ele>2640.88</ele>
        <time>2015-06-05T12:48:30Z</time>
      </trkpt>
      <trkpt lat="42.42824" lon="2.17218">
        <ele>2640.4</ele>
        <time>2015-06-05T12:48:36Z</time>
      </trkpt>
      <trkpt lat="42.42828" lon="2.17224">
        <ele>2638.96</ele>
        <time>2015-06-05T12:48:41Z</time>
      </trkpt>
      <trkpt lat="42.42845" lon="2.17234">
        <ele>2638.48</ele>
        <time>2015-06-05T12:49:00Z</time>
      </trkpt>
      <trkpt lat="42.42857" lon="2.17243">
        <ele>2637.51</ele>
        <time>2015-06-05T12:49:15Z</time>
      </trkpt>
      <trkpt lat="42.42868" lon="2.17246">
        <ele>2634.15</ele>
        <time>2015-06-05T12:49:29Z</time>
      </trkpt>
      <trkpt lat="42.42872" lon="2.17248">
        <ele>2633.67</ele>
        <time>2015-06-05T12:49:34Z</time>
      </trkpt>
      <trkpt lat="42.42881" lon="2.17249">
        <ele>2631.75</ele>
        <time>2015-06-05T12:49:45Z</time>
      </trkpt>
      <trkpt lat="42.42893" lon="2.17241">
        <ele>2628.38</ele>
        <time>2015-06-05T12:50:03Z</time>
      </trkpt>
      <trkpt lat="42.42895" lon="2.17236">
        <ele>2627.9</ele>
        <time>2015-06-05T12:50:17Z</time>
      </trkpt>
      <trkpt lat="42.42892" lon="2.17234">
        <ele>2629.82</ele>
        <time>2015-06-05T12:50:29Z</time>
      </trkpt>
      <trkpt lat="42.4289" lon="2.17227">
        <ele>2630.3</ele>
        <time>2015-06-05T12:50:42Z</time>
      </trkpt>
      <trkpt lat="42.42888" lon="2.17225">
        <ele>2630.3</ele>
        <time>2015-06-05T12:50:58Z</time>
      </trkpt>
      <trkpt lat="42.42889" lon="2.17222">
        <ele>2630.3</ele>
        <time>2015-06-05T12:51:25Z</time>
      </trkpt>
      <trkpt lat="42.42891" lon="2.17224">
        <ele>2630.3</ele>
        <time>2015-06-05T12:51:42Z</time>
      </trkpt>
      <trkpt lat="42.42897" lon="2.17227">
        <ele>2628.38</ele>
        <time>2015-06-05T12:51:49Z</time>
      </trkpt>
      <trkpt lat="42.42899" lon="2.17227">
        <ele>2627.9</ele>
        <time>2015-06-05T12:52:00Z</time>
      </trkpt>
      <trkpt lat="42.42903" lon="2.1722">
        <ele>2625.02</ele>
        <time>2015-06-05T12:52:12Z</time>
      </trkpt>
      <trkpt lat="42.42909" lon="2.17213">
        <ele>2622.61</ele>
        <time>2015-06-05T12:52:30Z</time>
      </trkpt>
      <trkpt lat="42.42912" lon="2.17211">
        <ele>2621.65</ele>
        <time>2015-06-05T12:52:47Z</time>
      </trkpt>
      <trkpt lat="42.42912" lon="2.17201">
        <ele>2618.77</ele>
        <time>2015-06-05T12:53:00Z</time>
      </trkpt>
      <trkpt lat="42.42907" lon="2.17191">
        <ele>2615.88</ele>
        <time>2015-06-05T12:53:16Z</time>
      </trkpt>
      <trkpt lat="42.42901" lon="2.17184">
        <ele>2612.52</ele>
        <time>2015-06-05T12:53:29Z</time>
      </trkpt>
      <trkpt lat="42.42896" lon="2.17176">
        <ele>2609.16</ele>
        <time>2015-06-05T12:53:41Z</time>
      </trkpt>
      <trkpt lat="42.42894" lon="2.17172">
        <ele>2607.71</ele>
        <time>2015-06-05T12:53:47Z</time>
      </trkpt>
      <trkpt lat="42.42891" lon="2.17161">
        <ele>2604.35</ele>
        <time>2015-06-05T12:53:57Z</time>
      </trkpt>
      <trkpt lat="42.4289" lon="2.17158">
        <ele>2603.87</ele>
        <time>2015-06-05T12:54:00Z</time>
      </trkpt>
      <trkpt lat="42.42886" lon="2.17148">
        <ele>2599.54</ele>
        <time>2015-06-05T12:54:15Z</time>
      </trkpt>
      <trkpt lat="42.42882" lon="2.17138">
        <ele>2596.66</ele>
        <time>2015-06-05T12:54:29Z</time>
      </trkpt>
      <trkpt lat="42.42883" lon="2.1713">
        <ele>2594.74</ele>
        <time>2015-06-05T12:54:41Z</time>
      </trkpt>
      <trkpt lat="42.42895" lon="2.17125">
        <ele>2591.85</ele>
        <time>2015-06-05T12:54:55Z</time>
      </trkpt>
      <trkpt lat="42.42904" lon="2.17119">
        <ele>2588.49</ele>
        <time>2015-06-05T12:55:09Z</time>
      </trkpt>
      <trkpt lat="42.42908" lon="2.17114">
        <ele>2585.12</ele>
        <time>2015-06-05T12:55:22Z</time>
      </trkpt>
      <trkpt lat="42.42906" lon="2.17107">
        <ele>2582.72</ele>
        <time>2015-06-05T12:55:35Z</time>
      </trkpt>
      <trkpt lat="42.42909" lon="2.17092">
        <ele>2580.8</ele>
        <time>2015-06-05T12:55:48Z</time>
      </trkpt>
      <trkpt lat="42.42912" lon="2.17076">
        <ele>2578.39</ele>
        <time>2015-06-05T12:56:01Z</time>
      </trkpt>
      <trkpt lat="42.42915" lon="2.17069">
        <ele>2577.91</ele>
        <time>2015-06-05T12:56:06Z</time>
      </trkpt>
      <trkpt lat="42.42929" lon="2.17052">
        <ele>2573.59</ele>
        <time>2015-06-05T12:56:22Z</time>
      </trkpt>
      <trkpt lat="42.4294" lon="2.1704">
        <ele>2571.18</ele>
        <time>2015-06-05T12:56:35Z</time>
      </trkpt>
      <trkpt lat="42.42944" lon="2.17035">
        <ele>2567.82</ele>
        <time>2015-06-05T12:56:44Z</time>
      </trkpt>
      <trkpt lat="42.42946" lon="2.17033">
        <ele>2567.34</ele>
        <time>2015-06-05T12:56:48Z</time>
      </trkpt>
      <trkpt lat="42.42947" lon="2.17023">
        <ele>2565.42</ele>
        <time>2015-06-05T12:56:56Z</time>
      </trkpt>
      <trkpt lat="42.42948" lon="2.17011">
        <ele>2562.05</ele>
        <time>2015-06-05T12:57:08Z</time>
      </trkpt>
      <trkpt lat="42.42946" lon="2.17007">
        <ele>2561.09</ele>
        <time>2015-06-05T12:57:13Z</time>
      </trkpt>
      <trkpt lat="42.42946" lon="2.17002">
        <ele>2560.61</ele>
        <time>2015-06-05T12:57:17Z</time>
      </trkpt>
      <trkpt lat="42.42947" lon="2.16999">
        <ele>2559.65</ele>
        <time>2015-06-05T12:57:20Z</time>
      </trkpt>
      <trkpt lat="42.42952" lon="2.16985">
        <ele>2556.28</ele>
        <time>2015-06-05T12:57:31Z</time>
      </trkpt>
      <trkpt lat="42.42953" lon="2.16975">
        <ele>2554.84</ele>
        <time>2015-06-05T12:57:40Z</time>
      </trkpt>
      <trkpt lat="42.4296" lon="2.16956">
        <ele>2552.44</ele>
        <time>2015-06-05T12:57:58Z</time>
      </trkpt>
      <trkpt lat="42.42961" lon="2.16954">
        <ele>2552.44</ele>
        <time>2015-06-05T12:58:00Z</time>
      </trkpt>
      <trkpt lat="42.42969" lon="2.1694">
        <ele>2549.07</ele>
        <time>2015-06-05T12:58:16Z</time>
      </trkpt>
      <trkpt lat="42.42973" lon="2.16934">
        <ele>2547.63</ele>
        <time>2015-06-05T12:58:24Z</time>
      </trkpt>
      <trkpt lat="42.42983" lon="2.16925">
        <ele>2543.79</ele>
        <time>2015-06-05T12:58:37Z</time>
      </trkpt>
      <trkpt lat="42.42986" lon="2.16923">
        <ele>2542.82</ele>
        <time>2015-06-05T12:58:41Z</time>
      </trkpt>
      <trkpt lat="42.42991" lon="2.1692">
        <ele>2541.38</ele>
        <time>2015-06-05T12:58:47Z</time>
      </trkpt>
      <trkpt lat="42.42996" lon="2.16914">
        <ele>2540.42</ele>
        <time>2015-06-05T12:58:53Z</time>
      </trkpt>
      <trkpt lat="42.43009" lon="2.16898">
        <ele>2536.58</ele>
        <time>2015-06-05T12:59:09Z</time>
      </trkpt>
      <trkpt lat="42.43011" lon="2.16894">
        <ele>2535.61</ele>
        <time>2015-06-05T12:59:14Z</time>
      </trkpt>
      <trkpt lat="42.43022" lon="2.16881">
        <ele>2531.77</ele>
        <time>2015-06-05T12:59:29Z</time>
      </trkpt>
      <trkpt lat="42.43031" lon="2.16868">
        <ele>2528.89</ele>
        <time>2015-06-05T12:59:42Z</time>
      </trkpt>
      <trkpt lat="42.43033" lon="2.16864">
        <ele>2527.44</ele>
        <time>2015-06-05T12:59:46Z</time>
      </trkpt>
      <trkpt lat="42.43036" lon="2.16861">
        <ele>2526</ele>
        <time>2015-06-05T12:59:50Z</time>
      </trkpt>
      <trkpt lat="42.43047" lon="2.16847">
        <ele>2522.64</ele>
        <time>2015-06-05T13:00:04Z</time>
      </trkpt>
      <trkpt lat="42.43048" lon="2.16845">
        <ele>2521.68</ele>
        <time>2015-06-05T13:00:06Z</time>
      </trkpt>
      <trkpt lat="42.43058" lon="2.16833">
        <ele>2518.31</ele>
        <time>2015-06-05T13:00:20Z</time>
      </trkpt>
      <trkpt lat="42.4306" lon="2.1683">
        <ele>2517.35</ele>
        <time>2015-06-05T13:00:24Z</time>
      </trkpt>
      <trkpt lat="42.43067" lon="2.16824">
        <ele>2515.43</ele>
        <time>2015-06-05T13:00:35Z</time>
      </trkpt>
      <trkpt lat="42.43077" lon="2.16817">
        <ele>2513.02</ele>
        <time>2015-06-05T13:00:49Z</time>
      </trkpt>
      <trkpt lat="42.43083" lon="2.16813">
        <ele>2512.06</ele>
        <time>2015-06-05T13:00:55Z</time>
      </trkpt>
      <trkpt lat="42.43087" lon="2.16809">
        <ele>2511.58</ele>
        <time>2015-06-05T13:00:59Z</time>
      </trkpt>
      <trkpt lat="42.4309" lon="2.16807">
        <ele>2511.1</ele>
        <time>2015-06-05T13:01:02Z</time>
      </trkpt>
      <trkpt lat="42.43099" lon="2.16796">
        <ele>2509.66</ele>
        <time>2015-06-05T13:01:13Z</time>
      </trkpt>
      <trkpt lat="42.43105" lon="2.16791">
        <ele>2508.7</ele>
        <time>2015-06-05T13:01:22Z</time>
      </trkpt>
      <trkpt lat="42.43108" lon="2.16788">
        <ele>2508.22</ele>
        <time>2015-06-05T13:01:25Z</time>
      </trkpt>
      <trkpt lat="42.43121" lon="2.16787">
        <ele>2506.29</ele>
        <time>2015-06-05T13:01:41Z</time>
      </trkpt>
      <trkpt lat="42.43125" lon="2.16779">
        <ele>2504.85</ele>
        <time>2015-06-05T13:01:50Z</time>
      </trkpt>
      <trkpt lat="42.43133" lon="2.16767">
        <ele>2502.45</ele>
        <time>2015-06-05T13:02:04Z</time>
      </trkpt>
      <trkpt lat="42.43138" lon="2.16754">
        <ele>2499.57</ele>
        <time>2015-06-05T13:02:17Z</time>
      </trkpt>
      <trkpt lat="42.43142" lon="2.16749">
        <ele>2498.12</ele>
        <time>2015-06-05T13:02:24Z</time>
      </trkpt>
      <trkpt lat="42.43143" lon="2.16746">
        <ele>2497.16</ele>
        <time>2015-06-05T13:02:27Z</time>
      </trkpt>
      <trkpt lat="42.43151" lon="2.16728">
        <ele>2494.28</ele>
        <time>2015-06-05T13:02:41Z</time>
      </trkpt>
      <trkpt lat="42.43154" lon="2.16722">
        <ele>2493.32</ele>
        <time>2015-06-05T13:02:46Z</time>
      </trkpt>
      <trkpt lat="42.43161" lon="2.16713">
        <ele>2492.84</ele>
        <time>2015-06-05T13:02:54Z</time>
      </trkpt>
      <trkpt lat="42.43164" lon="2.16702">
        <ele>2491.87</ele>
        <time>2015-06-05T13:03:02Z</time>
      </trkpt>
      <trkpt lat="42.43169" lon="2.16688">
        <ele>2490.91</ele>
        <time>2015-06-05T13:03:12Z</time>
      </trkpt>
      <trkpt lat="42.43174" lon="2.16683">
        <ele>2488.99</ele>
        <time>2015-06-05T13:03:20Z</time>
      </trkpt>
      <trkpt lat="42.43176" lon="2.16679">
        <ele>2488.03</ele>
        <time>2015-06-05T13:03:24Z</time>
      </trkpt>
      <trkpt lat="42.43188" lon="2.16673">
        <ele>2484.66</ele>
        <time>2015-06-05T13:03:36Z</time>
      </trkpt>
      <trkpt lat="42.43198" lon="2.16665">
        <ele>2482.26</ele>
        <time>2015-06-05T13:03:51Z</time>
      </trkpt>
      <trkpt lat="42.43203" lon="2.16665">
        <ele>2481.3</ele>
        <time>2015-06-05T13:03:57Z</time>
      </trkpt>
      <trkpt lat="42.43207" lon="2.16662">
        <ele>2480.34</ele>
        <time>2015-06-05T13:04:00Z</time>
      </trkpt>
      <trkpt lat="42.4322" lon="2.16653">
        <ele>2477.94</ele>
        <time>2015-06-05T13:04:14Z</time>
      </trkpt>
      <trkpt lat="42.43222" lon="2.16648">
        <ele>2477.45</ele>
        <time>2015-06-05T13:04:19Z</time>
      </trkpt>
      <trkpt lat="42.43233" lon="2.16637">
        <ele>2473.61</ele>
        <time>2015-06-05T13:04:34Z</time>
      </trkpt>
      <trkpt lat="42.43237" lon="2.16628">
        <ele>2471.21</ele>
        <time>2015-06-05T13:04:46Z</time>
      </trkpt>
      <trkpt lat="42.43239" lon="2.16616">
        <ele>2468.8</ele>
        <time>2015-06-05T13:05:01Z</time>
      </trkpt>
      <trkpt lat="42.43243" lon="2.16607">
        <ele>2465.92</ele>
        <time>2015-06-05T13:05:13Z</time>
      </trkpt>
      <trkpt lat="42.43245" lon="2.16595">
        <ele>2463.52</ele>
        <time>2015-06-05T13:05:27Z</time>
      </trkpt>
      <trkpt lat="42.43244" lon="2.16585">
        <ele>2460.63</ele>
        <time>2015-06-05T13:05:36Z</time>
      </trkpt>
      <trkpt lat="42.43239" lon="2.16572">
        <ele>2458.23</ele>
        <time>2015-06-05T13:05:51Z</time>
      </trkpt>
      <trkpt lat="42.43242" lon="2.16564">
        <ele>2454.86</ele>
        <time>2015-06-05T13:06:02Z</time>
      </trkpt>
      <trkpt lat="42.43246" lon="2.16558">
        <ele>2451.5</ele>
        <time>2015-06-05T13:06:15Z</time>
      </trkpt>
      <trkpt lat="42.4325" lon="2.1655">
        <ele>2449.1</ele>
        <time>2015-06-05T13:06:28Z</time>
      </trkpt>
      <trkpt lat="42.43253" lon="2.16538">
        <ele>2446.21</ele>
        <time>2015-06-05T13:06:42Z</time>
      </trkpt>
      <trkpt lat="42.43258" lon="2.16532">
        <ele>2444.29</ele>
        <time>2015-06-05T13:06:54Z</time>
      </trkpt>
      <trkpt lat="42.43258" lon="2.16531">
        <ele>2444.29</ele>
        <time>2015-06-05T13:06:55Z</time>
      </trkpt>
      <trkpt lat="42.43267" lon="2.16534">
        <ele>2440.92</ele>
        <time>2015-06-05T13:07:09Z</time>
      </trkpt>
      <trkpt lat="42.43273" lon="2.16531">
        <ele>2438.52</ele>
        <time>2015-06-05T13:07:24Z</time>
      </trkpt>
      <trkpt lat="42.43282" lon="2.16526">
        <ele>2435.16</ele>
        <time>2015-06-05T13:07:39Z</time>
      </trkpt>
      <trkpt lat="42.43293" lon="2.16527">
        <ele>2432.27</ele>
        <time>2015-06-05T13:07:52Z</time>
      </trkpt>
      <trkpt lat="42.43302" lon="2.16525">
        <ele>2428.91</ele>
        <time>2015-06-05T13:08:06Z</time>
      </trkpt>
      <trkpt lat="42.43311" lon="2.16519">
        <ele>2426.02</ele>
        <time>2015-06-05T13:08:19Z</time>
      </trkpt>
      <trkpt lat="42.43319" lon="2.16512">
        <ele>2423.62</ele>
        <time>2015-06-05T13:08:33Z</time>
      </trkpt>
      <trkpt lat="42.43326" lon="2.16509">
        <ele>2421.22</ele>
        <time>2015-06-05T13:08:46Z</time>
      </trkpt>
      <trkpt lat="42.43335" lon="2.16503">
        <ele>2418.33</ele>
        <time>2015-06-05T13:08:55Z</time>
      </trkpt>
      <trkpt lat="42.43345" lon="2.16501">
        <ele>2415.93</ele>
        <time>2015-06-05T13:09:06Z</time>
      </trkpt>
      <trkpt lat="42.43349" lon="2.16497">
        <ele>2414.97</ele>
        <time>2015-06-05T13:09:10Z</time>
      </trkpt>
      <trkpt lat="42.43352" lon="2.16493">
        <ele>2414.01</ele>
        <time>2015-06-05T13:09:15Z</time>
      </trkpt>
      <trkpt lat="42.43357" lon="2.1648">
        <ele>2410.64</ele>
        <time>2015-06-05T13:09:29Z</time>
      </trkpt>
      <trkpt lat="42.43365" lon="2.1647">
        <ele>2407.28</ele>
        <time>2015-06-05T13:09:41Z</time>
      </trkpt>
      <trkpt lat="42.43367" lon="2.16468">
        <ele>2406.8</ele>
        <time>2015-06-05T13:09:44Z</time>
      </trkpt>
      <trkpt lat="42.43378" lon="2.16472">
        <ele>2405.84</ele>
        <time>2015-06-05T13:09:58Z</time>
      </trkpt>
      <trkpt lat="42.4338" lon="2.16468">
        <ele>2403.91</ele>
        <time>2015-06-05T13:10:06Z</time>
      </trkpt>
      <trkpt lat="42.43385" lon="2.16458">
        <ele>2401.99</ele>
        <time>2015-06-05T13:10:15Z</time>
      </trkpt>
      <trkpt lat="42.4339" lon="2.16446">
        <ele>2399.11</ele>
        <time>2015-06-05T13:10:25Z</time>
      </trkpt>
      <trkpt lat="42.43394" lon="2.16441">
        <ele>2398.63</ele>
        <time>2015-06-05T13:10:31Z</time>
      </trkpt>
      <trkpt lat="42.434" lon="2.16422">
        <ele>2395.26</ele>
        <time>2015-06-05T13:10:47Z</time>
      </trkpt>
      <trkpt lat="42.43403" lon="2.16417">
        <ele>2394.78</ele>
        <time>2015-06-05T13:10:51Z</time>
      </trkpt>
      <trkpt lat="42.43406" lon="2.16402">
        <ele>2391.9</ele>
        <time>2015-06-05T13:11:03Z</time>
      </trkpt>
      <trkpt lat="42.43406" lon="2.16399">
        <ele>2391.42</ele>
        <time>2015-06-05T13:11:06Z</time>
      </trkpt>
      <trkpt lat="42.43412" lon="2.16386">
        <ele>2389.97</ele>
        <time>2015-06-05T13:11:19Z</time>
      </trkpt>
      <trkpt lat="42.43416" lon="2.16377">
        <ele>2386.61</ele>
        <time>2015-06-05T13:11:32Z</time>
      </trkpt>
      <trkpt lat="42.43412" lon="2.16372">
        <ele>2384.21</ele>
        <time>2015-06-05T13:11:44Z</time>
      </trkpt>
      <trkpt lat="42.43404" lon="2.16369">
        <ele>2380.36</ele>
        <time>2015-06-05T13:11:58Z</time>
      </trkpt>
      <trkpt lat="42.43396" lon="2.16368">
        <ele>2377.48</ele>
        <time>2015-06-05T13:12:14Z</time>
      </trkpt>
      <trkpt lat="42.43393" lon="2.1636">
        <ele>2375.07</ele>
        <time>2015-06-05T13:12:27Z</time>
      </trkpt>
      <trkpt lat="42.43395" lon="2.16356">
        <ele>2372.67</ele>
        <time>2015-06-05T13:12:39Z</time>
      </trkpt>
      <trkpt lat="42.43395" lon="2.16351">
        <ele>2369.79</ele>
        <time>2015-06-05T13:12:56Z</time>
      </trkpt>
      <trkpt lat="42.43385" lon="2.16349">
        <ele>2366.42</ele>
        <time>2015-06-05T13:13:11Z</time>
      </trkpt>
      <trkpt lat="42.4339" lon="2.16342">
        <ele>2364.98</ele>
        <time>2015-06-05T13:13:30Z</time>
      </trkpt>
      <trkpt lat="42.43398" lon="2.1634">
        <ele>2364.02</ele>
        <time>2015-06-05T13:13:44Z</time>
      </trkpt>
      <trkpt lat="42.43401" lon="2.16331">
        <ele>2361.62</ele>
        <time>2015-06-05T13:13:52Z</time>
      </trkpt>
      <trkpt lat="42.43406" lon="2.16326">
        <ele>2360.65</ele>
        <time>2015-06-05T13:13:57Z</time>
      </trkpt>
      <trkpt lat="42.43401" lon="2.16315">
        <ele>2358.73</ele>
        <time>2015-06-05T13:14:05Z</time>
      </trkpt>
      <trkpt lat="42.43403" lon="2.16309">
        <ele>2357.77</ele>
        <time>2015-06-05T13:14:09Z</time>
      </trkpt>
      <trkpt lat="42.43406" lon="2.16305">
        <ele>2355.85</ele>
        <time>2015-06-05T13:14:15Z</time>
      </trkpt>
      <trkpt lat="42.43412" lon="2.16291">
        <ele>2353.93</ele>
        <time>2015-06-05T13:14:27Z</time>
      </trkpt>
      <trkpt lat="42.43415" lon="2.16276">
        <ele>2351.04</ele>
        <time>2015-06-05T13:14:40Z</time>
      </trkpt>
      <trkpt lat="42.43414" lon="2.16263">
        <ele>2348.16</ele>
        <time>2015-06-05T13:14:52Z</time>
      </trkpt>
      <trkpt lat="42.43414" lon="2.16262">
        <ele>2347.68</ele>
        <time>2015-06-05T13:14:53Z</time>
      </trkpt>
      <trkpt lat="42.43414" lon="2.16259">
        <ele>2347.2</ele>
        <time>2015-06-05T13:14:55Z</time>
      </trkpt>
      <trkpt lat="42.43424" lon="2.16239">
        <ele>2346.23</ele>
        <time>2015-06-05T13:15:12Z</time>
      </trkpt>
      <trkpt lat="42.43425" lon="2.16236">
        <ele>2346.23</ele>
        <time>2015-06-05T13:15:15Z</time>
      </trkpt>
      <trkpt lat="42.43427" lon="2.16233">
        <ele>2345.27</ele>
        <time>2015-06-05T13:15:18Z</time>
      </trkpt>
      <trkpt lat="42.43424" lon="2.1622">
        <ele>2343.35</ele>
        <time>2015-06-05T13:15:30Z</time>
      </trkpt>
      <trkpt lat="42.43424" lon="2.16204">
        <ele>2342.87</ele>
        <time>2015-06-05T13:15:43Z</time>
      </trkpt>
      <trkpt lat="42.43424" lon="2.16198">
        <ele>2340.95</ele>
        <time>2015-06-05T13:15:56Z</time>
      </trkpt>
      <trkpt lat="42.43429" lon="2.16187">
        <ele>2339.02</ele>
        <time>2015-06-05T13:16:11Z</time>
      </trkpt>
      <trkpt lat="42.4343" lon="2.16181">
        <ele>2338.54</ele>
        <time>2015-06-05T13:16:22Z</time>
      </trkpt>
      <trkpt lat="42.4343" lon="2.16179">
        <ele>2338.54</ele>
        <time>2015-06-05T13:16:24Z</time>
      </trkpt>
      <trkpt lat="42.43428" lon="2.16177">
        <ele>2338.54</ele>
        <time>2015-06-05T13:16:26Z</time>
      </trkpt>
      <trkpt lat="42.43427" lon="2.16162">
        <ele>2338.54</ele>
        <time>2015-06-05T13:16:39Z</time>
      </trkpt>
      <trkpt lat="42.43429" lon="2.16148">
        <ele>2339.99</ele>
        <time>2015-06-05T13:16:51Z</time>
      </trkpt>
      <trkpt lat="42.43432" lon="2.16138">
        <ele>2340.47</ele>
        <time>2015-06-05T13:17:00Z</time>
      </trkpt>
      <trkpt lat="42.43434" lon="2.16127">
        <ele>2340.47</ele>
        <time>2015-06-05T13:17:09Z</time>
      </trkpt>
      <trkpt lat="42.43435" lon="2.1611">
        <ele>2339.02</ele>
        <time>2015-06-05T13:17:23Z</time>
      </trkpt>
      <trkpt lat="42.43435" lon="2.16103">
        <ele>2338.54</ele>
        <time>2015-06-05T13:17:28Z</time>
      </trkpt>
      <trkpt lat="42.43439" lon="2.16096">
        <ele>2338.06</ele>
        <time>2015-06-05T13:17:35Z</time>
      </trkpt>
      <trkpt lat="42.43443" lon="2.16086">
        <ele>2336.14</ele>
        <time>2015-06-05T13:17:44Z</time>
      </trkpt>
      <trkpt lat="42.43451" lon="2.16076">
        <ele>2332.78</ele>
        <time>2015-06-05T13:17:58Z</time>
      </trkpt>
      <trkpt lat="42.43461" lon="2.16073">
        <ele>2331.33</ele>
        <time>2015-06-05T13:18:11Z</time>
      </trkpt>
      <trkpt lat="42.43462" lon="2.1607">
        <ele>2330.37</ele>
        <time>2015-06-05T13:18:15Z</time>
      </trkpt>
      <trkpt lat="42.43464" lon="2.16061">
        <ele>2327.97</ele>
        <time>2015-06-05T13:18:28Z</time>
      </trkpt>
      <trkpt lat="42.4347" lon="2.16055">
        <ele>2325.57</ele>
        <time>2015-06-05T13:18:42Z</time>
      </trkpt>
      <trkpt lat="42.4347" lon="2.16052">
        <ele>2324.61</ele>
        <time>2015-06-05T13:18:56Z</time>
      </trkpt>
      <trkpt lat="42.43471" lon="2.16052">
        <ele>2324.12</ele>
        <time>2015-06-05T13:19:15Z</time>
      </trkpt>
      <trkpt lat="42.43472" lon="2.16054">
        <ele>2324.12</ele>
        <time>2015-06-05T13:19:38Z</time>
      </trkpt>
      <trkpt lat="42.43472" lon="2.16054">
        <ele>2324.12</ele>
        <time>2015-06-05T13:19:58Z</time>
      </trkpt>
      <trkpt lat="42.43472" lon="2.16054">
        <ele>2324.12</ele>
        <time>2015-06-05T13:20:24Z</time>
      </trkpt>
      <trkpt lat="42.43472" lon="2.16053">
        <ele>2323.64</ele>
        <time>2015-06-05T13:20:40Z</time>
      </trkpt>
      <trkpt lat="42.43474" lon="2.16048">
        <ele>2322.2</ele>
        <time>2015-06-05T13:20:56Z</time>
      </trkpt>
      <trkpt lat="42.4348" lon="2.16042">
        <ele>2319.32</ele>
        <time>2015-06-05T13:21:06Z</time>
      </trkpt>
      <trkpt lat="42.43485" lon="2.16041">
        <ele>2317.88</ele>
        <time>2015-06-05T13:21:11Z</time>
      </trkpt>
      <trkpt lat="42.43487" lon="2.16041">
        <ele>2317.4</ele>
        <time>2015-06-05T13:21:13Z</time>
      </trkpt>
      <trkpt lat="42.43489" lon="2.1604">
        <ele>2316.91</ele>
        <time>2015-06-05T13:21:15Z</time>
      </trkpt>
      <trkpt lat="42.43492" lon="2.16039">
        <ele>2316.43</ele>
        <time>2015-06-05T13:21:18Z</time>
      </trkpt>
      <trkpt lat="42.43494" lon="2.16039">
        <ele>2315.47</ele>
        <time>2015-06-05T13:21:20Z</time>
      </trkpt>
      <trkpt lat="42.43512" lon="2.16046">
        <ele>2314.51</ele>
        <time>2015-06-05T13:21:37Z</time>
      </trkpt>
      <trkpt lat="42.43519" lon="2.16046">
        <ele>2312.11</ele>
        <time>2015-06-05T13:21:49Z</time>
      </trkpt>
      <trkpt lat="42.43523" lon="2.16037">
        <ele>2310.19</ele>
        <time>2015-06-05T13:22:00Z</time>
      </trkpt>
      <trkpt lat="42.43531" lon="2.16039">
        <ele>2308.26</ele>
        <time>2015-06-05T13:22:11Z</time>
      </trkpt>
      <trkpt lat="42.4354" lon="2.16042">
        <ele>2305.86</ele>
        <time>2015-06-05T13:22:21Z</time>
      </trkpt>
      <trkpt lat="42.43543" lon="2.16052">
        <ele>2304.42</ele>
        <time>2015-06-05T13:22:33Z</time>
      </trkpt>
      <trkpt lat="42.43547" lon="2.16058">
        <ele>2302.49</ele>
        <time>2015-06-05T13:22:44Z</time>
      </trkpt>
      <trkpt lat="42.43548" lon="2.16068">
        <ele>2300.57</ele>
        <time>2015-06-05T13:22:50Z</time>
      </trkpt>
      <trkpt lat="42.43555" lon="2.16083">
        <ele>2298.65</ele>
        <time>2015-06-05T13:23:04Z</time>
      </trkpt>
      <trkpt lat="42.43556" lon="2.1609">
        <ele>2297.21</ele>
        <time>2015-06-05T13:23:09Z</time>
      </trkpt>
      <trkpt lat="42.43554" lon="2.16104">
        <ele>2295.77</ele>
        <time>2015-06-05T13:23:23Z</time>
      </trkpt>
      <trkpt lat="42.43559" lon="2.16103">
        <ele>2292.88</ele>
        <time>2015-06-05T13:23:38Z</time>
      </trkpt>
      <trkpt lat="42.43565" lon="2.16102">
        <ele>2290.96</ele>
        <time>2015-06-05T13:23:51Z</time>
      </trkpt>
      <trkpt lat="42.4357" lon="2.16104">
        <ele>2289.04</ele>
        <time>2015-06-05T13:24:00Z</time>
      </trkpt>
      <trkpt lat="42.43575" lon="2.16107">
        <ele>2286.15</ele>
        <time>2015-06-05T13:24:14Z</time>
      </trkpt>
      <trkpt lat="42.43582" lon="2.16099">
        <ele>2283.75</ele>
        <time>2015-06-05T13:24:27Z</time>
      </trkpt>
      <trkpt lat="42.43592" lon="2.16091">
        <ele>2281.83</ele>
        <time>2015-06-05T13:24:41Z</time>
      </trkpt>
      <trkpt lat="42.43594" lon="2.16085">
        <ele>2280.87</ele>
        <time>2015-06-05T13:24:48Z</time>
      </trkpt>
      <trkpt lat="42.43594" lon="2.16079">
        <ele>2280.38</ele>
        <time>2015-06-05T13:24:54Z</time>
      </trkpt>
      <trkpt lat="42.43604" lon="2.16071">
        <ele>2277.02</ele>
        <time>2015-06-05T13:25:08Z</time>
      </trkpt>
      <trkpt lat="42.43611" lon="2.16061">
        <ele>2275.1</ele>
        <time>2015-06-05T13:25:21Z</time>
      </trkpt>
      <trkpt lat="42.43613" lon="2.16055">
        <ele>2273.66</ele>
        <time>2015-06-05T13:25:29Z</time>
      </trkpt>
      <trkpt lat="42.43615" lon="2.16049">
        <ele>2271.25</ele>
        <time>2015-06-05T13:25:42Z</time>
      </trkpt>
      <trkpt lat="42.43618" lon="2.16044">
        <ele>2269.81</ele>
        <time>2015-06-05T13:25:53Z</time>
      </trkpt>
      <trkpt lat="42.43623" lon="2.16039">
        <ele>2266.93</ele>
        <time>2015-06-05T13:26:07Z</time>
      </trkpt>
      <trkpt lat="42.43627" lon="2.16033">
        <ele>2265.48</ele>
        <time>2015-06-05T13:26:20Z</time>
      </trkpt>
      <trkpt lat="42.43633" lon="2.16027">
        <ele>2262.6</ele>
        <time>2015-06-05T13:26:37Z</time>
      </trkpt>
      <trkpt lat="42.43635" lon="2.16019">
        <ele>2260.68</ele>
        <time>2015-06-05T13:26:53Z</time>
      </trkpt>
      <trkpt lat="42.43638" lon="2.16008">
        <ele>2258.75</ele>
        <time>2015-06-05T13:27:06Z</time>
      </trkpt>
      <trkpt lat="42.43639" lon="2.16006">
        <ele>2258.27</ele>
        <time>2015-06-05T13:27:08Z</time>
      </trkpt>
      <trkpt lat="42.4364" lon="2.16001">
        <ele>2258.27</ele>
        <time>2015-06-05T13:27:12Z</time>
      </trkpt>
      <trkpt lat="42.43651" lon="2.15989">
        <ele>2256.83</ele>
        <time>2015-06-05T13:27:29Z</time>
      </trkpt>
      <trkpt lat="42.43654" lon="2.15981">
        <ele>2255.87</ele>
        <time>2015-06-05T13:27:45Z</time>
      </trkpt>
      <trkpt lat="42.43661" lon="2.1598">
        <ele>2255.87</ele>
        <time>2015-06-05T13:27:55Z</time>
      </trkpt>
      <trkpt lat="42.43681" lon="2.15983">
        <ele>2254.91</ele>
        <time>2015-06-05T13:28:14Z</time>
      </trkpt>
      <trkpt lat="42.43696" lon="2.15987">
        <ele>2252.51</ele>
        <time>2015-06-05T13:28:29Z</time>
      </trkpt>
      <trkpt lat="42.43701" lon="2.15988">
        <ele>2252.03</ele>
        <time>2015-06-05T13:28:34Z</time>
      </trkpt>
      <trkpt lat="42.43703" lon="2.15989">
        <ele>2252.03</ele>
        <time>2015-06-05T13:28:36Z</time>
      </trkpt>
      <trkpt lat="42.43708" lon="2.1599">
        <ele>2251.06</ele>
        <time>2015-06-05T13:28:41Z</time>
      </trkpt>
      <trkpt lat="42.43713" lon="2.15987">
        <ele>2251.06</ele>
        <time>2015-06-05T13:28:47Z</time>
      </trkpt>
      <trkpt lat="42.43716" lon="2.15982">
        <ele>2251.06</ele>
        <time>2015-06-05T13:28:53Z</time>
      </trkpt>
      <trkpt lat="42.43722" lon="2.15984">
        <ele>2251.06</ele>
        <time>2015-06-05T13:29:00Z</time>
      </trkpt>
      <trkpt lat="42.43725" lon="2.15984">
        <ele>2251.06</ele>
        <time>2015-06-05T13:29:03Z</time>
      </trkpt>
      <trkpt lat="42.43738" lon="2.1599">
        <ele>2250.1</ele>
        <time>2015-06-05T13:29:19Z</time>
      </trkpt>
      <trkpt lat="42.43748" lon="2.15998">
        <ele>2249.14</ele>
        <time>2015-06-05T13:29:34Z</time>
      </trkpt>
      <trkpt lat="42.43756" lon="2.16007">
        <ele>2246.74</ele>
        <time>2015-06-05T13:29:48Z</time>
      </trkpt>
      <trkpt lat="42.43763" lon="2.16009">
        <ele>2244.82</ele>
        <time>2015-06-05T13:29:58Z</time>
      </trkpt>
      <trkpt lat="42.43777" lon="2.16006">
        <ele>2242.41</ele>
        <time>2015-06-05T13:30:15Z</time>
      </trkpt>
      <trkpt lat="42.4378" lon="2.16007">
        <ele>2241.45</ele>
        <time>2015-06-05T13:30:19Z</time>
      </trkpt>
      <trkpt lat="42.43792" lon="2.16014">
        <ele>2239.53</ele>
        <time>2015-06-05T13:30:33Z</time>
      </trkpt>
      <trkpt lat="42.43801" lon="2.16024">
        <ele>2239.05</ele>
        <time>2015-06-05T13:30:45Z</time>
      </trkpt>
      <trkpt lat="42.43804" lon="2.16028">
        <ele>2237.61</ele>
        <time>2015-06-05T13:30:49Z</time>
      </trkpt>
      <trkpt lat="42.43808" lon="2.16036">
        <ele>2236.64</ele>
        <time>2015-06-05T13:30:56Z</time>
      </trkpt>
      <trkpt lat="42.43815" lon="2.16054">
        <ele>2236.16</ele>
        <time>2015-06-05T13:31:10Z</time>
      </trkpt>
      <trkpt lat="42.43824" lon="2.16063">
        <ele>2234.24</ele>
        <time>2015-06-05T13:31:24Z</time>
      </trkpt>
      <trkpt lat="42.43831" lon="2.1607">
        <ele>2232.8</ele>
        <time>2015-06-05T13:31:35Z</time>
      </trkpt>
      <trkpt lat="42.43837" lon="2.16073">
        <ele>2231.36</ele>
        <time>2015-06-05T13:31:43Z</time>
      </trkpt>
      <trkpt lat="42.43853" lon="2.16081">
        <ele>2227.99</ele>
        <time>2015-06-05T13:32:00Z</time>
      </trkpt>
      <trkpt lat="42.43854" lon="2.16082">
        <ele>2227.99</ele>
        <time>2015-06-05T13:32:01Z</time>
      </trkpt>
      <trkpt lat="42.43864" lon="2.16083">
        <ele>2227.03</ele>
        <time>2015-06-05T13:32:12Z</time>
      </trkpt>
      <trkpt lat="42.43872" lon="2.16085">
        <ele>2225.59</ele>
        <time>2015-06-05T13:32:20Z</time>
      </trkpt>
      <trkpt lat="42.43877" lon="2.16088">
        <ele>2225.11</ele>
        <time>2015-06-05T13:32:27Z</time>
      </trkpt>
      <trkpt lat="42.43881" lon="2.16088">
        <ele>2224.63</ele>
        <time>2015-06-05T13:32:31Z</time>
      </trkpt>
      <trkpt lat="42.43886" lon="2.16095">
        <ele>2223.67</ele>
        <time>2015-06-05T13:32:38Z</time>
      </trkpt>
      <trkpt lat="42.43897" lon="2.16102">
        <ele>2221.74</ele>
        <time>2015-06-05T13:32:51Z</time>
      </trkpt>
      <trkpt lat="42.43898" lon="2.16103">
        <ele>2221.74</ele>
        <time>2015-06-05T13:32:52Z</time>
      </trkpt>
      <trkpt lat="42.43906" lon="2.16114">
        <ele>2218.38</ele>
        <time>2015-06-05T13:33:08Z</time>
      </trkpt>
      <trkpt lat="42.43911" lon="2.16115">
        <ele>2216.94</ele>
        <time>2015-06-05T13:33:16Z</time>
      </trkpt>
      <trkpt lat="42.4392" lon="2.16124">
        <ele>2213.57</ele>
        <time>2015-06-05T13:33:31Z</time>
      </trkpt>
      <trkpt lat="42.43929" lon="2.16112">
        <ele>2212.13</ele>
        <time>2015-06-05T13:33:46Z</time>
      </trkpt>
      <trkpt lat="42.4394" lon="2.16109">
        <ele>2211.65</ele>
        <time>2015-06-05T13:34:00Z</time>
      </trkpt>
      <trkpt lat="42.43949" lon="2.16106">
        <ele>2210.69</ele>
        <time>2015-06-05T13:34:15Z</time>
      </trkpt>
      <trkpt lat="42.43961" lon="2.16102">
        <ele>2208.77</ele>
        <time>2015-06-05T13:34:30Z</time>
      </trkpt>
      <trkpt lat="42.43968" lon="2.161">
        <ele>2206.84</ele>
        <time>2015-06-05T13:34:41Z</time>
      </trkpt>
      <trkpt lat="42.43971" lon="2.16101">
        <ele>2206.36</ele>
        <time>2015-06-05T13:34:43Z</time>
      </trkpt>
      <trkpt lat="42.43981" lon="2.16097">
        <ele>2203.96</ele>
        <time>2015-06-05T13:34:57Z</time>
      </trkpt>
      <trkpt lat="42.43991" lon="2.16094">
        <ele>2201.56</ele>
        <time>2015-06-05T13:35:13Z</time>
      </trkpt>
      <trkpt lat="42.43997" lon="2.16094">
        <ele>2200.11</ele>
        <time>2015-06-05T13:35:18Z</time>
      </trkpt>
      <trkpt lat="42.44004" lon="2.16106">
        <ele>2197.71</ele>
        <time>2015-06-05T13:35:28Z</time>
      </trkpt>
      <trkpt lat="42.44005" lon="2.16109">
        <ele>2196.75</ele>
        <time>2015-06-05T13:35:30Z</time>
      </trkpt>
      <trkpt lat="42.44011" lon="2.16117">
        <ele>2195.79</ele>
        <time>2015-06-05T13:35:40Z</time>
      </trkpt>
      <trkpt lat="42.44022" lon="2.16135">
        <ele>2194.35</ele>
        <time>2015-06-05T13:35:56Z</time>
      </trkpt>
      <trkpt lat="42.44025" lon="2.16141">
        <ele>2192.9</ele>
        <time>2015-06-05T13:36:03Z</time>
      </trkpt>
      <trkpt lat="42.44028" lon="2.16145">
        <ele>2192.9</ele>
        <time>2015-06-05T13:36:08Z</time>
      </trkpt>
      <trkpt lat="42.44029" lon="2.16148">
        <ele>2192.42</ele>
        <time>2015-06-05T13:36:10Z</time>
      </trkpt>
      <trkpt lat="42.44038" lon="2.16153">
        <ele>2191.46</ele>
        <time>2015-06-05T13:36:18Z</time>
      </trkpt>
      <trkpt lat="42.44047" lon="2.16167">
        <ele>2189.06</ele>
        <time>2015-06-05T13:36:31Z</time>
      </trkpt>
      <trkpt lat="42.44057" lon="2.16188">
        <ele>2185.69</ele>
        <time>2015-06-05T13:36:49Z</time>
      </trkpt>
      <trkpt lat="42.44062" lon="2.16205">
        <ele>2183.77</ele>
        <time>2015-06-05T13:37:04Z</time>
      </trkpt>
      <trkpt lat="42.44068" lon="2.16213">
        <ele>2181.85</ele>
        <time>2015-06-05T13:37:14Z</time>
      </trkpt>
      <trkpt lat="42.44071" lon="2.1622">
        <ele>2179.93</ele>
        <time>2015-06-05T13:37:20Z</time>
      </trkpt>
      <trkpt lat="42.44071" lon="2.16221">
        <ele>2179.93</ele>
        <time>2015-06-05T13:37:21Z</time>
      </trkpt>
      <trkpt lat="42.44079" lon="2.16233">
        <ele>2179.45</ele>
        <time>2015-06-05T13:37:32Z</time>
      </trkpt>
      <trkpt lat="42.44087" lon="2.16239">
        <ele>2176.08</ele>
        <time>2015-06-05T13:37:44Z</time>
      </trkpt>
      <trkpt lat="42.44088" lon="2.1624">
        <ele>2175.6</ele>
        <time>2015-06-05T13:37:46Z</time>
      </trkpt>
      <trkpt lat="42.44096" lon="2.16248">
        <ele>2173.68</ele>
        <time>2015-06-05T13:37:57Z</time>
      </trkpt>
      <trkpt lat="42.44101" lon="2.16253">
        <ele>2171.76</ele>
        <time>2015-06-05T13:38:03Z</time>
      </trkpt>
      <trkpt lat="42.44109" lon="2.16259">
        <ele>2170.79</ele>
        <time>2015-06-05T13:38:15Z</time>
      </trkpt>
      <trkpt lat="42.44117" lon="2.1627">
        <ele>2166.95</ele>
        <time>2015-06-05T13:38:29Z</time>
      </trkpt>
      <trkpt lat="42.44123" lon="2.16279">
        <ele>2165.51</ele>
        <time>2015-06-05T13:38:42Z</time>
      </trkpt>
      <trkpt lat="42.4413" lon="2.16286">
        <ele>2162.14</ele>
        <time>2015-06-05T13:38:54Z</time>
      </trkpt>
      <trkpt lat="42.44137" lon="2.16301">
        <ele>2159.74</ele>
        <time>2015-06-05T13:39:08Z</time>
      </trkpt>
      <trkpt lat="42.44141" lon="2.16302">
        <ele>2159.74</ele>
        <time>2015-06-05T13:39:12Z</time>
      </trkpt>
      <trkpt lat="42.44146" lon="2.16303">
        <ele>2159.26</ele>
        <time>2015-06-05T13:39:18Z</time>
      </trkpt>
      <trkpt lat="42.44149" lon="2.16305">
        <ele>2158.78</ele>
        <time>2015-06-05T13:39:21Z</time>
      </trkpt>
      <trkpt lat="42.44151" lon="2.16307">
        <ele>2158.78</ele>
        <time>2015-06-05T13:39:24Z</time>
      </trkpt>
      <trkpt lat="42.44162" lon="2.1632">
        <ele>2157.34</ele>
        <time>2015-06-05T13:39:38Z</time>
      </trkpt>
      <trkpt lat="42.44164" lon="2.1632">
        <ele>2156.86</ele>
        <time>2015-06-05T13:39:40Z</time>
      </trkpt>
      <trkpt lat="42.44168" lon="2.16323">
        <ele>2155.89</ele>
        <time>2015-06-05T13:39:46Z</time>
      </trkpt>
      <trkpt lat="42.44171" lon="2.16332">
        <ele>2153.97</ele>
        <time>2015-06-05T13:39:53Z</time>
      </trkpt>
      <trkpt lat="42.44172" lon="2.16333">
        <ele>2153.97</ele>
        <time>2015-06-05T13:39:55Z</time>
      </trkpt>
      <trkpt lat="42.44177" lon="2.16338">
        <ele>2153.01</ele>
        <time>2015-06-05T13:40:00Z</time>
      </trkpt>
      <trkpt lat="42.44179" lon="2.1634">
        <ele>2152.53</ele>
        <time>2015-06-05T13:40:03Z</time>
      </trkpt>
      <trkpt lat="42.4418" lon="2.16343">
        <ele>2152.05</ele>
        <time>2015-06-05T13:40:05Z</time>
      </trkpt>
      <trkpt lat="42.44185" lon="2.16346">
        <ele>2151.09</ele>
        <time>2015-06-05T13:40:12Z</time>
      </trkpt>
      <trkpt lat="42.44188" lon="2.16363">
        <ele>2148.68</ele>
        <time>2015-06-05T13:40:25Z</time>
      </trkpt>
      <trkpt lat="42.44194" lon="2.16377">
        <ele>2145.8</ele>
        <time>2015-06-05T13:40:41Z</time>
      </trkpt>
      <trkpt lat="42.44201" lon="2.16392">
        <ele>2143.4</ele>
        <time>2015-06-05T13:40:55Z</time>
      </trkpt>
      <trkpt lat="42.44213" lon="2.16405">
        <ele>2141.47</ele>
        <time>2015-06-05T13:41:12Z</time>
      </trkpt>
      <trkpt lat="42.44225" lon="2.16412">
        <ele>2139.07</ele>
        <time>2015-06-05T13:41:26Z</time>
      </trkpt>
      <trkpt lat="42.44233" lon="2.16415">
        <ele>2137.15</ele>
        <time>2015-06-05T13:41:40Z</time>
      </trkpt>
      <trkpt lat="42.44241" lon="2.1642">
        <ele>2133.3</ele>
        <time>2015-06-05T13:41:54Z</time>
      </trkpt>
      <trkpt lat="42.44246" lon="2.16422">
        <ele>2131.86</ele>
        <time>2015-06-05T13:42:09Z</time>
      </trkpt>
      <trkpt lat="42.44248" lon="2.16423">
        <ele>2130.9</ele>
        <time>2015-06-05T13:42:13Z</time>
      </trkpt>
      <trkpt lat="42.44261" lon="2.16428">
        <ele>2128.98</ele>
        <time>2015-06-05T13:42:27Z</time>
      </trkpt>
      <trkpt lat="42.4427" lon="2.16435">
        <ele>2126.09</ele>
        <time>2015-06-05T13:42:44Z</time>
      </trkpt>
      <trkpt lat="42.44276" lon="2.16443">
        <ele>2123.69</ele>
        <time>2015-06-05T13:42:59Z</time>
      </trkpt>
      <trkpt lat="42.44288" lon="2.16443">
        <ele>2121.29</ele>
        <time>2015-06-05T13:43:11Z</time>
      </trkpt>
      <trkpt lat="42.44298" lon="2.16449">
        <ele>2119.36</ele>
        <time>2015-06-05T13:43:27Z</time>
      </trkpt>
      <trkpt lat="42.44305" lon="2.16455">
        <ele>2117.44</ele>
        <time>2015-06-05T13:43:36Z</time>
      </trkpt>
      <trkpt lat="42.44311" lon="2.16465">
        <ele>2115.52</ele>
        <time>2015-06-05T13:43:46Z</time>
      </trkpt>
      <trkpt lat="42.44316" lon="2.1648">
        <ele>2113.6</ele>
        <time>2015-06-05T13:43:58Z</time>
      </trkpt>
      <trkpt lat="42.44321" lon="2.16494">
        <ele>2112.15</ele>
        <time>2015-06-05T13:44:10Z</time>
      </trkpt>
      <trkpt lat="42.44331" lon="2.16504">
        <ele>2110.23</ele>
        <time>2015-06-05T13:44:20Z</time>
      </trkpt>
      <trkpt lat="42.44335" lon="2.16507">
        <ele>2109.75</ele>
        <time>2015-06-05T13:44:25Z</time>
      </trkpt>
      <trkpt lat="42.44336" lon="2.16511">
        <ele>2108.79</ele>
        <time>2015-06-05T13:44:32Z</time>
      </trkpt>
      <trkpt lat="42.44348" lon="2.16521">
        <ele>2107.35</ele>
        <time>2015-06-05T13:44:47Z</time>
      </trkpt>
      <trkpt lat="42.44358" lon="2.16534">
        <ele>2105.42</ele>
        <time>2015-06-05T13:44:58Z</time>
      </trkpt>
      <trkpt lat="42.44362" lon="2.16545">
        <ele>2103.5</ele>
        <time>2015-06-05T13:45:08Z</time>
      </trkpt>
      <trkpt lat="42.44367" lon="2.16547">
        <ele>2102.54</ele>
        <time>2015-06-05T13:45:13Z</time>
      </trkpt>
      <trkpt lat="42.4437" lon="2.16552">
        <ele>2102.06</ele>
        <time>2015-06-05T13:45:19Z</time>
      </trkpt>
      <trkpt lat="42.44373" lon="2.16555">
        <ele>2101.58</ele>
        <time>2015-06-05T13:45:22Z</time>
      </trkpt>
      <trkpt lat="42.44381" lon="2.16556">
        <ele>2101.1</ele>
        <time>2015-06-05T13:45:29Z</time>
      </trkpt>
      <trkpt lat="42.44386" lon="2.16571">
        <ele>2099.18</ele>
        <time>2015-06-05T13:45:43Z</time>
      </trkpt>
      <trkpt lat="42.44392" lon="2.16576">
        <ele>2098.21</ele>
        <time>2015-06-05T13:45:50Z</time>
      </trkpt>
      <trkpt lat="42.44399" lon="2.1659">
        <ele>2096.77</ele>
        <time>2015-06-05T13:46:04Z</time>
      </trkpt>
      <trkpt lat="42.444" lon="2.16591">
        <ele>2095.81</ele>
        <time>2015-06-05T13:46:06Z</time>
      </trkpt>
      <trkpt lat="42.44412" lon="2.16594">
        <ele>2094.37</ele>
        <time>2015-06-05T13:46:22Z</time>
      </trkpt>
      <trkpt lat="42.44413" lon="2.16608">
        <ele>2093.41</ele>
        <time>2015-06-05T13:46:32Z</time>
      </trkpt>
      <trkpt lat="42.44422" lon="2.16614">
        <ele>2091.49</ele>
        <time>2015-06-05T13:46:44Z</time>
      </trkpt>
      <trkpt lat="42.44426" lon="2.16617">
        <ele>2090.04</ele>
        <time>2015-06-05T13:46:53Z</time>
      </trkpt>
      <trkpt lat="42.44426" lon="2.16626">
        <ele>2088.6</ele>
        <time>2015-06-05T13:47:07Z</time>
      </trkpt>
      <trkpt lat="42.44427" lon="2.16632">
        <ele>2088.12</ele>
        <time>2015-06-05T13:47:27Z</time>
      </trkpt>
      <trkpt lat="42.44447" lon="2.16647">
        <ele>2085.72</ele>
        <time>2015-06-05T13:47:51Z</time>
      </trkpt>
      <trkpt lat="42.44452" lon="2.16653">
        <ele>2085.24</ele>
        <time>2015-06-05T13:48:06Z</time>
      </trkpt>
      <trkpt lat="42.44454" lon="2.1666">
        <ele>2083.79</ele>
        <time>2015-06-05T13:48:18Z</time>
      </trkpt>
      <trkpt lat="42.44453" lon="2.1667">
        <ele>2081.87</ele>
        <time>2015-06-05T13:48:30Z</time>
      </trkpt>
      <trkpt lat="42.44458" lon="2.16678">
        <ele>2079.47</ele>
        <time>2015-06-05T13:48:43Z</time>
      </trkpt>
      <trkpt lat="42.44467" lon="2.16693">
        <ele>2076.1</ele>
        <time>2015-06-05T13:49:01Z</time>
      </trkpt>
      <trkpt lat="42.44481" lon="2.16705">
        <ele>2073.7</ele>
        <time>2015-06-05T13:49:19Z</time>
      </trkpt>
      <trkpt lat="42.44492" lon="2.16723">
        <ele>2071.78</ele>
        <time>2015-06-05T13:49:36Z</time>
      </trkpt>
      <trkpt lat="42.44499" lon="2.16733">
        <ele>2069.86</ele>
        <time>2015-06-05T13:49:50Z</time>
      </trkpt>
      <trkpt lat="42.44506" lon="2.16738">
        <ele>2067.93</ele>
        <time>2015-06-05T13:50:00Z</time>
      </trkpt>
      <trkpt lat="42.44509" lon="2.1674">
        <ele>2066.97</ele>
        <time>2015-06-05T13:50:04Z</time>
      </trkpt>
      <trkpt lat="42.44521" lon="2.16747">
        <ele>2065.05</ele>
        <time>2015-06-05T13:50:18Z</time>
      </trkpt>
      <trkpt lat="42.44526" lon="2.16762">
        <ele>2063.13</ele>
        <time>2015-06-05T13:50:29Z</time>
      </trkpt>
      <trkpt lat="42.4453" lon="2.16771">
        <ele>2062.17</ele>
        <time>2015-06-05T13:50:40Z</time>
      </trkpt>
      <trkpt lat="42.44538" lon="2.16776">
        <ele>2060.72</ele>
        <time>2015-06-05T13:50:51Z</time>
      </trkpt>
      <trkpt lat="42.44538" lon="2.16777">
        <ele>2060.24</ele>
        <time>2015-06-05T13:50:52Z</time>
      </trkpt>
      <trkpt lat="42.44543" lon="2.16787">
        <ele>2058.32</ele>
        <time>2015-06-05T13:51:07Z</time>
      </trkpt>
      <trkpt lat="42.44551" lon="2.16796">
        <ele>2055.92</ele>
        <time>2015-06-05T13:51:20Z</time>
      </trkpt>
      <trkpt lat="42.44555" lon="2.16807">
        <ele>2053.99</ele>
        <time>2015-06-05T13:51:34Z</time>
      </trkpt>
      <trkpt lat="42.44558" lon="2.16821">
        <ele>2051.11</ele>
        <time>2015-06-05T13:51:47Z</time>
      </trkpt>
      <trkpt lat="42.44557" lon="2.1683">
        <ele>2050.15</ele>
        <time>2015-06-05T13:51:54Z</time>
      </trkpt>
      <trkpt lat="42.44558" lon="2.16841">
        <ele>2048.71</ele>
        <time>2015-06-05T13:52:02Z</time>
      </trkpt>
      <trkpt lat="42.4456" lon="2.16844">
        <ele>2048.71</ele>
        <time>2015-06-05T13:52:04Z</time>
      </trkpt>
      <trkpt lat="42.44571" lon="2.16849">
        <ele>2046.78</ele>
        <time>2015-06-05T13:52:18Z</time>
      </trkpt>
      <trkpt lat="42.44575" lon="2.16857">
        <ele>2045.34</ele>
        <time>2015-06-05T13:52:29Z</time>
      </trkpt>
      <trkpt lat="42.4458" lon="2.16866">
        <ele>2043.9</ele>
        <time>2015-06-05T13:52:41Z</time>
      </trkpt>
      <trkpt lat="42.44583" lon="2.16867">
        <ele>2042.94</ele>
        <time>2015-06-05T13:52:47Z</time>
      </trkpt>
      <trkpt lat="42.44585" lon="2.16877">
        <ele>2041.98</ele>
        <time>2015-06-05T13:53:00Z</time>
      </trkpt>
      <trkpt lat="42.44585" lon="2.16881">
        <ele>2040.54</ele>
        <time>2015-06-05T13:53:14Z</time>
      </trkpt>
      <trkpt lat="42.44584" lon="2.16886">
        <ele>2039.57</ele>
        <time>2015-06-05T13:53:27Z</time>
      </trkpt>
      <trkpt lat="42.44585" lon="2.16886">
        <ele>2039.57</ele>
        <time>2015-06-05T13:53:50Z</time>
      </trkpt>
      <trkpt lat="42.44585" lon="2.16884">
        <ele>2039.57</ele>
        <time>2015-06-05T13:54:17Z</time>
      </trkpt>
      <trkpt lat="42.44585" lon="2.16886">
        <ele>2038.61</ele>
        <time>2015-06-05T13:54:36Z</time>
      </trkpt>
      <trkpt lat="42.44583" lon="2.16891">
        <ele>2039.57</ele>
        <time>2015-06-05T13:55:02Z</time>
      </trkpt>
      <trkpt lat="42.44582" lon="2.16881">
        <ele>2039.09</ele>
        <time>2015-06-05T13:55:17Z</time>
      </trkpt>
      <trkpt lat="42.44585" lon="2.1688">
        <ele>2039.09</ele>
        <time>2015-06-05T13:55:34Z</time>
      </trkpt>
      <trkpt lat="42.44583" lon="2.1688">
        <ele>2038.13</ele>
        <time>2015-06-05T13:55:52Z</time>
      </trkpt>
      <trkpt lat="42.44581" lon="2.16878">
        <ele>2038.13</ele>
        <time>2015-06-05T13:56:16Z</time>
      </trkpt>
      <trkpt lat="42.44582" lon="2.16878">
        <ele>2038.13</ele>
        <time>2015-06-05T13:56:39Z</time>
      </trkpt>
      <trkpt lat="42.44581" lon="2.16875">
        <ele>2038.13</ele>
        <time>2015-06-05T13:57:02Z</time>
      </trkpt>
      <trkpt lat="42.44582" lon="2.16877">
        <ele>2039.09</ele>
        <time>2015-06-05T13:57:21Z</time>
      </trkpt>
      <trkpt lat="42.44578" lon="2.16876">
        <ele>2039.09</ele>
        <time>2015-06-05T13:57:39Z</time>
      </trkpt>
      <trkpt lat="42.44583" lon="2.16878">
        <ele>2039.09</ele>
        <time>2015-06-05T13:57:59Z</time>
      </trkpt>
      <trkpt lat="42.44577" lon="2.16874">
        <ele>2038.61</ele>
        <time>2015-06-05T13:58:23Z</time>
      </trkpt>
      <trkpt lat="42.44584" lon="2.16878">
        <ele>2038.61</ele>
        <time>2015-06-05T13:58:47Z</time>
      </trkpt>
      <trkpt lat="42.44581" lon="2.1688">
        <ele>2038.61</ele>
        <time>2015-06-05T13:59:06Z</time>
      </trkpt>
      <trkpt lat="42.44579" lon="2.16876">
        <ele>2039.09</ele>
        <time>2015-06-05T13:59:31Z</time>
      </trkpt>
      <trkpt lat="42.44586" lon="2.16874">
        <ele>2039.09</ele>
        <time>2015-06-05T13:59:46Z</time>
      </trkpt>
      <trkpt lat="42.44593" lon="2.1688">
        <ele>2039.09</ele>
        <time>2015-06-05T13:59:59Z</time>
      </trkpt>
      <trkpt lat="42.44594" lon="2.16881">
        <ele>2037.65</ele>
        <time>2015-06-05T14:00:01Z</time>
      </trkpt>
      <trkpt lat="42.44601" lon="2.16887">
        <ele>2036.21</ele>
        <time>2015-06-05T14:00:15Z</time>
      </trkpt>
      <trkpt lat="42.44608" lon="2.16893">
        <ele>2034.77</ele>
        <time>2015-06-05T14:00:27Z</time>
      </trkpt>
      <trkpt lat="42.44615" lon="2.16904">
        <ele>2033.33</ele>
        <time>2015-06-05T14:00:41Z</time>
      </trkpt>
      <trkpt lat="42.44624" lon="2.1691">
        <ele>2031.4</ele>
        <time>2015-06-05T14:00:54Z</time>
      </trkpt>
      <trkpt lat="42.44631" lon="2.16919">
        <ele>2028.52</ele>
        <time>2015-06-05T14:01:08Z</time>
      </trkpt>
      <trkpt lat="42.44635" lon="2.16922">
        <ele>2027.56</ele>
        <time>2015-06-05T14:01:18Z</time>
      </trkpt>
      <trkpt lat="42.44643" lon="2.16924">
        <ele>2026.12</ele>
        <time>2015-06-05T14:01:31Z</time>
      </trkpt>
      <trkpt lat="42.44647" lon="2.16928">
        <ele>2024.19</ele>
        <time>2015-06-05T14:01:43Z</time>
      </trkpt>
      <trkpt lat="42.44657" lon="2.16929">
        <ele>2022.75</ele>
        <time>2015-06-05T14:01:57Z</time>
      </trkpt>
      <trkpt lat="42.44667" lon="2.16934">
        <ele>2020.35</ele>
        <time>2015-06-05T14:02:11Z</time>
      </trkpt>
      <trkpt lat="42.44677" lon="2.16938">
        <ele>2017.94</ele>
        <time>2015-06-05T14:02:24Z</time>
      </trkpt>
      <trkpt lat="42.44682" lon="2.16941">
        <ele>2016.98</ele>
        <time>2015-06-05T14:02:32Z</time>
      </trkpt>
      <trkpt lat="42.44695" lon="2.16942">
        <ele>2014.58</ele>
        <time>2015-06-05T14:02:47Z</time>
      </trkpt>
      <trkpt lat="42.44702" lon="2.16946">
        <ele>2013.14</ele>
        <time>2015-06-05T14:02:59Z</time>
      </trkpt>
      <trkpt lat="42.44705" lon="2.16948">
        <ele>2011.7</ele>
        <time>2015-06-05T14:03:03Z</time>
      </trkpt>
      <trkpt lat="42.44712" lon="2.16952">
        <ele>2009.77</ele>
        <time>2015-06-05T14:03:14Z</time>
      </trkpt>
      <trkpt lat="42.44721" lon="2.16962">
        <ele>2008.33</ele>
        <time>2015-06-05T14:03:26Z</time>
      </trkpt>
      <trkpt lat="42.44722" lon="2.16965">
        <ele>2007.85</ele>
        <time>2015-06-05T14:03:36Z</time>
      </trkpt>
      <trkpt lat="42.44733" lon="2.16972">
        <ele>2006.41</ele>
        <time>2015-06-05T14:03:49Z</time>
      </trkpt>
      <trkpt lat="42.4474" lon="2.16977">
        <ele>2004.49</ele>
        <time>2015-06-05T14:04:01Z</time>
      </trkpt>
      <trkpt lat="42.44747" lon="2.16977">
        <ele>2003.04</ele>
        <time>2015-06-05T14:04:14Z</time>
      </trkpt>
      <trkpt lat="42.44751" lon="2.16978">
        <ele>2002.56</ele>
        <time>2015-06-05T14:04:19Z</time>
      </trkpt>
      <trkpt lat="42.44762" lon="2.16979">
        <ele>2000.16</ele>
        <time>2015-06-05T14:04:33Z</time>
      </trkpt>
      <trkpt lat="42.44772" lon="2.16979">
        <ele>1998.72</ele>
        <time>2015-06-05T14:04:45Z</time>
      </trkpt>
      <trkpt lat="42.44773" lon="2.16979">
        <ele>1998.72</ele>
        <time>2015-06-05T14:04:47Z</time>
      </trkpt>
      <trkpt lat="42.44775" lon="2.1698">
        <ele>1998.72</ele>
        <time>2015-06-05T14:04:49Z</time>
      </trkpt>
      <trkpt lat="42.44782" lon="2.1698">
        <ele>1998.72</ele>
        <time>2015-06-05T14:04:58Z</time>
      </trkpt>
      <trkpt lat="42.44794" lon="2.16981">
        <ele>1996.8</ele>
        <time>2015-06-05T14:05:11Z</time>
      </trkpt>
      <trkpt lat="42.44796" lon="2.16983">
        <ele>1996.8</ele>
        <time>2015-06-05T14:05:13Z</time>
      </trkpt>
      <trkpt lat="42.4481" lon="2.16992">
        <ele>1994.87</ele>
        <time>2015-06-05T14:05:27Z</time>
      </trkpt>
      <trkpt lat="42.44814" lon="2.17">
        <ele>1992.95</ele>
        <time>2015-06-05T14:05:38Z</time>
      </trkpt>
      <trkpt lat="42.44815" lon="2.16999">
        <ele>1992.47</ele>
        <time>2015-06-05T14:05:57Z</time>
      </trkpt>
      <trkpt lat="42.44817" lon="2.16997">
        <ele>1992.47</ele>
        <time>2015-06-05T14:06:24Z</time>
      </trkpt>
      <trkpt lat="42.44824" lon="2.17">
        <ele>1991.99</ele>
        <time>2015-06-05T14:06:41Z</time>
      </trkpt>
      <trkpt lat="42.44834" lon="2.17008">
        <ele>1990.55</ele>
        <time>2015-06-05T14:06:55Z</time>
      </trkpt>
      <trkpt lat="42.44843" lon="2.17012">
        <ele>1988.14</ele>
        <time>2015-06-05T14:07:08Z</time>
      </trkpt>
      <trkpt lat="42.44849" lon="2.17016">
        <ele>1987.18</ele>
        <time>2015-06-05T14:07:17Z</time>
      </trkpt>
      <trkpt lat="42.44862" lon="2.17019">
        <ele>1985.26</ele>
        <time>2015-06-05T14:07:32Z</time>
      </trkpt>
      <trkpt lat="42.44865" lon="2.17026">
        <ele>1984.78</ele>
        <time>2015-06-05T14:07:46Z</time>
      </trkpt>
      <trkpt lat="42.44874" lon="2.17022">
        <ele>1983.82</ele>
        <time>2015-06-05T14:07:59Z</time>
      </trkpt>
      <trkpt lat="42.44884" lon="2.17018">
        <ele>1983.34</ele>
        <time>2015-06-05T14:08:13Z</time>
      </trkpt>
      <trkpt lat="42.44894" lon="2.17021">
        <ele>1982.38</ele>
        <time>2015-06-05T14:08:26Z</time>
      </trkpt>
      <trkpt lat="42.44896" lon="2.1702">
        <ele>1981.9</ele>
        <time>2015-06-05T14:08:30Z</time>
      </trkpt>
      <trkpt lat="42.44905" lon="2.17021">
        <ele>1979.97</ele>
        <time>2015-06-05T14:08:40Z</time>
      </trkpt>
      <trkpt lat="42.4491" lon="2.17022">
        <ele>1979.01</ele>
        <time>2015-06-05T14:08:45Z</time>
      </trkpt>
      <trkpt lat="42.44919" lon="2.17022">
        <ele>1978.05</ele>
        <time>2015-06-05T14:08:55Z</time>
      </trkpt>
      <trkpt lat="42.44931" lon="2.17024">
        <ele>1977.09</ele>
        <time>2015-06-05T14:09:07Z</time>
      </trkpt>
      <trkpt lat="42.44941" lon="2.17031">
        <ele>1976.13</ele>
        <time>2015-06-05T14:09:21Z</time>
      </trkpt>
      <trkpt lat="42.4495" lon="2.17035">
        <ele>1974.2</ele>
        <time>2015-06-05T14:09:33Z</time>
      </trkpt>
      <trkpt lat="42.44958" lon="2.17039">
        <ele>1973.24</ele>
        <time>2015-06-05T14:09:44Z</time>
      </trkpt>
      <trkpt lat="42.44971" lon="2.17047">
        <ele>1972.76</ele>
        <time>2015-06-05T14:09:58Z</time>
      </trkpt>
      <trkpt lat="42.44981" lon="2.17046">
        <ele>1969.88</ele>
        <time>2015-06-05T14:10:12Z</time>
      </trkpt>
      <trkpt lat="42.44986" lon="2.17044">
        <ele>1969.4</ele>
        <time>2015-06-05T14:10:30Z</time>
      </trkpt>
      <trkpt lat="42.44988" lon="2.17042">
        <ele>1968.44</ele>
        <time>2015-06-05T14:10:43Z</time>
      </trkpt>
      <trkpt lat="42.44991" lon="2.17038">
        <ele>1967.96</ele>
        <time>2015-06-05T14:10:56Z</time>
      </trkpt>
      <trkpt lat="42.45" lon="2.17035">
        <ele>1966.99</ele>
        <time>2015-06-05T14:11:09Z</time>
      </trkpt>
      <trkpt lat="42.45001" lon="2.17035">
        <ele>1966.99</ele>
        <time>2015-06-05T14:11:11Z</time>
      </trkpt>
      <trkpt lat="42.45011" lon="2.17035">
        <ele>1966.51</ele>
        <time>2015-06-05T14:11:24Z</time>
      </trkpt>
      <trkpt lat="42.45017" lon="2.17032">
        <ele>1966.03</ele>
        <time>2015-06-05T14:11:38Z</time>
      </trkpt>
      <trkpt lat="42.45029" lon="2.17035">
        <ele>1964.11</ele>
        <time>2015-06-05T14:11:52Z</time>
      </trkpt>
      <trkpt lat="42.45038" lon="2.17036">
        <ele>1962.67</ele>
        <time>2015-06-05T14:12:03Z</time>
      </trkpt>
      <trkpt lat="42.45051" lon="2.17043">
        <ele>1962.19</ele>
        <time>2015-06-05T14:12:19Z</time>
      </trkpt>
      <trkpt lat="42.45058" lon="2.17043">
        <ele>1961.23</ele>
        <time>2015-06-05T14:12:31Z</time>
      </trkpt>
      <trkpt lat="42.45062" lon="2.17046">
        <ele>1959.3</ele>
        <time>2015-06-05T14:12:44Z</time>
      </trkpt>
      <trkpt lat="42.45069" lon="2.17051">
        <ele>1956.9</ele>
        <time>2015-06-05T14:12:57Z</time>
      </trkpt>
      <trkpt lat="42.45077" lon="2.17055">
        <ele>1956.42</ele>
        <time>2015-06-05T14:13:10Z</time>
      </trkpt>
      <trkpt lat="42.45089" lon="2.17061">
        <ele>1954.02</ele>
        <time>2015-06-05T14:13:23Z</time>
      </trkpt>
      <trkpt lat="42.45094" lon="2.17062">
        <ele>1952.57</ele>
        <time>2015-06-05T14:13:35Z</time>
      </trkpt>
      <trkpt lat="42.45105" lon="2.17064">
        <ele>1951.13</ele>
        <time>2015-06-05T14:13:47Z</time>
      </trkpt>
      <trkpt lat="42.45111" lon="2.17065">
        <ele>1950.65</ele>
        <time>2015-06-05T14:14:00Z</time>
      </trkpt>
      <trkpt lat="42.4512" lon="2.17066">
        <ele>1949.21</ele>
        <time>2015-06-05T14:14:09Z</time>
      </trkpt>
      <trkpt lat="42.45125" lon="2.17069">
        <ele>1948.25</ele>
        <time>2015-06-05T14:14:15Z</time>
      </trkpt>
      <trkpt lat="42.45131" lon="2.17074">
        <ele>1947.29</ele>
        <time>2015-06-05T14:14:26Z</time>
      </trkpt>
      <trkpt lat="42.45143" lon="2.17077">
        <ele>1945.36</ele>
        <time>2015-06-05T14:14:37Z</time>
      </trkpt>
      <trkpt lat="42.4515" lon="2.17087">
        <ele>1944.4</ele>
        <time>2015-06-05T14:14:48Z</time>
      </trkpt>
      <trkpt lat="42.4516" lon="2.17095">
        <ele>1942.96</ele>
        <time>2015-06-05T14:15:00Z</time>
      </trkpt>
      <trkpt lat="42.45164" lon="2.17103">
        <ele>1942</ele>
        <time>2015-06-05T14:15:10Z</time>
      </trkpt>
      <trkpt lat="42.45165" lon="2.17108">
        <ele>1941.52</ele>
        <time>2015-06-05T14:15:13Z</time>
      </trkpt>
      <trkpt lat="42.45173" lon="2.17114">
        <ele>1939.12</ele>
        <time>2015-06-05T14:15:24Z</time>
      </trkpt>
      <trkpt lat="42.4518" lon="2.17124">
        <ele>1938.16</ele>
        <time>2015-06-05T14:15:36Z</time>
      </trkpt>
      <trkpt lat="42.45188" lon="2.17128">
        <ele>1937.67</ele>
        <time>2015-06-05T14:15:46Z</time>
      </trkpt>
      <trkpt lat="42.45198" lon="2.17142">
        <ele>1936.71</ele>
        <time>2015-06-05T14:15:58Z</time>
      </trkpt>
      <trkpt lat="42.45199" lon="2.17148">
        <ele>1936.71</ele>
        <time>2015-06-05T14:16:13Z</time>
      </trkpt>
      <trkpt lat="42.45201" lon="2.17158">
        <ele>1936.23</ele>
        <time>2015-06-05T14:16:28Z</time>
      </trkpt>
      <trkpt lat="42.45208" lon="2.17167">
        <ele>1934.79</ele>
        <time>2015-06-05T14:16:37Z</time>
      </trkpt>
      <trkpt lat="42.45215" lon="2.17173">
        <ele>1933.35</ele>
        <time>2015-06-05T14:16:45Z</time>
      </trkpt>
      <trkpt lat="42.45221" lon="2.17184">
        <ele>1930.95</ele>
        <time>2015-06-05T14:16:58Z</time>
      </trkpt>
      <trkpt lat="42.45221" lon="2.17183">
        <ele>1930.46</ele>
        <time>2015-06-05T14:16:59Z</time>
      </trkpt>
      <trkpt lat="42.4523" lon="2.17187">
        <ele>1929.02</ele>
        <time>2015-06-05T14:17:10Z</time>
      </trkpt>
      <trkpt lat="42.45231" lon="2.17187">
        <ele>1928.54</ele>
        <time>2015-06-05T14:17:11Z</time>
      </trkpt>
      <trkpt lat="42.45241" lon="2.17193">
        <ele>1927.58</ele>
        <time>2015-06-05T14:17:20Z</time>
      </trkpt>
      <trkpt lat="42.45252" lon="2.17193">
        <ele>1927.1</ele>
        <time>2015-06-05T14:17:33Z</time>
      </trkpt>
      <trkpt lat="42.45254" lon="2.17193">
        <ele>1927.1</ele>
        <time>2015-06-05T14:17:34Z</time>
      </trkpt>
      <trkpt lat="42.45263" lon="2.17194">
        <ele>1925.66</ele>
        <time>2015-06-05T14:17:45Z</time>
      </trkpt>
      <trkpt lat="42.45275" lon="2.17194">
        <ele>1924.22</ele>
        <time>2015-06-05T14:18:00Z</time>
      </trkpt>
      <trkpt lat="42.45288" lon="2.172">
        <ele>1923.74</ele>
        <time>2015-06-05T14:18:12Z</time>
      </trkpt>
      <trkpt lat="42.453" lon="2.17202">
        <ele>1922.29</ele>
        <time>2015-06-05T14:18:28Z</time>
      </trkpt>
      <trkpt lat="42.45316" lon="2.17207">
        <ele>1919.41</ele>
        <time>2015-06-05T14:18:43Z</time>
      </trkpt>
      <trkpt lat="42.45334" lon="2.17208">
        <ele>1917.49</ele>
        <time>2015-06-05T14:18:59Z</time>
      </trkpt>
      <trkpt lat="42.45352" lon="2.17207">
        <ele>1916.04</ele>
        <time>2015-06-05T14:19:11Z</time>
      </trkpt>
      <trkpt lat="42.45362" lon="2.17208">
        <ele>1915.08</ele>
        <time>2015-06-05T14:19:24Z</time>
      </trkpt>
      <trkpt lat="42.45376" lon="2.17203">
        <ele>1915.08</ele>
        <time>2015-06-05T14:19:38Z</time>
      </trkpt>
      <trkpt lat="42.45376" lon="2.17202">
        <ele>1915.08</ele>
        <time>2015-06-05T14:19:39Z</time>
      </trkpt>
      <trkpt lat="42.45386" lon="2.17196">
        <ele>1914.6</ele>
        <time>2015-06-05T14:19:53Z</time>
      </trkpt>
      <trkpt lat="42.45392" lon="2.17192">
        <ele>1914.12</ele>
        <time>2015-06-05T14:20:04Z</time>
      </trkpt>
      <trkpt lat="42.45406" lon="2.17187">
        <ele>1911.24</ele>
        <time>2015-06-05T14:20:19Z</time>
      </trkpt>
      <trkpt lat="42.45416" lon="2.17182">
        <ele>1910.28</ele>
        <time>2015-06-05T14:20:29Z</time>
      </trkpt>
      <trkpt lat="42.45425" lon="2.17176">
        <ele>1908.83</ele>
        <time>2015-06-05T14:20:42Z</time>
      </trkpt>
      <trkpt lat="42.45427" lon="2.17175">
        <ele>1908.35</ele>
        <time>2015-06-05T14:20:44Z</time>
      </trkpt>
      <trkpt lat="42.4543" lon="2.17174">
        <ele>1908.35</ele>
        <time>2015-06-05T14:20:47Z</time>
      </trkpt>
      <trkpt lat="42.45444" lon="2.17166">
        <ele>1905.95</ele>
        <time>2015-06-05T14:21:00Z</time>
      </trkpt>
      <trkpt lat="42.45458" lon="2.17164">
        <ele>1903.55</ele>
        <time>2015-06-05T14:21:14Z</time>
      </trkpt>
      <trkpt lat="42.4547" lon="2.17161">
        <ele>1901.14</ele>
        <time>2015-06-05T14:21:26Z</time>
      </trkpt>
      <trkpt lat="42.4548" lon="2.1716">
        <ele>1900.18</ele>
        <time>2015-06-05T14:21:37Z</time>
      </trkpt>
      <trkpt lat="42.45491" lon="2.1716">
        <ele>1896.82</ele>
        <time>2015-06-05T14:21:48Z</time>
      </trkpt>
      <trkpt lat="42.45498" lon="2.17161">
        <ele>1895.38</ele>
        <time>2015-06-05T14:21:56Z</time>
      </trkpt>
      <trkpt lat="42.45511" lon="2.17163">
        <ele>1893.45</ele>
        <time>2015-06-05T14:22:11Z</time>
      </trkpt>
      <trkpt lat="42.45512" lon="2.17163">
        <ele>1892.97</ele>
        <time>2015-06-05T14:22:13Z</time>
      </trkpt>
      <trkpt lat="42.45525" lon="2.17167">
        <ele>1891.53</ele>
        <time>2015-06-05T14:22:27Z</time>
      </trkpt>
      <trkpt lat="42.45531" lon="2.17172">
        <ele>1890.09</ele>
        <time>2015-06-05T14:22:40Z</time>
      </trkpt>
      <trkpt lat="42.45538" lon="2.17172">
        <ele>1889.13</ele>
        <time>2015-06-05T14:22:52Z</time>
      </trkpt>
      <trkpt lat="42.45541" lon="2.17173">
        <ele>1889.13</ele>
        <time>2015-06-05T14:22:56Z</time>
      </trkpt>
      <trkpt lat="42.45551" lon="2.17178">
        <ele>1888.17</ele>
        <time>2015-06-05T14:23:11Z</time>
      </trkpt>
      <trkpt lat="42.45555" lon="2.1718">
        <ele>1888.17</ele>
        <time>2015-06-05T14:23:25Z</time>
      </trkpt>
      <trkpt lat="42.45552" lon="2.17181">
        <ele>1888.17</ele>
        <time>2015-06-05T14:23:45Z</time>
      </trkpt>
      <trkpt lat="42.45555" lon="2.17182">
        <ele>1888.17</ele>
        <time>2015-06-05T14:23:48Z</time>
      </trkpt>
      <trkpt lat="42.45561" lon="2.1719">
        <ele>1885.28</ele>
        <time>2015-06-05T14:24:02Z</time>
      </trkpt>
      <trkpt lat="42.45568" lon="2.17192">
        <ele>1882.88</ele>
        <time>2015-06-05T14:24:11Z</time>
      </trkpt>
      <trkpt lat="42.45578" lon="2.17195">
        <ele>1879.51</ele>
        <time>2015-06-05T14:24:24Z</time>
      </trkpt>
      <trkpt lat="42.4558" lon="2.17196">
        <ele>1878.55</ele>
        <time>2015-06-05T14:24:27Z</time>
      </trkpt>
      <trkpt lat="42.45582" lon="2.17197">
        <ele>1878.55</ele>
        <time>2015-06-05T14:24:29Z</time>
      </trkpt>
      <trkpt lat="42.45587" lon="2.17198">
        <ele>1877.59</ele>
        <time>2015-06-05T14:24:33Z</time>
      </trkpt>
      <trkpt lat="42.45593" lon="2.17199">
        <ele>1876.15</ele>
        <time>2015-06-05T14:24:45Z</time>
      </trkpt>
      <trkpt lat="42.45595" lon="2.17198">
        <ele>1875.67</ele>
        <time>2015-06-05T14:25:03Z</time>
      </trkpt>
      <trkpt lat="42.45603" lon="2.17201">
        <ele>1873.75</ele>
        <time>2015-06-05T14:25:14Z</time>
      </trkpt>
      <trkpt lat="42.45614" lon="2.17209">
        <ele>1871.34</ele>
        <time>2015-06-05T14:25:28Z</time>
      </trkpt>
      <trkpt lat="42.45615" lon="2.17209">
        <ele>1871.34</ele>
        <time>2015-06-05T14:25:29Z</time>
      </trkpt>
      <trkpt lat="42.45617" lon="2.1721">
        <ele>1870.86</ele>
        <time>2015-06-05T14:25:31Z</time>
      </trkpt>
      <trkpt lat="42.45626" lon="2.1722">
        <ele>1869.42</ele>
        <time>2015-06-05T14:25:42Z</time>
      </trkpt>
      <trkpt lat="42.45636" lon="2.17235">
        <ele>1867.5</ele>
        <time>2015-06-05T14:25:57Z</time>
      </trkpt>
      <trkpt lat="42.45646" lon="2.17248">
        <ele>1865.09</ele>
        <time>2015-06-05T14:26:12Z</time>
      </trkpt>
      <trkpt lat="42.45651" lon="2.17262">
        <ele>1863.17</ele>
        <time>2015-06-05T14:26:25Z</time>
      </trkpt>
      <trkpt lat="42.45655" lon="2.17275">
        <ele>1861.73</ele>
        <time>2015-06-05T14:26:38Z</time>
      </trkpt>
      <trkpt lat="42.45659" lon="2.17284">
        <ele>1860.29</ele>
        <time>2015-06-05T14:26:52Z</time>
      </trkpt>
      <trkpt lat="42.45659" lon="2.17284">
        <ele>1860.29</ele>
        <time>2015-06-05T14:26:53Z</time>
      </trkpt>
      <trkpt lat="42.45666" lon="2.17294">
        <ele>1858.85</ele>
        <time>2015-06-05T14:27:04Z</time>
      </trkpt>
      <trkpt lat="42.45667" lon="2.17299">
        <ele>1858.37</ele>
        <time>2015-06-05T14:27:08Z</time>
      </trkpt>
      <trkpt lat="42.45674" lon="2.17307">
        <ele>1856.44</ele>
        <time>2015-06-05T14:27:21Z</time>
      </trkpt>
      <trkpt lat="42.45683" lon="2.17324">
        <ele>1855</ele>
        <time>2015-06-05T14:27:37Z</time>
      </trkpt>
      <trkpt lat="42.45689" lon="2.17333">
        <ele>1853.56</ele>
        <time>2015-06-05T14:27:50Z</time>
      </trkpt>
      <trkpt lat="42.45695" lon="2.17347">
        <ele>1851.64</ele>
        <time>2015-06-05T14:28:03Z</time>
      </trkpt>
      <trkpt lat="42.45704" lon="2.17365">
        <ele>1851.16</ele>
        <time>2015-06-05T14:28:17Z</time>
      </trkpt>
      <trkpt lat="42.45708" lon="2.17376">
        <ele>1849.71</ele>
        <time>2015-06-05T14:28:24Z</time>
      </trkpt>
      <trkpt lat="42.45722" lon="2.17386">
        <ele>1849.23</ele>
        <time>2015-06-05T14:28:39Z</time>
      </trkpt>
      <trkpt lat="42.45724" lon="2.17388">
        <ele>1848.75</ele>
        <time>2015-06-05T14:28:41Z</time>
      </trkpt>
      <trkpt lat="42.4573" lon="2.17391">
        <ele>1848.75</ele>
        <time>2015-06-05T14:28:48Z</time>
      </trkpt>
      <trkpt lat="42.45731" lon="2.17406">
        <ele>1847.31</ele>
        <time>2015-06-05T14:29:01Z</time>
      </trkpt>
      <trkpt lat="42.45734" lon="2.17408">
        <ele>1846.35</ele>
        <time>2015-06-05T14:29:09Z</time>
      </trkpt>
      <trkpt lat="42.45744" lon="2.17413">
        <ele>1844.91</ele>
        <time>2015-06-05T14:29:24Z</time>
      </trkpt>
      <trkpt lat="42.45753" lon="2.17423">
        <ele>1843.47</ele>
        <time>2015-06-05T14:29:38Z</time>
      </trkpt>
      <trkpt lat="42.45759" lon="2.17427">
        <ele>1842.02</ele>
        <time>2015-06-05T14:29:50Z</time>
      </trkpt>
      <trkpt lat="42.45765" lon="2.17433">
        <ele>1840.58</ele>
        <time>2015-06-05T14:30:02Z</time>
      </trkpt>
      <trkpt lat="42.45766" lon="2.17436">
        <ele>1839.62</ele>
        <time>2015-06-05T14:30:10Z</time>
      </trkpt>
      <trkpt lat="42.4578" lon="2.17443">
        <ele>1837.7</ele>
        <time>2015-06-05T14:30:24Z</time>
      </trkpt>
      <trkpt lat="42.45782" lon="2.17444">
        <ele>1837.7</ele>
        <time>2015-06-05T14:30:26Z</time>
      </trkpt>
      <trkpt lat="42.45786" lon="2.17447">
        <ele>1837.22</ele>
        <time>2015-06-05T14:30:31Z</time>
      </trkpt>
      <trkpt lat="42.45803" lon="2.17447">
        <ele>1835.77</ele>
        <time>2015-06-05T14:30:49Z</time>
      </trkpt>
      <trkpt lat="42.45807" lon="2.17446">
        <ele>1835.29</ele>
        <time>2015-06-05T14:30:53Z</time>
      </trkpt>
      <trkpt lat="42.45814" lon="2.17445">
        <ele>1835.29</ele>
        <time>2015-06-05T14:30:59Z</time>
      </trkpt>
      <trkpt lat="42.45821" lon="2.17444">
        <ele>1833.85</ele>
        <time>2015-06-05T14:31:09Z</time>
      </trkpt>
      <trkpt lat="42.4583" lon="2.17446">
        <ele>1833.37</ele>
        <time>2015-06-05T14:31:23Z</time>
      </trkpt>
      <trkpt lat="42.45833" lon="2.17446">
        <ele>1832.89</ele>
        <time>2015-06-05T14:31:28Z</time>
      </trkpt>
      <trkpt lat="42.45836" lon="2.17449">
        <ele>1831.93</ele>
        <time>2015-06-05T14:31:41Z</time>
      </trkpt>
      <trkpt lat="42.4584" lon="2.17454">
        <ele>1831.45</ele>
        <time>2015-06-05T14:31:59Z</time>
      </trkpt>
      <trkpt lat="42.45844" lon="2.17451">
        <ele>1831.45</ele>
        <time>2015-06-05T14:32:24Z</time>
      </trkpt>
      <trkpt lat="42.45842" lon="2.17455">
        <ele>1831.45</ele>
        <time>2015-06-05T14:32:31Z</time>
      </trkpt>
      <trkpt lat="42.45832" lon="2.17464">
        <ele>1831.45</ele>
        <time>2015-06-05T14:32:44Z</time>
      </trkpt>
      <trkpt lat="42.45835" lon="2.17477">
        <ele>1830.97</ele>
        <time>2015-06-05T14:32:57Z</time>
      </trkpt>
      <trkpt lat="42.45843" lon="2.17486">
        <ele>1830.97</ele>
        <time>2015-06-05T14:33:08Z</time>
      </trkpt>
      <trkpt lat="42.45848" lon="2.17499">
        <ele>1830.97</ele>
        <time>2015-06-05T14:33:23Z</time>
      </trkpt>
      <trkpt lat="42.4585" lon="2.17501">
        <ele>1830.97</ele>
        <time>2015-06-05T14:33:28Z</time>
      </trkpt>
      <trkpt lat="42.45852" lon="2.17502">
        <ele>1830.97</ele>
        <time>2015-06-05T14:33:30Z</time>
      </trkpt>
      <trkpt lat="42.45854" lon="2.17504">
        <ele>1830.97</ele>
        <time>2015-06-05T14:33:32Z</time>
      </trkpt>
      <trkpt lat="42.45854" lon="2.17504">
        <ele>1830.97</ele>
        <time>2015-06-05T14:33:33Z</time>
      </trkpt>
      <trkpt lat="42.45861" lon="2.17503">
        <ele>1831.93</ele>
        <time>2015-06-05T14:33:45Z</time>
      </trkpt>
      <trkpt lat="42.45866" lon="2.17509">
        <ele>1831.45</ele>
        <time>2015-06-05T14:33:51Z</time>
      </trkpt>
      <trkpt lat="42.45891" lon="2.17521">
        <ele>1830.97</ele>
        <time>2015-06-05T14:34:06Z</time>
      </trkpt>
      <trkpt lat="42.459" lon="2.1753">
        <ele>1829.53</ele>
        <time>2015-06-05T14:34:17Z</time>
      </trkpt>
      <trkpt lat="42.45907" lon="2.17535">
        <ele>1828.56</ele>
        <time>2015-06-05T14:34:24Z</time>
      </trkpt>
      <trkpt lat="42.45907" lon="2.17538">
        <ele>1828.08</ele>
        <time>2015-06-05T14:34:26Z</time>
      </trkpt>
      <trkpt lat="42.45915" lon="2.17551">
        <ele>1827.12</ele>
        <time>2015-06-05T14:34:36Z</time>
      </trkpt>
      <trkpt lat="42.45919" lon="2.17559">
        <ele>1826.64</ele>
        <time>2015-06-05T14:34:47Z</time>
      </trkpt>
      <trkpt lat="42.45923" lon="2.17555">
        <ele>1825.68</ele>
        <time>2015-06-05T14:35:00Z</time>
      </trkpt>
      <trkpt lat="42.45941" lon="2.17563">
        <ele>1824.24</ele>
        <time>2015-06-05T14:35:13Z</time>
      </trkpt>
      <trkpt lat="42.45954" lon="2.1757">
        <ele>1822.32</ele>
        <time>2015-06-05T14:35:26Z</time>
      </trkpt>
      <trkpt lat="42.45958" lon="2.17579">
        <ele>1821.35</ele>
        <time>2015-06-05T14:35:39Z</time>
      </trkpt>
      <trkpt lat="42.45979" lon="2.17589">
        <ele>1821.35</ele>
        <time>2015-06-05T14:35:51Z</time>
      </trkpt>
      <trkpt lat="42.45981" lon="2.1759">
        <ele>1821.35</ele>
        <time>2015-06-05T14:35:54Z</time>
      </trkpt>
      <trkpt lat="42.4599" lon="2.17593">
        <ele>1822.8</ele>
        <time>2015-06-05T14:36:02Z</time>
      </trkpt>
      <trkpt lat="42.45992" lon="2.17593">
        <ele>1822.8</ele>
        <time>2015-06-05T14:36:04Z</time>
      </trkpt>
      <trkpt lat="42.46006" lon="2.17596">
        <ele>1823.28</ele>
        <time>2015-06-05T14:36:15Z</time>
      </trkpt>
      <trkpt lat="42.46018" lon="2.17596">
        <ele>1824.24</ele>
        <time>2015-06-05T14:36:29Z</time>
      </trkpt>
      <trkpt lat="42.46025" lon="2.17596">
        <ele>1824.24</ele>
        <time>2015-06-05T14:36:38Z</time>
      </trkpt>
      <trkpt lat="42.46038" lon="2.17598">
        <ele>1822.8</ele>
        <time>2015-06-05T14:36:44Z</time>
      </trkpt>
      <trkpt lat="42.46065" lon="2.17607">
        <ele>1821.84</ele>
        <time>2015-06-05T14:36:59Z</time>
      </trkpt>
      <trkpt lat="42.46079" lon="2.17619">
        <ele>1821.84</ele>
        <time>2015-06-05T14:37:13Z</time>
      </trkpt>
      <trkpt lat="42.46085" lon="2.17618">
        <ele>1821.35</ele>
        <time>2015-06-05T14:37:17Z</time>
      </trkpt>
      <trkpt lat="42.46109" lon="2.1762">
        <ele>1820.39</ele>
        <time>2015-06-05T14:37:32Z</time>
      </trkpt>
      <trkpt lat="42.46132" lon="2.17614">
        <ele>1817.51</ele>
        <time>2015-06-05T14:37:49Z</time>
      </trkpt>
      <trkpt lat="42.46138" lon="2.17615">
        <ele>1817.51</ele>
        <time>2015-06-05T14:37:52Z</time>
      </trkpt>
      <trkpt lat="42.46153" lon="2.1762">
        <ele>1817.03</ele>
        <time>2015-06-05T14:38:00Z</time>
      </trkpt>
      <trkpt lat="42.46172" lon="2.17638">
        <ele>1815.59</ele>
        <time>2015-06-05T14:38:15Z</time>
      </trkpt>
      <trkpt lat="42.46195" lon="2.1765">
        <ele>1815.11</ele>
        <time>2015-06-05T14:38:32Z</time>
      </trkpt>
      <trkpt lat="42.46215" lon="2.17656">
        <ele>1814.15</ele>
        <time>2015-06-05T14:38:44Z</time>
      </trkpt>
      <trkpt lat="42.46235" lon="2.17661">
        <ele>1814.15</ele>
        <time>2015-06-05T14:38:57Z</time>
      </trkpt>
      <trkpt lat="42.46256" lon="2.17682">
        <ele>1814.63</ele>
        <time>2015-06-05T14:39:13Z</time>
      </trkpt>
      <trkpt lat="42.46281" lon="2.17694">
        <ele>1815.11</ele>
        <time>2015-06-05T14:39:29Z</time>
      </trkpt>
      <trkpt lat="42.46281" lon="2.17695">
        <ele>1815.11</ele>
        <time>2015-06-05T14:39:30Z</time>
      </trkpt>
      <trkpt lat="42.46284" lon="2.17697">
        <ele>1815.11</ele>
        <time>2015-06-05T14:39:33Z</time>
      </trkpt>
      <trkpt lat="42.46306" lon="2.17699">
        <ele>1815.59</ele>
        <time>2015-06-05T14:39:47Z</time>
      </trkpt>
      <trkpt lat="42.46322" lon="2.17701">
        <ele>1816.55</ele>
        <time>2015-06-05T14:40:00Z</time>
      </trkpt>
      <trkpt lat="42.46339" lon="2.17703">
        <ele>1815.59</ele>
        <time>2015-06-05T14:40:16Z</time>
      </trkpt>
      <trkpt lat="42.4636" lon="2.1771">
        <ele>1816.07</ele>
        <time>2015-06-05T14:40:35Z</time>
      </trkpt>
      <trkpt lat="42.46376" lon="2.17711">
        <ele>1814.15</ele>
        <time>2015-06-05T14:40:51Z</time>
      </trkpt>
      <trkpt lat="42.46383" lon="2.1772">
        <ele>1812.22</ele>
        <time>2015-06-05T14:41:05Z</time>
      </trkpt>
      <trkpt lat="42.46395" lon="2.17723">
        <ele>1811.26</ele>
        <time>2015-06-05T14:41:19Z</time>
      </trkpt>
      <trkpt lat="42.46399" lon="2.17723">
        <ele>1811.26</ele>
        <time>2015-06-05T14:41:23Z</time>
      </trkpt>
      <trkpt lat="42.46413" lon="2.17725">
        <ele>1810.78</ele>
        <time>2015-06-05T14:41:40Z</time>
      </trkpt>
      <trkpt lat="42.46423" lon="2.1773">
        <ele>1809.34</ele>
        <time>2015-06-05T14:41:54Z</time>
      </trkpt>
      <trkpt lat="42.46436" lon="2.17739">
        <ele>1808.86</ele>
        <time>2015-06-05T14:42:08Z</time>
      </trkpt>
      <trkpt lat="42.46443" lon="2.17743">
        <ele>1808.86</ele>
        <time>2015-06-05T14:42:11Z</time>
      </trkpt>
      <trkpt lat="42.46455" lon="2.17749">
        <ele>1808.38</ele>
        <time>2015-06-05T14:42:23Z</time>
      </trkpt>
      <trkpt lat="42.4647" lon="2.17759">
        <ele>1807.9</ele>
        <time>2015-06-05T14:42:39Z</time>
      </trkpt>
      <trkpt lat="42.46485" lon="2.17766">
        <ele>1805.97</ele>
        <time>2015-06-05T14:42:54Z</time>
      </trkpt>
      <trkpt lat="42.46493" lon="2.17772">
        <ele>1804.05</ele>
        <time>2015-06-05T14:43:08Z</time>
      </trkpt>
      <trkpt lat="42.46502" lon="2.17773">
        <ele>1802.61</ele>
        <time>2015-06-05T14:43:24Z</time>
      </trkpt>
      <trkpt lat="42.46517" lon="2.17778">
        <ele>1801.65</ele>
        <time>2015-06-05T14:43:36Z</time>
      </trkpt>
      <trkpt lat="42.46531" lon="2.17783">
        <ele>1799.73</ele>
        <time>2015-06-05T14:43:50Z</time>
      </trkpt>
      <trkpt lat="42.4654" lon="2.1779">
        <ele>1798.76</ele>
        <time>2015-06-05T14:44:04Z</time>
      </trkpt>
      <trkpt lat="42.46558" lon="2.17796">
        <ele>1797.32</ele>
        <time>2015-06-05T14:44:19Z</time>
      </trkpt>
      <trkpt lat="42.46579" lon="2.17796">
        <ele>1795.88</ele>
        <time>2015-06-05T14:44:36Z</time>
      </trkpt>
      <trkpt lat="42.46602" lon="2.17807">
        <ele>1794.44</ele>
        <time>2015-06-05T14:44:50Z</time>
      </trkpt>
      <trkpt lat="42.46608" lon="2.17815">
        <ele>1793.48</ele>
        <time>2015-06-05T14:44:59Z</time>
      </trkpt>
      <trkpt lat="42.46614" lon="2.17824">
        <ele>1791.55</ele>
        <time>2015-06-05T14:45:13Z</time>
      </trkpt>
      <trkpt lat="42.46622" lon="2.17821">
        <ele>1789.63</ele>
        <time>2015-06-05T14:45:30Z</time>
      </trkpt>
      <trkpt lat="42.46629" lon="2.17823">
        <ele>1788.19</ele>
        <time>2015-06-05T14:45:42Z</time>
      </trkpt>
      <trkpt lat="42.46645" lon="2.17832">
        <ele>1786.75</ele>
        <time>2015-06-05T14:45:57Z</time>
      </trkpt>
      <trkpt lat="42.46645" lon="2.17842">
        <ele>1785.31</ele>
        <time>2015-06-05T14:46:12Z</time>
      </trkpt>
      <trkpt lat="42.46656" lon="2.17845">
        <ele>1783.86</ele>
        <time>2015-06-05T14:46:27Z</time>
      </trkpt>
      <trkpt lat="42.46642" lon="2.17849">
        <ele>1781.94</ele>
        <time>2015-06-05T14:46:41Z</time>
      </trkpt>
      <trkpt lat="42.46624" lon="2.17855">
        <ele>1780.98</ele>
        <time>2015-06-05T14:46:53Z</time>
      </trkpt>
      <trkpt lat="42.4661" lon="2.17851">
        <ele>1779.54</ele>
        <time>2015-06-05T14:47:07Z</time>
      </trkpt>
      <trkpt lat="42.46603" lon="2.17842">
        <ele>1776.65</ele>
        <time>2015-06-05T14:47:23Z</time>
      </trkpt>
      <trkpt lat="42.46606" lon="2.17834">
        <ele>1774.25</ele>
        <time>2015-06-05T14:47:41Z</time>
      </trkpt>
      <trkpt lat="42.46596" lon="2.17833">
        <ele>1772.33</ele>
        <time>2015-06-05T14:47:59Z</time>
      </trkpt>
      <trkpt lat="42.46516" lon="2.17803">
        <ele>1771.37</ele>
        <time>2015-06-05T14:48:15Z</time>
      </trkpt>
      <trkpt lat="42.46492" lon="2.17794">
        <ele>1769.92</ele>
        <time>2015-06-05T14:48:31Z</time>
      </trkpt>
      <trkpt lat="42.46522" lon="2.17805">
        <ele>1768.96</ele>
        <time>2015-06-05T14:48:48Z</time>
      </trkpt>
      <trkpt lat="42.46557" lon="2.17812">
        <ele>1768</ele>
        <time>2015-06-05T14:48:58Z</time>
      </trkpt>
      <trkpt lat="42.46589" lon="2.17814">
        <ele>1767.04</ele>
        <time>2015-06-05T14:49:08Z</time>
      </trkpt>
      <trkpt lat="42.46592" lon="2.17814">
        <ele>1767.04</ele>
        <time>2015-06-05T14:49:09Z</time>
      </trkpt>
      <trkpt lat="42.46619" lon="2.1782">
        <ele>1766.56</ele>
        <time>2015-06-05T14:49:19Z</time>
      </trkpt>
      <trkpt lat="42.46631" lon="2.1782">
        <ele>1765.6</ele>
        <time>2015-06-05T14:49:32Z</time>
      </trkpt>
      <trkpt lat="42.46649" lon="2.17821">
        <ele>1763.2</ele>
        <time>2015-06-05T14:49:47Z</time>
      </trkpt>
      <trkpt lat="42.46661" lon="2.17824">
        <ele>1762.23</ele>
        <time>2015-06-05T14:50:01Z</time>
      </trkpt>
      <trkpt lat="42.46671" lon="2.17833">
        <ele>1760.79</ele>
        <time>2015-06-05T14:50:16Z</time>
      </trkpt>
      <trkpt lat="42.46683" lon="2.17832">
        <ele>1760.79</ele>
        <time>2015-06-05T14:50:29Z</time>
      </trkpt>
      <trkpt lat="42.467" lon="2.17832">
        <ele>1760.79</ele>
        <time>2015-06-05T14:50:43Z</time>
      </trkpt>
      <trkpt lat="42.46704" lon="2.17827">
        <ele>1760.79</ele>
        <time>2015-06-05T14:50:51Z</time>
      </trkpt>
      <trkpt lat="42.46724" lon="2.17831">
        <ele>1760.31</ele>
        <time>2015-06-05T14:51:11Z</time>
      </trkpt>
      <trkpt lat="42.46752" lon="2.17828">
        <ele>1759.35</ele>
        <time>2015-06-05T14:51:28Z</time>
      </trkpt>
      <trkpt lat="42.46764" lon="2.17827">
        <ele>1758.87</ele>
        <time>2015-06-05T14:51:40Z</time>
      </trkpt>
      <trkpt lat="42.46767" lon="2.17828">
        <ele>1758.39</ele>
        <time>2015-06-05T14:51:41Z</time>
      </trkpt>
      <trkpt lat="42.46774" lon="2.17829">
        <ele>1758.39</ele>
        <time>2015-06-05T14:51:44Z</time>
      </trkpt>
      <trkpt lat="42.46798" lon="2.17834">
        <ele>1755.99</ele>
        <time>2015-06-05T14:51:59Z</time>
      </trkpt>
      <trkpt lat="42.4681" lon="2.17833">
        <ele>1754.06</ele>
        <time>2015-06-05T14:52:16Z</time>
      </trkpt>
      <trkpt lat="42.46833" lon="2.17844">
        <ele>1751.18</ele>
        <time>2015-06-05T14:52:30Z</time>
      </trkpt>
      <trkpt lat="42.46836" lon="2.17854">
        <ele>1749.26</ele>
        <time>2015-06-05T14:52:43Z</time>
      </trkpt>
      <trkpt lat="42.46845" lon="2.17868">
        <ele>1747.81</ele>
        <time>2015-06-05T14:52:56Z</time>
      </trkpt>
      <trkpt lat="42.46855" lon="2.17883">
        <ele>1744.93</ele>
        <time>2015-06-05T14:53:11Z</time>
      </trkpt>
      <trkpt lat="42.46857" lon="2.17888">
        <ele>1743.01</ele>
        <time>2015-06-05T14:53:25Z</time>
      </trkpt>
      <trkpt lat="42.46864" lon="2.17888">
        <ele>1740.6</ele>
        <time>2015-06-05T14:53:41Z</time>
      </trkpt>
      <trkpt lat="42.46864" lon="2.17889">
        <ele>1739.16</ele>
        <time>2015-06-05T14:53:52Z</time>
      </trkpt>
      <trkpt lat="42.46867" lon="2.1789">
        <ele>1739.16</ele>
        <time>2015-06-05T14:53:55Z</time>
      </trkpt>
      <trkpt lat="42.46883" lon="2.17894">
        <ele>1737.24</ele>
        <time>2015-06-05T14:54:09Z</time>
      </trkpt>
      <trkpt lat="42.46893" lon="2.17896">
        <ele>1735.32</ele>
        <time>2015-06-05T14:54:20Z</time>
      </trkpt>
      <trkpt lat="42.46904" lon="2.17901">
        <ele>1733.39</ele>
        <time>2015-06-05T14:54:34Z</time>
      </trkpt>
      <trkpt lat="42.46914" lon="2.17908">
        <ele>1731.47</ele>
        <time>2015-06-05T14:54:49Z</time>
      </trkpt>
      <trkpt lat="42.46932" lon="2.17915">
        <ele>1730.03</ele>
        <time>2015-06-05T14:55:02Z</time>
      </trkpt>
      <trkpt lat="42.46939" lon="2.17917">
        <ele>1728.59</ele>
        <time>2015-06-05T14:55:14Z</time>
      </trkpt>
      <trkpt lat="42.46955" lon="2.17923">
        <ele>1727.15</ele>
        <time>2015-06-05T14:55:28Z</time>
      </trkpt>
      <trkpt lat="42.46971" lon="2.17928">
        <ele>1725.22</ele>
        <time>2015-06-05T14:55:43Z</time>
      </trkpt>
      <trkpt lat="42.46991" lon="2.17935">
        <ele>1723.3</ele>
        <time>2015-06-05T14:55:57Z</time>
      </trkpt>
      <trkpt lat="42.47007" lon="2.17949">
        <ele>1721.38</ele>
        <time>2015-06-05T14:56:14Z</time>
      </trkpt>
      <trkpt lat="42.47013" lon="2.17952">
        <ele>1720.9</ele>
        <time>2015-06-05T14:56:20Z</time>
      </trkpt>
      <trkpt lat="42.47025" lon="2.17956">
        <ele>1719.46</ele>
        <time>2015-06-05T14:56:34Z</time>
      </trkpt>
      <trkpt lat="42.47022" lon="2.1796">
        <ele>1718.97</ele>
        <time>2015-06-05T14:56:40Z</time>
      </trkpt>
      <trkpt lat="42.47028" lon="2.17963">
        <ele>1718.97</ele>
        <time>2015-06-05T14:56:49Z</time>
      </trkpt>
      <trkpt lat="42.4703" lon="2.17966">
        <ele>1718.97</ele>
        <time>2015-06-05T14:56:52Z</time>
      </trkpt>
      <trkpt lat="42.47032" lon="2.17969">
        <ele>1718.49</ele>
        <time>2015-06-05T14:57:03Z</time>
      </trkpt>
      <trkpt lat="42.4704" lon="2.17972">
        <ele>1718.01</ele>
        <time>2015-06-05T14:57:15Z</time>
      </trkpt>
      <trkpt lat="42.47054" lon="2.17976">
        <ele>1718.01</ele>
        <time>2015-06-05T14:57:29Z</time>
      </trkpt>
      <trkpt lat="42.47057" lon="2.17979">
        <ele>1718.01</ele>
        <time>2015-06-05T14:57:32Z</time>
      </trkpt>
      <trkpt lat="42.4706" lon="2.17981">
        <ele>1718.01</ele>
        <time>2015-06-05T14:57:34Z</time>
      </trkpt>
      <trkpt lat="42.4707" lon="2.17983">
        <ele>1718.01</ele>
        <time>2015-06-05T14:57:40Z</time>
      </trkpt>
      <trkpt lat="42.47078" lon="2.17986">
        <ele>1718.01</ele>
        <time>2015-06-05T14:57:45Z</time>
      </trkpt>
      <trkpt lat="42.47088" lon="2.18001">
        <ele>1717.05</ele>
        <time>2015-06-05T14:57:57Z</time>
      </trkpt>
      <trkpt lat="42.47092" lon="2.18006">
        <ele>1717.05</ele>
        <time>2015-06-05T14:58:01Z</time>
      </trkpt>
      <trkpt lat="42.47094" lon="2.18012">
        <ele>1717.05</ele>
        <time>2015-06-05T14:58:06Z</time>
      </trkpt>
      <trkpt lat="42.47097" lon="2.18019">
        <ele>1717.05</ele>
        <time>2015-06-05T14:58:14Z</time>
      </trkpt>
      <trkpt lat="42.47101" lon="2.18022">
        <ele>1716.57</ele>
        <time>2015-06-05T14:58:20Z</time>
      </trkpt>
      <trkpt lat="42.47101" lon="2.18023">
        <ele>1716.57</ele>
        <time>2015-06-05T14:58:23Z</time>
      </trkpt>
      <trkpt lat="42.47099" lon="2.18016">
        <ele>1716.09</ele>
        <time>2015-06-05T14:58:38Z</time>
      </trkpt>
      <trkpt lat="42.471" lon="2.1802">
        <ele>1716.09</ele>
        <time>2015-06-05T14:58:54Z</time>
      </trkpt>
      <trkpt lat="42.47102" lon="2.18024">
        <ele>1717.05</ele>
        <time>2015-06-05T14:59:15Z</time>
      </trkpt>
      <trkpt lat="42.47101" lon="2.18019">
        <ele>1716.57</ele>
        <time>2015-06-05T14:59:43Z</time>
      </trkpt>
      <trkpt lat="42.47117" lon="2.18022">
        <ele>1716.57</ele>
        <time>2015-06-05T14:59:56Z</time>
      </trkpt>
      <trkpt lat="42.47122" lon="2.18016">
        <ele>1716.57</ele>
        <time>2015-06-05T15:00:11Z</time>
      </trkpt>
      <trkpt lat="42.4712" lon="2.18014">
        <ele>1716.57</ele>
        <time>2015-06-05T15:00:30Z</time>
      </trkpt>
      <trkpt lat="42.47127" lon="2.18015">
        <ele>1716.57</ele>
        <time>2015-06-05T15:00:39Z</time>
      </trkpt>
      <trkpt lat="42.47131" lon="2.18016">
        <ele>1716.57</ele>
        <time>2015-06-05T15:00:42Z</time>
      </trkpt>
      <trkpt lat="42.4714" lon="2.18012">
        <ele>1716.57</ele>
        <time>2015-06-05T15:00:54Z</time>
      </trkpt>
      <trkpt lat="42.47152" lon="2.18012">
        <ele>1716.57</ele>
        <time>2015-06-05T15:01:08Z</time>
      </trkpt>
      <trkpt lat="42.47158" lon="2.18013">
        <ele>1715.13</ele>
        <time>2015-06-05T15:01:19Z</time>
      </trkpt>
      <trkpt lat="42.47168" lon="2.18014">
        <ele>1714.65</ele>
        <time>2015-06-05T15:01:33Z</time>
      </trkpt>
      <trkpt lat="42.47172" lon="2.18015">
        <ele>1714.17</ele>
        <time>2015-06-05T15:01:37Z</time>
      </trkpt>
      <trkpt lat="42.47188" lon="2.18016">
        <ele>1714.17</ele>
        <time>2015-06-05T15:01:50Z</time>
      </trkpt>
      <trkpt lat="42.47196" lon="2.18023">
        <ele>1713.69</ele>
        <time>2015-06-05T15:02:03Z</time>
      </trkpt>
      <trkpt lat="42.47199" lon="2.18025">
        <ele>1713.21</ele>
        <time>2015-06-05T15:02:08Z</time>
      </trkpt>
      <trkpt lat="42.47217" lon="2.18034">
        <ele>1711.76</ele>
        <time>2015-06-05T15:02:21Z</time>
      </trkpt>
      <trkpt lat="42.4722" lon="2.18042">
        <ele>1710.8</ele>
        <time>2015-06-05T15:02:32Z</time>
      </trkpt>
      <trkpt lat="42.47225" lon="2.1805">
        <ele>1710.32</ele>
        <time>2015-06-05T15:02:42Z</time>
      </trkpt>
      <trkpt lat="42.47237" lon="2.1805">
        <ele>1709.36</ele>
        <time>2015-06-05T15:02:54Z</time>
      </trkpt>
      <trkpt lat="42.47249" lon="2.1805">
        <ele>1709.36</ele>
        <time>2015-06-05T15:03:06Z</time>
      </trkpt>
      <trkpt lat="42.47264" lon="2.18048">
        <ele>1707.92</ele>
        <time>2015-06-05T15:03:20Z</time>
      </trkpt>
      <trkpt lat="42.47266" lon="2.1805">
        <ele>1707.92</ele>
        <time>2015-06-05T15:03:22Z</time>
      </trkpt>
      <trkpt lat="42.47275" lon="2.18055">
        <ele>1706.96</ele>
        <time>2015-06-05T15:03:30Z</time>
      </trkpt>
      <trkpt lat="42.47289" lon="2.18063">
        <ele>1705.52</ele>
        <time>2015-06-05T15:03:46Z</time>
      </trkpt>
      <trkpt lat="42.4729" lon="2.18065">
        <ele>1705.52</ele>
        <time>2015-06-05T15:03:48Z</time>
      </trkpt>
      <trkpt lat="42.47305" lon="2.18075">
        <ele>1704.07</ele>
        <time>2015-06-05T15:04:03Z</time>
      </trkpt>
      <trkpt lat="42.47313" lon="2.18081">
        <ele>1703.11</ele>
        <time>2015-06-05T15:04:17Z</time>
      </trkpt>
      <trkpt lat="42.47331" lon="2.18089">
        <ele>1702.63</ele>
        <time>2015-06-05T15:04:36Z</time>
      </trkpt>
      <trkpt lat="42.47336" lon="2.18089">
        <ele>1702.15</ele>
        <time>2015-06-05T15:04:44Z</time>
      </trkpt>
      <trkpt lat="42.47344" lon="2.18091">
        <ele>1701.67</ele>
        <time>2015-06-05T15:04:55Z</time>
      </trkpt>
      <trkpt lat="42.47356" lon="2.18094">
        <ele>1700.71</ele>
        <time>2015-06-05T15:05:08Z</time>
      </trkpt>
      <trkpt lat="42.47377" lon="2.18105">
        <ele>1699.75</ele>
        <time>2015-06-05T15:05:27Z</time>
      </trkpt>
      <trkpt lat="42.47393" lon="2.18108">
        <ele>1699.27</ele>
        <time>2015-06-05T15:05:42Z</time>
      </trkpt>
      <trkpt lat="42.47405" lon="2.18105">
        <ele>1698.79</ele>
        <time>2015-06-05T15:05:56Z</time>
      </trkpt>
      <trkpt lat="42.4742" lon="2.18104">
        <ele>1698.31</ele>
        <time>2015-06-05T15:06:10Z</time>
      </trkpt>
      <trkpt lat="42.47432" lon="2.18102">
        <ele>1697.34</ele>
        <time>2015-06-05T15:06:23Z</time>
      </trkpt>
      <trkpt lat="42.4745" lon="2.18105">
        <ele>1695.9</ele>
        <time>2015-06-05T15:06:37Z</time>
      </trkpt>
      <trkpt lat="42.47451" lon="2.18105">
        <ele>1695.9</ele>
        <time>2015-06-05T15:06:39Z</time>
      </trkpt>
      <trkpt lat="42.47461" lon="2.18105">
        <ele>1694.94</ele>
        <time>2015-06-05T15:06:49Z</time>
      </trkpt>
      <trkpt lat="42.47471" lon="2.18101">
        <ele>1693.5</ele>
        <time>2015-06-05T15:07:03Z</time>
      </trkpt>
      <trkpt lat="42.47483" lon="2.181">
        <ele>1692.06</ele>
        <time>2015-06-05T15:07:17Z</time>
      </trkpt>
      <trkpt lat="42.47493" lon="2.181">
        <ele>1690.62</ele>
        <time>2015-06-05T15:07:30Z</time>
      </trkpt>
      <trkpt lat="42.47498" lon="2.181">
        <ele>1690.14</ele>
        <time>2015-06-05T15:07:35Z</time>
      </trkpt>
      <trkpt lat="42.47502" lon="2.181">
        <ele>1690.14</ele>
        <time>2015-06-05T15:07:37Z</time>
      </trkpt>
      <trkpt lat="42.47508" lon="2.18101">
        <ele>1689.17</ele>
        <time>2015-06-05T15:07:42Z</time>
      </trkpt>
      <trkpt lat="42.47521" lon="2.18101">
        <ele>1688.69</ele>
        <time>2015-06-05T15:07:56Z</time>
      </trkpt>
      <trkpt lat="42.47533" lon="2.18106">
        <ele>1687.73</ele>
        <time>2015-06-05T15:08:17Z</time>
      </trkpt>
      <trkpt lat="42.4754" lon="2.18107">
        <ele>1686.77</ele>
        <time>2015-06-05T15:08:27Z</time>
      </trkpt>
      <trkpt lat="42.47554" lon="2.18111">
        <ele>1685.33</ele>
        <time>2015-06-05T15:08:40Z</time>
      </trkpt>
      <trkpt lat="42.47565" lon="2.1811">
        <ele>1684.37</ele>
        <time>2015-06-05T15:08:53Z</time>
      </trkpt>
      <trkpt lat="42.47569" lon="2.18108">
        <ele>1683.89</ele>
        <time>2015-06-05T15:09:00Z</time>
      </trkpt>
      <trkpt lat="42.47574" lon="2.18109">
        <ele>1682.93</ele>
        <time>2015-06-05T15:09:09Z</time>
      </trkpt>
      <trkpt lat="42.47584" lon="2.18106">
        <ele>1681.48</ele>
        <time>2015-06-05T15:09:23Z</time>
      </trkpt>
      <trkpt lat="42.47586" lon="2.18107">
        <ele>1681.48</ele>
        <time>2015-06-05T15:09:25Z</time>
      </trkpt>
      <trkpt lat="42.47595" lon="2.18107">
        <ele>1680.04</ele>
        <time>2015-06-05T15:09:36Z</time>
      </trkpt>
      <trkpt lat="42.47606" lon="2.18108">
        <ele>1679.08</ele>
        <time>2015-06-05T15:09:49Z</time>
      </trkpt>
      <trkpt lat="42.47615" lon="2.18105">
        <ele>1678.6</ele>
        <time>2015-06-05T15:10:00Z</time>
      </trkpt>
      <trkpt lat="42.47625" lon="2.18097">
        <ele>1677.64</ele>
        <time>2015-06-05T15:10:14Z</time>
      </trkpt>
      <trkpt lat="42.47631" lon="2.18097">
        <ele>1677.64</ele>
        <time>2015-06-05T15:10:17Z</time>
      </trkpt>
      <trkpt lat="42.47641" lon="2.18095">
        <ele>1677.64</ele>
        <time>2015-06-05T15:10:28Z</time>
      </trkpt>
      <trkpt lat="42.47649" lon="2.18093">
        <ele>1676.2</ele>
        <time>2015-06-05T15:10:41Z</time>
      </trkpt>
      <trkpt lat="42.4766" lon="2.18091">
        <ele>1674.27</ele>
        <time>2015-06-05T15:10:53Z</time>
      </trkpt>
      <trkpt lat="42.47671" lon="2.18087">
        <ele>1672.35</ele>
        <time>2015-06-05T15:11:06Z</time>
      </trkpt>
      <trkpt lat="42.47688" lon="2.18081">
        <ele>1669.95</ele>
        <time>2015-06-05T15:11:22Z</time>
      </trkpt>
      <trkpt lat="42.47692" lon="2.18076">
        <ele>1668.02</ele>
        <time>2015-06-05T15:11:34Z</time>
      </trkpt>
      <trkpt lat="42.47709" lon="2.18078">
        <ele>1665.62</ele>
        <time>2015-06-05T15:11:52Z</time>
      </trkpt>
      <trkpt lat="42.47724" lon="2.18078">
        <ele>1663.7</ele>
        <time>2015-06-05T15:12:06Z</time>
      </trkpt>
      <trkpt lat="42.47741" lon="2.18071">
        <ele>1661.3</ele>
        <time>2015-06-05T15:12:21Z</time>
      </trkpt>
      <trkpt lat="42.47758" lon="2.18069">
        <ele>1659.37</ele>
        <time>2015-06-05T15:12:37Z</time>
      </trkpt>
      <trkpt lat="42.47772" lon="2.1807">
        <ele>1657.93</ele>
        <time>2015-06-05T15:12:51Z</time>
      </trkpt>
      <trkpt lat="42.47773" lon="2.18071">
        <ele>1657.93</ele>
        <time>2015-06-05T15:12:52Z</time>
      </trkpt>
      <trkpt lat="42.4779" lon="2.1808">
        <ele>1656.49</ele>
        <time>2015-06-05T15:13:06Z</time>
      </trkpt>
      <trkpt lat="42.47801" lon="2.18083">
        <ele>1656.01</ele>
        <time>2015-06-05T15:13:24Z</time>
      </trkpt>
      <trkpt lat="42.47802" lon="2.18082">
        <ele>1655.05</ele>
        <time>2015-06-05T15:13:39Z</time>
      </trkpt>
      <trkpt lat="42.47805" lon="2.18071">
        <ele>1654.09</ele>
        <time>2015-06-05T15:13:49Z</time>
      </trkpt>
      <trkpt lat="42.47801" lon="2.18063">
        <ele>1653.6</ele>
        <time>2015-06-05T15:13:56Z</time>
      </trkpt>
      <trkpt lat="42.478" lon="2.18062">
        <ele>1653.6</ele>
        <time>2015-06-05T15:13:57Z</time>
      </trkpt>
      <trkpt lat="42.47791" lon="2.18047">
        <ele>1651.68</ele>
        <time>2015-06-05T15:14:13Z</time>
      </trkpt>
      <trkpt lat="42.4779" lon="2.18046">
        <ele>1651.68</ele>
        <time>2015-06-05T15:14:14Z</time>
      </trkpt>
      <trkpt lat="42.47781" lon="2.18035">
        <ele>1650.24</ele>
        <time>2015-06-05T15:14:30Z</time>
      </trkpt>
      <trkpt lat="42.47766" lon="2.18029">
        <ele>1649.28</ele>
        <time>2015-06-05T15:14:45Z</time>
      </trkpt>
      <trkpt lat="42.47749" lon="2.1803">
        <ele>1647.84</ele>
        <time>2015-06-05T15:15:02Z</time>
      </trkpt>
      <trkpt lat="42.47728" lon="2.18034">
        <ele>1645.91</ele>
        <time>2015-06-05T15:15:21Z</time>
      </trkpt>
      <trkpt lat="42.47723" lon="2.18036">
        <ele>1644.95</ele>
        <time>2015-06-05T15:15:29Z</time>
      </trkpt>
      <trkpt lat="42.47722" lon="2.18036">
        <ele>1644.95</ele>
        <time>2015-06-05T15:15:30Z</time>
      </trkpt>
      <trkpt lat="42.47704" lon="2.18039">
        <ele>1643.99</ele>
        <time>2015-06-05T15:15:46Z</time>
      </trkpt>
      <trkpt lat="42.47704" lon="2.1804">
        <ele>1643.99</ele>
        <time>2015-06-05T15:15:47Z</time>
      </trkpt>
      <trkpt lat="42.47702" lon="2.1804">
        <ele>1643.99</ele>
        <time>2015-06-05T15:15:48Z</time>
      </trkpt>
      <trkpt lat="42.47685" lon="2.18041">
        <ele>1642.07</ele>
        <time>2015-06-05T15:16:05Z</time>
      </trkpt>
      <trkpt lat="42.47667" lon="2.18042">
        <ele>1641.59</ele>
        <time>2015-06-05T15:16:19Z</time>
      </trkpt>
      <trkpt lat="42.47659" lon="2.18043">
        <ele>1640.15</ele>
        <time>2015-06-05T15:16:33Z</time>
      </trkpt>
      <trkpt lat="42.47654" lon="2.18041">
        <ele>1639.67</ele>
        <time>2015-06-05T15:16:41Z</time>
      </trkpt>
      <trkpt lat="42.47653" lon="2.18041">
        <ele>1639.67</ele>
        <time>2015-06-05T15:16:42Z</time>
      </trkpt>
      <trkpt lat="42.47652" lon="2.18041">
        <ele>1639.67</ele>
        <time>2015-06-05T15:16:43Z</time>
      </trkpt>
      <trkpt lat="42.47636" lon="2.18038">
        <ele>1638.22</ele>
        <time>2015-06-05T15:16:58Z</time>
      </trkpt>
      <trkpt lat="42.47619" lon="2.18031">
        <ele>1636.78</ele>
        <time>2015-06-05T15:17:14Z</time>
      </trkpt>
      <trkpt lat="42.47611" lon="2.18023">
        <ele>1635.34</ele>
        <time>2015-06-05T15:17:26Z</time>
      </trkpt>
      <trkpt lat="42.47608" lon="2.18022">
        <ele>1634.86</ele>
        <time>2015-06-05T15:17:29Z</time>
      </trkpt>
      <trkpt lat="42.47593" lon="2.18021">
        <ele>1633.42</ele>
        <time>2015-06-05T15:17:40Z</time>
      </trkpt>
      <trkpt lat="42.47584" lon="2.1802">
        <ele>1631.98</ele>
        <time>2015-06-05T15:17:49Z</time>
      </trkpt>
      <trkpt lat="42.47567" lon="2.18018">
        <ele>1630.53</ele>
        <time>2015-06-05T15:18:05Z</time>
      </trkpt>
      <trkpt lat="42.47565" lon="2.18018">
        <ele>1630.05</ele>
        <time>2015-06-05T15:18:06Z</time>
      </trkpt>
      <trkpt lat="42.47545" lon="2.18013">
        <ele>1628.13</ele>
        <time>2015-06-05T15:18:27Z</time>
      </trkpt>
      <trkpt lat="42.47526" lon="2.18009">
        <ele>1625.73</ele>
        <time>2015-06-05T15:18:47Z</time>
      </trkpt>
      <trkpt lat="42.47516" lon="2.18009">
        <ele>1623.8</ele>
        <time>2015-06-05T15:19:00Z</time>
      </trkpt>
      <trkpt lat="42.47502" lon="2.18008">
        <ele>1622.36</ele>
        <time>2015-06-05T15:19:18Z</time>
      </trkpt>
      <trkpt lat="42.47492" lon="2.18005">
        <ele>1621.88</ele>
        <time>2015-06-05T15:19:33Z</time>
      </trkpt>
      <trkpt lat="42.47503" lon="2.18">
        <ele>1621.4</ele>
        <time>2015-06-05T15:19:49Z</time>
      </trkpt>
      <trkpt lat="42.47502" lon="2.18">
        <ele>1621.4</ele>
        <time>2015-06-05T15:19:57Z</time>
      </trkpt>
      <trkpt lat="42.47512" lon="2.17997">
        <ele>1620.44</ele>
        <time>2015-06-05T15:20:13Z</time>
      </trkpt>
      <trkpt lat="42.47513" lon="2.18">
        <ele>1619.96</ele>
        <time>2015-06-05T15:20:36Z</time>
      </trkpt>
      <trkpt lat="42.47514" lon="2.17997">
        <ele>1619.48</ele>
        <time>2015-06-05T15:21:01Z</time>
      </trkpt>
      <trkpt lat="42.47515" lon="2.17993">
        <ele>1619</ele>
        <time>2015-06-05T15:21:28Z</time>
      </trkpt>
      <trkpt lat="42.47521" lon="2.17996">
        <ele>1618.52</ele>
        <time>2015-06-05T15:21:49Z</time>
      </trkpt>
      <trkpt lat="42.47512" lon="2.17995">
        <ele>1618.52</ele>
        <time>2015-06-05T15:22:05Z</time>
      </trkpt>
      <trkpt lat="42.47514" lon="2.17994">
        <ele>1618.52</ele>
        <time>2015-06-05T15:22:26Z</time>
      </trkpt>
      <trkpt lat="42.47516" lon="2.17994">
        <ele>1618.52</ele>
        <time>2015-06-05T15:22:48Z</time>
      </trkpt>
      <trkpt lat="42.47513" lon="2.17991">
        <ele>1618.52</ele>
        <time>2015-06-05T15:23:11Z</time>
      </trkpt>
      <trkpt lat="42.47515" lon="2.17996">
        <ele>1618.52</ele>
        <time>2015-06-05T15:23:37Z</time>
      </trkpt>
      <trkpt lat="42.47522" lon="2.17987">
        <ele>1618.52</ele>
        <time>2015-06-05T15:24:00Z</time>
      </trkpt>
      <trkpt lat="42.47523" lon="2.17986">
        <ele>1619.96</ele>
        <time>2015-06-05T15:24:04Z</time>
      </trkpt>
    </trkseg>
  </trk>
</gpx>